<?xml version='1.0' encoding='UTF-8'?><gpx version="1.1" creator="JPX - https://github.com/jenetics/jpx" xmlns="http://www.topografix.com/GPX/1/1"><trk><trkseg><trkpt lat="40.8946533" lon="14.2869433"><ele>79.0</ele><time>2026-03-25T12:10:02.631Z</time></trkpt><trkpt lat="40.8942567" lon="14.2871683"><ele>79.0</ele><time>2026-03-25T12:10:04.632Z</time></trkpt><trkpt lat="40.89412" lon="14.2873667"><ele>79.33333333333333</ele><time>2026-03-25T12:10:05.632Z</time></trkpt><trkpt lat="40.89419" lon="14.2871817"><ele>79.66666666666667</ele><time>2026-03-25T12:10:07.634Z</time></trkpt><trkpt lat="40.8941617" lon="14.2873233"><ele>80.0</ele><time>2026-03-25T12:10:08.633Z</time></trkpt><trkpt lat="40.894015" lon="14.287525"><ele>80.0</ele><time>2026-03-25T12:10:10.632Z</time></trkpt><trkpt lat="40.8939683" lon="14.2875967"><ele>80.0</ele><time>2026-03-25T12:10:12.129Z</time></trkpt><trkpt lat="40.8939017" lon="14.2876433"><ele>80.0</ele><time>2026-03-25T12:10:13.13Z</time></trkpt><trkpt lat="40.8938867" lon="14.2875317"><ele>80.0</ele><time>2026-03-25T12:10:17.13Z</time></trkpt><trkpt lat="40.893885" lon="14.2874333"><ele>80.0</ele><time>2026-03-25T12:10:20.132Z</time></trkpt><trkpt lat="40.8938533" lon="14.287325"><ele>80.0</ele><time>2026-03-25T12:10:23.131Z</time></trkpt><trkpt lat="40.8938283" lon="14.2872467"><ele>80.0</ele><time>2026-03-25T12:10:25.132Z</time></trkpt><trkpt lat="40.8938" lon="14.2871433"><ele>80.0</ele><time>2026-03-25T12:10:28.13Z</time></trkpt><trkpt lat="40.8937667" lon="14.2870317"><ele>80.0</ele><time>2026-03-25T12:10:31.129Z</time></trkpt><trkpt lat="40.8937233" lon="14.286925"><ele>80.0</ele><time>2026-03-25T12:10:34.13Z</time></trkpt><trkpt lat="40.8937067" lon="14.28684"><ele>80.0</ele><time>2026-03-25T12:10:36.13Z</time></trkpt><trkpt lat="40.8936867" lon="14.286735"><ele>80.0</ele><time>2026-03-25T12:10:38.129Z</time></trkpt><trkpt lat="40.8936517" lon="14.2866433"><ele>80.0</ele><time>2026-03-25T12:10:40.133Z</time></trkpt><trkpt lat="40.8936183" lon="14.2865533"><ele>80.0</ele><time>2026-03-25T12:10:42.13Z</time></trkpt><trkpt lat="40.8935883" lon="14.2864633"><ele>80.0</ele><time>2026-03-25T12:10:44.13Z</time></trkpt><trkpt lat="40.893565" lon="14.2863717"><ele>80.0</ele><time>2026-03-25T12:10:46.129Z</time></trkpt><trkpt lat="40.893535" lon="14.2862933"><ele>80.0</ele><time>2026-03-25T12:10:48.13Z</time></trkpt><trkpt lat="40.8935067" lon="14.2862133"><ele>80.0</ele><time>2026-03-25T12:10:50.132Z</time></trkpt><trkpt lat="40.89348" lon="14.2861267"><ele>80.0</ele><time>2026-03-25T12:10:52.132Z</time></trkpt><trkpt lat="40.893485" lon="14.2860367"><ele>80.14285714285714</ele><time>2026-03-25T12:10:54.13Z</time></trkpt><trkpt lat="40.8935583" lon="14.2859917"><ele>80.28571428571429</ele><time>2026-03-25T12:10:57.13Z</time></trkpt><trkpt lat="40.8936233" lon="14.28598"><ele>80.42857142857143</ele><time>2026-03-25T12:10:59.129Z</time></trkpt><trkpt lat="40.8936883" lon="14.2859917"><ele>80.57142857142857</ele><time>2026-03-25T12:11:01.13Z</time></trkpt><trkpt lat="40.8937717" lon="14.286"><ele>80.71428571428571</ele><time>2026-03-25T12:11:04.131Z</time></trkpt><trkpt lat="40.8938367" lon="14.2859933"><ele>80.85714285714286</ele><time>2026-03-25T12:11:06.13Z</time></trkpt><trkpt lat="40.8939067" lon="14.2859883"><ele>81.0</ele><time>2026-03-25T12:11:08.132Z</time></trkpt><trkpt lat="40.8939783" lon="14.2859917"><ele>81.0</ele><time>2026-03-25T12:11:10.133Z</time></trkpt><trkpt lat="40.89405" lon="14.2860033"><ele>81.0</ele><time>2026-03-25T12:11:12.13Z</time></trkpt><trkpt lat="40.89411" lon="14.2860483"><ele>81.0</ele><time>2026-03-25T12:11:14.131Z</time></trkpt><trkpt lat="40.894205" lon="14.2860717"><ele>81.0</ele><time>2026-03-25T12:11:16.131Z</time></trkpt><trkpt lat="40.894305" lon="14.28608"><ele>81.0</ele><time>2026-03-25T12:11:19.131Z</time></trkpt><trkpt lat="40.8944033" lon="14.286105"><ele>81.0</ele><time>2026-03-25T12:11:21.133Z</time></trkpt><trkpt lat="40.89451" lon="14.28613"><ele>80.8</ele><time>2026-03-25T12:11:23.13Z</time></trkpt><trkpt lat="40.8946117" lon="14.2861617"><ele>80.6</ele><time>2026-03-25T12:11:25.132Z</time></trkpt><trkpt lat="40.894715" lon="14.28619"><ele>80.4</ele><time>2026-03-25T12:11:27.131Z</time></trkpt><trkpt lat="40.8947867" lon="14.286205"><ele>80.2</ele><time>2026-03-25T12:11:29.131Z</time></trkpt><trkpt lat="40.89487" lon="14.28621"><ele>80.0</ele><time>2026-03-25T12:11:31.13Z</time></trkpt><trkpt lat="40.8949583" lon="14.2862433"><ele>80.0</ele><time>2026-03-25T12:11:33.13Z</time></trkpt><trkpt lat="40.8950583" lon="14.286305"><ele>80.0</ele><time>2026-03-25T12:11:35.131Z</time></trkpt><trkpt lat="40.8951733" lon="14.28631"><ele>80.0</ele><time>2026-03-25T12:11:37.131Z</time></trkpt><trkpt lat="40.8952383" lon="14.2863083"><ele>80.0</ele><time>2026-03-25T12:11:38.129Z</time></trkpt><trkpt lat="40.8953033" lon="14.28631"><ele>80.0</ele><time>2026-03-25T12:11:39.132Z</time></trkpt><trkpt lat="40.8954183" lon="14.28631"><ele>80.0</ele><time>2026-03-25T12:11:41.132Z</time></trkpt><trkpt lat="40.8955267" lon="14.2863117"><ele>80.0</ele><time>2026-03-25T12:11:43.131Z</time></trkpt><trkpt lat="40.895635" lon="14.2863083"><ele>80.0</ele><time>2026-03-25T12:11:45.13Z</time></trkpt><trkpt lat="40.8957333" lon="14.286315"><ele>80.0</ele><time>2026-03-25T12:11:47.13Z</time></trkpt><trkpt lat="40.8958367" lon="14.2863267"><ele>80.0</ele><time>2026-03-25T12:11:49.131Z</time></trkpt><trkpt lat="40.8959333" lon="14.286345"><ele>80.0</ele><time>2026-03-25T12:11:51.13Z</time></trkpt><trkpt lat="40.896035" lon="14.2863667"><ele>80.0</ele><time>2026-03-25T12:11:53.131Z</time></trkpt><trkpt lat="40.89614" lon="14.286375"><ele>80.0</ele><time>2026-03-25T12:11:55.13Z</time></trkpt><trkpt lat="40.8962517" lon="14.286395"><ele>80.0</ele><time>2026-03-25T12:11:57.131Z</time></trkpt><trkpt lat="40.89636" lon="14.2864183"><ele>80.0</ele><time>2026-03-25T12:11:59.13Z</time></trkpt><trkpt lat="40.89646" lon="14.2864433"><ele>80.0</ele><time>2026-03-25T12:12:01.13Z</time></trkpt><trkpt lat="40.8965567" lon="14.2864683"><ele>80.0</ele><time>2026-03-25T12:12:03.132Z</time></trkpt><trkpt lat="40.8966483" lon="14.286445"><ele>80.0</ele><time>2026-03-25T12:12:05.131Z</time></trkpt><trkpt lat="40.8967183" lon="14.2863933"><ele>80.0</ele><time>2026-03-25T12:12:07.132Z</time></trkpt><trkpt lat="40.8967867" lon="14.2863267"><ele>80.0</ele><time>2026-03-25T12:12:09.13Z</time></trkpt><trkpt lat="40.896855" lon="14.2862633"><ele>80.0</ele><time>2026-03-25T12:12:11.131Z</time></trkpt><trkpt lat="40.89692" lon="14.2861967"><ele>80.33333333333334</ele><time>2026-03-25T12:12:13.13Z</time></trkpt><trkpt lat="40.8969617" lon="14.2861033"><ele>80.66666666666667</ele><time>2026-03-25T12:12:15.13Z</time></trkpt><trkpt lat="40.896995" lon="14.2859933"><ele>81.0</ele><time>2026-03-25T12:12:17.131Z</time></trkpt><trkpt lat="40.8970467" lon="14.2858967"><ele>81.33333333333333</ele><time>2026-03-25T12:12:19.131Z</time></trkpt><trkpt lat="40.897105" lon="14.28581"><ele>81.66666666666666</ele><time>2026-03-25T12:12:21.129Z</time></trkpt><trkpt lat="40.8971567" lon="14.28573"><ele>82.0</ele><time>2026-03-25T12:12:23.13Z</time></trkpt><trkpt lat="40.8972117" lon="14.2856483"><ele>81.8</ele><time>2026-03-25T12:12:25.131Z</time></trkpt><trkpt lat="40.897265" lon="14.2855617"><ele>81.6</ele><time>2026-03-25T12:12:27.129Z</time></trkpt><trkpt lat="40.89733" lon="14.28548"><ele>81.39999999999999</ele><time>2026-03-25T12:12:29.131Z</time></trkpt><trkpt lat="40.8973983" lon="14.285385"><ele>81.19999999999999</ele><time>2026-03-25T12:12:31.131Z</time></trkpt><trkpt lat="40.8974733" lon="14.2852917"><ele>81.0</ele><time>2026-03-25T12:12:33.13Z</time></trkpt><trkpt lat="40.8975433" lon="14.2852033"><ele>80.8</ele><time>2026-03-25T12:12:35.131Z</time></trkpt><trkpt lat="40.8976083" lon="14.2851117"><ele>80.6</ele><time>2026-03-25T12:12:37.131Z</time></trkpt><trkpt lat="40.8976683" lon="14.2850183"><ele>80.4</ele><time>2026-03-25T12:12:39.13Z</time></trkpt><trkpt lat="40.8977267" lon="14.2849233"><ele>80.2</ele><time>2026-03-25T12:12:41.132Z</time></trkpt><trkpt lat="40.89779" lon="14.284825"><ele>80.0</ele><time>2026-03-25T12:12:43.131Z</time></trkpt><trkpt lat="40.8978617" lon="14.28473"><ele>79.66666666666667</ele><time>2026-03-25T12:12:45.13Z</time></trkpt><trkpt lat="40.8979417" lon="14.284645"><ele>79.33333333333334</ele><time>2026-03-25T12:12:47.129Z</time></trkpt><trkpt lat="40.89801" lon="14.2845633"><ele>79.0</ele><time>2026-03-25T12:12:49.133Z</time></trkpt><trkpt lat="40.898055" lon="14.2844783"><ele>78.66666666666667</ele><time>2026-03-25T12:12:51.13Z</time></trkpt><trkpt lat="40.8981333" lon="14.284485"><ele>78.33333333333333</ele><time>2026-03-25T12:12:55.132Z</time></trkpt><trkpt lat="40.8981883" lon="14.2845367"><ele>78.0</ele><time>2026-03-25T12:12:57.13Z</time></trkpt><trkpt lat="40.89825" lon="14.284605"><ele>78.0</ele><time>2026-03-25T12:12:59.13Z</time></trkpt><trkpt lat="40.8983117" lon="14.2846817"><ele>78.0</ele><time>2026-03-25T12:13:01.131Z</time></trkpt><trkpt lat="40.89837" lon="14.28476"><ele>78.0</ele><time>2026-03-25T12:13:03.13Z</time></trkpt><trkpt lat="40.8984283" lon="14.2848467"><ele>78.0</ele><time>2026-03-25T12:13:05.132Z</time></trkpt><trkpt lat="40.8984833" lon="14.2849333"><ele>78.0</ele><time>2026-03-25T12:13:07.133Z</time></trkpt><trkpt lat="40.8985333" lon="14.2849983"><ele>78.0</ele><time>2026-03-25T12:13:09.13Z</time></trkpt><trkpt lat="40.8985983" lon="14.285015"><ele>78.83333333333333</ele><time>2026-03-25T12:13:11.131Z</time></trkpt><trkpt lat="40.8986517" lon="14.2850633"><ele>79.66666666666667</ele><time>2026-03-25T12:13:16.13Z</time></trkpt><trkpt lat="40.8987117" lon="14.2851383"><ele>80.5</ele><time>2026-03-25T12:13:20.131Z</time></trkpt><trkpt lat="40.89878" lon="14.2851933"><ele>81.33333333333334</ele><time>2026-03-25T12:13:23.13Z</time></trkpt><trkpt lat="40.8988517" lon="14.2852583"><ele>82.16666666666667</ele><time>2026-03-25T12:13:26.13Z</time></trkpt><trkpt lat="40.8989133" lon="14.2853033"><ele>83.0</ele><time>2026-03-25T12:13:31.131Z</time></trkpt><trkpt lat="40.898975" lon="14.28534"><ele>83.0</ele><time>2026-03-25T12:13:35.131Z</time></trkpt><trkpt lat="40.8990283" lon="14.2853917"><ele>83.0</ele><time>2026-03-25T12:13:38.13Z</time></trkpt><trkpt lat="40.8991033" lon="14.28547"><ele>83.0</ele><time>2026-03-25T12:13:41.132Z</time></trkpt><trkpt lat="40.8991683" lon="14.28552"><ele>83.0</ele><time>2026-03-25T12:13:43.132Z</time></trkpt><trkpt lat="40.8992283" lon="14.2855767"><ele>83.0</ele><time>2026-03-25T12:13:45.134Z</time></trkpt><trkpt lat="40.8993217" lon="14.2856283"><ele>83.0</ele><time>2026-03-25T12:13:48.13Z</time></trkpt><trkpt lat="40.8993983" lon="14.2856483"><ele>83.16666666666667</ele><time>2026-03-25T12:13:50.13Z</time></trkpt><trkpt lat="40.89947" lon="14.285685"><ele>83.33333333333334</ele><time>2026-03-25T12:13:52.13Z</time></trkpt><trkpt lat="40.8995533" lon="14.2857133"><ele>83.5</ele><time>2026-03-25T12:13:54.13Z</time></trkpt><trkpt lat="40.8996383" lon="14.28574"><ele>83.66666666666667</ele><time>2026-03-25T12:13:56.13Z</time></trkpt><trkpt lat="40.8997133" lon="14.2857733"><ele>83.83333333333333</ele><time>2026-03-25T12:13:58.128Z</time></trkpt><trkpt lat="40.8997867" lon="14.285785"><ele>84.0</ele><time>2026-03-25T12:14:00.129Z</time></trkpt><trkpt lat="40.8998583" lon="14.2857967"><ele>84.0</ele><time>2026-03-25T12:14:02.13Z</time></trkpt><trkpt lat="40.8999433" lon="14.2858117"><ele>84.0</ele><time>2026-03-25T12:14:05.13Z</time></trkpt><trkpt lat="40.9000367" lon="14.2858283"><ele>84.0</ele><time>2026-03-25T12:14:08.131Z</time></trkpt><trkpt lat="40.9001217" lon="14.2858583"><ele>84.0</ele><time>2026-03-25T12:14:10.132Z</time></trkpt><trkpt lat="40.9002167" lon="14.2858883"><ele>84.0</ele><time>2026-03-25T12:14:12.131Z</time></trkpt><trkpt lat="40.90031" lon="14.28592"><ele>84.33333333333333</ele><time>2026-03-25T12:14:14.129Z</time></trkpt><trkpt lat="40.9003983" lon="14.2859333"><ele>84.66666666666667</ele><time>2026-03-25T12:14:16.13Z</time></trkpt><trkpt lat="40.900485" lon="14.2859583"><ele>85.0</ele><time>2026-03-25T12:14:18.13Z</time></trkpt><trkpt lat="40.9005667" lon="14.2859567"><ele>85.33333333333334</ele><time>2026-03-25T12:14:20.131Z</time></trkpt><trkpt lat="40.9006533" lon="14.2859833"><ele>85.66666666666667</ele><time>2026-03-25T12:14:22.13Z</time></trkpt><trkpt lat="40.90074" lon="14.2859867"><ele>86.0</ele><time>2026-03-25T12:14:24.13Z</time></trkpt><trkpt lat="40.900815" lon="14.2859917"><ele>86.0</ele><time>2026-03-25T12:14:26.13Z</time></trkpt><trkpt lat="40.90089" lon="14.2859783"><ele>86.0</ele><time>2026-03-25T12:14:28.132Z</time></trkpt><trkpt lat="40.9009717" lon="14.2859567"><ele>86.0</ele><time>2026-03-25T12:14:30.131Z</time></trkpt><trkpt lat="40.90106" lon="14.285935"><ele>86.0</ele><time>2026-03-25T12:14:32.131Z</time></trkpt><trkpt lat="40.9011533" lon="14.2859083"><ele>86.0</ele><time>2026-03-25T12:14:34.131Z</time></trkpt><trkpt lat="40.9012367" lon="14.2858917"><ele>86.0</ele><time>2026-03-25T12:14:36.13Z</time></trkpt><trkpt lat="40.9013183" lon="14.2858617"><ele>86.0</ele><time>2026-03-25T12:14:38.13Z</time></trkpt><trkpt lat="40.9014033" lon="14.2858117"><ele>86.0</ele><time>2026-03-25T12:14:40.131Z</time></trkpt><trkpt lat="40.9014867" lon="14.285765"><ele>86.0</ele><time>2026-03-25T12:14:42.129Z</time></trkpt><trkpt lat="40.9015667" lon="14.285725"><ele>86.0</ele><time>2026-03-25T12:14:44.129Z</time></trkpt><trkpt lat="40.9016583" lon="14.2856967"><ele>86.0</ele><time>2026-03-25T12:14:46.13Z</time></trkpt><trkpt lat="40.90175" lon="14.2856617"><ele>86.0</ele><time>2026-03-25T12:14:48.131Z</time></trkpt><trkpt lat="40.9018483" lon="14.2856433"><ele>86.0</ele><time>2026-03-25T12:14:50.132Z</time></trkpt><trkpt lat="40.901945" lon="14.285625"><ele>86.0</ele><time>2026-03-25T12:14:52.131Z</time></trkpt><trkpt lat="40.9020433" lon="14.2856117"><ele>86.0</ele><time>2026-03-25T12:14:54.131Z</time></trkpt><trkpt lat="40.9021333" lon="14.2856083"><ele>86.0</ele><time>2026-03-25T12:14:56.13Z</time></trkpt><trkpt lat="40.9022333" lon="14.2855817"><ele>85.6</ele><time>2026-03-25T12:14:58.13Z</time></trkpt><trkpt lat="40.9022933" lon="14.2855517"><ele>85.19999999999999</ele><time>2026-03-25T12:14:59.133Z</time></trkpt><trkpt lat="40.9023967" lon="14.2855233"><ele>84.80000000000001</ele><time>2026-03-25T12:15:01.131Z</time></trkpt><trkpt lat="40.902505" lon="14.2854967"><ele>84.4</ele><time>2026-03-25T12:15:03.13Z</time></trkpt><trkpt lat="40.9026117" lon="14.2854633"><ele>84.0</ele><time>2026-03-25T12:15:05.131Z</time></trkpt><trkpt lat="40.9026767" lon="14.2854417"><ele>84.0</ele><time>2026-03-25T12:15:06.131Z</time></trkpt><trkpt lat="40.90274" lon="14.285435"><ele>84.0</ele><time>2026-03-25T12:15:07.131Z</time></trkpt><trkpt lat="40.9028417" lon="14.28541"><ele>84.0</ele><time>2026-03-25T12:15:09.13Z</time></trkpt><trkpt lat="40.9029533" lon="14.285385"><ele>84.0</ele><time>2026-03-25T12:15:11.131Z</time></trkpt><trkpt lat="40.9030183" lon="14.285375"><ele>84.0</ele><time>2026-03-25T12:15:12.131Z</time></trkpt><trkpt lat="40.9031367" lon="14.2853517"><ele>84.0</ele><time>2026-03-25T12:15:14.131Z</time></trkpt><trkpt lat="40.9032533" lon="14.2853167"><ele>84.0</ele><time>2026-03-25T12:15:16.131Z</time></trkpt><trkpt lat="40.9033633" lon="14.285285"><ele>84.0</ele><time>2026-03-25T12:15:18.13Z</time></trkpt><trkpt lat="40.90347" lon="14.28526"><ele>84.0</ele><time>2026-03-25T12:15:20.131Z</time></trkpt><trkpt lat="40.9035767" lon="14.2852183"><ele>83.2</ele><time>2026-03-25T12:15:22.132Z</time></trkpt><trkpt lat="40.9036817" lon="14.2851817"><ele>82.4</ele><time>2026-03-25T12:15:24.131Z</time></trkpt><trkpt lat="40.9037833" lon="14.2851617"><ele>81.6</ele><time>2026-03-25T12:15:26.13Z</time></trkpt><trkpt lat="40.9038867" lon="14.28514"><ele>80.8</ele><time>2026-03-25T12:15:28.132Z</time></trkpt><trkpt lat="40.9039933" lon="14.2851317"><ele>80.0</ele><time>2026-03-25T12:15:30.131Z</time></trkpt><trkpt lat="40.9041017" lon="14.2851"><ele>80.0</ele><time>2026-03-25T12:15:32.13Z</time></trkpt><trkpt lat="40.9042033" lon="14.2850817"><ele>80.0</ele><time>2026-03-25T12:15:34.129Z</time></trkpt><trkpt lat="40.9043033" lon="14.2850517"><ele>80.0</ele><time>2026-03-25T12:15:36.13Z</time></trkpt><trkpt lat="40.9044067" lon="14.2850217"><ele>80.0</ele><time>2026-03-25T12:15:38.132Z</time></trkpt><trkpt lat="40.9044983" lon="14.2849967"><ele>80.0</ele><time>2026-03-25T12:15:40.131Z</time></trkpt><trkpt lat="40.9045717" lon="14.2849717"><ele>79.83333333333334</ele><time>2026-03-25T12:15:42.131Z</time></trkpt><trkpt lat="40.9046467" lon="14.2849517"><ele>79.66666666666667</ele><time>2026-03-25T12:15:44.13Z</time></trkpt><trkpt lat="40.9047117" lon="14.2849433"><ele>79.5</ele><time>2026-03-25T12:15:46.131Z</time></trkpt><trkpt lat="40.904785" lon="14.2849583"><ele>79.33333333333333</ele><time>2026-03-25T12:15:49.131Z</time></trkpt><trkpt lat="40.9048833" lon="14.2849267"><ele>79.16666666666666</ele><time>2026-03-25T12:15:52.13Z</time></trkpt><trkpt lat="40.9049517" lon="14.2849033"><ele>79.0</ele><time>2026-03-25T12:15:54.13Z</time></trkpt><trkpt lat="40.90504" lon="14.2848617"><ele>79.0</ele><time>2026-03-25T12:15:56.129Z</time></trkpt><trkpt lat="40.9051233" lon="14.2848317"><ele>79.0</ele><time>2026-03-25T12:15:58.129Z</time></trkpt><trkpt lat="40.905205" lon="14.2848067"><ele>79.0</ele><time>2026-03-25T12:16:00.13Z</time></trkpt><trkpt lat="40.9052867" lon="14.284785"><ele>79.0</ele><time>2026-03-25T12:16:02.13Z</time></trkpt><trkpt lat="40.9053717" lon="14.284755"><ele>79.0</ele><time>2026-03-25T12:16:04.13Z</time></trkpt><trkpt lat="40.9054567" lon="14.2847217"><ele>79.0</ele><time>2026-03-25T12:16:06.13Z</time></trkpt><trkpt lat="40.905545" lon="14.284695"><ele>79.0</ele><time>2026-03-25T12:16:08.13Z</time></trkpt><trkpt lat="40.9056467" lon="14.2846867"><ele>79.0</ele><time>2026-03-25T12:16:10.13Z</time></trkpt><trkpt lat="40.905755" lon="14.2846983"><ele>79.0</ele><time>2026-03-25T12:16:12.13Z</time></trkpt><trkpt lat="40.9058633" lon="14.2847167"><ele>79.0</ele><time>2026-03-25T12:16:14.13Z</time></trkpt><trkpt lat="40.9059767" lon="14.2847233"><ele>79.0</ele><time>2026-03-25T12:16:16.13Z</time></trkpt><trkpt lat="40.9060883" lon="14.2847583"><ele>78.75</ele><time>2026-03-25T12:16:18.129Z</time></trkpt><trkpt lat="40.9062017" lon="14.2847867"><ele>78.5</ele><time>2026-03-25T12:16:20.132Z</time></trkpt><trkpt lat="40.9063167" lon="14.28483"><ele>78.25</ele><time>2026-03-25T12:16:22.13Z</time></trkpt><trkpt lat="40.9064217" lon="14.28488"><ele>78.0</ele><time>2026-03-25T12:16:24.129Z</time></trkpt><trkpt lat="40.9065217" lon="14.2849417"><ele>78.0</ele><time>2026-03-25T12:16:26.131Z</time></trkpt><trkpt lat="40.90663" lon="14.2850117"><ele>78.0</ele><time>2026-03-25T12:16:28.129Z</time></trkpt><trkpt lat="40.9066883" lon="14.2850467"><ele>78.0</ele><time>2026-03-25T12:16:29.13Z</time></trkpt><trkpt lat="40.906795" lon="14.2851167"><ele>78.0</ele><time>2026-03-25T12:16:31.13Z</time></trkpt><trkpt lat="40.90685" lon="14.2851583"><ele>78.0</ele><time>2026-03-25T12:16:32.13Z</time></trkpt><trkpt lat="40.9069517" lon="14.28524"><ele>77.0</ele><time>2026-03-25T12:16:34.13Z</time></trkpt><trkpt lat="40.9070533" lon="14.28532"><ele>76.0</ele><time>2026-03-25T12:16:36.129Z</time></trkpt><trkpt lat="40.9071583" lon="14.2854017"><ele>75.0</ele><time>2026-03-25T12:16:38.13Z</time></trkpt><trkpt lat="40.9072617" lon="14.2854783"><ele>74.0</ele><time>2026-03-25T12:16:40.129Z</time></trkpt><trkpt lat="40.9073717" lon="14.2855533"><ele>73.66666666666667</ele><time>2026-03-25T12:16:42.129Z</time></trkpt><trkpt lat="40.90748" lon="14.2856417"><ele>73.33333333333334</ele><time>2026-03-25T12:16:44.13Z</time></trkpt><trkpt lat="40.9075367" lon="14.28569"><ele>73.0</ele><time>2026-03-25T12:16:45.13Z</time></trkpt><trkpt lat="40.907595" lon="14.28574"><ele>72.66666666666667</ele><time>2026-03-25T12:16:46.129Z</time></trkpt><trkpt lat="40.907655" lon="14.2857933"><ele>72.33333333333333</ele><time>2026-03-25T12:16:47.13Z</time></trkpt><trkpt lat="40.9077167" lon="14.2858467"><ele>72.0</ele><time>2026-03-25T12:16:48.13Z</time></trkpt><trkpt lat="40.90778" lon="14.2859"><ele>71.5</ele><time>2026-03-25T12:16:49.132Z</time></trkpt><trkpt lat="40.9078483" lon="14.2859533"><ele>71.0</ele><time>2026-03-25T12:16:50.13Z</time></trkpt><trkpt lat="40.9079183" lon="14.2860133"><ele>70.5</ele><time>2026-03-25T12:16:51.13Z</time></trkpt><trkpt lat="40.9079917" lon="14.28607"><ele>70.0</ele><time>2026-03-25T12:16:52.13Z</time></trkpt><trkpt lat="40.908065" lon="14.2861317"><ele>69.5</ele><time>2026-03-25T12:16:53.132Z</time></trkpt><trkpt lat="40.9081383" lon="14.2861917"><ele>69.0</ele><time>2026-03-25T12:16:54.133Z</time></trkpt><trkpt lat="40.90821" lon="14.2862533"><ele>69.0</ele><time>2026-03-25T12:16:55.13Z</time></trkpt><trkpt lat="40.908285" lon="14.286315"><ele>69.0</ele><time>2026-03-25T12:16:56.131Z</time></trkpt><trkpt lat="40.90836" lon="14.2863783"><ele>69.0</ele><time>2026-03-25T12:16:57.129Z</time></trkpt><trkpt lat="40.9084317" lon="14.2864383"><ele>69.0</ele><time>2026-03-25T12:16:58.129Z</time></trkpt><trkpt lat="40.9085067" lon="14.2865033"><ele>69.0</ele><time>2026-03-25T12:16:59.13Z</time></trkpt><trkpt lat="40.9085817" lon="14.2865667"><ele>69.0</ele><time>2026-03-25T12:17:00.129Z</time></trkpt><trkpt lat="40.9086617" lon="14.28663"><ele>69.2</ele><time>2026-03-25T12:17:01.13Z</time></trkpt><trkpt lat="40.908745" lon="14.2866933"><ele>69.4</ele><time>2026-03-25T12:17:02.128Z</time></trkpt><trkpt lat="40.9088233" lon="14.2867583"><ele>69.6</ele><time>2026-03-25T12:17:03.129Z</time></trkpt><trkpt lat="40.9088983" lon="14.2868233"><ele>69.8</ele><time>2026-03-25T12:17:04.129Z</time></trkpt><trkpt lat="40.9089767" lon="14.2868967"><ele>70.0</ele><time>2026-03-25T12:17:05.13Z</time></trkpt><trkpt lat="40.9090533" lon="14.2869633"><ele>70.0</ele><time>2026-03-25T12:17:06.129Z</time></trkpt><trkpt lat="40.90913" lon="14.2870233"><ele>70.0</ele><time>2026-03-25T12:17:07.13Z</time></trkpt><trkpt lat="40.9092067" lon="14.2870833"><ele>70.0</ele><time>2026-03-25T12:17:08.132Z</time></trkpt><trkpt lat="40.9092833" lon="14.2871467"><ele>70.0</ele><time>2026-03-25T12:17:09.129Z</time></trkpt><trkpt lat="40.9093633" lon="14.28721"><ele>70.0</ele><time>2026-03-25T12:17:10.132Z</time></trkpt><trkpt lat="40.9094417" lon="14.2872767"><ele>69.6</ele><time>2026-03-25T12:17:11.13Z</time></trkpt><trkpt lat="40.9095233" lon="14.2873417"><ele>69.2</ele><time>2026-03-25T12:17:12.13Z</time></trkpt><trkpt lat="40.9096033" lon="14.2874033"><ele>68.8</ele><time>2026-03-25T12:17:13.13Z</time></trkpt><trkpt lat="40.9096833" lon="14.2874633"><ele>68.4</ele><time>2026-03-25T12:17:14.129Z</time></trkpt><trkpt lat="40.909765" lon="14.2875317"><ele>68.0</ele><time>2026-03-25T12:17:15.128Z</time></trkpt><trkpt lat="40.909845" lon="14.2875967"><ele>68.0</ele><time>2026-03-25T12:17:16.131Z</time></trkpt><trkpt lat="40.9099283" lon="14.287665"><ele>68.0</ele><time>2026-03-25T12:17:17.13Z</time></trkpt><trkpt lat="40.91001" lon="14.2877333"><ele>68.0</ele><time>2026-03-25T12:17:18.132Z</time></trkpt><trkpt lat="40.910095" lon="14.2878033"><ele>68.0</ele><time>2026-03-25T12:17:19.129Z</time></trkpt><trkpt lat="40.9101767" lon="14.28787"><ele>68.0</ele><time>2026-03-25T12:17:20.133Z</time></trkpt><trkpt lat="40.91026" lon="14.2879317"><ele>67.5</ele><time>2026-03-25T12:17:21.129Z</time></trkpt><trkpt lat="40.9103417" lon="14.287995"><ele>67.0</ele><time>2026-03-25T12:17:22.131Z</time></trkpt><trkpt lat="40.910415" lon="14.2880583"><ele>66.5</ele><time>2026-03-25T12:17:23.13Z</time></trkpt><trkpt lat="40.91048" lon="14.2881117"><ele>66.0</ele><time>2026-03-25T12:17:24.131Z</time></trkpt><trkpt lat="40.9105417" lon="14.28816"><ele>65.5</ele><time>2026-03-25T12:17:25.129Z</time></trkpt><trkpt lat="40.9106017" lon="14.28821"><ele>65.0</ele><time>2026-03-25T12:17:26.132Z</time></trkpt><trkpt lat="40.9106633" lon="14.2882567"><ele>65.0</ele><time>2026-03-25T12:17:27.13Z</time></trkpt><trkpt lat="40.9107183" lon="14.2883067"><ele>65.0</ele><time>2026-03-25T12:17:28.131Z</time></trkpt><trkpt lat="40.91077" lon="14.288355"><ele>65.0</ele><time>2026-03-25T12:17:29.131Z</time></trkpt><trkpt lat="40.9108667" lon="14.2884417"><ele>65.0</ele><time>2026-03-25T12:17:31.131Z</time></trkpt><trkpt lat="40.910955" lon="14.2884933"><ele>65.0</ele><time>2026-03-25T12:17:33.13Z</time></trkpt><trkpt lat="40.9110217" lon="14.2885233"><ele>65.0</ele><time>2026-03-25T12:17:35.129Z</time></trkpt><trkpt lat="40.911095" lon="14.2885783"><ele>65.25</ele><time>2026-03-25T12:17:37.131Z</time></trkpt><trkpt lat="40.91118" lon="14.2886567"><ele>65.5</ele><time>2026-03-25T12:17:39.128Z</time></trkpt><trkpt lat="40.9112783" lon="14.2887383"><ele>65.75</ele><time>2026-03-25T12:17:41.13Z</time></trkpt><trkpt lat="40.9113783" lon="14.2888317"><ele>66.0</ele><time>2026-03-25T12:17:43.13Z</time></trkpt><trkpt lat="40.9114717" lon="14.2889367"><ele>66.0</ele><time>2026-03-25T12:17:45.129Z</time></trkpt><trkpt lat="40.9115283" lon="14.2889883"><ele>66.0</ele><time>2026-03-25T12:17:46.13Z</time></trkpt><trkpt lat="40.9115883" lon="14.2890333"><ele>66.0</ele><time>2026-03-25T12:17:47.131Z</time></trkpt><trkpt lat="40.9116483" lon="14.2890783"><ele>66.0</ele><time>2026-03-25T12:17:48.129Z</time></trkpt><trkpt lat="40.91171" lon="14.2891283"><ele>66.0</ele><time>2026-03-25T12:17:49.13Z</time></trkpt><trkpt lat="40.9117733" lon="14.28918"><ele>66.0</ele><time>2026-03-25T12:17:50.13Z</time></trkpt><trkpt lat="40.91184" lon="14.2892317"><ele>66.0</ele><time>2026-03-25T12:17:51.131Z</time></trkpt><trkpt lat="40.911905" lon="14.28928"><ele>65.5</ele><time>2026-03-25T12:17:52.13Z</time></trkpt><trkpt lat="40.9119717" lon="14.2893333"><ele>65.0</ele><time>2026-03-25T12:17:53.129Z</time></trkpt><trkpt lat="40.9120367" lon="14.28939"><ele>64.5</ele><time>2026-03-25T12:17:54.13Z</time></trkpt><trkpt lat="40.9121033" lon="14.2894417"><ele>64.0</ele><time>2026-03-25T12:17:55.131Z</time></trkpt><trkpt lat="40.9121717" lon="14.2895"><ele>63.5</ele><time>2026-03-25T12:17:56.131Z</time></trkpt><trkpt lat="40.912235" lon="14.28955"><ele>63.0</ele><time>2026-03-25T12:17:57.129Z</time></trkpt><trkpt lat="40.9123" lon="14.289605"><ele>63.0</ele><time>2026-03-25T12:17:58.13Z</time></trkpt><trkpt lat="40.9123717" lon="14.2896483"><ele>63.0</ele><time>2026-03-25T12:17:59.13Z</time></trkpt><trkpt lat="40.9124417" lon="14.289705"><ele>63.0</ele><time>2026-03-25T12:18:00.131Z</time></trkpt><trkpt lat="40.9125067" lon="14.28976"><ele>63.0</ele><time>2026-03-25T12:18:01.13Z</time></trkpt><trkpt lat="40.91257" lon="14.2898133"><ele>63.0</ele><time>2026-03-25T12:18:02.131Z</time></trkpt><trkpt lat="40.912635" lon="14.289865"><ele>63.0</ele><time>2026-03-25T12:18:03.13Z</time></trkpt><trkpt lat="40.9126933" lon="14.2899117"><ele>63.0</ele><time>2026-03-25T12:18:04.131Z</time></trkpt><trkpt lat="40.9127483" lon="14.2899567"><ele>63.0</ele><time>2026-03-25T12:18:05.13Z</time></trkpt><trkpt lat="40.912805" lon="14.29"><ele>63.0</ele><time>2026-03-25T12:18:06.13Z</time></trkpt><trkpt lat="40.91286" lon="14.290045"><ele>63.0</ele><time>2026-03-25T12:18:07.129Z</time></trkpt><trkpt lat="40.9129217" lon="14.29009"><ele>63.0</ele><time>2026-03-25T12:18:08.13Z</time></trkpt><trkpt lat="40.912985" lon="14.2901383"><ele>63.0</ele><time>2026-03-25T12:18:09.129Z</time></trkpt><trkpt lat="40.91305" lon="14.2901867"><ele>63.0</ele><time>2026-03-25T12:18:10.13Z</time></trkpt><trkpt lat="40.913115" lon="14.2902367"><ele>63.0</ele><time>2026-03-25T12:18:11.13Z</time></trkpt><trkpt lat="40.9131833" lon="14.2902867"><ele>63.0</ele><time>2026-03-25T12:18:12.13Z</time></trkpt><trkpt lat="40.913255" lon="14.2903267"><ele>63.0</ele><time>2026-03-25T12:18:13.134Z</time></trkpt><trkpt lat="40.91333" lon="14.290365"><ele>63.0</ele><time>2026-03-25T12:18:14.13Z</time></trkpt><trkpt lat="40.913405" lon="14.2904033"><ele>63.0</ele><time>2026-03-25T12:18:15.129Z</time></trkpt><trkpt lat="40.9134833" lon="14.2904367"><ele>63.0</ele><time>2026-03-25T12:18:16.13Z</time></trkpt><trkpt lat="40.9135633" lon="14.29047"><ele>62.833333333333336</ele><time>2026-03-25T12:18:17.13Z</time></trkpt><trkpt lat="40.91364" lon="14.2905033"><ele>62.66666666666667</ele><time>2026-03-25T12:18:18.129Z</time></trkpt><trkpt lat="40.9137167" lon="14.2905333"><ele>62.5</ele><time>2026-03-25T12:18:19.13Z</time></trkpt><trkpt lat="40.9137983" lon="14.29056"><ele>62.333333333333336</ele><time>2026-03-25T12:18:20.13Z</time></trkpt><trkpt lat="40.913875" lon="14.290585"><ele>62.16666666666667</ele><time>2026-03-25T12:18:21.13Z</time></trkpt><trkpt lat="40.9139517" lon="14.2906033"><ele>62.0</ele><time>2026-03-25T12:18:22.13Z</time></trkpt><trkpt lat="40.9140233" lon="14.2906283"><ele>61.57142857142858</ele><time>2026-03-25T12:18:23.132Z</time></trkpt><trkpt lat="40.9141017" lon="14.2906483"><ele>61.14285714285715</ele><time>2026-03-25T12:18:24.13Z</time></trkpt><trkpt lat="40.9141783" lon="14.2906633"><ele>60.714285714285715</ele><time>2026-03-25T12:18:25.132Z</time></trkpt><trkpt lat="40.9142533" lon="14.290675"><ele>60.28571428571429</ele><time>2026-03-25T12:18:26.129Z</time></trkpt><trkpt lat="40.9143233" lon="14.29068"><ele>59.85714285714286</ele><time>2026-03-25T12:18:27.129Z</time></trkpt><trkpt lat="40.914395" lon="14.2906833"><ele>59.42857142857143</ele><time>2026-03-25T12:18:28.13Z</time></trkpt><trkpt lat="40.9144667" lon="14.29068"><ele>59.0</ele><time>2026-03-25T12:18:29.132Z</time></trkpt><trkpt lat="40.9145383" lon="14.2906767"><ele>59.0</ele><time>2026-03-25T12:18:30.131Z</time></trkpt><trkpt lat="40.9146117" lon="14.2906717"><ele>59.0</ele><time>2026-03-25T12:18:31.132Z</time></trkpt><trkpt lat="40.9146833" lon="14.2906667"><ele>59.0</ele><time>2026-03-25T12:18:32.129Z</time></trkpt><trkpt lat="40.9147533" lon="14.2906617"><ele>59.0</ele><time>2026-03-25T12:18:33.13Z</time></trkpt><trkpt lat="40.914825" lon="14.2906567"><ele>59.0</ele><time>2026-03-25T12:18:34.13Z</time></trkpt><trkpt lat="40.9148933" lon="14.290645"><ele>59.0</ele><time>2026-03-25T12:18:35.13Z</time></trkpt><trkpt lat="40.914965" lon="14.2906333"><ele>59.0</ele><time>2026-03-25T12:18:36.129Z</time></trkpt><trkpt lat="40.9150367" lon="14.2906267"><ele>59.0</ele><time>2026-03-25T12:18:37.13Z</time></trkpt><trkpt lat="40.915105" lon="14.2906217"><ele>59.0</ele><time>2026-03-25T12:18:38.13Z</time></trkpt><trkpt lat="40.9151733" lon="14.2906167"><ele>59.0</ele><time>2026-03-25T12:18:39.13Z</time></trkpt><trkpt lat="40.9152433" lon="14.29061"><ele>59.0</ele><time>2026-03-25T12:18:40.133Z</time></trkpt><trkpt lat="40.91531" lon="14.2906067"><ele>59.0</ele><time>2026-03-25T12:18:41.134Z</time></trkpt><trkpt lat="40.915375" lon="14.2906067"><ele>59.0</ele><time>2026-03-25T12:18:42.135Z</time></trkpt><trkpt lat="40.9154383" lon="14.29061"><ele>59.0</ele><time>2026-03-25T12:18:43.13Z</time></trkpt><trkpt lat="40.9155583" lon="14.2906083"><ele>59.00000000000001</ele><time>2026-03-25T12:18:45.13Z</time></trkpt><trkpt lat="40.9156217" lon="14.290605"><ele>59.0</ele><time>2026-03-25T12:18:46.13Z</time></trkpt><trkpt lat="40.9156883" lon="14.2906033"><ele>59.0</ele><time>2026-03-25T12:18:47.13Z</time></trkpt><trkpt lat="40.915755" lon="14.2906067"><ele>59.0</ele><time>2026-03-25T12:18:48.13Z</time></trkpt><trkpt lat="40.91588" lon="14.2906267"><ele>59.00000000000001</ele><time>2026-03-25T12:18:50.13Z</time></trkpt><trkpt lat="40.916" lon="14.2906533"><ele>59.0</ele><time>2026-03-25T12:18:52.13Z</time></trkpt><trkpt lat="40.9161167" lon="14.2906933"><ele>58.66666666666667</ele><time>2026-03-25T12:18:54.135Z</time></trkpt><trkpt lat="40.916235" lon="14.2907483"><ele>58.333333333333336</ele><time>2026-03-25T12:18:56.131Z</time></trkpt><trkpt lat="40.9162967" lon="14.29078"><ele>58.0</ele><time>2026-03-25T12:18:57.13Z</time></trkpt><trkpt lat="40.91636" lon="14.2908133"><ele>57.66666666666667</ele><time>2026-03-25T12:18:58.13Z</time></trkpt><trkpt lat="40.9164233" lon="14.2908467"><ele>57.333333333333336</ele><time>2026-03-25T12:18:59.131Z</time></trkpt><trkpt lat="40.9164883" lon="14.2908833"><ele>57.0</ele><time>2026-03-25T12:19:00.13Z</time></trkpt><trkpt lat="40.9165533" lon="14.2909183"><ele>57.0</ele><time>2026-03-25T12:19:01.13Z</time></trkpt><trkpt lat="40.91662" lon="14.290955"><ele>56.99999999999999</ele><time>2026-03-25T12:19:02.13Z</time></trkpt><trkpt lat="40.9166867" lon="14.2909933"><ele>57.0</ele><time>2026-03-25T12:19:03.131Z</time></trkpt><trkpt lat="40.916755" lon="14.291035"><ele>57.0</ele><time>2026-03-25T12:19:04.132Z</time></trkpt><trkpt lat="40.9168217" lon="14.2910733"><ele>56.99999999999999</ele><time>2026-03-25T12:19:05.13Z</time></trkpt><trkpt lat="40.9168833" lon="14.2911133"><ele>57.0</ele><time>2026-03-25T12:19:06.131Z</time></trkpt><trkpt lat="40.9169483" lon="14.2911533"><ele>57.0</ele><time>2026-03-25T12:19:07.133Z</time></trkpt><trkpt lat="40.9170117" lon="14.291195"><ele>57.0</ele><time>2026-03-25T12:19:08.129Z</time></trkpt><trkpt lat="40.9170783" lon="14.2912333"><ele>56.99999999999999</ele><time>2026-03-25T12:19:09.13Z</time></trkpt><trkpt lat="40.9171433" lon="14.29127"><ele>57.0</ele><time>2026-03-25T12:19:10.13Z</time></trkpt><trkpt lat="40.9172117" lon="14.2913067"><ele>57.0</ele><time>2026-03-25T12:19:11.13Z</time></trkpt><trkpt lat="40.9172767" lon="14.291355"><ele>56.99999999999999</ele><time>2026-03-25T12:19:12.13Z</time></trkpt><trkpt lat="40.91734" lon="14.2914033"><ele>57.0</ele><time>2026-03-25T12:19:13.131Z</time></trkpt><trkpt lat="40.9174083" lon="14.29145"><ele>57.0</ele><time>2026-03-25T12:19:14.132Z</time></trkpt><trkpt lat="40.91748" lon="14.291495"><ele>57.0</ele><time>2026-03-25T12:19:15.131Z</time></trkpt><trkpt lat="40.9175517" lon="14.2915467"><ele>57.0</ele><time>2026-03-25T12:19:16.131Z</time></trkpt><trkpt lat="40.9176267" lon="14.2915967"><ele>57.0</ele><time>2026-03-25T12:19:17.131Z</time></trkpt><trkpt lat="40.9177017" lon="14.2916483"><ele>57.0</ele><time>2026-03-25T12:19:18.132Z</time></trkpt><trkpt lat="40.9177767" lon="14.2917"><ele>57.0</ele><time>2026-03-25T12:19:19.131Z</time></trkpt><trkpt lat="40.9178483" lon="14.2917517"><ele>57.0</ele><time>2026-03-25T12:19:20.13Z</time></trkpt><trkpt lat="40.917925" lon="14.2918017"><ele>56.666666666666664</ele><time>2026-03-25T12:19:21.131Z</time></trkpt><trkpt lat="40.918" lon="14.2918417"><ele>56.33333333333333</ele><time>2026-03-25T12:19:22.131Z</time></trkpt><trkpt lat="40.9180767" lon="14.2918783"><ele>56.0</ele><time>2026-03-25T12:19:23.132Z</time></trkpt><trkpt lat="40.918155" lon="14.2919133"><ele>55.666666666666664</ele><time>2026-03-25T12:19:24.131Z</time></trkpt><trkpt lat="40.9182317" lon="14.2919533"><ele>55.33333333333333</ele><time>2026-03-25T12:19:25.133Z</time></trkpt><trkpt lat="40.9183117" lon="14.29199"><ele>55.0</ele><time>2026-03-25T12:19:26.131Z</time></trkpt><trkpt lat="40.9183883" lon="14.292025"><ele>54.99999999999999</ele><time>2026-03-25T12:19:27.13Z</time></trkpt><trkpt lat="40.9184633" lon="14.2920583"><ele>55.0</ele><time>2026-03-25T12:19:28.131Z</time></trkpt><trkpt lat="40.91854" lon="14.2920917"><ele>55.0</ele><time>2026-03-25T12:19:29.135Z</time></trkpt><trkpt lat="40.9186167" lon="14.292125"><ele>55.0</ele><time>2026-03-25T12:19:30.132Z</time></trkpt><trkpt lat="40.9186983" lon="14.29216"><ele>54.99999999999999</ele><time>2026-03-25T12:19:31.131Z</time></trkpt><trkpt lat="40.9187817" lon="14.292195"><ele>55.0</ele><time>2026-03-25T12:19:32.132Z</time></trkpt><trkpt lat="40.9188617" lon="14.2922283"><ele>54.99999999999999</ele><time>2026-03-25T12:19:33.133Z</time></trkpt><trkpt lat="40.9189417" lon="14.292265"><ele>55.0</ele><time>2026-03-25T12:19:34.132Z</time></trkpt><trkpt lat="40.91902" lon="14.2923033"><ele>55.0</ele><time>2026-03-25T12:19:35.133Z</time></trkpt><trkpt lat="40.9190967" lon="14.2923383"><ele>55.0</ele><time>2026-03-25T12:19:36.132Z</time></trkpt><trkpt lat="40.919175" lon="14.29237"><ele>54.99999999999999</ele><time>2026-03-25T12:19:37.131Z</time></trkpt><trkpt lat="40.9192533" lon="14.292405"><ele>55.0</ele><time>2026-03-25T12:19:38.13Z</time></trkpt><trkpt lat="40.9193333" lon="14.2924367"><ele>54.666666666666664</ele><time>2026-03-25T12:19:39.13Z</time></trkpt><trkpt lat="40.91941" lon="14.2924667"><ele>54.33333333333333</ele><time>2026-03-25T12:19:40.13Z</time></trkpt><trkpt lat="40.9194867" lon="14.29251"><ele>54.0</ele><time>2026-03-25T12:19:41.131Z</time></trkpt><trkpt lat="40.9195583" lon="14.2925633"><ele>53.66666666666667</ele><time>2026-03-25T12:19:42.132Z</time></trkpt><trkpt lat="40.91963" lon="14.2926267"><ele>53.333333333333336</ele><time>2026-03-25T12:19:43.132Z</time></trkpt><trkpt lat="40.9197" lon="14.292695"><ele>53.0</ele><time>2026-03-25T12:19:44.131Z</time></trkpt><trkpt lat="40.91977" lon="14.292765"><ele>53.00000000000001</ele><time>2026-03-25T12:19:45.131Z</time></trkpt><trkpt lat="40.919845" lon="14.2928317"><ele>53.0</ele><time>2026-03-25T12:19:46.13Z</time></trkpt><trkpt lat="40.919915" lon="14.2929083"><ele>53.0</ele><time>2026-03-25T12:19:47.131Z</time></trkpt><trkpt lat="40.9199717" lon="14.2929917"><ele>53.0</ele><time>2026-03-25T12:19:48.13Z</time></trkpt><trkpt lat="40.9200117" lon="14.2930833"><ele>53.00000000000001</ele><time>2026-03-25T12:19:49.132Z</time></trkpt><trkpt lat="40.9200383" lon="14.293185"><ele>53.0</ele><time>2026-03-25T12:19:50.132Z</time></trkpt><trkpt lat="40.920065" lon="14.2932867"><ele>53.00000000000001</ele><time>2026-03-25T12:19:51.132Z</time></trkpt><trkpt lat="40.9200983" lon="14.293375"><ele>53.0</ele><time>2026-03-25T12:19:52.131Z</time></trkpt><trkpt lat="40.920145" lon="14.2934367"><ele>53.0</ele><time>2026-03-25T12:19:53.132Z</time></trkpt><trkpt lat="40.9202617" lon="14.2934667"><ele>53.0</ele><time>2026-03-25T12:19:55.131Z</time></trkpt><trkpt lat="40.9203283" lon="14.293465"><ele>53.00000000000001</ele><time>2026-03-25T12:19:56.13Z</time></trkpt><trkpt lat="40.9203983" lon="14.293475"><ele>53.0</ele><time>2026-03-25T12:19:57.131Z</time></trkpt><trkpt lat="40.9204633" lon="14.2935083"><ele>53.00000000000001</ele><time>2026-03-25T12:19:58.131Z</time></trkpt><trkpt lat="40.9205267" lon="14.2935533"><ele>53.0</ele><time>2026-03-25T12:19:59.132Z</time></trkpt><trkpt lat="40.9205867" lon="14.293605"><ele>53.0</ele><time>2026-03-25T12:20:00.131Z</time></trkpt><trkpt lat="40.92065" lon="14.29366"><ele>53.0</ele><time>2026-03-25T12:20:01.133Z</time></trkpt><trkpt lat="40.9207183" lon="14.2937117"><ele>53.00000000000001</ele><time>2026-03-25T12:20:02.131Z</time></trkpt><trkpt lat="40.9207917" lon="14.293765"><ele>53.0</ele><time>2026-03-25T12:20:03.131Z</time></trkpt><trkpt lat="40.9208667" lon="14.2938133"><ele>52.833333333333336</ele><time>2026-03-25T12:20:04.132Z</time></trkpt><trkpt lat="40.9209433" lon="14.2938567"><ele>52.66666666666667</ele><time>2026-03-25T12:20:05.133Z</time></trkpt><trkpt lat="40.9210233" lon="14.2938967"><ele>52.5</ele><time>2026-03-25T12:20:06.132Z</time></trkpt><trkpt lat="40.9211033" lon="14.2939333"><ele>52.33333333333333</ele><time>2026-03-25T12:20:07.132Z</time></trkpt><trkpt lat="40.9211817" lon="14.2939683"><ele>52.166666666666664</ele><time>2026-03-25T12:20:08.131Z</time></trkpt><trkpt lat="40.9212583" lon="14.294005"><ele>52.0</ele><time>2026-03-25T12:20:09.131Z</time></trkpt><trkpt lat="40.9213367" lon="14.29404"><ele>51.99999999999999</ele><time>2026-03-25T12:20:10.131Z</time></trkpt><trkpt lat="40.921415" lon="14.2940683"><ele>52.0</ele><time>2026-03-25T12:20:11.136Z</time></trkpt><trkpt lat="40.9214967" lon="14.2941033"><ele>52.0</ele><time>2026-03-25T12:20:12.132Z</time></trkpt><trkpt lat="40.9215783" lon="14.29414"><ele>52.0</ele><time>2026-03-25T12:20:13.132Z</time></trkpt><trkpt lat="40.92166" lon="14.2941733"><ele>51.99999999999999</ele><time>2026-03-25T12:20:14.132Z</time></trkpt><trkpt lat="40.92174" lon="14.2942067"><ele>52.0</ele><time>2026-03-25T12:20:15.133Z</time></trkpt><trkpt lat="40.921825" lon="14.2942383"><ele>51.83333333333333</ele><time>2026-03-25T12:20:16.132Z</time></trkpt><trkpt lat="40.9219117" lon="14.2942733"><ele>51.666666666666664</ele><time>2026-03-25T12:20:17.131Z</time></trkpt><trkpt lat="40.9219967" lon="14.29431"><ele>51.5</ele><time>2026-03-25T12:20:18.131Z</time></trkpt><trkpt lat="40.92208" lon="14.29435"><ele>51.33333333333333</ele><time>2026-03-25T12:20:19.131Z</time></trkpt><trkpt lat="40.922165" lon="14.2943867"><ele>51.166666666666664</ele><time>2026-03-25T12:20:20.131Z</time></trkpt><trkpt lat="40.9222483" lon="14.2944217"><ele>51.0</ele><time>2026-03-25T12:20:21.13Z</time></trkpt><trkpt lat="40.9223333" lon="14.294455"><ele>51.0</ele><time>2026-03-25T12:20:22.131Z</time></trkpt><trkpt lat="40.9224183" lon="14.2944917"><ele>51.0</ele><time>2026-03-25T12:20:23.131Z</time></trkpt><trkpt lat="40.9225033" lon="14.2945283"><ele>51.0</ele><time>2026-03-25T12:20:24.131Z</time></trkpt><trkpt lat="40.9225883" lon="14.294575"><ele>51.0</ele><time>2026-03-25T12:20:25.13Z</time></trkpt><trkpt lat="40.9226667" lon="14.2946333"><ele>51.0</ele><time>2026-03-25T12:20:26.132Z</time></trkpt><trkpt lat="40.9227417" lon="14.2947033"><ele>50.8</ele><time>2026-03-25T12:20:27.131Z</time></trkpt><trkpt lat="40.9228133" lon="14.2947767"><ele>50.599999999999994</ele><time>2026-03-25T12:20:28.13Z</time></trkpt><trkpt lat="40.9228717" lon="14.2948633"><ele>50.4</ele><time>2026-03-25T12:20:29.13Z</time></trkpt><trkpt lat="40.92293" lon="14.2949567"><ele>50.2</ele><time>2026-03-25T12:20:30.131Z</time></trkpt><trkpt lat="40.92299" lon="14.29505"><ele>50.0</ele><time>2026-03-25T12:20:31.132Z</time></trkpt><trkpt lat="40.9230483" lon="14.295145"><ele>50.0</ele><time>2026-03-25T12:20:32.131Z</time></trkpt><trkpt lat="40.9231083" lon="14.295245"><ele>50.0</ele><time>2026-03-25T12:20:33.131Z</time></trkpt><trkpt lat="40.9231633" lon="14.295345"><ele>50.0</ele><time>2026-03-25T12:20:34.131Z</time></trkpt><trkpt lat="40.92322" lon="14.2954417"><ele>50.0</ele><time>2026-03-25T12:20:35.132Z</time></trkpt><trkpt lat="40.9232783" lon="14.29554"><ele>50.0</ele><time>2026-03-25T12:20:36.131Z</time></trkpt><trkpt lat="40.923335" lon="14.2956417"><ele>49.6</ele><time>2026-03-25T12:20:37.132Z</time></trkpt><trkpt lat="40.9233967" lon="14.295735"><ele>49.2</ele><time>2026-03-25T12:20:38.131Z</time></trkpt><trkpt lat="40.923455" lon="14.2958283"><ele>48.8</ele><time>2026-03-25T12:20:39.137Z</time></trkpt><trkpt lat="40.9235167" lon="14.295925"><ele>48.4</ele><time>2026-03-25T12:20:40.131Z</time></trkpt><trkpt lat="40.9235767" lon="14.2960217"><ele>48.0</ele><time>2026-03-25T12:20:41.132Z</time></trkpt><trkpt lat="40.9236283" lon="14.2961217"><ele>47.833333333333336</ele><time>2026-03-25T12:20:42.131Z</time></trkpt><trkpt lat="40.9236767" lon="14.29622"><ele>47.666666666666664</ele><time>2026-03-25T12:20:43.13Z</time></trkpt><trkpt lat="40.9237283" lon="14.296315"><ele>47.5</ele><time>2026-03-25T12:20:44.132Z</time></trkpt><trkpt lat="40.92378" lon="14.2964"><ele>47.33333333333333</ele><time>2026-03-25T12:20:45.132Z</time></trkpt><trkpt lat="40.9238283" lon="14.296485"><ele>47.166666666666664</ele><time>2026-03-25T12:20:46.13Z</time></trkpt><trkpt lat="40.9238767" lon="14.2965617"><ele>47.0</ele><time>2026-03-25T12:20:47.131Z</time></trkpt><trkpt lat="40.9239283" lon="14.296635"><ele>47.0</ele><time>2026-03-25T12:20:48.131Z</time></trkpt><trkpt lat="40.923975" lon="14.2967133"><ele>47.0</ele><time>2026-03-25T12:20:49.132Z</time></trkpt><trkpt lat="40.9240133" lon="14.2967967"><ele>47.0</ele><time>2026-03-25T12:20:50.131Z</time></trkpt><trkpt lat="40.92405" lon="14.2968783"><ele>47.0</ele><time>2026-03-25T12:20:51.13Z</time></trkpt><trkpt lat="40.9240867" lon="14.2969617"><ele>47.0</ele><time>2026-03-25T12:20:52.132Z</time></trkpt><trkpt lat="40.9241283" lon="14.2970483"><ele>47.0</ele><time>2026-03-25T12:20:53.131Z</time></trkpt><trkpt lat="40.92418" lon="14.297125"><ele>47.0</ele><time>2026-03-25T12:20:54.132Z</time></trkpt><trkpt lat="40.9242267" lon="14.2972083"><ele>46.83333333333333</ele><time>2026-03-25T12:20:55.133Z</time></trkpt><trkpt lat="40.9242733" lon="14.2972983"><ele>46.666666666666664</ele><time>2026-03-25T12:20:56.131Z</time></trkpt><trkpt lat="40.9243183" lon="14.2973917"><ele>46.5</ele><time>2026-03-25T12:20:57.131Z</time></trkpt><trkpt lat="40.9243617" lon="14.2974817"><ele>46.333333333333336</ele><time>2026-03-25T12:20:58.13Z</time></trkpt><trkpt lat="40.9244167" lon="14.2975733"><ele>46.16666666666667</ele><time>2026-03-25T12:20:59.132Z</time></trkpt><trkpt lat="40.9244683" lon="14.2976617"><ele>46.0</ele><time>2026-03-25T12:21:00.132Z</time></trkpt><trkpt lat="40.9245233" lon="14.297755"><ele>46.0</ele><time>2026-03-25T12:21:01.132Z</time></trkpt><trkpt lat="40.9245817" lon="14.297845"><ele>46.0</ele><time>2026-03-25T12:21:02.132Z</time></trkpt><trkpt lat="40.9246383" lon="14.29793"><ele>46.0</ele><time>2026-03-25T12:21:03.132Z</time></trkpt><trkpt lat="40.9247017" lon="14.2980117"><ele>46.0</ele><time>2026-03-25T12:21:04.131Z</time></trkpt><trkpt lat="40.924765" lon="14.2980967"><ele>46.0</ele><time>2026-03-25T12:21:05.132Z</time></trkpt><trkpt lat="40.9248317" lon="14.2981717"><ele>46.0</ele><time>2026-03-25T12:21:06.132Z</time></trkpt><trkpt lat="40.9249017" lon="14.2982417"><ele>46.0</ele><time>2026-03-25T12:21:07.135Z</time></trkpt><trkpt lat="40.924975" lon="14.2983083"><ele>46.0</ele><time>2026-03-25T12:21:08.132Z</time></trkpt><trkpt lat="40.9250517" lon="14.298375"><ele>46.0</ele><time>2026-03-25T12:21:09.131Z</time></trkpt><trkpt lat="40.9251267" lon="14.2984417"><ele>46.0</ele><time>2026-03-25T12:21:10.132Z</time></trkpt><trkpt lat="40.9252067" lon="14.2985033"><ele>46.0</ele><time>2026-03-25T12:21:11.132Z</time></trkpt><trkpt lat="40.9252883" lon="14.2985567"><ele>46.199999999999996</ele><time>2026-03-25T12:21:12.132Z</time></trkpt><trkpt lat="40.9253717" lon="14.2985967"><ele>46.4</ele><time>2026-03-25T12:21:13.131Z</time></trkpt><trkpt lat="40.9254583" lon="14.29863"><ele>46.6</ele><time>2026-03-25T12:21:14.133Z</time></trkpt><trkpt lat="40.9255467" lon="14.2986567"><ele>46.8</ele><time>2026-03-25T12:21:15.132Z</time></trkpt><trkpt lat="40.925635" lon="14.2986783"><ele>47.0</ele><time>2026-03-25T12:21:16.132Z</time></trkpt><trkpt lat="40.925725" lon="14.298695"><ele>47.0</ele><time>2026-03-25T12:21:17.132Z</time></trkpt><trkpt lat="40.9258167" lon="14.2987117"><ele>47.0</ele><time>2026-03-25T12:21:18.131Z</time></trkpt><trkpt lat="40.9259067" lon="14.2987217"><ele>47.0</ele><time>2026-03-25T12:21:19.132Z</time></trkpt><trkpt lat="40.9259967" lon="14.2987267"><ele>47.0</ele><time>2026-03-25T12:21:20.133Z</time></trkpt><trkpt lat="40.9260817" lon="14.298725"><ele>47.0</ele><time>2026-03-25T12:21:21.135Z</time></trkpt><trkpt lat="40.926165" lon="14.2987167"><ele>47.0</ele><time>2026-03-25T12:21:22.132Z</time></trkpt><trkpt lat="40.92625" lon="14.29871"><ele>46.666666666666664</ele><time>2026-03-25T12:21:23.132Z</time></trkpt><trkpt lat="40.9263317" lon="14.2987083"><ele>46.33333333333333</ele><time>2026-03-25T12:21:24.132Z</time></trkpt><trkpt lat="40.92641" lon="14.2987083"><ele>46.0</ele><time>2026-03-25T12:21:25.131Z</time></trkpt><trkpt lat="40.9264917" lon="14.2987033"><ele>45.666666666666664</ele><time>2026-03-25T12:21:26.132Z</time></trkpt><trkpt lat="40.9265767" lon="14.2987033"><ele>45.333333333333336</ele><time>2026-03-25T12:21:27.131Z</time></trkpt><trkpt lat="40.9266633" lon="14.2986983"><ele>45.0</ele><time>2026-03-25T12:21:28.133Z</time></trkpt><trkpt lat="40.9267467" lon="14.2986933"><ele>44.666666666666664</ele><time>2026-03-25T12:21:29.133Z</time></trkpt><trkpt lat="40.9268283" lon="14.2986883"><ele>44.333333333333336</ele><time>2026-03-25T12:21:30.132Z</time></trkpt><trkpt lat="40.9269083" lon="14.2986833"><ele>44.0</ele><time>2026-03-25T12:21:31.132Z</time></trkpt><trkpt lat="40.926985" lon="14.2986783"><ele>43.66666666666667</ele><time>2026-03-25T12:21:32.132Z</time></trkpt><trkpt lat="40.9270617" lon="14.2986733"><ele>43.333333333333336</ele><time>2026-03-25T12:21:33.131Z</time></trkpt><trkpt lat="40.9271317" lon="14.2986767"><ele>43.0</ele><time>2026-03-25T12:21:34.131Z</time></trkpt><trkpt lat="40.9272" lon="14.29869"><ele>43.0</ele><time>2026-03-25T12:21:35.131Z</time></trkpt><trkpt lat="40.9273133" lon="14.2987"><ele>43.0</ele><time>2026-03-25T12:21:37.131Z</time></trkpt><trkpt lat="40.927415" lon="14.29868"><ele>43.0</ele><time>2026-03-25T12:21:39.131Z</time></trkpt><trkpt lat="40.927525" lon="14.2986433"><ele>43.0</ele><time>2026-03-25T12:21:41.131Z</time></trkpt><trkpt lat="40.9276483" lon="14.2986117"><ele>43.00000000000001</ele><time>2026-03-25T12:21:43.131Z</time></trkpt><trkpt lat="40.9277117" lon="14.298595"><ele>43.0</ele><time>2026-03-25T12:21:44.133Z</time></trkpt><trkpt lat="40.9277783" lon="14.2985817"><ele>43.0</ele><time>2026-03-25T12:21:45.13Z</time></trkpt><trkpt lat="40.92785" lon="14.2985717"><ele>43.0</ele><time>2026-03-25T12:21:46.13Z</time></trkpt><trkpt lat="40.9279233" lon="14.29856"><ele>43.0</ele><time>2026-03-25T12:21:47.129Z</time></trkpt><trkpt lat="40.927995" lon="14.29855"><ele>43.00000000000001</ele><time>2026-03-25T12:21:48.132Z</time></trkpt><trkpt lat="40.9280683" lon="14.2985383"><ele>43.0</ele><time>2026-03-25T12:21:49.13Z</time></trkpt><trkpt lat="40.92814" lon="14.298525"><ele>43.00000000000001</ele><time>2026-03-25T12:21:50.13Z</time></trkpt><trkpt lat="40.9282117" lon="14.2985133"><ele>43.0</ele><time>2026-03-25T12:21:51.13Z</time></trkpt><trkpt lat="40.9282817" lon="14.2985033"><ele>43.0</ele><time>2026-03-25T12:21:52.13Z</time></trkpt><trkpt lat="40.9283533" lon="14.29849"><ele>43.0</ele><time>2026-03-25T12:21:53.13Z</time></trkpt><trkpt lat="40.9284267" lon="14.2984767"><ele>43.0</ele><time>2026-03-25T12:21:54.132Z</time></trkpt><trkpt lat="40.9285017" lon="14.2984633"><ele>43.00000000000001</ele><time>2026-03-25T12:21:55.13Z</time></trkpt><trkpt lat="40.928575" lon="14.2984517"><ele>43.0</ele><time>2026-03-25T12:21:56.131Z</time></trkpt><trkpt lat="40.9286483" lon="14.2984417"><ele>42.85714285714286</ele><time>2026-03-25T12:21:57.13Z</time></trkpt><trkpt lat="40.92872" lon="14.2984317"><ele>42.714285714285715</ele><time>2026-03-25T12:21:58.13Z</time></trkpt><trkpt lat="40.9287933" lon="14.29842"><ele>42.57142857142857</ele><time>2026-03-25T12:21:59.13Z</time></trkpt><trkpt lat="40.9288667" lon="14.298405"><ele>42.42857142857143</ele><time>2026-03-25T12:22:00.135Z</time></trkpt><trkpt lat="40.9289417" lon="14.2983867"><ele>42.285714285714285</ele><time>2026-03-25T12:22:01.131Z</time></trkpt><trkpt lat="40.929015" lon="14.2983717"><ele>42.142857142857146</ele><time>2026-03-25T12:22:02.131Z</time></trkpt><trkpt lat="40.92909" lon="14.29836"><ele>42.0</ele><time>2026-03-25T12:22:03.129Z</time></trkpt><trkpt lat="40.9291667" lon="14.2983517"><ele>42.0</ele><time>2026-03-25T12:22:04.131Z</time></trkpt><trkpt lat="40.92924" lon="14.29834"><ele>42.0</ele><time>2026-03-25T12:22:05.131Z</time></trkpt><trkpt lat="40.929315" lon="14.2983267"><ele>42.0</ele><time>2026-03-25T12:22:06.131Z</time></trkpt><trkpt lat="40.9293883" lon="14.29831"><ele>42.0</ele><time>2026-03-25T12:22:07.131Z</time></trkpt><trkpt lat="40.9294617" lon="14.298295"><ele>42.0</ele><time>2026-03-25T12:22:08.131Z</time></trkpt><trkpt lat="40.929535" lon="14.2982867"><ele>42.0</ele><time>2026-03-25T12:22:09.129Z</time></trkpt><trkpt lat="40.92961" lon="14.2982767"><ele>42.0</ele><time>2026-03-25T12:22:10.131Z</time></trkpt><trkpt lat="40.929685" lon="14.2982733"><ele>42.0</ele><time>2026-03-25T12:22:11.132Z</time></trkpt><trkpt lat="40.9297567" lon="14.2982817"><ele>42.0</ele><time>2026-03-25T12:22:12.13Z</time></trkpt><trkpt lat="40.9298283" lon="14.2982983"><ele>42.0</ele><time>2026-03-25T12:22:13.132Z</time></trkpt><trkpt lat="40.9298983" lon="14.2983167"><ele>42.0</ele><time>2026-03-25T12:22:14.13Z</time></trkpt><trkpt lat="40.9299633" lon="14.2983483"><ele>42.0</ele><time>2026-03-25T12:22:15.13Z</time></trkpt><trkpt lat="40.9300233" lon="14.2983933"><ele>42.0</ele><time>2026-03-25T12:22:16.13Z</time></trkpt><trkpt lat="40.9300767" lon="14.2984533"><ele>42.0</ele><time>2026-03-25T12:22:17.13Z</time></trkpt><trkpt lat="40.9301483" lon="14.2985767"><ele>42.0</ele><time>2026-03-25T12:22:19.13Z</time></trkpt><trkpt lat="40.9302183" lon="14.298685"><ele>42.0</ele><time>2026-03-25T12:22:21.13Z</time></trkpt><trkpt lat="40.9302983" lon="14.2987817"><ele>42.0</ele><time>2026-03-25T12:22:23.131Z</time></trkpt><trkpt lat="40.9303667" lon="14.2988833"><ele>42.0</ele><time>2026-03-25T12:22:25.131Z</time></trkpt><trkpt lat="40.9304183" lon="14.2989967"><ele>42.0</ele><time>2026-03-25T12:22:27.13Z</time></trkpt><trkpt lat="40.9304883" lon="14.299105"><ele>41.5</ele><time>2026-03-25T12:22:29.137Z</time></trkpt><trkpt lat="40.9305667" lon="14.29922"><ele>41.0</ele><time>2026-03-25T12:22:31.131Z</time></trkpt><trkpt lat="40.9306483" lon="14.29934"><ele>40.5</ele><time>2026-03-25T12:22:33.129Z</time></trkpt><trkpt lat="40.9307317" lon="14.2994583"><ele>40.0</ele><time>2026-03-25T12:22:35.131Z</time></trkpt><trkpt lat="40.9308167" lon="14.2995783"><ele>40.0</ele><time>2026-03-25T12:22:37.131Z</time></trkpt><trkpt lat="40.9309033" lon="14.2996967"><ele>40.0</ele><time>2026-03-25T12:22:39.13Z</time></trkpt><trkpt lat="40.9309483" lon="14.29976"><ele>40.0</ele><time>2026-03-25T12:22:40.13Z</time></trkpt><trkpt lat="40.9309933" lon="14.2998233"><ele>40.0</ele><time>2026-03-25T12:22:41.13Z</time></trkpt><trkpt lat="40.93104" lon="14.29989"><ele>40.0</ele><time>2026-03-25T12:22:42.13Z</time></trkpt><trkpt lat="40.93109" lon="14.2999567"><ele>40.0</ele><time>2026-03-25T12:22:43.131Z</time></trkpt><trkpt lat="40.9311367" lon="14.3000267"><ele>40.0</ele><time>2026-03-25T12:22:44.131Z</time></trkpt><trkpt lat="40.931185" lon="14.3000917"><ele>40.0</ele><time>2026-03-25T12:22:45.13Z</time></trkpt><trkpt lat="40.9312333" lon="14.3001617"><ele>40.0</ele><time>2026-03-25T12:22:46.132Z</time></trkpt><trkpt lat="40.93128" lon="14.3002333"><ele>40.0</ele><time>2026-03-25T12:22:47.131Z</time></trkpt><trkpt lat="40.9313283" lon="14.3003083"><ele>40.0</ele><time>2026-03-25T12:22:48.13Z</time></trkpt><trkpt lat="40.9313783" lon="14.3003783"><ele>40.0</ele><time>2026-03-25T12:22:49.13Z</time></trkpt><trkpt lat="40.9314283" lon="14.30045"><ele>40.0</ele><time>2026-03-25T12:22:50.131Z</time></trkpt><trkpt lat="40.9314767" lon="14.3005217"><ele>40.0</ele><time>2026-03-25T12:22:51.13Z</time></trkpt><trkpt lat="40.9315267" lon="14.3005933"><ele>40.0</ele><time>2026-03-25T12:22:52.131Z</time></trkpt><trkpt lat="40.9315767" lon="14.3006633"><ele>40.0</ele><time>2026-03-25T12:22:53.13Z</time></trkpt><trkpt lat="40.931615" lon="14.30073"><ele>40.0</ele><time>2026-03-25T12:22:54.131Z</time></trkpt><trkpt lat="40.9316867" lon="14.3008333"><ele>40.0</ele><time>2026-03-25T12:22:56.131Z</time></trkpt><trkpt lat="40.9317667" lon="14.3009317"><ele>40.0</ele><time>2026-03-25T12:22:58.131Z</time></trkpt><trkpt lat="40.93185" lon="14.3010383"><ele>40.0</ele><time>2026-03-25T12:23:00.13Z</time></trkpt><trkpt lat="40.9319567" lon="14.3011283"><ele>40.0</ele><time>2026-03-25T12:23:02.131Z</time></trkpt><trkpt lat="40.9320667" lon="14.3012"><ele>40.0</ele><time>2026-03-25T12:23:04.131Z</time></trkpt><trkpt lat="40.9321833" lon="14.3012333"><ele>40.0</ele><time>2026-03-25T12:23:06.132Z</time></trkpt><trkpt lat="40.9323083" lon="14.3012483"><ele>40.0</ele><time>2026-03-25T12:23:08.131Z</time></trkpt><trkpt lat="40.932375" lon="14.3012483"><ele>40.0</ele><time>2026-03-25T12:23:09.131Z</time></trkpt><trkpt lat="40.9324417" lon="14.30125"><ele>40.0</ele><time>2026-03-25T12:23:10.13Z</time></trkpt><trkpt lat="40.93251" lon="14.3012483"><ele>40.0</ele><time>2026-03-25T12:23:11.131Z</time></trkpt><trkpt lat="40.9325767" lon="14.3012517"><ele>40.0</ele><time>2026-03-25T12:23:12.129Z</time></trkpt><trkpt lat="40.9326433" lon="14.3012483"><ele>40.0</ele><time>2026-03-25T12:23:13.13Z</time></trkpt><trkpt lat="40.9327117" lon="14.3012517"><ele>40.0</ele><time>2026-03-25T12:23:14.131Z</time></trkpt><trkpt lat="40.9327817" lon="14.3012583"><ele>39.857142857142854</ele><time>2026-03-25T12:23:15.13Z</time></trkpt><trkpt lat="40.9328533" lon="14.3012617"><ele>39.714285714285715</ele><time>2026-03-25T12:23:16.13Z</time></trkpt><trkpt lat="40.932925" lon="14.3012667"><ele>39.57142857142857</ele><time>2026-03-25T12:23:17.13Z</time></trkpt><trkpt lat="40.9329983" lon="14.3012667"><ele>39.42857142857143</ele><time>2026-03-25T12:23:18.131Z</time></trkpt><trkpt lat="40.9330683" lon="14.301265"><ele>39.285714285714285</ele><time>2026-03-25T12:23:19.131Z</time></trkpt><trkpt lat="40.93314" lon="14.3012667"><ele>39.142857142857146</ele><time>2026-03-25T12:23:20.13Z</time></trkpt><trkpt lat="40.9332117" lon="14.3012683"><ele>39.0</ele><time>2026-03-25T12:23:21.129Z</time></trkpt><trkpt lat="40.933285" lon="14.3012717"><ele>39.0</ele><time>2026-03-25T12:23:22.133Z</time></trkpt><trkpt lat="40.9333567" lon="14.30128"><ele>39.0</ele><time>2026-03-25T12:23:23.131Z</time></trkpt><trkpt lat="40.9334267" lon="14.301295"><ele>39.0</ele><time>2026-03-25T12:23:24.131Z</time></trkpt><trkpt lat="40.9334983" lon="14.301315"><ele>39.0</ele><time>2026-03-25T12:23:25.131Z</time></trkpt><trkpt lat="40.9335683" lon="14.3013433"><ele>39.0</ele><time>2026-03-25T12:23:26.131Z</time></trkpt><trkpt lat="40.933635" lon="14.3013817"><ele>39.0</ele><time>2026-03-25T12:23:27.13Z</time></trkpt><trkpt lat="40.9336967" lon="14.30143"><ele>39.0</ele><time>2026-03-25T12:23:28.132Z</time></trkpt><trkpt lat="40.9337583" lon="14.3014683"><ele>38.85714285714286</ele><time>2026-03-25T12:23:29.133Z</time></trkpt><trkpt lat="40.9338233" lon="14.3014867"><ele>38.71428571428571</ele><time>2026-03-25T12:23:30.131Z</time></trkpt><trkpt lat="40.9338883" lon="14.30148"><ele>38.57142857142857</ele><time>2026-03-25T12:23:31.13Z</time></trkpt><trkpt lat="40.933955" lon="14.3014483"><ele>38.42857142857143</ele><time>2026-03-25T12:23:32.132Z</time></trkpt><trkpt lat="40.9340117" lon="14.301405"><ele>38.28571428571429</ele><time>2026-03-25T12:23:33.13Z</time></trkpt><trkpt lat="40.93407" lon="14.3013567"><ele>38.14285714285714</ele><time>2026-03-25T12:23:34.131Z</time></trkpt><trkpt lat="40.9341383" lon="14.301325"><ele>38.0</ele><time>2026-03-25T12:23:35.131Z</time></trkpt><trkpt lat="40.93421" lon="14.3012867"><ele>38.166666666666664</ele><time>2026-03-25T12:23:36.13Z</time></trkpt><trkpt lat="40.9342767" lon="14.301255"><ele>38.33333333333333</ele><time>2026-03-25T12:23:37.135Z</time></trkpt><trkpt lat="40.9343483" lon="14.3012383"><ele>38.5</ele><time>2026-03-25T12:23:38.131Z</time></trkpt><trkpt lat="40.9344267" lon="14.3012433"><ele>38.666666666666664</ele><time>2026-03-25T12:23:39.131Z</time></trkpt><trkpt lat="40.9345" lon="14.301245"><ele>38.833333333333336</ele><time>2026-03-25T12:23:40.13Z</time></trkpt><trkpt lat="40.9345867" lon="14.3012517"><ele>39.0</ele><time>2026-03-25T12:23:41.131Z</time></trkpt><trkpt lat="40.9346617" lon="14.3012633"><ele>39.0</ele><time>2026-03-25T12:23:42.13Z</time></trkpt><trkpt lat="40.9347417" lon="14.3012667"><ele>39.0</ele><time>2026-03-25T12:23:43.131Z</time></trkpt><trkpt lat="40.9348167" lon="14.30127"><ele>39.0</ele><time>2026-03-25T12:23:44.131Z</time></trkpt><trkpt lat="40.9348917" lon="14.301275"><ele>39.0</ele><time>2026-03-25T12:23:45.13Z</time></trkpt><trkpt lat="40.9349667" lon="14.3012817"><ele>39.0</ele><time>2026-03-25T12:23:46.13Z</time></trkpt><trkpt lat="40.9350417" lon="14.301285"><ele>39.0</ele><time>2026-03-25T12:23:47.131Z</time></trkpt><trkpt lat="40.9351217" lon="14.3012867"><ele>38.666666666666664</ele><time>2026-03-25T12:23:48.13Z</time></trkpt><trkpt lat="40.9352033" lon="14.3012917"><ele>38.333333333333336</ele><time>2026-03-25T12:23:49.132Z</time></trkpt><trkpt lat="40.9352833" lon="14.301295"><ele>38.0</ele><time>2026-03-25T12:23:50.13Z</time></trkpt><trkpt lat="40.93537" lon="14.3012967"><ele>37.66666666666667</ele><time>2026-03-25T12:23:51.133Z</time></trkpt><trkpt lat="40.9354533" lon="14.3013"><ele>37.333333333333336</ele><time>2026-03-25T12:23:52.131Z</time></trkpt><trkpt lat="40.93554" lon="14.3012967"><ele>37.0</ele><time>2026-03-25T12:23:53.131Z</time></trkpt><trkpt lat="40.93562" lon="14.3012983"><ele>37.0</ele><time>2026-03-25T12:23:54.131Z</time></trkpt><trkpt lat="40.9356983" lon="14.3012917"><ele>37.0</ele><time>2026-03-25T12:23:55.131Z</time></trkpt><trkpt lat="40.9357767" lon="14.3012817"><ele>37.0</ele><time>2026-03-25T12:23:56.131Z</time></trkpt><trkpt lat="40.9358567" lon="14.301265"><ele>37.0</ele><time>2026-03-25T12:23:57.13Z</time></trkpt><trkpt lat="40.9359367" lon="14.3012483"><ele>37.0</ele><time>2026-03-25T12:23:58.131Z</time></trkpt><trkpt lat="40.936015" lon="14.3012283"><ele>37.0</ele><time>2026-03-25T12:23:59.131Z</time></trkpt><trkpt lat="40.9360933" lon="14.30121"><ele>37.0</ele><time>2026-03-25T12:24:00.13Z</time></trkpt><trkpt lat="40.936175" lon="14.301195"><ele>37.0</ele><time>2026-03-25T12:24:01.131Z</time></trkpt><trkpt lat="40.9362533" lon="14.3011767"><ele>37.0</ele><time>2026-03-25T12:24:02.131Z</time></trkpt><trkpt lat="40.93633" lon="14.3011633"><ele>37.0</ele><time>2026-03-25T12:24:03.131Z</time></trkpt><trkpt lat="40.9364083" lon="14.3011483"><ele>37.0</ele><time>2026-03-25T12:24:04.13Z</time></trkpt><trkpt lat="40.9364917" lon="14.3011317"><ele>37.0</ele><time>2026-03-25T12:24:05.131Z</time></trkpt><trkpt lat="40.936575" lon="14.3011217"><ele>37.0</ele><time>2026-03-25T12:24:06.13Z</time></trkpt><trkpt lat="40.9366567" lon="14.30111"><ele>37.0</ele><time>2026-03-25T12:24:07.131Z</time></trkpt><trkpt lat="40.93674" lon="14.3010933"><ele>37.0</ele><time>2026-03-25T12:24:08.131Z</time></trkpt><trkpt lat="40.9368167" lon="14.3010767"><ele>37.0</ele><time>2026-03-25T12:24:09.13Z</time></trkpt><trkpt lat="40.9368967" lon="14.3010583"><ele>37.0</ele><time>2026-03-25T12:24:10.13Z</time></trkpt><trkpt lat="40.9369817" lon="14.30104"><ele>37.0</ele><time>2026-03-25T12:24:11.131Z</time></trkpt><trkpt lat="40.9370633" lon="14.301025"><ele>37.0</ele><time>2026-03-25T12:24:12.131Z</time></trkpt><trkpt lat="40.9371467" lon="14.3010083"><ele>37.0</ele><time>2026-03-25T12:24:13.131Z</time></trkpt><trkpt lat="40.93723" lon="14.3009867"><ele>37.0</ele><time>2026-03-25T12:24:14.13Z</time></trkpt><trkpt lat="40.937315" lon="14.3009667"><ele>37.0</ele><time>2026-03-25T12:24:15.131Z</time></trkpt><trkpt lat="40.9374" lon="14.300945"><ele>37.0</ele><time>2026-03-25T12:24:16.131Z</time></trkpt><trkpt lat="40.93749" lon="14.3009267"><ele>37.0</ele><time>2026-03-25T12:24:17.13Z</time></trkpt><trkpt lat="40.9375783" lon="14.3009083"><ele>37.16666666666667</ele><time>2026-03-25T12:24:18.13Z</time></trkpt><trkpt lat="40.937665" lon="14.3008867"><ele>37.333333333333336</ele><time>2026-03-25T12:24:19.131Z</time></trkpt><trkpt lat="40.93775" lon="14.3008617"><ele>37.5</ele><time>2026-03-25T12:24:20.131Z</time></trkpt><trkpt lat="40.9378317" lon="14.3008383"><ele>37.666666666666664</ele><time>2026-03-25T12:24:21.13Z</time></trkpt><trkpt lat="40.9379133" lon="14.300815"><ele>37.83333333333333</ele><time>2026-03-25T12:24:22.13Z</time></trkpt><trkpt lat="40.9379917" lon="14.300795"><ele>38.0</ele><time>2026-03-25T12:24:23.132Z</time></trkpt><trkpt lat="40.9380683" lon="14.3007617"><ele>38.0</ele><time>2026-03-25T12:24:24.131Z</time></trkpt><trkpt lat="40.9381483" lon="14.3007233"><ele>38.0</ele><time>2026-03-25T12:24:25.131Z</time></trkpt><trkpt lat="40.938225" lon="14.3006833"><ele>38.0</ele><time>2026-03-25T12:24:26.13Z</time></trkpt><trkpt lat="40.9383017" lon="14.3006417"><ele>38.0</ele><time>2026-03-25T12:24:27.131Z</time></trkpt><trkpt lat="40.9383767" lon="14.3006"><ele>38.0</ele><time>2026-03-25T12:24:28.131Z</time></trkpt><trkpt lat="40.9384483" lon="14.3005567"><ele>38.0</ele><time>2026-03-25T12:24:29.131Z</time></trkpt><trkpt lat="40.9385183" lon="14.3005167"><ele>37.83333333333333</ele><time>2026-03-25T12:24:30.13Z</time></trkpt><trkpt lat="40.93859" lon="14.300475"><ele>37.666666666666664</ele><time>2026-03-25T12:24:31.131Z</time></trkpt><trkpt lat="40.9386583" lon="14.3004317"><ele>37.5</ele><time>2026-03-25T12:24:32.131Z</time></trkpt><trkpt lat="40.9387233" lon="14.3003917"><ele>37.333333333333336</ele><time>2026-03-25T12:24:33.132Z</time></trkpt><trkpt lat="40.9387917" lon="14.3003483"><ele>37.16666666666667</ele><time>2026-03-25T12:24:34.131Z</time></trkpt><trkpt lat="40.93886" lon="14.300295"><ele>37.0</ele><time>2026-03-25T12:24:35.13Z</time></trkpt><trkpt lat="40.93893" lon="14.3002467"><ele>37.0</ele><time>2026-03-25T12:24:36.131Z</time></trkpt><trkpt lat="40.939005" lon="14.3002067"><ele>37.0</ele><time>2026-03-25T12:24:37.132Z</time></trkpt><trkpt lat="40.93908" lon="14.3001633"><ele>37.0</ele><time>2026-03-25T12:24:38.131Z</time></trkpt><trkpt lat="40.9391517" lon="14.3001217"><ele>37.0</ele><time>2026-03-25T12:24:39.13Z</time></trkpt><trkpt lat="40.9392217" lon="14.3000817"><ele>37.0</ele><time>2026-03-25T12:24:40.131Z</time></trkpt><trkpt lat="40.93929" lon="14.3000467"><ele>37.0</ele><time>2026-03-25T12:24:41.131Z</time></trkpt><trkpt lat="40.9393583" lon="14.300005"><ele>36.833333333333336</ele><time>2026-03-25T12:24:42.131Z</time></trkpt><trkpt lat="40.939425" lon="14.29996"><ele>36.66666666666667</ele><time>2026-03-25T12:24:43.131Z</time></trkpt><trkpt lat="40.93949" lon="14.2999133"><ele>36.5</ele><time>2026-03-25T12:24:44.13Z</time></trkpt><trkpt lat="40.9395567" lon="14.2998683"><ele>36.333333333333336</ele><time>2026-03-25T12:24:45.13Z</time></trkpt><trkpt lat="40.939625" lon="14.2998333"><ele>36.166666666666664</ele><time>2026-03-25T12:24:46.129Z</time></trkpt><trkpt lat="40.939695" lon="14.2997933"><ele>36.0</ele><time>2026-03-25T12:24:47.13Z</time></trkpt><trkpt lat="40.9397683" lon="14.299755"><ele>36.0</ele><time>2026-03-25T12:24:48.13Z</time></trkpt><trkpt lat="40.9398367" lon="14.2997133"><ele>36.0</ele><time>2026-03-25T12:24:49.13Z</time></trkpt><trkpt lat="40.9399117" lon="14.2996783"><ele>36.0</ele><time>2026-03-25T12:24:50.129Z</time></trkpt><trkpt lat="40.9399917" lon="14.29964"><ele>36.0</ele><time>2026-03-25T12:24:51.129Z</time></trkpt><trkpt lat="40.9400683" lon="14.2996083"><ele>36.0</ele><time>2026-03-25T12:24:52.13Z</time></trkpt><trkpt lat="40.9401467" lon="14.2995817"><ele>36.0</ele><time>2026-03-25T12:24:53.129Z</time></trkpt><trkpt lat="40.9402267" lon="14.2995617"><ele>36.166666666666664</ele><time>2026-03-25T12:24:54.13Z</time></trkpt><trkpt lat="40.9403067" lon="14.2995417"><ele>36.333333333333336</ele><time>2026-03-25T12:24:55.129Z</time></trkpt><trkpt lat="40.940385" lon="14.29952"><ele>36.5</ele><time>2026-03-25T12:24:56.131Z</time></trkpt><trkpt lat="40.9404683" lon="14.29951"><ele>36.66666666666667</ele><time>2026-03-25T12:24:57.129Z</time></trkpt><trkpt lat="40.940545" lon="14.2994917"><ele>36.833333333333336</ele><time>2026-03-25T12:24:58.129Z</time></trkpt><trkpt lat="40.9406217" lon="14.2994633"><ele>37.0</ele><time>2026-03-25T12:24:59.13Z</time></trkpt><trkpt lat="40.940695" lon="14.2994417"><ele>37.0</ele><time>2026-03-25T12:25:00.128Z</time></trkpt><trkpt lat="40.940765" lon="14.2994167"><ele>37.0</ele><time>2026-03-25T12:25:01.129Z</time></trkpt><trkpt lat="40.9408367" lon="14.2993983"><ele>37.0</ele><time>2026-03-25T12:25:02.129Z</time></trkpt><trkpt lat="40.9409083" lon="14.299375"><ele>37.0</ele><time>2026-03-25T12:25:03.129Z</time></trkpt><trkpt lat="40.94098" lon="14.299355"><ele>37.0</ele><time>2026-03-25T12:25:04.13Z</time></trkpt><trkpt lat="40.94105" lon="14.2993283"><ele>37.0</ele><time>2026-03-25T12:25:05.13Z</time></trkpt><trkpt lat="40.941115" lon="14.2993017"><ele>37.0</ele><time>2026-03-25T12:25:06.129Z</time></trkpt><trkpt lat="40.94122" lon="14.299255"><ele>37.0</ele><time>2026-03-25T12:25:08.13Z</time></trkpt><trkpt lat="40.9413067" lon="14.2992367"><ele>37.0</ele><time>2026-03-25T12:25:11.13Z</time></trkpt><trkpt lat="40.9413983" lon="14.2991967"><ele>37.0</ele><time>2026-03-25T12:25:14.13Z</time></trkpt><trkpt lat="40.9414867" lon="14.2991583"><ele>37.0</ele><time>2026-03-25T12:25:16.13Z</time></trkpt><trkpt lat="40.9415817" lon="14.29912"><ele>37.0</ele><time>2026-03-25T12:25:18.13Z</time></trkpt><trkpt lat="40.9416667" lon="14.2990983"><ele>36.800000000000004</ele><time>2026-03-25T12:25:20.13Z</time></trkpt><trkpt lat="40.9417367" lon="14.299115"><ele>36.6</ele><time>2026-03-25T12:25:22.131Z</time></trkpt><trkpt lat="40.9418167" lon="14.2991083"><ele>36.400000000000006</ele><time>2026-03-25T12:25:24.13Z</time></trkpt><trkpt lat="40.94191" lon="14.2990867"><ele>36.2</ele><time>2026-03-25T12:25:26.13Z</time></trkpt><trkpt lat="40.9420183" lon="14.299055"><ele>36.0</ele><time>2026-03-25T12:25:28.13Z</time></trkpt><trkpt lat="40.94214" lon="14.2990467"><ele>36.0</ele><time>2026-03-25T12:25:30.13Z</time></trkpt><trkpt lat="40.942205" lon="14.2990383"><ele>36.0</ele><time>2026-03-25T12:25:31.13Z</time></trkpt><trkpt lat="40.9423183" lon="14.299025"><ele>36.0</ele><time>2026-03-25T12:25:33.131Z</time></trkpt><trkpt lat="40.9424183" lon="14.2990283"><ele>36.0</ele><time>2026-03-25T12:25:35.13Z</time></trkpt><trkpt lat="40.9425167" lon="14.2990317"><ele>36.0</ele><time>2026-03-25T12:25:37.131Z</time></trkpt><trkpt lat="40.9426267" lon="14.2990117"><ele>35.6</ele><time>2026-03-25T12:25:39.129Z</time></trkpt><trkpt lat="40.94269" lon="14.299005"><ele>35.2</ele><time>2026-03-25T12:25:40.13Z</time></trkpt><trkpt lat="40.9428033" lon="14.299"><ele>34.8</ele><time>2026-03-25T12:25:42.13Z</time></trkpt><trkpt lat="40.9429117" lon="14.2990167"><ele>34.4</ele><time>2026-03-25T12:25:44.131Z</time></trkpt><trkpt lat="40.9430133" lon="14.299015"><ele>34.0</ele><time>2026-03-25T12:25:46.129Z</time></trkpt><trkpt lat="40.9431217" lon="14.29902"><ele>34.0</ele><time>2026-03-25T12:25:48.129Z</time></trkpt><trkpt lat="40.9432283" lon="14.299025"><ele>34.0</ele><time>2026-03-25T12:25:50.13Z</time></trkpt><trkpt lat="40.9433433" lon="14.2990383"><ele>34.0</ele><time>2026-03-25T12:25:52.13Z</time></trkpt><trkpt lat="40.9434583" lon="14.2990633"><ele>34.0</ele><time>2026-03-25T12:25:54.13Z</time></trkpt><trkpt lat="40.9435833" lon="14.299085"><ele>33.66666666666667</ele><time>2026-03-25T12:25:56.13Z</time></trkpt><trkpt lat="40.9437083" lon="14.2991033"><ele>33.333333333333336</ele><time>2026-03-25T12:25:58.129Z</time></trkpt><trkpt lat="40.9437767" lon="14.2991167"><ele>33.0</ele><time>2026-03-25T12:25:59.131Z</time></trkpt><trkpt lat="40.9438433" lon="14.299125"><ele>32.666666666666664</ele><time>2026-03-25T12:26:00.13Z</time></trkpt><trkpt lat="40.9439117" lon="14.29913"><ele>32.33333333333333</ele><time>2026-03-25T12:26:01.131Z</time></trkpt><trkpt lat="40.94398" lon="14.2991367"><ele>32.0</ele><time>2026-03-25T12:26:02.13Z</time></trkpt><trkpt lat="40.9440467" lon="14.2991467"><ele>31.999999999999996</ele><time>2026-03-25T12:26:03.129Z</time></trkpt><trkpt lat="40.9441167" lon="14.2991583"><ele>32.0</ele><time>2026-03-25T12:26:04.13Z</time></trkpt><trkpt lat="40.9441817" lon="14.2991783"><ele>32.0</ele><time>2026-03-25T12:26:05.13Z</time></trkpt><trkpt lat="40.9442433" lon="14.2992083"><ele>32.0</ele><time>2026-03-25T12:26:06.13Z</time></trkpt><trkpt lat="40.9443417" lon="14.29928"><ele>31.999999999999996</ele><time>2026-03-25T12:26:08.13Z</time></trkpt><trkpt lat="40.9444317" lon="14.2993117"><ele>32.0</ele><time>2026-03-25T12:26:10.131Z</time></trkpt><trkpt lat="40.944515" lon="14.2992883"><ele>32.2</ele><time>2026-03-25T12:26:12.129Z</time></trkpt><trkpt lat="40.9445917" lon="14.29925"><ele>32.400000000000006</ele><time>2026-03-25T12:26:14.13Z</time></trkpt><trkpt lat="40.9446733" lon="14.2992467"><ele>32.599999999999994</ele><time>2026-03-25T12:26:16.13Z</time></trkpt><trkpt lat="40.9447733" lon="14.2992583"><ele>32.8</ele><time>2026-03-25T12:26:18.13Z</time></trkpt><trkpt lat="40.9448733" lon="14.2992883"><ele>33.0</ele><time>2026-03-25T12:26:20.129Z</time></trkpt><trkpt lat="40.9449833" lon="14.2993167"><ele>33.0</ele><time>2026-03-25T12:26:22.131Z</time></trkpt><trkpt lat="40.9451033" lon="14.299345"><ele>33.0</ele><time>2026-03-25T12:26:24.13Z</time></trkpt><trkpt lat="40.9451667" lon="14.29936"><ele>33.0</ele><time>2026-03-25T12:26:25.131Z</time></trkpt><trkpt lat="40.94523" lon="14.2993767"><ele>33.0</ele><time>2026-03-25T12:26:26.132Z</time></trkpt><trkpt lat="40.9453533" lon="14.2994"><ele>33.0</ele><time>2026-03-25T12:26:28.13Z</time></trkpt><trkpt lat="40.9454767" lon="14.2994183"><ele>33.0</ele><time>2026-03-25T12:26:30.13Z</time></trkpt><trkpt lat="40.94554" lon="14.2994283"><ele>33.0</ele><time>2026-03-25T12:26:31.13Z</time></trkpt><trkpt lat="40.945605" lon="14.2994383"><ele>33.0</ele><time>2026-03-25T12:26:32.13Z</time></trkpt><trkpt lat="40.9456717" lon="14.2994533"><ele>33.0</ele><time>2026-03-25T12:26:33.129Z</time></trkpt><trkpt lat="40.9457383" lon="14.2994667"><ele>33.0</ele><time>2026-03-25T12:26:34.13Z</time></trkpt><trkpt lat="40.945805" lon="14.29948"><ele>33.0</ele><time>2026-03-25T12:26:35.129Z</time></trkpt><trkpt lat="40.945875" lon="14.299495"><ele>33.0</ele><time>2026-03-25T12:26:36.13Z</time></trkpt><trkpt lat="40.945945" lon="14.29951"><ele>32.857142857142854</ele><time>2026-03-25T12:26:37.13Z</time></trkpt><trkpt lat="40.946015" lon="14.2995267"><ele>32.714285714285715</ele><time>2026-03-25T12:26:38.13Z</time></trkpt><trkpt lat="40.946085" lon="14.29954"><ele>32.57142857142857</ele><time>2026-03-25T12:26:39.131Z</time></trkpt><trkpt lat="40.9461517" lon="14.2995517"><ele>32.42857142857143</ele><time>2026-03-25T12:26:40.13Z</time></trkpt><trkpt lat="40.9462233" lon="14.299565"><ele>32.285714285714285</ele><time>2026-03-25T12:26:41.13Z</time></trkpt><trkpt lat="40.94629" lon="14.29958"><ele>32.14285714285714</ele><time>2026-03-25T12:26:42.13Z</time></trkpt><trkpt lat="40.9463533" lon="14.2996083"><ele>32.0</ele><time>2026-03-25T12:26:43.131Z</time></trkpt><trkpt lat="40.946415" lon="14.2996433"><ele>32.0</ele><time>2026-03-25T12:26:44.13Z</time></trkpt><trkpt lat="40.94647" lon="14.2996983"><ele>31.999999999999996</ele><time>2026-03-25T12:26:45.13Z</time></trkpt><trkpt lat="40.9465167" lon="14.2997717"><ele>32.0</ele><time>2026-03-25T12:26:46.129Z</time></trkpt><trkpt lat="40.946555" lon="14.299855"><ele>32.0</ele><time>2026-03-25T12:26:47.131Z</time></trkpt><trkpt lat="40.9465833" lon="14.299945"><ele>31.999999999999996</ele><time>2026-03-25T12:26:48.13Z</time></trkpt><trkpt lat="40.9466133" lon="14.3000333"><ele>32.0</ele><time>2026-03-25T12:26:49.13Z</time></trkpt><trkpt lat="40.9466433" lon="14.3001233"><ele>32.0</ele><time>2026-03-25T12:26:50.13Z</time></trkpt><trkpt lat="40.9466717" lon="14.3002117"><ele>32.0</ele><time>2026-03-25T12:26:51.129Z</time></trkpt><trkpt lat="40.9467" lon="14.3003033"><ele>31.999999999999996</ele><time>2026-03-25T12:26:52.13Z</time></trkpt><trkpt lat="40.94673" lon="14.3003917"><ele>32.0</ele><time>2026-03-25T12:26:53.131Z</time></trkpt><trkpt lat="40.9467617" lon="14.3004833"><ele>32.0</ele><time>2026-03-25T12:26:54.13Z</time></trkpt><trkpt lat="40.9467917" lon="14.3005717"><ele>31.999999999999996</ele><time>2026-03-25T12:26:55.13Z</time></trkpt><trkpt lat="40.9468233" lon="14.3006617"><ele>32.0</ele><time>2026-03-25T12:26:56.13Z</time></trkpt><trkpt lat="40.946855" lon="14.3007517"><ele>32.0</ele><time>2026-03-25T12:26:57.13Z</time></trkpt><trkpt lat="40.9468867" lon="14.3008417"><ele>31.833333333333332</ele><time>2026-03-25T12:26:58.131Z</time></trkpt><trkpt lat="40.9469183" lon="14.3009333"><ele>31.666666666666664</ele><time>2026-03-25T12:26:59.129Z</time></trkpt><trkpt lat="40.94695" lon="14.301025"><ele>31.5</ele><time>2026-03-25T12:27:00.13Z</time></trkpt><trkpt lat="40.94698" lon="14.3011133"><ele>31.333333333333336</ele><time>2026-03-25T12:27:01.13Z</time></trkpt><trkpt lat="40.94701" lon="14.3012033"><ele>31.166666666666668</ele><time>2026-03-25T12:27:02.13Z</time></trkpt><trkpt lat="40.9470417" lon="14.3012967"><ele>31.0</ele><time>2026-03-25T12:27:03.131Z</time></trkpt><trkpt lat="40.9470733" lon="14.3013883"><ele>31.333333333333336</ele><time>2026-03-25T12:27:04.131Z</time></trkpt><trkpt lat="40.947105" lon="14.3014817"><ele>31.666666666666668</ele><time>2026-03-25T12:27:05.129Z</time></trkpt><trkpt lat="40.9471367" lon="14.3015717"><ele>32.0</ele><time>2026-03-25T12:27:06.13Z</time></trkpt><trkpt lat="40.9471733" lon="14.30166"><ele>32.333333333333336</ele><time>2026-03-25T12:27:07.13Z</time></trkpt><trkpt lat="40.9472133" lon="14.30175"><ele>32.666666666666664</ele><time>2026-03-25T12:27:08.13Z</time></trkpt><trkpt lat="40.9472567" lon="14.3018317"><ele>33.0</ele><time>2026-03-25T12:27:09.13Z</time></trkpt><trkpt lat="40.947305" lon="14.3019117"><ele>33.0</ele><time>2026-03-25T12:27:10.131Z</time></trkpt><trkpt lat="40.9473533" lon="14.30199"><ele>33.0</ele><time>2026-03-25T12:27:11.129Z</time></trkpt><trkpt lat="40.9474" lon="14.3020667"><ele>33.0</ele><time>2026-03-25T12:27:12.13Z</time></trkpt><trkpt lat="40.9474383" lon="14.3021367"><ele>33.0</ele><time>2026-03-25T12:27:13.13Z</time></trkpt><trkpt lat="40.9475267" lon="14.30223"><ele>33.0</ele><time>2026-03-25T12:27:15.129Z</time></trkpt><trkpt lat="40.947655" lon="14.3022367"><ele>32.833333333333336</ele><time>2026-03-25T12:27:17.131Z</time></trkpt><trkpt lat="40.9477217" lon="14.3022367"><ele>32.666666666666664</ele><time>2026-03-25T12:27:18.131Z</time></trkpt><trkpt lat="40.9477883" lon="14.3022367"><ele>32.5</ele><time>2026-03-25T12:27:19.13Z</time></trkpt><trkpt lat="40.9478583" lon="14.3022367"><ele>32.33333333333333</ele><time>2026-03-25T12:27:20.13Z</time></trkpt><trkpt lat="40.94793" lon="14.30224"><ele>32.166666666666664</ele><time>2026-03-25T12:27:21.131Z</time></trkpt><trkpt lat="40.9479983" lon="14.302245"><ele>32.0</ele><time>2026-03-25T12:27:22.132Z</time></trkpt><trkpt lat="40.9481067" lon="14.302275"><ele>32.0</ele><time>2026-03-25T12:27:24.13Z</time></trkpt><trkpt lat="40.94819" lon="14.30229"><ele>32.0</ele><time>2026-03-25T12:27:26.131Z</time></trkpt><trkpt lat="40.9482767" lon="14.3023117"><ele>32.0</ele><time>2026-03-25T12:27:28.13Z</time></trkpt><trkpt lat="40.94837" lon="14.3023267"><ele>32.0</ele><time>2026-03-25T12:27:30.131Z</time></trkpt><trkpt lat="40.9484683" lon="14.30234"><ele>32.0</ele><time>2026-03-25T12:27:32.13Z</time></trkpt><trkpt lat="40.9485767" lon="14.302355"><ele>31.8</ele><time>2026-03-25T12:27:34.13Z</time></trkpt><trkpt lat="40.94868" lon="14.3023817"><ele>31.6</ele><time>2026-03-25T12:27:36.13Z</time></trkpt><trkpt lat="40.9487967" lon="14.302405"><ele>31.400000000000002</ele><time>2026-03-25T12:27:38.13Z</time></trkpt><trkpt lat="40.9489067" lon="14.30243"><ele>31.200000000000003</ele><time>2026-03-25T12:27:40.13Z</time></trkpt><trkpt lat="40.9489967" lon="14.3024517"><ele>31.0</ele><time>2026-03-25T12:27:42.129Z</time></trkpt><trkpt lat="40.94908" lon="14.3024717"><ele>31.0</ele><time>2026-03-25T12:27:44.129Z</time></trkpt><trkpt lat="40.9491717" lon="14.3025017"><ele>31.0</ele><time>2026-03-25T12:27:46.129Z</time></trkpt><trkpt lat="40.9492617" lon="14.3025233"><ele>31.0</ele><time>2026-03-25T12:27:48.129Z</time></trkpt><trkpt lat="40.9493517" lon="14.3025483"><ele>31.0</ele><time>2026-03-25T12:27:50.131Z</time></trkpt><trkpt lat="40.9494517" lon="14.3026"><ele>31.0</ele><time>2026-03-25T12:27:52.13Z</time></trkpt><trkpt lat="40.94956" lon="14.3026367"><ele>31.166666666666668</ele><time>2026-03-25T12:27:54.13Z</time></trkpt><trkpt lat="40.9496833" lon="14.302635"><ele>31.333333333333336</ele><time>2026-03-25T12:27:56.129Z</time></trkpt><trkpt lat="40.9497483" lon="14.3026383"><ele>31.5</ele><time>2026-03-25T12:27:57.131Z</time></trkpt><trkpt lat="40.9498117" lon="14.3026483"><ele>31.666666666666664</ele><time>2026-03-25T12:27:58.13Z</time></trkpt><trkpt lat="40.949875" lon="14.3026583"><ele>31.833333333333332</ele><time>2026-03-25T12:27:59.13Z</time></trkpt><trkpt lat="40.9499983" lon="14.3026633"><ele>32.0</ele><time>2026-03-25T12:28:01.131Z</time></trkpt><trkpt lat="40.9500633" lon="14.3026817"><ele>32.0</ele><time>2026-03-25T12:28:02.131Z</time></trkpt><trkpt lat="40.9501317" lon="14.3027033"><ele>31.999999999999996</ele><time>2026-03-25T12:28:03.13Z</time></trkpt><trkpt lat="40.9502" lon="14.3027167"><ele>32.0</ele><time>2026-03-25T12:28:04.13Z</time></trkpt><trkpt lat="40.9502667" lon="14.302735"><ele>32.0</ele><time>2026-03-25T12:28:05.131Z</time></trkpt><trkpt lat="40.9503367" lon="14.3027533"><ele>31.999999999999996</ele><time>2026-03-25T12:28:06.13Z</time></trkpt><trkpt lat="40.9504067" lon="14.30277"><ele>32.0</ele><time>2026-03-25T12:28:07.13Z</time></trkpt><trkpt lat="40.95048" lon="14.3027883"><ele>32.0</ele><time>2026-03-25T12:28:08.13Z</time></trkpt><trkpt lat="40.9505533" lon="14.302805"><ele>32.0</ele><time>2026-03-25T12:28:09.13Z</time></trkpt><trkpt lat="40.9506233" lon="14.3028267"><ele>31.999999999999996</ele><time>2026-03-25T12:28:10.13Z</time></trkpt><trkpt lat="40.95069" lon="14.30285"><ele>32.0</ele><time>2026-03-25T12:28:11.13Z</time></trkpt><trkpt lat="40.95076" lon="14.3028767"><ele>32.0</ele><time>2026-03-25T12:28:12.129Z</time></trkpt><trkpt lat="40.9508283" lon="14.302895"><ele>31.999999999999996</ele><time>2026-03-25T12:28:13.131Z</time></trkpt><trkpt lat="40.9509" lon="14.3029133"><ele>32.0</ele><time>2026-03-25T12:28:14.129Z</time></trkpt><trkpt lat="40.9509717" lon="14.3029317"><ele>32.0</ele><time>2026-03-25T12:28:15.131Z</time></trkpt><trkpt lat="40.9510483" lon="14.3029467"><ele>31.57142857142857</ele><time>2026-03-25T12:28:16.129Z</time></trkpt><trkpt lat="40.9511267" lon="14.3029567"><ele>31.14285714285714</ele><time>2026-03-25T12:28:17.13Z</time></trkpt><trkpt lat="40.9512017" lon="14.3029733"><ele>30.714285714285715</ele><time>2026-03-25T12:28:18.13Z</time></trkpt><trkpt lat="40.9512717" lon="14.3029917"><ele>30.285714285714285</ele><time>2026-03-25T12:28:19.13Z</time></trkpt><trkpt lat="40.9513467" lon="14.30301"><ele>29.857142857142858</ele><time>2026-03-25T12:28:20.129Z</time></trkpt><trkpt lat="40.95142" lon="14.3030267"><ele>29.42857142857143</ele><time>2026-03-25T12:28:21.13Z</time></trkpt><trkpt lat="40.9514917" lon="14.3030417"><ele>29.000000000000004</ele><time>2026-03-25T12:28:22.13Z</time></trkpt><trkpt lat="40.9515667" lon="14.30306"><ele>28.999999999999996</ele><time>2026-03-25T12:28:23.131Z</time></trkpt><trkpt lat="40.95164" lon="14.303075"><ele>29.0</ele><time>2026-03-25T12:28:24.13Z</time></trkpt><trkpt lat="40.9517117" lon="14.3030917"><ele>29.0</ele><time>2026-03-25T12:28:25.13Z</time></trkpt><trkpt lat="40.9517767" lon="14.30311"><ele>29.0</ele><time>2026-03-25T12:28:26.129Z</time></trkpt><trkpt lat="40.951845" lon="14.3031333"><ele>28.999999999999996</ele><time>2026-03-25T12:28:27.13Z</time></trkpt><trkpt lat="40.9519067" lon="14.30315"><ele>29.0</ele><time>2026-03-25T12:28:28.13Z</time></trkpt><trkpt lat="40.9520267" lon="14.3031867"><ele>29.166666666666664</ele><time>2026-03-25T12:28:30.129Z</time></trkpt><trkpt lat="40.9521533" lon="14.3032217"><ele>29.333333333333332</ele><time>2026-03-25T12:28:32.129Z</time></trkpt><trkpt lat="40.9522167" lon="14.3032417"><ele>29.5</ele><time>2026-03-25T12:28:33.133Z</time></trkpt><trkpt lat="40.9522783" lon="14.3032633"><ele>29.666666666666664</ele><time>2026-03-25T12:28:34.132Z</time></trkpt><trkpt lat="40.9523417" lon="14.3032817"><ele>29.833333333333332</ele><time>2026-03-25T12:28:35.13Z</time></trkpt><trkpt lat="40.952405" lon="14.3033"><ele>30.0</ele><time>2026-03-25T12:28:36.13Z</time></trkpt><trkpt lat="40.9524683" lon="14.3033167"><ele>30.0</ele><time>2026-03-25T12:28:37.131Z</time></trkpt><trkpt lat="40.9525333" lon="14.3033317"><ele>30.0</ele><time>2026-03-25T12:28:38.129Z</time></trkpt><trkpt lat="40.9526017" lon="14.30335"><ele>30.0</ele><time>2026-03-25T12:28:39.13Z</time></trkpt><trkpt lat="40.9526683" lon="14.3033933"><ele>30.0</ele><time>2026-03-25T12:28:40.132Z</time></trkpt><trkpt lat="40.9527317" lon="14.3034133"><ele>30.0</ele><time>2026-03-25T12:28:41.131Z</time></trkpt><trkpt lat="40.952795" lon="14.3034433"><ele>30.0</ele><time>2026-03-25T12:28:42.131Z</time></trkpt><trkpt lat="40.95286" lon="14.303475"><ele>30.0</ele><time>2026-03-25T12:28:43.13Z</time></trkpt><trkpt lat="40.9529233" lon="14.3034967"><ele>30.142857142857146</ele><time>2026-03-25T12:28:44.131Z</time></trkpt><trkpt lat="40.9529883" lon="14.303515"><ele>30.285714285714285</ele><time>2026-03-25T12:28:45.129Z</time></trkpt><trkpt lat="40.9530517" lon="14.303535"><ele>30.42857142857143</ele><time>2026-03-25T12:28:46.129Z</time></trkpt><trkpt lat="40.9531183" lon="14.3035633"><ele>30.571428571428573</ele><time>2026-03-25T12:28:47.13Z</time></trkpt><trkpt lat="40.953185" lon="14.3035733"><ele>30.714285714285715</ele><time>2026-03-25T12:28:48.13Z</time></trkpt><trkpt lat="40.9532533" lon="14.30359"><ele>30.857142857142858</ele><time>2026-03-25T12:28:49.129Z</time></trkpt><trkpt lat="40.9533217" lon="14.3036083"><ele>31.0</ele><time>2026-03-25T12:28:50.131Z</time></trkpt><trkpt lat="40.9533933" lon="14.3036267"><ele>31.0</ele><time>2026-03-25T12:28:51.13Z</time></trkpt><trkpt lat="40.9534683" lon="14.3036483"><ele>31.000000000000004</ele><time>2026-03-25T12:28:52.13Z</time></trkpt><trkpt lat="40.9535383" lon="14.3036717"><ele>31.0</ele><time>2026-03-25T12:28:53.13Z</time></trkpt><trkpt lat="40.9536033" lon="14.3036983"><ele>31.0</ele><time>2026-03-25T12:28:54.13Z</time></trkpt><trkpt lat="40.9536733" lon="14.3037217"><ele>31.000000000000004</ele><time>2026-03-25T12:28:55.129Z</time></trkpt><trkpt lat="40.9537433" lon="14.30375"><ele>31.0</ele><time>2026-03-25T12:28:56.13Z</time></trkpt><trkpt lat="40.9538067" lon="14.303785"><ele>31.0</ele><time>2026-03-25T12:28:57.131Z</time></trkpt><trkpt lat="40.9538783" lon="14.3038133"><ele>31.0</ele><time>2026-03-25T12:28:58.13Z</time></trkpt><trkpt lat="40.9539417" lon="14.3038417"><ele>31.000000000000004</ele><time>2026-03-25T12:28:59.132Z</time></trkpt><trkpt lat="40.9540067" lon="14.3038683"><ele>31.0</ele><time>2026-03-25T12:29:00.13Z</time></trkpt><trkpt lat="40.954075" lon="14.3039033"><ele>31.0</ele><time>2026-03-25T12:29:01.13Z</time></trkpt><trkpt lat="40.9541417" lon="14.30393"><ele>31.000000000000004</ele><time>2026-03-25T12:29:02.133Z</time></trkpt><trkpt lat="40.9542083" lon="14.303955"><ele>31.0</ele><time>2026-03-25T12:29:03.131Z</time></trkpt><trkpt lat="40.9542733" lon="14.30398"><ele>31.0</ele><time>2026-03-25T12:29:04.13Z</time></trkpt><trkpt lat="40.9543417" lon="14.3040067"><ele>30.571428571428573</ele><time>2026-03-25T12:29:05.13Z</time></trkpt><trkpt lat="40.9544083" lon="14.3040333"><ele>30.142857142857146</ele><time>2026-03-25T12:29:06.13Z</time></trkpt><trkpt lat="40.954475" lon="14.304055"><ele>29.714285714285715</ele><time>2026-03-25T12:29:07.13Z</time></trkpt><trkpt lat="40.95454" lon="14.3040817"><ele>29.285714285714285</ele><time>2026-03-25T12:29:08.13Z</time></trkpt><trkpt lat="40.9546067" lon="14.3041067"><ele>28.857142857142858</ele><time>2026-03-25T12:29:09.13Z</time></trkpt><trkpt lat="40.9546733" lon="14.3041333"><ele>28.42857142857143</ele><time>2026-03-25T12:29:10.129Z</time></trkpt><trkpt lat="40.9547367" lon="14.3041617"><ele>28.0</ele><time>2026-03-25T12:29:11.129Z</time></trkpt><trkpt lat="40.9548067" lon="14.304185"><ele>28.0</ele><time>2026-03-25T12:29:12.131Z</time></trkpt><trkpt lat="40.954875" lon="14.3042117"><ele>28.0</ele><time>2026-03-25T12:29:13.131Z</time></trkpt><trkpt lat="40.9549417" lon="14.3042383"><ele>28.0</ele><time>2026-03-25T12:29:14.129Z</time></trkpt><trkpt lat="40.9550083" lon="14.304265"><ele>28.0</ele><time>2026-03-25T12:29:15.131Z</time></trkpt><trkpt lat="40.95507" lon="14.3043067"><ele>28.0</ele><time>2026-03-25T12:29:16.13Z</time></trkpt><trkpt lat="40.9551317" lon="14.3043283"><ele>28.0</ele><time>2026-03-25T12:29:17.13Z</time></trkpt><trkpt lat="40.9551933" lon="14.3043533"><ele>28.0</ele><time>2026-03-25T12:29:18.13Z</time></trkpt><trkpt lat="40.9552567" lon="14.3043767"><ele>28.0</ele><time>2026-03-25T12:29:19.131Z</time></trkpt><trkpt lat="40.9553217" lon="14.3044033"><ele>28.0</ele><time>2026-03-25T12:29:20.13Z</time></trkpt><trkpt lat="40.9553867" lon="14.3044283"><ele>28.0</ele><time>2026-03-25T12:29:21.131Z</time></trkpt><trkpt lat="40.9554517" lon="14.3044483"><ele>28.0</ele><time>2026-03-25T12:29:22.131Z</time></trkpt><trkpt lat="40.9555217" lon="14.3044683"><ele>28.0</ele><time>2026-03-25T12:29:23.13Z</time></trkpt><trkpt lat="40.9555833" lon="14.3044933"><ele>28.0</ele><time>2026-03-25T12:29:24.13Z</time></trkpt><trkpt lat="40.9556467" lon="14.304515"><ele>28.0</ele><time>2026-03-25T12:29:25.131Z</time></trkpt><trkpt lat="40.9557117" lon="14.30453"><ele>28.0</ele><time>2026-03-25T12:29:26.131Z</time></trkpt><trkpt lat="40.9557783" lon="14.3045517"><ele>28.0</ele><time>2026-03-25T12:29:27.13Z</time></trkpt><trkpt lat="40.95584" lon="14.3045867"><ele>28.0</ele><time>2026-03-25T12:29:28.131Z</time></trkpt><trkpt lat="40.9559067" lon="14.3046167"><ele>28.0</ele><time>2026-03-25T12:29:29.131Z</time></trkpt><trkpt lat="40.95597" lon="14.3046417"><ele>28.0</ele><time>2026-03-25T12:29:30.131Z</time></trkpt><trkpt lat="40.9560417" lon="14.304665"><ele>28.0</ele><time>2026-03-25T12:29:31.13Z</time></trkpt><trkpt lat="40.95611" lon="14.3046883"><ele>28.0</ele><time>2026-03-25T12:29:32.131Z</time></trkpt><trkpt lat="40.956175" lon="14.3047133"><ele>28.166666666666668</ele><time>2026-03-25T12:29:33.13Z</time></trkpt><trkpt lat="40.95624" lon="14.3047333"><ele>28.333333333333336</ele><time>2026-03-25T12:29:34.129Z</time></trkpt><trkpt lat="40.95636" lon="14.3047583"><ele>28.5</ele><time>2026-03-25T12:29:36.131Z</time></trkpt><trkpt lat="40.9564533" lon="14.30478"><ele>28.666666666666664</ele><time>2026-03-25T12:29:38.13Z</time></trkpt><trkpt lat="40.9565333" lon="14.3047867"><ele>28.833333333333332</ele><time>2026-03-25T12:29:40.13Z</time></trkpt><trkpt lat="40.956615" lon="14.3048117"><ele>29.0</ele><time>2026-03-25T12:29:42.131Z</time></trkpt><trkpt lat="40.9567017" lon="14.3048433"><ele>28.999999999999996</ele><time>2026-03-25T12:29:44.131Z</time></trkpt><trkpt lat="40.95679" lon="14.304885"><ele>29.0</ele><time>2026-03-25T12:29:46.129Z</time></trkpt><trkpt lat="40.9568717" lon="14.3049283"><ele>29.0</ele><time>2026-03-25T12:29:48.13Z</time></trkpt><trkpt lat="40.9569433" lon="14.3049683"><ele>29.0</ele><time>2026-03-25T12:29:51.13Z</time></trkpt><trkpt lat="40.957015" lon="14.3050283"><ele>28.999999999999996</ele><time>2026-03-25T12:29:54.13Z</time></trkpt><trkpt lat="40.9570767" lon="14.3051017"><ele>29.0</ele><time>2026-03-25T12:29:56.138Z</time></trkpt><trkpt lat="40.957145" lon="14.3051817"><ele>29.0</ele><time>2026-03-25T12:29:58.131Z</time></trkpt><trkpt lat="40.9572233" lon="14.305255"><ele>29.0</ele><time>2026-03-25T12:30:00.13Z</time></trkpt><trkpt lat="40.957305" lon="14.3053317"><ele>29.0</ele><time>2026-03-25T12:30:02.13Z</time></trkpt><trkpt lat="40.957395" lon="14.305405"><ele>29.0</ele><time>2026-03-25T12:30:04.131Z</time></trkpt><trkpt lat="40.95749" lon="14.305485"><ele>29.0</ele><time>2026-03-25T12:30:06.131Z</time></trkpt><trkpt lat="40.95758" lon="14.3055767"><ele>29.0</ele><time>2026-03-25T12:30:08.13Z</time></trkpt><trkpt lat="40.9576733" lon="14.3056683"><ele>29.0</ele><time>2026-03-25T12:30:10.131Z</time></trkpt><trkpt lat="40.95777" lon="14.3057567"><ele>29.0</ele><time>2026-03-25T12:30:12.13Z</time></trkpt><trkpt lat="40.9578617" lon="14.3058567"><ele>29.0</ele><time>2026-03-25T12:30:14.132Z</time></trkpt><trkpt lat="40.9579533" lon="14.3059483"><ele>29.0</ele><time>2026-03-25T12:30:16.13Z</time></trkpt><trkpt lat="40.9580417" lon="14.3060433"><ele>29.0</ele><time>2026-03-25T12:30:18.131Z</time></trkpt><trkpt lat="40.9581283" lon="14.3061317"><ele>29.0</ele><time>2026-03-25T12:30:20.131Z</time></trkpt><trkpt lat="40.958215" lon="14.3062283"><ele>29.0</ele><time>2026-03-25T12:30:22.131Z</time></trkpt><trkpt lat="40.9583033" lon="14.3063317"><ele>28.833333333333332</ele><time>2026-03-25T12:30:24.131Z</time></trkpt><trkpt lat="40.9584" lon="14.3064367"><ele>28.666666666666664</ele><time>2026-03-25T12:30:26.13Z</time></trkpt><trkpt lat="40.95845" lon="14.3064917"><ele>28.5</ele><time>2026-03-25T12:30:27.13Z</time></trkpt><trkpt lat="40.9585033" lon="14.30654"><ele>28.333333333333336</ele><time>2026-03-25T12:30:28.13Z</time></trkpt><trkpt lat="40.95856" lon="14.3065867"><ele>28.166666666666668</ele><time>2026-03-25T12:30:29.131Z</time></trkpt><trkpt lat="40.95862" lon="14.3066283"><ele>28.0</ele><time>2026-03-25T12:30:30.131Z</time></trkpt><trkpt lat="40.9586783" lon="14.306665"><ele>28.0</ele><time>2026-03-25T12:30:31.131Z</time></trkpt><trkpt lat="40.95874" lon="14.3066967"><ele>28.0</ele><time>2026-03-25T12:30:32.131Z</time></trkpt><trkpt lat="40.958805" lon="14.3067317"><ele>28.0</ele><time>2026-03-25T12:30:33.131Z</time></trkpt><trkpt lat="40.9588733" lon="14.306755"><ele>28.0</ele><time>2026-03-25T12:30:34.13Z</time></trkpt><trkpt lat="40.95894" lon="14.3067767"><ele>28.0</ele><time>2026-03-25T12:30:35.131Z</time></trkpt><trkpt lat="40.9590067" lon="14.3067983"><ele>28.0</ele><time>2026-03-25T12:30:36.13Z</time></trkpt><trkpt lat="40.9590733" lon="14.306815"><ele>28.0</ele><time>2026-03-25T12:30:37.132Z</time></trkpt><trkpt lat="40.9591383" lon="14.3068217"><ele>27.2</ele><time>2026-03-25T12:30:38.131Z</time></trkpt><trkpt lat="40.9592033" lon="14.3068283"><ele>26.4</ele><time>2026-03-25T12:30:39.131Z</time></trkpt><trkpt lat="40.9593233" lon="14.30685"><ele>25.599999999999998</ele><time>2026-03-25T12:30:41.131Z</time></trkpt><trkpt lat="40.959425" lon="14.30689"><ele>24.799999999999997</ele><time>2026-03-25T12:30:43.133Z</time></trkpt><trkpt lat="40.9595383" lon="14.3069483"><ele>24.0</ele><time>2026-03-25T12:30:45.13Z</time></trkpt><trkpt lat="40.9596533" lon="14.3069833"><ele>24.0</ele><time>2026-03-25T12:30:47.13Z</time></trkpt><trkpt lat="40.9597683" lon="14.3070117"><ele>24.0</ele><time>2026-03-25T12:30:49.131Z</time></trkpt><trkpt lat="40.9598317" lon="14.3070283"><ele>24.0</ele><time>2026-03-25T12:30:50.132Z</time></trkpt><trkpt lat="40.9599383" lon="14.3070467"><ele>24.0</ele><time>2026-03-25T12:30:52.13Z</time></trkpt><trkpt lat="40.9600283" lon="14.3070683"><ele>24.0</ele><time>2026-03-25T12:30:54.13Z</time></trkpt><trkpt lat="40.9601" lon="14.307095"><ele>24.285714285714285</ele><time>2026-03-25T12:30:56.131Z</time></trkpt><trkpt lat="40.96017" lon="14.3071033"><ele>24.57142857142857</ele><time>2026-03-25T12:30:59.13Z</time></trkpt><trkpt lat="40.9602367" lon="14.30712"><ele>24.857142857142854</ele><time>2026-03-25T12:31:02.129Z</time></trkpt><trkpt lat="40.9603167" lon="14.307125"><ele>25.142857142857142</ele><time>2026-03-25T12:31:08.132Z</time></trkpt><trkpt lat="40.9604" lon="14.3071483"><ele>25.42857142857143</ele><time>2026-03-25T12:31:11.13Z</time></trkpt><trkpt lat="40.96047" lon="14.3071667"><ele>25.71428571428571</ele><time>2026-03-25T12:31:13.13Z</time></trkpt><trkpt lat="40.9605367" lon="14.307205"><ele>26.0</ele><time>2026-03-25T12:31:15.129Z</time></trkpt><trkpt lat="40.9606" lon="14.307255"><ele>25.999999999999996</ele><time>2026-03-25T12:31:17.131Z</time></trkpt><trkpt lat="40.9606667" lon="14.307315"><ele>26.0</ele><time>2026-03-25T12:31:19.13Z</time></trkpt><trkpt lat="40.960745" lon="14.30735"><ele>26.0</ele><time>2026-03-25T12:31:21.132Z</time></trkpt><trkpt lat="40.9608083" lon="14.3073517"><ele>26.0</ele><time>2026-03-25T12:31:23.134Z</time></trkpt><trkpt lat="40.9608817" lon="14.3073133"><ele>25.999999999999996</ele><time>2026-03-25T12:31:25.131Z</time></trkpt><trkpt lat="40.9609717" lon="14.3072867"><ele>26.0</ele><time>2026-03-25T12:31:27.132Z</time></trkpt><trkpt lat="40.9610667" lon="14.3072783"><ele>26.25</ele><time>2026-03-25T12:31:29.132Z</time></trkpt><trkpt lat="40.96117" lon="14.3072967"><ele>26.5</ele><time>2026-03-25T12:31:31.132Z</time></trkpt><trkpt lat="40.9612817" lon="14.3073283"><ele>26.75</ele><time>2026-03-25T12:31:33.132Z</time></trkpt><trkpt lat="40.9614017" lon="14.3073517"><ele>27.0</ele><time>2026-03-25T12:31:35.132Z</time></trkpt><trkpt lat="40.9615233" lon="14.30737"><ele>27.0</ele><time>2026-03-25T12:31:37.132Z</time></trkpt><trkpt lat="40.961645" lon="14.30737"><ele>27.000000000000004</ele><time>2026-03-25T12:31:39.13Z</time></trkpt><trkpt lat="40.9617083" lon="14.30737"><ele>27.000000000000004</ele><time>2026-03-25T12:31:40.131Z</time></trkpt><trkpt lat="40.96183" lon="14.30737"><ele>27.0</ele><time>2026-03-25T12:31:42.132Z</time></trkpt><trkpt lat="40.9619467" lon="14.3073683"><ele>27.0</ele><time>2026-03-25T12:31:44.132Z</time></trkpt><trkpt lat="40.9620617" lon="14.30736"><ele>27.0</ele><time>2026-03-25T12:31:46.129Z</time></trkpt><trkpt lat="40.96218" lon="14.307365"><ele>27.0</ele><time>2026-03-25T12:31:48.132Z</time></trkpt><trkpt lat="40.9622983" lon="14.307375"><ele>27.0</ele><time>2026-03-25T12:31:50.132Z</time></trkpt><trkpt lat="40.96242" lon="14.3073683"><ele>27.0</ele><time>2026-03-25T12:31:52.138Z</time></trkpt><trkpt lat="40.9625383" lon="14.30734"><ele>26.75</ele><time>2026-03-25T12:31:54.132Z</time></trkpt><trkpt lat="40.9626633" lon="14.30733"><ele>26.5</ele><time>2026-03-25T12:31:56.13Z</time></trkpt><trkpt lat="40.9627817" lon="14.3073183"><ele>26.25</ele><time>2026-03-25T12:31:58.132Z</time></trkpt><trkpt lat="40.9628933" lon="14.307295"><ele>26.0</ele><time>2026-03-25T12:32:00.132Z</time></trkpt><trkpt lat="40.9630117" lon="14.3072683"><ele>26.0</ele><time>2026-03-25T12:32:02.132Z</time></trkpt><trkpt lat="40.963125" lon="14.3072533"><ele>26.0</ele><time>2026-03-25T12:32:04.131Z</time></trkpt><trkpt lat="40.9632367" lon="14.3072383"><ele>26.0</ele><time>2026-03-25T12:32:06.132Z</time></trkpt><trkpt lat="40.9633533" lon="14.30722"><ele>26.0</ele><time>2026-03-25T12:32:08.132Z</time></trkpt><trkpt lat="40.9634717" lon="14.3072033"><ele>25.25</ele><time>2026-03-25T12:32:10.131Z</time></trkpt><trkpt lat="40.9635917" lon="14.3071983"><ele>24.5</ele><time>2026-03-25T12:32:12.129Z</time></trkpt><trkpt lat="40.9637117" lon="14.30718"><ele>23.75</ele><time>2026-03-25T12:32:14.13Z</time></trkpt><trkpt lat="40.9638233" lon="14.30716"><ele>23.0</ele><time>2026-03-25T12:32:16.13Z</time></trkpt><trkpt lat="40.963935" lon="14.307155"><ele>23.0</ele><time>2026-03-25T12:32:18.13Z</time></trkpt><trkpt lat="40.96405" lon="14.3071483"><ele>23.0</ele><time>2026-03-25T12:32:20.131Z</time></trkpt><trkpt lat="40.9641683" lon="14.30714"><ele>23.0</ele><time>2026-03-25T12:32:22.129Z</time></trkpt><trkpt lat="40.9642833" lon="14.3071283"><ele>23.0</ele><time>2026-03-25T12:32:24.131Z</time></trkpt><trkpt lat="40.9644033" lon="14.3071183"><ele>23.4</ele><time>2026-03-25T12:32:26.13Z</time></trkpt><trkpt lat="40.9645217" lon="14.307115"><ele>23.799999999999997</ele><time>2026-03-25T12:32:28.131Z</time></trkpt><trkpt lat="40.9646267" lon="14.307115"><ele>24.2</ele><time>2026-03-25T12:32:30.13Z</time></trkpt><trkpt lat="40.964735" lon="14.3070917"><ele>24.6</ele><time>2026-03-25T12:32:32.13Z</time></trkpt><trkpt lat="40.964845" lon="14.3070717"><ele>25.0</ele><time>2026-03-25T12:32:34.13Z</time></trkpt><trkpt lat="40.964965" lon="14.3070517"><ele>25.0</ele><time>2026-03-25T12:32:36.13Z</time></trkpt><trkpt lat="40.9650283" lon="14.3070367"><ele>25.0</ele><time>2026-03-25T12:32:37.131Z</time></trkpt><trkpt lat="40.9651483" lon="14.3070083"><ele>25.0</ele><time>2026-03-25T12:32:39.129Z</time></trkpt><trkpt lat="40.9652633" lon="14.3069917"><ele>25.0</ele><time>2026-03-25T12:32:41.13Z</time></trkpt><trkpt lat="40.965385" lon="14.3069683"><ele>25.0</ele><time>2026-03-25T12:32:43.13Z</time></trkpt><trkpt lat="40.96551" lon="14.3069417"><ele>25.0</ele><time>2026-03-25T12:32:45.13Z</time></trkpt><trkpt lat="40.9656283" lon="14.3069167"><ele>25.0</ele><time>2026-03-25T12:32:47.13Z</time></trkpt><trkpt lat="40.9657467" lon="14.306915"><ele>25.0</ele><time>2026-03-25T12:32:49.131Z</time></trkpt><trkpt lat="40.9658533" lon="14.3069367"><ele>25.0</ele><time>2026-03-25T12:32:51.13Z</time></trkpt><trkpt lat="40.965965" lon="14.3069617"><ele>25.0</ele><time>2026-03-25T12:32:53.13Z</time></trkpt><trkpt lat="40.966075" lon="14.306985"><ele>25.0</ele><time>2026-03-25T12:32:55.13Z</time></trkpt><trkpt lat="40.9661633" lon="14.3070383"><ele>25.0</ele><time>2026-03-25T12:32:57.132Z</time></trkpt><trkpt lat="40.9662533" lon="14.3070917"><ele>25.0</ele><time>2026-03-25T12:32:59.129Z</time></trkpt><trkpt lat="40.96635" lon="14.3071433"><ele>25.0</ele><time>2026-03-25T12:33:01.13Z</time></trkpt><trkpt lat="40.96645" lon="14.3072033"><ele>25.0</ele><time>2026-03-25T12:33:03.129Z</time></trkpt><trkpt lat="40.9665467" lon="14.3072533"><ele>25.0</ele><time>2026-03-25T12:33:05.131Z</time></trkpt><trkpt lat="40.9666483" lon="14.3073033"><ele>25.0</ele><time>2026-03-25T12:33:07.13Z</time></trkpt><trkpt lat="40.9667533" lon="14.307355"><ele>25.0</ele><time>2026-03-25T12:33:09.131Z</time></trkpt><trkpt lat="40.96685" lon="14.3073933"><ele>25.0</ele><time>2026-03-25T12:33:11.13Z</time></trkpt><trkpt lat="40.96695" lon="14.30745"><ele>24.8</ele><time>2026-03-25T12:33:13.131Z</time></trkpt><trkpt lat="40.9670467" lon="14.307505"><ele>24.6</ele><time>2026-03-25T12:33:15.13Z</time></trkpt><trkpt lat="40.9671533" lon="14.3075533"><ele>24.4</ele><time>2026-03-25T12:33:17.13Z</time></trkpt><trkpt lat="40.9672517" lon="14.3076033"><ele>24.2</ele><time>2026-03-25T12:33:19.13Z</time></trkpt><trkpt lat="40.967345" lon="14.3076483"><ele>24.0</ele><time>2026-03-25T12:33:21.129Z</time></trkpt><trkpt lat="40.9674417" lon="14.307705"><ele>24.5</ele><time>2026-03-25T12:33:23.132Z</time></trkpt><trkpt lat="40.9675483" lon="14.3077483"><ele>25.0</ele><time>2026-03-25T12:33:25.13Z</time></trkpt><trkpt lat="40.9676617" lon="14.3077883"><ele>25.5</ele><time>2026-03-25T12:33:27.13Z</time></trkpt><trkpt lat="40.967775" lon="14.3078367"><ele>26.0</ele><time>2026-03-25T12:33:29.131Z</time></trkpt><trkpt lat="40.9678917" lon="14.3078817"><ele>26.0</ele><time>2026-03-25T12:33:31.13Z</time></trkpt><trkpt lat="40.9680117" lon="14.3079383"><ele>26.0</ele><time>2026-03-25T12:33:33.131Z</time></trkpt><trkpt lat="40.968125" lon="14.307995"><ele>26.0</ele><time>2026-03-25T12:33:35.132Z</time></trkpt><trkpt lat="40.9682367" lon="14.3080533"><ele>26.0</ele><time>2026-03-25T12:33:37.133Z</time></trkpt><trkpt lat="40.9683017" lon="14.308085"><ele>26.0</ele><time>2026-03-25T12:33:38.135Z</time></trkpt><trkpt lat="40.9683667" lon="14.3081133"><ele>25.833333333333332</ele><time>2026-03-25T12:33:39.131Z</time></trkpt><trkpt lat="40.96843" lon="14.3081317"><ele>25.666666666666664</ele><time>2026-03-25T12:33:40.131Z</time></trkpt><trkpt lat="40.9685517" lon="14.3081683"><ele>25.5</ele><time>2026-03-25T12:33:42.132Z</time></trkpt><trkpt lat="40.9686167" lon="14.3081783"><ele>25.333333333333336</ele><time>2026-03-25T12:33:43.132Z</time></trkpt><trkpt lat="40.9686817" lon="14.3081983"><ele>25.166666666666668</ele><time>2026-03-25T12:33:44.135Z</time></trkpt><trkpt lat="40.9688033" lon="14.3082267"><ele>25.0</ele><time>2026-03-25T12:33:46.133Z</time></trkpt><trkpt lat="40.9688667" lon="14.3082433"><ele>25.000000000000004</ele><time>2026-03-25T12:33:47.132Z</time></trkpt><trkpt lat="40.9689883" lon="14.308265"><ele>25.0</ele><time>2026-03-25T12:33:49.132Z</time></trkpt><trkpt lat="40.9690517" lon="14.3082717"><ele>25.0</ele><time>2026-03-25T12:33:50.132Z</time></trkpt><trkpt lat="40.969115" lon="14.3082733"><ele>25.0</ele><time>2026-03-25T12:33:51.131Z</time></trkpt><trkpt lat="40.9691817" lon="14.3082767"><ele>25.000000000000004</ele><time>2026-03-25T12:33:52.131Z</time></trkpt><trkpt lat="40.96925" lon="14.308275"><ele>25.0</ele><time>2026-03-25T12:33:53.133Z</time></trkpt><trkpt lat="40.969315" lon="14.308275"><ele>24.857142857142858</ele><time>2026-03-25T12:33:54.134Z</time></trkpt><trkpt lat="40.9693783" lon="14.3082767"><ele>24.714285714285715</ele><time>2026-03-25T12:33:55.133Z</time></trkpt><trkpt lat="40.9694417" lon="14.3082817"><ele>24.57142857142857</ele><time>2026-03-25T12:33:56.133Z</time></trkpt><trkpt lat="40.9695067" lon="14.3082883"><ele>24.42857142857143</ele><time>2026-03-25T12:33:57.133Z</time></trkpt><trkpt lat="40.9695717" lon="14.3082967"><ele>24.285714285714285</ele><time>2026-03-25T12:33:58.133Z</time></trkpt><trkpt lat="40.9696967" lon="14.3082983"><ele>24.142857142857142</ele><time>2026-03-25T12:34:00.132Z</time></trkpt><trkpt lat="40.96976" lon="14.3082967"><ele>24.0</ele><time>2026-03-25T12:34:01.133Z</time></trkpt><trkpt lat="40.9698233" lon="14.308295"><ele>24.0</ele><time>2026-03-25T12:34:02.133Z</time></trkpt><trkpt lat="40.9698867" lon="14.3083017"><ele>24.0</ele><time>2026-03-25T12:34:03.131Z</time></trkpt><trkpt lat="40.9699533" lon="14.308305"><ele>24.0</ele><time>2026-03-25T12:34:04.131Z</time></trkpt><trkpt lat="40.9700183" lon="14.3083117"><ele>24.0</ele><time>2026-03-25T12:34:05.132Z</time></trkpt><trkpt lat="40.9701417" lon="14.308315"><ele>24.0</ele><time>2026-03-25T12:34:07.133Z</time></trkpt><trkpt lat="40.9702633" lon="14.3083217"><ele>24.0</ele><time>2026-03-25T12:34:09.133Z</time></trkpt><trkpt lat="40.970385" lon="14.308335"><ele>23.833333333333332</ele><time>2026-03-25T12:34:11.132Z</time></trkpt><trkpt lat="40.97051" lon="14.3083583"><ele>23.666666666666668</ele><time>2026-03-25T12:34:13.134Z</time></trkpt><trkpt lat="40.9705767" lon="14.3083833"><ele>23.5</ele><time>2026-03-25T12:34:14.135Z</time></trkpt><trkpt lat="40.9706417" lon="14.3084117"><ele>23.333333333333336</ele><time>2026-03-25T12:34:15.135Z</time></trkpt><trkpt lat="40.9707033" lon="14.308445"><ele>23.166666666666668</ele><time>2026-03-25T12:34:16.132Z</time></trkpt><trkpt lat="40.9707633" lon="14.3084767"><ele>23.0</ele><time>2026-03-25T12:34:17.133Z</time></trkpt><trkpt lat="40.970825" lon="14.308505"><ele>23.142857142857142</ele><time>2026-03-25T12:34:18.133Z</time></trkpt><trkpt lat="40.970885" lon="14.3085417"><ele>23.285714285714285</ele><time>2026-03-25T12:34:19.133Z</time></trkpt><trkpt lat="40.9709483" lon="14.3085783"><ele>23.428571428571427</ele><time>2026-03-25T12:34:20.133Z</time></trkpt><trkpt lat="40.9710117" lon="14.3086167"><ele>23.57142857142857</ele><time>2026-03-25T12:34:21.132Z</time></trkpt><trkpt lat="40.9710767" lon="14.308655"><ele>23.714285714285715</ele><time>2026-03-25T12:34:22.132Z</time></trkpt><trkpt lat="40.97114" lon="14.3087"><ele>23.857142857142854</ele><time>2026-03-25T12:34:23.133Z</time></trkpt><trkpt lat="40.971205" lon="14.3087417"><ele>24.0</ele><time>2026-03-25T12:34:24.134Z</time></trkpt><trkpt lat="40.9712683" lon="14.308785"><ele>23.999999999999996</ele><time>2026-03-25T12:34:25.135Z</time></trkpt><trkpt lat="40.9713367" lon="14.3088283"><ele>24.0</ele><time>2026-03-25T12:34:26.134Z</time></trkpt><trkpt lat="40.9713983" lon="14.3088683"><ele>24.0</ele><time>2026-03-25T12:34:27.133Z</time></trkpt><trkpt lat="40.97146" lon="14.30891"><ele>24.0</ele><time>2026-03-25T12:34:28.133Z</time></trkpt><trkpt lat="40.9715217" lon="14.3089483"><ele>24.0</ele><time>2026-03-25T12:34:29.133Z</time></trkpt><trkpt lat="40.971585" lon="14.3089833"><ele>23.999999999999996</ele><time>2026-03-25T12:34:30.133Z</time></trkpt><trkpt lat="40.9716483" lon="14.30902"><ele>24.0</ele><time>2026-03-25T12:34:31.133Z</time></trkpt><trkpt lat="40.971715" lon="14.3090583"><ele>23.857142857142854</ele><time>2026-03-25T12:34:32.133Z</time></trkpt><trkpt lat="40.97178" lon="14.3091"><ele>23.714285714285715</ele><time>2026-03-25T12:34:33.13Z</time></trkpt><trkpt lat="40.971845" lon="14.30914"><ele>23.57142857142857</ele><time>2026-03-25T12:34:34.132Z</time></trkpt><trkpt lat="40.9719083" lon="14.3091733"><ele>23.428571428571427</ele><time>2026-03-25T12:34:35.131Z</time></trkpt><trkpt lat="40.9719767" lon="14.309205"><ele>23.285714285714285</ele><time>2026-03-25T12:34:36.133Z</time></trkpt><trkpt lat="40.9720433" lon="14.3092367"><ele>23.142857142857142</ele><time>2026-03-25T12:34:37.134Z</time></trkpt><trkpt lat="40.9721133" lon="14.3092683"><ele>23.0</ele><time>2026-03-25T12:34:38.133Z</time></trkpt><trkpt lat="40.9721833" lon="14.3092967"><ele>23.0</ele><time>2026-03-25T12:34:39.133Z</time></trkpt><trkpt lat="40.9722533" lon="14.3093267"><ele>23.0</ele><time>2026-03-25T12:34:40.132Z</time></trkpt><trkpt lat="40.9723233" lon="14.3093533"><ele>23.0</ele><time>2026-03-25T12:34:41.133Z</time></trkpt><trkpt lat="40.9723933" lon="14.3093783"><ele>23.0</ele><time>2026-03-25T12:34:42.133Z</time></trkpt><trkpt lat="40.9724617" lon="14.309405"><ele>23.0</ele><time>2026-03-25T12:34:43.133Z</time></trkpt><trkpt lat="40.9725317" lon="14.3094333"><ele>23.0</ele><time>2026-03-25T12:34:44.135Z</time></trkpt><trkpt lat="40.9726" lon="14.3094617"><ele>23.0</ele><time>2026-03-25T12:34:45.134Z</time></trkpt><trkpt lat="40.9726683" lon="14.3094883"><ele>22.857142857142858</ele><time>2026-03-25T12:34:46.132Z</time></trkpt><trkpt lat="40.972735" lon="14.3095117"><ele>22.71428571428571</ele><time>2026-03-25T12:34:47.132Z</time></trkpt><trkpt lat="40.9728" lon="14.3095383"><ele>22.57142857142857</ele><time>2026-03-25T12:34:48.133Z</time></trkpt><trkpt lat="40.9728667" lon="14.3095633"><ele>22.42857142857143</ele><time>2026-03-25T12:34:49.133Z</time></trkpt><trkpt lat="40.9729317" lon="14.3095917"><ele>22.285714285714285</ele><time>2026-03-25T12:34:50.133Z</time></trkpt><trkpt lat="40.972995" lon="14.3096183"><ele>22.142857142857142</ele><time>2026-03-25T12:34:51.133Z</time></trkpt><trkpt lat="40.97306" lon="14.309645"><ele>22.0</ele><time>2026-03-25T12:34:52.133Z</time></trkpt><trkpt lat="40.973125" lon="14.3096683"><ele>22.0</ele><time>2026-03-25T12:34:53.134Z</time></trkpt><trkpt lat="40.97319" lon="14.3096917"><ele>22.0</ele><time>2026-03-25T12:34:54.134Z</time></trkpt><trkpt lat="40.973255" lon="14.309715"><ele>22.0</ele><time>2026-03-25T12:34:55.133Z</time></trkpt><trkpt lat="40.9733233" lon="14.3097367"><ele>22.0</ele><time>2026-03-25T12:34:56.133Z</time></trkpt><trkpt lat="40.9733917" lon="14.3097567"><ele>22.0</ele><time>2026-03-25T12:34:57.132Z</time></trkpt><trkpt lat="40.9734617" lon="14.3097783"><ele>22.0</ele><time>2026-03-25T12:34:58.133Z</time></trkpt><trkpt lat="40.973525" lon="14.3098083"><ele>22.0</ele><time>2026-03-25T12:34:59.134Z</time></trkpt><trkpt lat="40.9736417" lon="14.30985"><ele>22.0</ele><time>2026-03-25T12:35:01.134Z</time></trkpt><trkpt lat="40.97371" lon="14.3098583"><ele>22.0</ele><time>2026-03-25T12:35:02.134Z</time></trkpt><trkpt lat="40.9737817" lon="14.3098667"><ele>22.0</ele><time>2026-03-25T12:35:03.135Z</time></trkpt><trkpt lat="40.9738567" lon="14.3098667"><ele>22.0</ele><time>2026-03-25T12:35:04.134Z</time></trkpt><trkpt lat="40.9739283" lon="14.3098633"><ele>22.0</ele><time>2026-03-25T12:35:05.135Z</time></trkpt><trkpt lat="40.9739983" lon="14.309865"><ele>22.0</ele><time>2026-03-25T12:35:06.135Z</time></trkpt><trkpt lat="40.97407" lon="14.3098667"><ele>22.0</ele><time>2026-03-25T12:35:07.135Z</time></trkpt><trkpt lat="40.9741383" lon="14.30986"><ele>22.0</ele><time>2026-03-25T12:35:08.135Z</time></trkpt><trkpt lat="40.97421" lon="14.309855"><ele>22.0</ele><time>2026-03-25T12:35:09.135Z</time></trkpt><trkpt lat="40.9742783" lon="14.3098567"><ele>22.0</ele><time>2026-03-25T12:35:10.135Z</time></trkpt><trkpt lat="40.9743483" lon="14.3098583"><ele>22.0</ele><time>2026-03-25T12:35:11.135Z</time></trkpt><trkpt lat="40.9744167" lon="14.3098567"><ele>22.0</ele><time>2026-03-25T12:35:12.135Z</time></trkpt><trkpt lat="40.9744867" lon="14.3098533"><ele>22.0</ele><time>2026-03-25T12:35:13.133Z</time></trkpt><trkpt lat="40.9745567" lon="14.3098533"><ele>22.0</ele><time>2026-03-25T12:35:14.132Z</time></trkpt><trkpt lat="40.9746267" lon="14.3098517"><ele>22.0</ele><time>2026-03-25T12:35:15.133Z</time></trkpt><trkpt lat="40.9746967" lon="14.3098533"><ele>22.0</ele><time>2026-03-25T12:35:16.134Z</time></trkpt><trkpt lat="40.974765" lon="14.309855"><ele>22.0</ele><time>2026-03-25T12:35:17.131Z</time></trkpt><trkpt lat="40.9748317" lon="14.3098567"><ele>22.0</ele><time>2026-03-25T12:35:18.133Z</time></trkpt><trkpt lat="40.9748983" lon="14.309855"><ele>22.0</ele><time>2026-03-25T12:35:19.134Z</time></trkpt><trkpt lat="40.9749633" lon="14.3098533"><ele>22.0</ele><time>2026-03-25T12:35:20.133Z</time></trkpt><trkpt lat="40.97503" lon="14.3098567"><ele>22.0</ele><time>2026-03-25T12:35:21.132Z</time></trkpt><trkpt lat="40.9750967" lon="14.309855"><ele>22.0</ele><time>2026-03-25T12:35:22.133Z</time></trkpt><trkpt lat="40.97516" lon="14.30985"><ele>22.0</ele><time>2026-03-25T12:35:23.133Z</time></trkpt><trkpt lat="40.975225" lon="14.30985"><ele>22.0</ele><time>2026-03-25T12:35:24.136Z</time></trkpt><trkpt lat="40.9752883" lon="14.3098483"><ele>22.0</ele><time>2026-03-25T12:35:25.135Z</time></trkpt><trkpt lat="40.9754133" lon="14.3098267"><ele>22.0</ele><time>2026-03-25T12:35:27.135Z</time></trkpt><trkpt lat="40.9755367" lon="14.3097967"><ele>22.0</ele><time>2026-03-25T12:35:29.135Z</time></trkpt><trkpt lat="40.9755983" lon="14.3097767"><ele>22.0</ele><time>2026-03-25T12:35:30.134Z</time></trkpt><trkpt lat="40.9757167" lon="14.3097233"><ele>22.0</ele><time>2026-03-25T12:35:32.132Z</time></trkpt><trkpt lat="40.9758317" lon="14.3096617"><ele>22.0</ele><time>2026-03-25T12:35:34.135Z</time></trkpt><trkpt lat="40.9759483" lon="14.3096067"><ele>22.0</ele><time>2026-03-25T12:35:36.133Z</time></trkpt><trkpt lat="40.9760633" lon="14.30955"><ele>22.0</ele><time>2026-03-25T12:35:38.133Z</time></trkpt><trkpt lat="40.9761233" lon="14.3095183"><ele>22.0</ele><time>2026-03-25T12:35:39.135Z</time></trkpt><trkpt lat="40.9761817" lon="14.3094867"><ele>22.0</ele><time>2026-03-25T12:35:40.132Z</time></trkpt><trkpt lat="40.97624" lon="14.3094533"><ele>22.0</ele><time>2026-03-25T12:35:41.132Z</time></trkpt><trkpt lat="40.9763" lon="14.3094233"><ele>22.0</ele><time>2026-03-25T12:35:42.135Z</time></trkpt><trkpt lat="40.9764117" lon="14.3093633"><ele>22.0</ele><time>2026-03-25T12:35:44.135Z</time></trkpt><trkpt lat="40.97647" lon="14.3093317"><ele>22.0</ele><time>2026-03-25T12:35:45.133Z</time></trkpt><trkpt lat="40.976585" lon="14.3092717"><ele>21.6</ele><time>2026-03-25T12:35:47.134Z</time></trkpt><trkpt lat="40.9767" lon="14.3092067"><ele>21.200000000000003</ele><time>2026-03-25T12:35:49.134Z</time></trkpt><trkpt lat="40.97676" lon="14.3091767"><ele>20.8</ele><time>2026-03-25T12:35:50.133Z</time></trkpt><trkpt lat="40.9768733" lon="14.3091183"><ele>20.4</ele><time>2026-03-25T12:35:52.133Z</time></trkpt><trkpt lat="40.9769917" lon="14.3090733"><ele>20.0</ele><time>2026-03-25T12:35:54.135Z</time></trkpt><trkpt lat="40.9770533" lon="14.309055"><ele>20.0</ele><time>2026-03-25T12:35:55.138Z</time></trkpt><trkpt lat="40.9771167" lon="14.3090433"><ele>20.0</ele><time>2026-03-25T12:35:56.136Z</time></trkpt><trkpt lat="40.9771817" lon="14.3090383"><ele>20.0</ele><time>2026-03-25T12:35:57.134Z</time></trkpt><trkpt lat="40.9772467" lon="14.309045"><ele>20.0</ele><time>2026-03-25T12:35:58.134Z</time></trkpt><trkpt lat="40.97731" lon="14.309065"><ele>20.0</ele><time>2026-03-25T12:35:59.135Z</time></trkpt><trkpt lat="40.9773733" lon="14.30909"><ele>20.0</ele><time>2026-03-25T12:36:00.135Z</time></trkpt><trkpt lat="40.9774333" lon="14.3091233"><ele>20.0</ele><time>2026-03-25T12:36:01.136Z</time></trkpt><trkpt lat="40.97749" lon="14.309165"><ele>20.285714285714285</ele><time>2026-03-25T12:36:02.135Z</time></trkpt><trkpt lat="40.9775433" lon="14.3092117"><ele>20.571428571428573</ele><time>2026-03-25T12:36:03.134Z</time></trkpt><trkpt lat="40.9775967" lon="14.309265"><ele>20.857142857142858</ele><time>2026-03-25T12:36:04.135Z</time></trkpt><trkpt lat="40.977645" lon="14.309325"><ele>21.142857142857142</ele><time>2026-03-25T12:36:05.135Z</time></trkpt><trkpt lat="40.9776933" lon="14.309385"><ele>21.428571428571427</ele><time>2026-03-25T12:36:06.135Z</time></trkpt><trkpt lat="40.9777417" lon="14.3094417"><ele>21.714285714285715</ele><time>2026-03-25T12:36:07.136Z</time></trkpt><trkpt lat="40.97779" lon="14.3095"><ele>22.0</ele><time>2026-03-25T12:36:08.135Z</time></trkpt><trkpt lat="40.9778367" lon="14.30956"><ele>22.0</ele><time>2026-03-25T12:36:09.135Z</time></trkpt><trkpt lat="40.9778867" lon="14.30962"><ele>22.0</ele><time>2026-03-25T12:36:10.134Z</time></trkpt><trkpt lat="40.9779383" lon="14.30968"><ele>22.0</ele><time>2026-03-25T12:36:11.134Z</time></trkpt><trkpt lat="40.97799" lon="14.3097367"><ele>22.0</ele><time>2026-03-25T12:36:12.135Z</time></trkpt><trkpt lat="40.978045" lon="14.3097933"><ele>22.0</ele><time>2026-03-25T12:36:13.135Z</time></trkpt><trkpt lat="40.9780967" lon="14.3098517"><ele>22.0</ele><time>2026-03-25T12:36:14.132Z</time></trkpt><trkpt lat="40.9781483" lon="14.30991"><ele>22.0</ele><time>2026-03-25T12:36:15.133Z</time></trkpt><trkpt lat="40.9782033" lon="14.3099633"><ele>21.714285714285715</ele><time>2026-03-25T12:36:16.133Z</time></trkpt><trkpt lat="40.9782617" lon="14.31002"><ele>21.428571428571427</ele><time>2026-03-25T12:36:17.134Z</time></trkpt><trkpt lat="40.97832" lon="14.3100733"><ele>21.142857142857142</ele><time>2026-03-25T12:36:18.133Z</time></trkpt><trkpt lat="40.9783783" lon="14.3101283"><ele>20.857142857142858</ele><time>2026-03-25T12:36:19.13Z</time></trkpt><trkpt lat="40.9784367" lon="14.310185"><ele>20.571428571428573</ele><time>2026-03-25T12:36:20.132Z</time></trkpt><trkpt lat="40.9784933" lon="14.3102433"><ele>20.285714285714285</ele><time>2026-03-25T12:36:21.133Z</time></trkpt><trkpt lat="40.9785483" lon="14.3102967"><ele>20.0</ele><time>2026-03-25T12:36:22.131Z</time></trkpt><trkpt lat="40.9786083" lon="14.3103533"><ele>20.0</ele><time>2026-03-25T12:36:23.134Z</time></trkpt><trkpt lat="40.9786667" lon="14.310415"><ele>20.0</ele><time>2026-03-25T12:36:24.134Z</time></trkpt><trkpt lat="40.9787267" lon="14.3104767"><ele>20.0</ele><time>2026-03-25T12:36:25.132Z</time></trkpt><trkpt lat="40.9787867" lon="14.31054"><ele>20.0</ele><time>2026-03-25T12:36:26.135Z</time></trkpt><trkpt lat="40.9788467" lon="14.3106"><ele>20.0</ele><time>2026-03-25T12:36:27.132Z</time></trkpt><trkpt lat="40.9789067" lon="14.3106617"><ele>20.0</ele><time>2026-03-25T12:36:28.134Z</time></trkpt><trkpt lat="40.978965" lon="14.3107167"><ele>20.142857142857142</ele><time>2026-03-25T12:36:29.134Z</time></trkpt><trkpt lat="40.9790233" lon="14.3107733"><ele>20.285714285714285</ele><time>2026-03-25T12:36:30.134Z</time></trkpt><trkpt lat="40.9790783" lon="14.3108267"><ele>20.42857142857143</ele><time>2026-03-25T12:36:31.133Z</time></trkpt><trkpt lat="40.979135" lon="14.3108767"><ele>20.57142857142857</ele><time>2026-03-25T12:36:32.132Z</time></trkpt><trkpt lat="40.979195" lon="14.3109317"><ele>20.714285714285715</ele><time>2026-03-25T12:36:33.134Z</time></trkpt><trkpt lat="40.9792567" lon="14.3109883"><ele>20.857142857142858</ele><time>2026-03-25T12:36:34.134Z</time></trkpt><trkpt lat="40.9793167" lon="14.3110417"><ele>21.0</ele><time>2026-03-25T12:36:35.131Z</time></trkpt><trkpt lat="40.9793783" lon="14.3110983"><ele>21.0</ele><time>2026-03-25T12:36:36.134Z</time></trkpt><trkpt lat="40.97944" lon="14.3111517"><ele>21.0</ele><time>2026-03-25T12:36:37.135Z</time></trkpt><trkpt lat="40.9794983" lon="14.3111967"><ele>21.0</ele><time>2026-03-25T12:36:38.133Z</time></trkpt><trkpt lat="40.979555" lon="14.3112433"><ele>21.0</ele><time>2026-03-25T12:36:39.132Z</time></trkpt><trkpt lat="40.9796133" lon="14.31129"><ele>21.0</ele><time>2026-03-25T12:36:40.134Z</time></trkpt><trkpt lat="40.9796717" lon="14.31134"><ele>21.0</ele><time>2026-03-25T12:36:41.132Z</time></trkpt><trkpt lat="40.97973" lon="14.3113917"><ele>21.0</ele><time>2026-03-25T12:36:42.134Z</time></trkpt><trkpt lat="40.9797883" lon="14.3114417"><ele>21.0</ele><time>2026-03-25T12:36:43.135Z</time></trkpt><trkpt lat="40.9798517" lon="14.3114883"><ele>21.0</ele><time>2026-03-25T12:36:44.134Z</time></trkpt><trkpt lat="40.979915" lon="14.311535"><ele>21.0</ele><time>2026-03-25T12:36:45.133Z</time></trkpt><trkpt lat="40.97998" lon="14.31158"><ele>21.0</ele><time>2026-03-25T12:36:46.133Z</time></trkpt><trkpt lat="40.9800433" lon="14.31162"><ele>21.0</ele><time>2026-03-25T12:36:47.133Z</time></trkpt><trkpt lat="40.980105" lon="14.311665"><ele>21.0</ele><time>2026-03-25T12:36:48.132Z</time></trkpt><trkpt lat="40.9801667" lon="14.3117083"><ele>21.0</ele><time>2026-03-25T12:36:49.132Z</time></trkpt><trkpt lat="40.9802283" lon="14.31175"><ele>21.285714285714285</ele><time>2026-03-25T12:36:50.133Z</time></trkpt><trkpt lat="40.9802917" lon="14.3117917"><ele>21.57142857142857</ele><time>2026-03-25T12:36:51.132Z</time></trkpt><trkpt lat="40.9803533" lon="14.31183"><ele>21.857142857142858</ele><time>2026-03-25T12:36:52.132Z</time></trkpt><trkpt lat="40.980415" lon="14.31187"><ele>22.142857142857142</ele><time>2026-03-25T12:36:53.131Z</time></trkpt><trkpt lat="40.9804767" lon="14.3119083"><ele>22.428571428571427</ele><time>2026-03-25T12:36:54.131Z</time></trkpt><trkpt lat="40.98054" lon="14.3119467"><ele>22.714285714285715</ele><time>2026-03-25T12:36:55.135Z</time></trkpt><trkpt lat="40.9806017" lon="14.3119883"><ele>23.0</ele><time>2026-03-25T12:36:56.132Z</time></trkpt><trkpt lat="40.980665" lon="14.3120283"><ele>23.0</ele><time>2026-03-25T12:36:57.134Z</time></trkpt><trkpt lat="40.980725" lon="14.312065"><ele>23.0</ele><time>2026-03-25T12:36:58.132Z</time></trkpt><trkpt lat="40.9807833" lon="14.3121"><ele>23.0</ele><time>2026-03-25T12:36:59.135Z</time></trkpt><trkpt lat="40.980845" lon="14.3121367"><ele>23.0</ele><time>2026-03-25T12:37:00.134Z</time></trkpt><trkpt lat="40.9809067" lon="14.3121683"><ele>23.0</ele><time>2026-03-25T12:37:01.135Z</time></trkpt><trkpt lat="40.9809683" lon="14.3122033"><ele>23.0</ele><time>2026-03-25T12:37:02.134Z</time></trkpt><trkpt lat="40.9810283" lon="14.3122367"><ele>23.0</ele><time>2026-03-25T12:37:03.131Z</time></trkpt><trkpt lat="40.98109" lon="14.31227"><ele>22.714285714285715</ele><time>2026-03-25T12:37:04.134Z</time></trkpt><trkpt lat="40.9811483" lon="14.3123017"><ele>22.428571428571427</ele><time>2026-03-25T12:37:05.134Z</time></trkpt><trkpt lat="40.98121" lon="14.3123333"><ele>22.142857142857142</ele><time>2026-03-25T12:37:06.134Z</time></trkpt><trkpt lat="40.9813267" lon="14.3123883"><ele>21.857142857142858</ele><time>2026-03-25T12:37:08.132Z</time></trkpt><trkpt lat="40.9813867" lon="14.3124167"><ele>21.57142857142857</ele><time>2026-03-25T12:37:09.135Z</time></trkpt><trkpt lat="40.9814483" lon="14.3124433"><ele>21.285714285714285</ele><time>2026-03-25T12:37:10.132Z</time></trkpt><trkpt lat="40.98151" lon="14.3124667"><ele>21.0</ele><time>2026-03-25T12:37:11.133Z</time></trkpt><trkpt lat="40.9815733" lon="14.3124867"><ele>20.833333333333332</ele><time>2026-03-25T12:37:12.133Z</time></trkpt><trkpt lat="40.981695" lon="14.3125017"><ele>20.666666666666668</ele><time>2026-03-25T12:37:14.134Z</time></trkpt><trkpt lat="40.98176" lon="14.312505"><ele>20.5</ele><time>2026-03-25T12:37:15.134Z</time></trkpt><trkpt lat="40.981825" lon="14.31251"><ele>20.333333333333336</ele><time>2026-03-25T12:37:16.13Z</time></trkpt><trkpt lat="40.9818917" lon="14.31251"><ele>20.166666666666668</ele><time>2026-03-25T12:37:17.132Z</time></trkpt><trkpt lat="40.98196" lon="14.3125117"><ele>20.0</ele><time>2026-03-25T12:37:18.132Z</time></trkpt><trkpt lat="40.9820283" lon="14.3125117"><ele>20.0</ele><time>2026-03-25T12:37:19.132Z</time></trkpt><trkpt lat="40.9820967" lon="14.3125133"><ele>20.0</ele><time>2026-03-25T12:37:20.132Z</time></trkpt><trkpt lat="40.9821667" lon="14.3125133"><ele>20.0</ele><time>2026-03-25T12:37:21.131Z</time></trkpt><trkpt lat="40.9822383" lon="14.3125133"><ele>20.0</ele><time>2026-03-25T12:37:22.132Z</time></trkpt><trkpt lat="40.9823083" lon="14.3125133"><ele>20.0</ele><time>2026-03-25T12:37:23.135Z</time></trkpt><trkpt lat="40.98238" lon="14.312515"><ele>20.0</ele><time>2026-03-25T12:37:24.133Z</time></trkpt><trkpt lat="40.9824517" lon="14.3125133"><ele>20.0</ele><time>2026-03-25T12:37:25.137Z</time></trkpt><trkpt lat="40.9825217" lon="14.3125117"><ele>20.0</ele><time>2026-03-25T12:37:26.134Z</time></trkpt><trkpt lat="40.9825917" lon="14.3125133"><ele>20.0</ele><time>2026-03-25T12:37:27.135Z</time></trkpt><trkpt lat="40.9826633" lon="14.3125167"><ele>20.0</ele><time>2026-03-25T12:37:28.134Z</time></trkpt><trkpt lat="40.9827333" lon="14.3125167"><ele>20.0</ele><time>2026-03-25T12:37:29.133Z</time></trkpt><trkpt lat="40.982805" lon="14.3125133"><ele>20.0</ele><time>2026-03-25T12:37:30.133Z</time></trkpt><trkpt lat="40.9828767" lon="14.3125083"><ele>20.0</ele><time>2026-03-25T12:37:31.135Z</time></trkpt><trkpt lat="40.9829433" lon="14.3125033"><ele>20.0</ele><time>2026-03-25T12:37:32.134Z</time></trkpt><trkpt lat="40.9830067" lon="14.3125"><ele>20.0</ele><time>2026-03-25T12:37:33.134Z</time></trkpt><trkpt lat="40.9830717" lon="14.3124967"><ele>20.0</ele><time>2026-03-25T12:37:34.134Z</time></trkpt><trkpt lat="40.9831367" lon="14.3124883"><ele>20.0</ele><time>2026-03-25T12:37:35.135Z</time></trkpt><trkpt lat="40.9832017" lon="14.31248"><ele>20.0</ele><time>2026-03-25T12:37:36.134Z</time></trkpt><trkpt lat="40.9833267" lon="14.31244"><ele>20.0</ele><time>2026-03-25T12:37:38.132Z</time></trkpt><trkpt lat="40.9833883" lon="14.31241"><ele>20.0</ele><time>2026-03-25T12:37:39.134Z</time></trkpt><trkpt lat="40.9834483" lon="14.3123817"><ele>20.0</ele><time>2026-03-25T12:37:40.134Z</time></trkpt><trkpt lat="40.98351" lon="14.312355"><ele>20.0</ele><time>2026-03-25T12:37:41.133Z</time></trkpt><trkpt lat="40.9835733" lon="14.3123233"><ele>20.0</ele><time>2026-03-25T12:37:42.133Z</time></trkpt><trkpt lat="40.983635" lon="14.3122883"><ele>20.0</ele><time>2026-03-25T12:37:43.135Z</time></trkpt><trkpt lat="40.9836983" lon="14.312255"><ele>20.0</ele><time>2026-03-25T12:37:44.132Z</time></trkpt><trkpt lat="40.98376" lon="14.31222"><ele>20.0</ele><time>2026-03-25T12:37:45.132Z</time></trkpt><trkpt lat="40.9838217" lon="14.312185"><ele>20.0</ele><time>2026-03-25T12:37:46.132Z</time></trkpt><trkpt lat="40.9838817" lon="14.3121517"><ele>20.0</ele><time>2026-03-25T12:37:47.134Z</time></trkpt><trkpt lat="40.9839433" lon="14.3121167"><ele>20.0</ele><time>2026-03-25T12:37:48.133Z</time></trkpt><trkpt lat="40.9840067" lon="14.312085"><ele>20.0</ele><time>2026-03-25T12:37:49.135Z</time></trkpt><trkpt lat="40.9840717" lon="14.3120567"><ele>20.0</ele><time>2026-03-25T12:37:50.134Z</time></trkpt><trkpt lat="40.9841333" lon="14.3120267"><ele>20.0</ele><time>2026-03-25T12:37:51.134Z</time></trkpt><trkpt lat="40.984195" lon="14.3119983"><ele>20.0</ele><time>2026-03-25T12:37:52.132Z</time></trkpt><trkpt lat="40.984255" lon="14.3119717"><ele>20.0</ele><time>2026-03-25T12:37:53.135Z</time></trkpt><trkpt lat="40.9843167" lon="14.3119433"><ele>20.142857142857142</ele><time>2026-03-25T12:37:54.133Z</time></trkpt><trkpt lat="40.9843767" lon="14.3119117"><ele>20.285714285714285</ele><time>2026-03-25T12:37:55.136Z</time></trkpt><trkpt lat="40.9844417" lon="14.31188"><ele>20.42857142857143</ele><time>2026-03-25T12:37:56.134Z</time></trkpt><trkpt lat="40.984505" lon="14.31185"><ele>20.57142857142857</ele><time>2026-03-25T12:37:57.132Z</time></trkpt><trkpt lat="40.984565" lon="14.31182"><ele>20.714285714285715</ele><time>2026-03-25T12:37:58.133Z</time></trkpt><trkpt lat="40.9846267" lon="14.31179"><ele>20.857142857142858</ele><time>2026-03-25T12:37:59.132Z</time></trkpt><trkpt lat="40.98469" lon="14.31176"><ele>21.0</ele><time>2026-03-25T12:38:00.134Z</time></trkpt><trkpt lat="40.9847517" lon="14.3117317"><ele>21.0</ele><time>2026-03-25T12:38:01.135Z</time></trkpt><trkpt lat="40.9848117" lon="14.311705"><ele>21.0</ele><time>2026-03-25T12:38:02.134Z</time></trkpt><trkpt lat="40.9848733" lon="14.3116767"><ele>21.0</ele><time>2026-03-25T12:38:03.134Z</time></trkpt><trkpt lat="40.984935" lon="14.3116533"><ele>21.0</ele><time>2026-03-25T12:38:04.134Z</time></trkpt><trkpt lat="40.9849967" lon="14.3116267"><ele>21.0</ele><time>2026-03-25T12:38:05.134Z</time></trkpt><trkpt lat="40.9850583" lon="14.3116033"><ele>21.0</ele><time>2026-03-25T12:38:06.134Z</time></trkpt><trkpt lat="40.98512" lon="14.3115817"><ele>21.0</ele><time>2026-03-25T12:38:07.135Z</time></trkpt><trkpt lat="40.9852417" lon="14.311555"><ele>20.857142857142858</ele><time>2026-03-25T12:38:09.134Z</time></trkpt><trkpt lat="40.9853067" lon="14.3115517"><ele>20.714285714285715</ele><time>2026-03-25T12:38:10.133Z</time></trkpt><trkpt lat="40.9853733" lon="14.311555"><ele>20.57142857142857</ele><time>2026-03-25T12:38:11.135Z</time></trkpt><trkpt lat="40.9854383" lon="14.3115617"><ele>20.42857142857143</ele><time>2026-03-25T12:38:12.133Z</time></trkpt><trkpt lat="40.9855033" lon="14.3115683"><ele>20.285714285714285</ele><time>2026-03-25T12:38:13.135Z</time></trkpt><trkpt lat="40.9855667" lon="14.3115767"><ele>20.142857142857142</ele><time>2026-03-25T12:38:14.134Z</time></trkpt><trkpt lat="40.98563" lon="14.311585"><ele>20.0</ele><time>2026-03-25T12:38:15.134Z</time></trkpt><trkpt lat="40.9856933" lon="14.3115967"><ele>20.0</ele><time>2026-03-25T12:38:16.135Z</time></trkpt><trkpt lat="40.98582" lon="14.311615"><ele>20.0</ele><time>2026-03-25T12:38:18.134Z</time></trkpt><trkpt lat="40.9858833" lon="14.3116267"><ele>20.0</ele><time>2026-03-25T12:38:19.135Z</time></trkpt><trkpt lat="40.98601" lon="14.311645"><ele>20.0</ele><time>2026-03-25T12:38:21.132Z</time></trkpt><trkpt lat="40.9860733" lon="14.3116567"><ele>20.0</ele><time>2026-03-25T12:38:22.134Z</time></trkpt><trkpt lat="40.9861983" lon="14.3116767"><ele>20.0</ele><time>2026-03-25T12:38:24.134Z</time></trkpt><trkpt lat="40.9863217" lon="14.3116967"><ele>20.0</ele><time>2026-03-25T12:38:26.132Z</time></trkpt><trkpt lat="40.9864433" lon="14.31172"><ele>20.0</ele><time>2026-03-25T12:38:28.134Z</time></trkpt><trkpt lat="40.98656" lon="14.3117383"><ele>20.0</ele><time>2026-03-25T12:38:30.134Z</time></trkpt><trkpt lat="40.98668" lon="14.31176"><ele>20.0</ele><time>2026-03-25T12:38:32.133Z</time></trkpt><trkpt lat="40.9868" lon="14.3117883"><ele>20.0</ele><time>2026-03-25T12:38:34.134Z</time></trkpt><trkpt lat="40.9869183" lon="14.31182"><ele>20.0</ele><time>2026-03-25T12:38:36.133Z</time></trkpt><trkpt lat="40.98698" lon="14.3118433"><ele>20.0</ele><time>2026-03-25T12:38:37.135Z</time></trkpt><trkpt lat="40.9870417" lon="14.3118717"><ele>20.0</ele><time>2026-03-25T12:38:38.131Z</time></trkpt><trkpt lat="40.9871017" lon="14.3119083"><ele>20.0</ele><time>2026-03-25T12:38:39.135Z</time></trkpt><trkpt lat="40.9871583" lon="14.3119517"><ele>20.0</ele><time>2026-03-25T12:38:40.134Z</time></trkpt><trkpt lat="40.987215" lon="14.312005"><ele>20.0</ele><time>2026-03-25T12:38:41.132Z</time></trkpt><trkpt lat="40.9872717" lon="14.3120617"><ele>20.0</ele><time>2026-03-25T12:38:42.136Z</time></trkpt><trkpt lat="40.9873233" lon="14.312115"><ele>20.0</ele><time>2026-03-25T12:38:43.134Z</time></trkpt><trkpt lat="40.9873767" lon="14.3121667"><ele>20.0</ele><time>2026-03-25T12:38:44.135Z</time></trkpt><trkpt lat="40.98743" lon="14.3122217"><ele>20.0</ele><time>2026-03-25T12:38:45.134Z</time></trkpt><trkpt lat="40.987485" lon="14.312275"><ele>20.0</ele><time>2026-03-25T12:38:46.134Z</time></trkpt><trkpt lat="40.9875383" lon="14.31233"><ele>19.857142857142858</ele><time>2026-03-25T12:38:47.132Z</time></trkpt><trkpt lat="40.9875933" lon="14.3123867"><ele>19.714285714285715</ele><time>2026-03-25T12:38:48.133Z</time></trkpt><trkpt lat="40.9876483" lon="14.3124433"><ele>19.57142857142857</ele><time>2026-03-25T12:38:49.13Z</time></trkpt><trkpt lat="40.9877017" lon="14.3124967"><ele>19.42857142857143</ele><time>2026-03-25T12:38:50.134Z</time></trkpt><trkpt lat="40.987755" lon="14.3125533"><ele>19.28571428571429</ele><time>2026-03-25T12:38:51.135Z</time></trkpt><trkpt lat="40.9878083" lon="14.31261"><ele>19.142857142857142</ele><time>2026-03-25T12:38:52.134Z</time></trkpt><trkpt lat="40.98786" lon="14.312665"><ele>19.0</ele><time>2026-03-25T12:38:53.134Z</time></trkpt><trkpt lat="40.9879117" lon="14.3127183"><ele>19.0</ele><time>2026-03-25T12:38:54.134Z</time></trkpt><trkpt lat="40.988015" lon="14.3128133"><ele>19.0</ele><time>2026-03-25T12:38:56.135Z</time></trkpt><trkpt lat="40.98807" lon="14.3128633"><ele>19.0</ele><time>2026-03-25T12:38:57.134Z</time></trkpt><trkpt lat="40.9881233" lon="14.3129133"><ele>19.0</ele><time>2026-03-25T12:38:58.132Z</time></trkpt><trkpt lat="40.9881783" lon="14.312965"><ele>19.0</ele><time>2026-03-25T12:38:59.135Z</time></trkpt><trkpt lat="40.9882317" lon="14.31302"><ele>19.0</ele><time>2026-03-25T12:39:00.134Z</time></trkpt><trkpt lat="40.988285" lon="14.3130733"><ele>19.285714285714285</ele><time>2026-03-25T12:39:01.133Z</time></trkpt><trkpt lat="40.9883383" lon="14.3131283"><ele>19.571428571428573</ele><time>2026-03-25T12:39:02.134Z</time></trkpt><trkpt lat="40.9883917" lon="14.3131833"><ele>19.857142857142858</ele><time>2026-03-25T12:39:03.133Z</time></trkpt><trkpt lat="40.988445" lon="14.313235"><ele>20.142857142857142</ele><time>2026-03-25T12:39:04.133Z</time></trkpt><trkpt lat="40.9885" lon="14.313285"><ele>20.42857142857143</ele><time>2026-03-25T12:39:05.132Z</time></trkpt><trkpt lat="40.9885583" lon="14.3133367"><ele>20.714285714285715</ele><time>2026-03-25T12:39:06.133Z</time></trkpt><trkpt lat="40.9886133" lon="14.3133933"><ele>21.0</ele><time>2026-03-25T12:39:07.135Z</time></trkpt><trkpt lat="40.9886667" lon="14.313445"><ele>21.0</ele><time>2026-03-25T12:39:08.134Z</time></trkpt><trkpt lat="40.98872" lon="14.3135"><ele>21.0</ele><time>2026-03-25T12:39:09.134Z</time></trkpt><trkpt lat="40.9887733" lon="14.3135567"><ele>21.0</ele><time>2026-03-25T12:39:10.132Z</time></trkpt><trkpt lat="40.9888267" lon="14.3136117"><ele>21.0</ele><time>2026-03-25T12:39:11.135Z</time></trkpt><trkpt lat="40.98888" lon="14.3136683"><ele>21.0</ele><time>2026-03-25T12:39:12.134Z</time></trkpt><trkpt lat="40.988935" lon="14.3137233"><ele>21.0</ele><time>2026-03-25T12:39:13.135Z</time></trkpt><trkpt lat="40.98899" lon="14.3137833"><ele>21.0</ele><time>2026-03-25T12:39:14.134Z</time></trkpt><trkpt lat="40.9890467" lon="14.3138417"><ele>21.0</ele><time>2026-03-25T12:39:15.134Z</time></trkpt><trkpt lat="40.9891017" lon="14.3138983"><ele>21.0</ele><time>2026-03-25T12:39:16.134Z</time></trkpt><trkpt lat="40.989155" lon="14.313955"><ele>21.0</ele><time>2026-03-25T12:39:17.132Z</time></trkpt><trkpt lat="40.98921" lon="14.3140083"><ele>21.0</ele><time>2026-03-25T12:39:18.132Z</time></trkpt><trkpt lat="40.989265" lon="14.31406"><ele>21.0</ele><time>2026-03-25T12:39:19.132Z</time></trkpt><trkpt lat="40.9893167" lon="14.31411"><ele>21.0</ele><time>2026-03-25T12:39:20.133Z</time></trkpt><trkpt lat="40.9893683" lon="14.314165"><ele>21.0</ele><time>2026-03-25T12:39:21.133Z</time></trkpt><trkpt lat="40.98942" lon="14.3142167"><ele>21.0</ele><time>2026-03-25T12:39:22.131Z</time></trkpt><trkpt lat="40.9894717" lon="14.314275"><ele>21.0</ele><time>2026-03-25T12:39:23.132Z</time></trkpt><trkpt lat="40.9895217" lon="14.31433"><ele>21.0</ele><time>2026-03-25T12:39:24.131Z</time></trkpt><trkpt lat="40.9895733" lon="14.314385"><ele>21.0</ele><time>2026-03-25T12:39:25.133Z</time></trkpt><trkpt lat="40.9896233" lon="14.3144417"><ele>21.0</ele><time>2026-03-25T12:39:26.134Z</time></trkpt><trkpt lat="40.9896767" lon="14.3144983"><ele>21.0</ele><time>2026-03-25T12:39:27.132Z</time></trkpt><trkpt lat="40.9897283" lon="14.314555"><ele>21.0</ele><time>2026-03-25T12:39:28.133Z</time></trkpt><trkpt lat="40.9897817" lon="14.3146083"><ele>21.0</ele><time>2026-03-25T12:39:29.133Z</time></trkpt><trkpt lat="40.9898333" lon="14.3146683"><ele>21.0</ele><time>2026-03-25T12:39:30.135Z</time></trkpt><trkpt lat="40.9898867" lon="14.314725"><ele>21.0</ele><time>2026-03-25T12:39:31.134Z</time></trkpt><trkpt lat="40.9899417" lon="14.314785"><ele>21.0</ele><time>2026-03-25T12:39:32.134Z</time></trkpt><trkpt lat="40.99" lon="14.3148417"><ele>21.0</ele><time>2026-03-25T12:39:33.132Z</time></trkpt><trkpt lat="40.99006" lon="14.3148983"><ele>21.0</ele><time>2026-03-25T12:39:34.133Z</time></trkpt><trkpt lat="40.9901183" lon="14.3149567"><ele>21.0</ele><time>2026-03-25T12:39:35.137Z</time></trkpt><trkpt lat="40.9901767" lon="14.3150117"><ele>20.857142857142858</ele><time>2026-03-25T12:39:36.135Z</time></trkpt><trkpt lat="40.9902383" lon="14.3150667"><ele>20.714285714285715</ele><time>2026-03-25T12:39:37.135Z</time></trkpt><trkpt lat="40.9903" lon="14.3151217"><ele>20.57142857142857</ele><time>2026-03-25T12:39:38.134Z</time></trkpt><trkpt lat="40.9903633" lon="14.3151783"><ele>20.42857142857143</ele><time>2026-03-25T12:39:39.134Z</time></trkpt><trkpt lat="40.990425" lon="14.31524"><ele>20.285714285714285</ele><time>2026-03-25T12:39:40.133Z</time></trkpt><trkpt lat="40.99048" lon="14.3152967"><ele>20.142857142857142</ele><time>2026-03-25T12:39:41.136Z</time></trkpt><trkpt lat="40.99053" lon="14.3153617"><ele>20.0</ele><time>2026-03-25T12:39:42.132Z</time></trkpt><trkpt lat="40.9905783" lon="14.3154267"><ele>20.0</ele><time>2026-03-25T12:39:43.132Z</time></trkpt><trkpt lat="40.9906267" lon="14.315495"><ele>20.0</ele><time>2026-03-25T12:39:44.135Z</time></trkpt><trkpt lat="40.990675" lon="14.3155567"><ele>20.0</ele><time>2026-03-25T12:39:45.132Z</time></trkpt><trkpt lat="40.990765" lon="14.31567"><ele>20.0</ele><time>2026-03-25T12:39:47.132Z</time></trkpt><trkpt lat="40.990855" lon="14.315775"><ele>20.0</ele><time>2026-03-25T12:39:49.133Z</time></trkpt><trkpt lat="40.9909533" lon="14.3158733"><ele>19.857142857142858</ele><time>2026-03-25T12:39:51.132Z</time></trkpt><trkpt lat="40.991005" lon="14.3159233"><ele>19.714285714285715</ele><time>2026-03-25T12:39:52.133Z</time></trkpt><trkpt lat="40.9910567" lon="14.3159767"><ele>19.57142857142857</ele><time>2026-03-25T12:39:53.133Z</time></trkpt><trkpt lat="40.9911083" lon="14.3160283"><ele>19.42857142857143</ele><time>2026-03-25T12:39:54.133Z</time></trkpt><trkpt lat="40.9911617" lon="14.3160817"><ele>19.28571428571429</ele><time>2026-03-25T12:39:55.132Z</time></trkpt><trkpt lat="40.9912167" lon="14.3161333"><ele>19.142857142857142</ele><time>2026-03-25T12:39:56.133Z</time></trkpt><trkpt lat="40.9912733" lon="14.316185"><ele>19.0</ele><time>2026-03-25T12:39:57.132Z</time></trkpt><trkpt lat="40.9913283" lon="14.3162383"><ele>19.0</ele><time>2026-03-25T12:39:58.135Z</time></trkpt><trkpt lat="40.9913833" lon="14.3162983"><ele>19.0</ele><time>2026-03-25T12:39:59.134Z</time></trkpt><trkpt lat="40.9914367" lon="14.3163583"><ele>19.0</ele><time>2026-03-25T12:40:00.135Z</time></trkpt><trkpt lat="40.9914933" lon="14.3164133"><ele>19.0</ele><time>2026-03-25T12:40:01.135Z</time></trkpt><trkpt lat="40.99155" lon="14.31647"><ele>19.0</ele><time>2026-03-25T12:40:02.135Z</time></trkpt><trkpt lat="40.9916067" lon="14.3165267"><ele>19.0</ele><time>2026-03-25T12:40:03.134Z</time></trkpt><trkpt lat="40.9916617" lon="14.3165867"><ele>19.0</ele><time>2026-03-25T12:40:04.135Z</time></trkpt><trkpt lat="40.9917183" lon="14.316645"><ele>19.142857142857142</ele><time>2026-03-25T12:40:05.134Z</time></trkpt><trkpt lat="40.9917767" lon="14.3167033"><ele>19.28571428571429</ele><time>2026-03-25T12:40:06.133Z</time></trkpt><trkpt lat="40.991835" lon="14.3167633"><ele>19.42857142857143</ele><time>2026-03-25T12:40:07.135Z</time></trkpt><trkpt lat="40.9918933" lon="14.316825"><ele>19.57142857142857</ele><time>2026-03-25T12:40:08.134Z</time></trkpt><trkpt lat="40.9919517" lon="14.316885"><ele>19.714285714285715</ele><time>2026-03-25T12:40:09.134Z</time></trkpt><trkpt lat="40.9920117" lon="14.3169433"><ele>19.857142857142858</ele><time>2026-03-25T12:40:10.135Z</time></trkpt><trkpt lat="40.9920733" lon="14.3170017"><ele>20.0</ele><time>2026-03-25T12:40:11.134Z</time></trkpt><trkpt lat="40.9921333" lon="14.3170617"><ele>20.0</ele><time>2026-03-25T12:40:12.134Z</time></trkpt><trkpt lat="40.9921917" lon="14.3171183"><ele>20.0</ele><time>2026-03-25T12:40:13.136Z</time></trkpt><trkpt lat="40.9922517" lon="14.3171733"><ele>20.0</ele><time>2026-03-25T12:40:14.133Z</time></trkpt><trkpt lat="40.992315" lon="14.31723"><ele>20.0</ele><time>2026-03-25T12:40:15.132Z</time></trkpt><trkpt lat="40.9923767" lon="14.3172883"><ele>20.0</ele><time>2026-03-25T12:40:16.133Z</time></trkpt><trkpt lat="40.9924383" lon="14.317345"><ele>20.0</ele><time>2026-03-25T12:40:17.133Z</time></trkpt><trkpt lat="40.9925" lon="14.3173967"><ele>20.0</ele><time>2026-03-25T12:40:18.133Z</time></trkpt><trkpt lat="40.99256" lon="14.31745"><ele>19.857142857142858</ele><time>2026-03-25T12:40:19.133Z</time></trkpt><trkpt lat="40.99262" lon="14.3175017"><ele>19.714285714285715</ele><time>2026-03-25T12:40:20.133Z</time></trkpt><trkpt lat="40.99268" lon="14.3175483"><ele>19.57142857142857</ele><time>2026-03-25T12:40:21.133Z</time></trkpt><trkpt lat="40.9927433" lon="14.317595"><ele>19.42857142857143</ele><time>2026-03-25T12:40:22.133Z</time></trkpt><trkpt lat="40.9928067" lon="14.3176333"><ele>19.28571428571429</ele><time>2026-03-25T12:40:23.133Z</time></trkpt><trkpt lat="40.9928717" lon="14.3176717"><ele>19.142857142857142</ele><time>2026-03-25T12:40:24.132Z</time></trkpt><trkpt lat="40.99294" lon="14.3177"><ele>19.0</ele><time>2026-03-25T12:40:25.133Z</time></trkpt><trkpt lat="40.9930117" lon="14.3177233"><ele>19.0</ele><time>2026-03-25T12:40:26.132Z</time></trkpt><trkpt lat="40.993085" lon="14.3177383"><ele>19.0</ele><time>2026-03-25T12:40:27.133Z</time></trkpt><trkpt lat="40.99316" lon="14.317755"><ele>19.0</ele><time>2026-03-25T12:40:28.135Z</time></trkpt><trkpt lat="40.9932333" lon="14.31777"><ele>19.0</ele><time>2026-03-25T12:40:29.133Z</time></trkpt><trkpt lat="40.993305" lon="14.31778"><ele>19.0</ele><time>2026-03-25T12:40:30.135Z</time></trkpt><trkpt lat="40.99338" lon="14.3177917"><ele>19.0</ele><time>2026-03-25T12:40:31.135Z</time></trkpt><trkpt lat="40.9934533" lon="14.3178"><ele>19.0</ele><time>2026-03-25T12:40:32.134Z</time></trkpt><trkpt lat="40.99353" lon="14.3178117"><ele>19.0</ele><time>2026-03-25T12:40:33.133Z</time></trkpt><trkpt lat="40.9936033" lon="14.3178217"><ele>19.0</ele><time>2026-03-25T12:40:34.135Z</time></trkpt><trkpt lat="40.99368" lon="14.3178317"><ele>19.0</ele><time>2026-03-25T12:40:35.133Z</time></trkpt><trkpt lat="40.993755" lon="14.3178417"><ele>19.0</ele><time>2026-03-25T12:40:36.135Z</time></trkpt><trkpt lat="40.9938283" lon="14.3178483"><ele>19.0</ele><time>2026-03-25T12:40:37.136Z</time></trkpt><trkpt lat="40.9939017" lon="14.3178567"><ele>19.0</ele><time>2026-03-25T12:40:38.135Z</time></trkpt><trkpt lat="40.9939717" lon="14.3178617"><ele>19.0</ele><time>2026-03-25T12:40:39.135Z</time></trkpt><trkpt lat="40.99404" lon="14.3178617"><ele>19.0</ele><time>2026-03-25T12:40:40.134Z</time></trkpt><trkpt lat="40.9941083" lon="14.31787"><ele>19.0</ele><time>2026-03-25T12:40:41.135Z</time></trkpt><trkpt lat="40.9941767" lon="14.3178817"><ele>19.0</ele><time>2026-03-25T12:40:42.135Z</time></trkpt><trkpt lat="40.9942467" lon="14.31789"><ele>19.0</ele><time>2026-03-25T12:40:43.136Z</time></trkpt><trkpt lat="40.9943167" lon="14.3179"><ele>19.0</ele><time>2026-03-25T12:40:44.135Z</time></trkpt><trkpt lat="40.9943833" lon="14.3179067"><ele>19.0</ele><time>2026-03-25T12:40:45.134Z</time></trkpt><trkpt lat="40.9944533" lon="14.3179133"><ele>19.0</ele><time>2026-03-25T12:40:46.132Z</time></trkpt><trkpt lat="40.99452" lon="14.3179217"><ele>19.0</ele><time>2026-03-25T12:40:47.133Z</time></trkpt><trkpt lat="40.9945867" lon="14.3179283"><ele>19.0</ele><time>2026-03-25T12:40:48.133Z</time></trkpt><trkpt lat="40.9946533" lon="14.3179367"><ele>19.0</ele><time>2026-03-25T12:40:49.132Z</time></trkpt><trkpt lat="40.99472" lon="14.317945"><ele>19.0</ele><time>2026-03-25T12:40:50.133Z</time></trkpt><trkpt lat="40.9947867" lon="14.31795"><ele>19.0</ele><time>2026-03-25T12:40:51.133Z</time></trkpt><trkpt lat="40.9948567" lon="14.317955"><ele>19.0</ele><time>2026-03-25T12:40:52.134Z</time></trkpt><trkpt lat="40.9949283" lon="14.31796"><ele>19.0</ele><time>2026-03-25T12:40:53.132Z</time></trkpt><trkpt lat="40.9949983" lon="14.3179667"><ele>19.0</ele><time>2026-03-25T12:40:54.134Z</time></trkpt><trkpt lat="40.9950667" lon="14.317975"><ele>19.0</ele><time>2026-03-25T12:40:55.133Z</time></trkpt><trkpt lat="40.9951333" lon="14.3179817"><ele>19.0</ele><time>2026-03-25T12:40:56.133Z</time></trkpt><trkpt lat="40.9952017" lon="14.31799"><ele>19.0</ele><time>2026-03-25T12:40:57.133Z</time></trkpt><trkpt lat="40.99527" lon="14.3179983"><ele>19.0</ele><time>2026-03-25T12:40:58.134Z</time></trkpt><trkpt lat="40.9953367" lon="14.3180033"><ele>19.0</ele><time>2026-03-25T12:40:59.133Z</time></trkpt><trkpt lat="40.9954033" lon="14.31801"><ele>19.0</ele><time>2026-03-25T12:41:00.135Z</time></trkpt><trkpt lat="40.99547" lon="14.3180183"><ele>19.0</ele><time>2026-03-25T12:41:01.136Z</time></trkpt><trkpt lat="40.9955383" lon="14.318025"><ele>19.0</ele><time>2026-03-25T12:41:02.135Z</time></trkpt><trkpt lat="40.995605" lon="14.3180317"><ele>19.0</ele><time>2026-03-25T12:41:03.135Z</time></trkpt><trkpt lat="40.9956733" lon="14.318035"><ele>19.0</ele><time>2026-03-25T12:41:04.135Z</time></trkpt><trkpt lat="40.9957417" lon="14.3180383"><ele>19.0</ele><time>2026-03-25T12:41:05.135Z</time></trkpt><trkpt lat="40.9958117" lon="14.3180417"><ele>19.0</ele><time>2026-03-25T12:41:06.135Z</time></trkpt><trkpt lat="40.99588" lon="14.3180467"><ele>19.0</ele><time>2026-03-25T12:41:07.136Z</time></trkpt><trkpt lat="40.9959483" lon="14.3180567"><ele>19.142857142857142</ele><time>2026-03-25T12:41:08.135Z</time></trkpt><trkpt lat="40.9960183" lon="14.3180633"><ele>19.28571428571429</ele><time>2026-03-25T12:41:09.135Z</time></trkpt><trkpt lat="40.99609" lon="14.31807"><ele>19.42857142857143</ele><time>2026-03-25T12:41:10.134Z</time></trkpt><trkpt lat="40.9961633" lon="14.3180783"><ele>19.57142857142857</ele><time>2026-03-25T12:41:11.135Z</time></trkpt><trkpt lat="40.9962333" lon="14.3180867"><ele>19.714285714285715</ele><time>2026-03-25T12:41:12.135Z</time></trkpt><trkpt lat="40.996305" lon="14.3180933"><ele>19.857142857142858</ele><time>2026-03-25T12:41:13.135Z</time></trkpt><trkpt lat="40.99638" lon="14.3181017"><ele>20.0</ele><time>2026-03-25T12:41:14.134Z</time></trkpt><trkpt lat="40.9964533" lon="14.3181083"><ele>20.0</ele><time>2026-03-25T12:41:15.134Z</time></trkpt><trkpt lat="40.9965267" lon="14.31812"><ele>20.0</ele><time>2026-03-25T12:41:16.134Z</time></trkpt><trkpt lat="40.9966" lon="14.31813"><ele>20.0</ele><time>2026-03-25T12:41:17.134Z</time></trkpt><trkpt lat="40.996675" lon="14.31814"><ele>20.0</ele><time>2026-03-25T12:41:18.133Z</time></trkpt><trkpt lat="40.99675" lon="14.31815"><ele>20.0</ele><time>2026-03-25T12:41:19.134Z</time></trkpt><trkpt lat="40.9968283" lon="14.31816"><ele>20.0</ele><time>2026-03-25T12:41:20.131Z</time></trkpt><trkpt lat="40.9969017" lon="14.3181717"><ele>20.166666666666668</ele><time>2026-03-25T12:41:21.133Z</time></trkpt><trkpt lat="40.9969783" lon="14.31818"><ele>20.333333333333336</ele><time>2026-03-25T12:41:22.133Z</time></trkpt><trkpt lat="40.9970533" lon="14.3181883"><ele>20.5</ele><time>2026-03-25T12:41:23.136Z</time></trkpt><trkpt lat="40.99713" lon="14.3181983"><ele>20.666666666666668</ele><time>2026-03-25T12:41:24.135Z</time></trkpt><trkpt lat="40.9972067" lon="14.3182067"><ele>20.833333333333332</ele><time>2026-03-25T12:41:25.136Z</time></trkpt><trkpt lat="40.9972833" lon="14.3182183"><ele>21.0</ele><time>2026-03-25T12:41:26.134Z</time></trkpt><trkpt lat="40.9973583" lon="14.3182283"><ele>21.0</ele><time>2026-03-25T12:41:27.133Z</time></trkpt><trkpt lat="40.9974333" lon="14.3182367"><ele>21.0</ele><time>2026-03-25T12:41:28.132Z</time></trkpt><trkpt lat="40.9975083" lon="14.3182417"><ele>21.0</ele><time>2026-03-25T12:41:29.136Z</time></trkpt><trkpt lat="40.997585" lon="14.3182517"><ele>21.0</ele><time>2026-03-25T12:41:30.135Z</time></trkpt><trkpt lat="40.9976583" lon="14.31826"><ele>21.0</ele><time>2026-03-25T12:41:31.136Z</time></trkpt><trkpt lat="40.997735" lon="14.3182717"><ele>21.0</ele><time>2026-03-25T12:41:32.135Z</time></trkpt><trkpt lat="40.99781" lon="14.3182783"><ele>20.857142857142858</ele><time>2026-03-25T12:41:33.135Z</time></trkpt><trkpt lat="40.997885" lon="14.318285"><ele>20.714285714285715</ele><time>2026-03-25T12:41:34.136Z</time></trkpt><trkpt lat="40.99796" lon="14.3182933"><ele>20.57142857142857</ele><time>2026-03-25T12:41:35.131Z</time></trkpt><trkpt lat="40.998035" lon="14.3183017"><ele>20.42857142857143</ele><time>2026-03-25T12:41:36.131Z</time></trkpt><trkpt lat="40.9981083" lon="14.3183067"><ele>20.285714285714285</ele><time>2026-03-25T12:41:37.132Z</time></trkpt><trkpt lat="40.99818" lon="14.31831"><ele>20.142857142857142</ele><time>2026-03-25T12:41:38.134Z</time></trkpt><trkpt lat="40.9982483" lon="14.3183183"><ele>20.0</ele><time>2026-03-25T12:41:39.134Z</time></trkpt><trkpt lat="40.9983183" lon="14.3183217"><ele>20.142857142857142</ele><time>2026-03-25T12:41:40.135Z</time></trkpt><trkpt lat="40.99839" lon="14.3183283"><ele>20.285714285714285</ele><time>2026-03-25T12:41:41.134Z</time></trkpt><trkpt lat="40.9984617" lon="14.3183333"><ele>20.42857142857143</ele><time>2026-03-25T12:41:42.132Z</time></trkpt><trkpt lat="40.9985317" lon="14.31834"><ele>20.57142857142857</ele><time>2026-03-25T12:41:43.136Z</time></trkpt><trkpt lat="40.9986017" lon="14.3183467"><ele>20.714285714285715</ele><time>2026-03-25T12:41:44.133Z</time></trkpt><trkpt lat="40.998675" lon="14.31835"><ele>20.857142857142858</ele><time>2026-03-25T12:41:45.135Z</time></trkpt><trkpt lat="40.9987483" lon="14.318355"><ele>21.0</ele><time>2026-03-25T12:41:46.132Z</time></trkpt><trkpt lat="40.99882" lon="14.3183617"><ele>21.0</ele><time>2026-03-25T12:41:47.132Z</time></trkpt><trkpt lat="40.9988917" lon="14.3183683"><ele>21.0</ele><time>2026-03-25T12:41:48.132Z</time></trkpt><trkpt lat="40.9989617" lon="14.3183767"><ele>21.0</ele><time>2026-03-25T12:41:49.133Z</time></trkpt><trkpt lat="40.9990317" lon="14.3183883"><ele>21.0</ele><time>2026-03-25T12:41:50.132Z</time></trkpt><trkpt lat="40.9991033" lon="14.3184"><ele>21.0</ele><time>2026-03-25T12:41:51.132Z</time></trkpt><trkpt lat="40.999175" lon="14.3184083"><ele>21.0</ele><time>2026-03-25T12:41:52.134Z</time></trkpt><trkpt lat="40.9992433" lon="14.3184133"><ele>21.0</ele><time>2026-03-25T12:41:53.135Z</time></trkpt><trkpt lat="40.9993117" lon="14.3184233"><ele>21.0</ele><time>2026-03-25T12:41:54.134Z</time></trkpt><trkpt lat="40.9993783" lon="14.3184283"><ele>21.0</ele><time>2026-03-25T12:41:55.135Z</time></trkpt><trkpt lat="40.9994467" lon="14.3184317"><ele>21.0</ele><time>2026-03-25T12:41:56.135Z</time></trkpt><trkpt lat="40.999515" lon="14.3184333"><ele>21.0</ele><time>2026-03-25T12:41:57.135Z</time></trkpt><trkpt lat="40.9995867" lon="14.3184417"><ele>21.0</ele><time>2026-03-25T12:41:58.135Z</time></trkpt><trkpt lat="40.9996567" lon="14.3184483"><ele>21.0</ele><time>2026-03-25T12:41:59.134Z</time></trkpt><trkpt lat="40.9997267" lon="14.318455"><ele>21.0</ele><time>2026-03-25T12:42:00.133Z</time></trkpt><trkpt lat="40.9997983" lon="14.3184617"><ele>21.0</ele><time>2026-03-25T12:42:01.134Z</time></trkpt><trkpt lat="40.9998683" lon="14.31847"><ele>21.0</ele><time>2026-03-25T12:42:02.135Z</time></trkpt><trkpt lat="40.9999417" lon="14.318475"><ele>21.0</ele><time>2026-03-25T12:42:03.135Z</time></trkpt><trkpt lat="41.0000133" lon="14.318475"><ele>21.0</ele><time>2026-03-25T12:42:04.133Z</time></trkpt><trkpt lat="41.000085" lon="14.3184767"><ele>21.0</ele><time>2026-03-25T12:42:05.134Z</time></trkpt><trkpt lat="41.0001567" lon="14.3184833"><ele>21.0</ele><time>2026-03-25T12:42:06.133Z</time></trkpt><trkpt lat="41.0002283" lon="14.3184883"><ele>21.0</ele><time>2026-03-25T12:42:07.136Z</time></trkpt><trkpt lat="41.0003" lon="14.3184967"><ele>21.0</ele><time>2026-03-25T12:42:08.135Z</time></trkpt><trkpt lat="41.00037" lon="14.3185033"><ele>21.0</ele><time>2026-03-25T12:42:09.136Z</time></trkpt><trkpt lat="41.00044" lon="14.3185083"><ele>21.0</ele><time>2026-03-25T12:42:10.133Z</time></trkpt><trkpt lat="41.0005083" lon="14.3185133"><ele>21.0</ele><time>2026-03-25T12:42:11.136Z</time></trkpt><trkpt lat="41.0005783" lon="14.3185167"><ele>21.0</ele><time>2026-03-25T12:42:12.136Z</time></trkpt><trkpt lat="41.0006483" lon="14.3185233"><ele>21.0</ele><time>2026-03-25T12:42:13.134Z</time></trkpt><trkpt lat="41.0007183" lon="14.3185317"><ele>21.0</ele><time>2026-03-25T12:42:14.135Z</time></trkpt><trkpt lat="41.0007883" lon="14.31854"><ele>21.0</ele><time>2026-03-25T12:42:15.132Z</time></trkpt><trkpt lat="41.000855" lon="14.3185483"><ele>21.0</ele><time>2026-03-25T12:42:16.134Z</time></trkpt><trkpt lat="41.0009217" lon="14.3185583"><ele>21.0</ele><time>2026-03-25T12:42:17.133Z</time></trkpt><trkpt lat="41.0009883" lon="14.3185633"><ele>21.0</ele><time>2026-03-25T12:42:18.135Z</time></trkpt><trkpt lat="41.001055" lon="14.3185733"><ele>21.0</ele><time>2026-03-25T12:42:19.136Z</time></trkpt><trkpt lat="41.0011217" lon="14.3185883"><ele>21.0</ele><time>2026-03-25T12:42:20.135Z</time></trkpt><trkpt lat="41.001185" lon="14.3186067"><ele>21.0</ele><time>2026-03-25T12:42:21.134Z</time></trkpt><trkpt lat="41.0012483" lon="14.3186383"><ele>21.0</ele><time>2026-03-25T12:42:22.132Z</time></trkpt><trkpt lat="41.0013067" lon="14.3186833"><ele>21.0</ele><time>2026-03-25T12:42:23.136Z</time></trkpt><trkpt lat="41.0013667" lon="14.3187383"><ele>21.0</ele><time>2026-03-25T12:42:24.134Z</time></trkpt><trkpt lat="41.0014233" lon="14.3187983"><ele>21.0</ele><time>2026-03-25T12:42:25.135Z</time></trkpt><trkpt lat="41.0014733" lon="14.3188683"><ele>21.0</ele><time>2026-03-25T12:42:26.135Z</time></trkpt><trkpt lat="41.0015183" lon="14.318945"><ele>21.0</ele><time>2026-03-25T12:42:27.135Z</time></trkpt><trkpt lat="41.001565" lon="14.31902"><ele>21.0</ele><time>2026-03-25T12:42:28.133Z</time></trkpt><trkpt lat="41.0016167" lon="14.3190867"><ele>21.0</ele><time>2026-03-25T12:42:29.135Z</time></trkpt><trkpt lat="41.0016733" lon="14.3191383"><ele>21.0</ele><time>2026-03-25T12:42:30.133Z</time></trkpt><trkpt lat="41.0017417" lon="14.3191683"><ele>21.0</ele><time>2026-03-25T12:42:31.134Z</time></trkpt><trkpt lat="41.0018133" lon="14.3191717"><ele>21.0</ele><time>2026-03-25T12:42:32.133Z</time></trkpt><trkpt lat="41.00188" lon="14.31914"><ele>21.0</ele><time>2026-03-25T12:42:33.134Z</time></trkpt><trkpt lat="41.0019333" lon="14.319085"><ele>21.0</ele><time>2026-03-25T12:42:34.134Z</time></trkpt><trkpt lat="41.0019867" lon="14.3190233"><ele>21.0</ele><time>2026-03-25T12:42:35.133Z</time></trkpt><trkpt lat="41.00204" lon="14.3189617"><ele>21.0</ele><time>2026-03-25T12:42:36.134Z</time></trkpt><trkpt lat="41.0020983" lon="14.3189083"><ele>21.0</ele><time>2026-03-25T12:42:37.134Z</time></trkpt><trkpt lat="41.00216" lon="14.31886"><ele>21.0</ele><time>2026-03-25T12:42:38.132Z</time></trkpt><trkpt lat="41.0022267" lon="14.3188217"><ele>21.0</ele><time>2026-03-25T12:42:39.135Z</time></trkpt><trkpt lat="41.0022933" lon="14.3187967"><ele>21.0</ele><time>2026-03-25T12:42:40.135Z</time></trkpt><trkpt lat="41.00236" lon="14.3187833"><ele>21.0</ele><time>2026-03-25T12:42:41.133Z</time></trkpt><trkpt lat="41.0024283" lon="14.3187817"><ele>21.0</ele><time>2026-03-25T12:42:42.132Z</time></trkpt><trkpt lat="41.0024983" lon="14.3187767"><ele>21.142857142857142</ele><time>2026-03-25T12:42:43.135Z</time></trkpt><trkpt lat="41.0025683" lon="14.3187767"><ele>21.285714285714285</ele><time>2026-03-25T12:42:44.132Z</time></trkpt><trkpt lat="41.00264" lon="14.31878"><ele>21.42857142857143</ele><time>2026-03-25T12:42:45.133Z</time></trkpt><trkpt lat="41.0027117" lon="14.31879"><ele>21.57142857142857</ele><time>2026-03-25T12:42:46.134Z</time></trkpt><trkpt lat="41.0027817" lon="14.3188"><ele>21.714285714285715</ele><time>2026-03-25T12:42:47.133Z</time></trkpt><trkpt lat="41.0028533" lon="14.3188067"><ele>21.857142857142858</ele><time>2026-03-25T12:42:48.133Z</time></trkpt><trkpt lat="41.002925" lon="14.31881"><ele>22.0</ele><time>2026-03-25T12:42:49.135Z</time></trkpt><trkpt lat="41.0029967" lon="14.3188183"><ele>22.0</ele><time>2026-03-25T12:42:50.133Z</time></trkpt><trkpt lat="41.0030683" lon="14.31883"><ele>22.0</ele><time>2026-03-25T12:42:51.133Z</time></trkpt><trkpt lat="41.0031383" lon="14.3188467"><ele>22.0</ele><time>2026-03-25T12:42:52.134Z</time></trkpt><trkpt lat="41.0032117" lon="14.3188617"><ele>22.0</ele><time>2026-03-25T12:42:53.134Z</time></trkpt><trkpt lat="41.003285" lon="14.3188767"><ele>22.0</ele><time>2026-03-25T12:42:54.133Z</time></trkpt><trkpt lat="41.00336" lon="14.31889"><ele>22.0</ele><time>2026-03-25T12:42:55.134Z</time></trkpt><trkpt lat="41.0034333" lon="14.3189067"><ele>22.0</ele><time>2026-03-25T12:42:56.134Z</time></trkpt><trkpt lat="41.0035067" lon="14.31892"><ele>21.5</ele><time>2026-03-25T12:42:57.133Z</time></trkpt><trkpt lat="41.0035833" lon="14.3189267"><ele>21.0</ele><time>2026-03-25T12:42:58.133Z</time></trkpt><trkpt lat="41.0036583" lon="14.3189333"><ele>20.5</ele><time>2026-03-25T12:42:59.134Z</time></trkpt><trkpt lat="41.0037333" lon="14.31894"><ele>20.0</ele><time>2026-03-25T12:43:00.133Z</time></trkpt><trkpt lat="41.0038067" lon="14.3189483"><ele>19.5</ele><time>2026-03-25T12:43:01.132Z</time></trkpt><trkpt lat="41.0038833" lon="14.3189567"><ele>19.0</ele><time>2026-03-25T12:43:02.133Z</time></trkpt><trkpt lat="41.0039583" lon="14.3189683"><ele>19.0</ele><time>2026-03-25T12:43:03.134Z</time></trkpt><trkpt lat="41.0040333" lon="14.3189783"><ele>19.0</ele><time>2026-03-25T12:43:04.133Z</time></trkpt><trkpt lat="41.0041117" lon="14.3189933"><ele>19.0</ele><time>2026-03-25T12:43:05.134Z</time></trkpt><trkpt lat="41.0041917" lon="14.31901"><ele>19.0</ele><time>2026-03-25T12:43:06.133Z</time></trkpt><trkpt lat="41.004275" lon="14.319025"><ele>19.0</ele><time>2026-03-25T12:43:07.134Z</time></trkpt><trkpt lat="41.0043633" lon="14.319045"><ele>19.0</ele><time>2026-03-25T12:43:08.133Z</time></trkpt><trkpt lat="41.0044467" lon="14.31907"><ele>19.666666666666664</ele><time>2026-03-25T12:43:09.133Z</time></trkpt><trkpt lat="41.00453" lon="14.3190917"><ele>20.333333333333332</ele><time>2026-03-25T12:43:10.134Z</time></trkpt><trkpt lat="41.00462" lon="14.3191183"><ele>21.0</ele><time>2026-03-25T12:43:11.134Z</time></trkpt><trkpt lat="41.004705" lon="14.3191433"><ele>21.666666666666668</ele><time>2026-03-25T12:43:12.133Z</time></trkpt><trkpt lat="41.0047867" lon="14.3191717"><ele>22.333333333333336</ele><time>2026-03-25T12:43:13.134Z</time></trkpt><trkpt lat="41.0048683" lon="14.3192"><ele>23.0</ele><time>2026-03-25T12:43:14.132Z</time></trkpt><trkpt lat="41.00495" lon="14.3192283"><ele>22.833333333333336</ele><time>2026-03-25T12:43:15.134Z</time></trkpt><trkpt lat="41.0050317" lon="14.319255"><ele>22.666666666666668</ele><time>2026-03-25T12:43:16.133Z</time></trkpt><trkpt lat="41.00511" lon="14.3192817"><ele>22.5</ele><time>2026-03-25T12:43:17.13Z</time></trkpt><trkpt lat="41.005185" lon="14.31931"><ele>22.333333333333332</ele><time>2026-03-25T12:43:18.133Z</time></trkpt><trkpt lat="41.0052617" lon="14.31934"><ele>22.166666666666664</ele><time>2026-03-25T12:43:19.134Z</time></trkpt><trkpt lat="41.00534" lon="14.319365"><ele>22.0</ele><time>2026-03-25T12:43:20.132Z</time></trkpt><trkpt lat="41.0054167" lon="14.3194"><ele>22.0</ele><time>2026-03-25T12:43:21.133Z</time></trkpt><trkpt lat="41.00549" lon="14.31944"><ele>22.0</ele><time>2026-03-25T12:43:22.133Z</time></trkpt><trkpt lat="41.0055667" lon="14.31948"><ele>22.0</ele><time>2026-03-25T12:43:23.133Z</time></trkpt><trkpt lat="41.005645" lon="14.3195167"><ele>22.0</ele><time>2026-03-25T12:43:24.132Z</time></trkpt><trkpt lat="41.005725" lon="14.31955"><ele>22.0</ele><time>2026-03-25T12:43:25.134Z</time></trkpt><trkpt lat="41.005805" lon="14.319575"><ele>22.0</ele><time>2026-03-25T12:43:26.133Z</time></trkpt><trkpt lat="41.005885" lon="14.3196017"><ele>21.833333333333332</ele><time>2026-03-25T12:43:27.134Z</time></trkpt><trkpt lat="41.0059667" lon="14.3196267"><ele>21.666666666666664</ele><time>2026-03-25T12:43:28.134Z</time></trkpt><trkpt lat="41.00605" lon="14.3196533"><ele>21.5</ele><time>2026-03-25T12:43:29.132Z</time></trkpt><trkpt lat="41.00613" lon="14.3196817"><ele>21.333333333333332</ele><time>2026-03-25T12:43:30.134Z</time></trkpt><trkpt lat="41.00621" lon="14.3197083"><ele>21.166666666666668</ele><time>2026-03-25T12:43:31.135Z</time></trkpt><trkpt lat="41.0062917" lon="14.3197367"><ele>21.0</ele><time>2026-03-25T12:43:32.13Z</time></trkpt><trkpt lat="41.0063717" lon="14.31976"><ele>21.166666666666668</ele><time>2026-03-25T12:43:33.13Z</time></trkpt><trkpt lat="41.0064517" lon="14.3197883"><ele>21.333333333333332</ele><time>2026-03-25T12:43:34.134Z</time></trkpt><trkpt lat="41.00653" lon="14.3198167"><ele>21.5</ele><time>2026-03-25T12:43:35.133Z</time></trkpt><trkpt lat="41.0066083" lon="14.319845"><ele>21.666666666666664</ele><time>2026-03-25T12:43:36.133Z</time></trkpt><trkpt lat="41.0066883" lon="14.3198733"><ele>21.833333333333332</ele><time>2026-03-25T12:43:37.132Z</time></trkpt><trkpt lat="41.0067667" lon="14.3199017"><ele>22.0</ele><time>2026-03-25T12:43:38.133Z</time></trkpt><trkpt lat="41.0068483" lon="14.3199283"><ele>22.0</ele><time>2026-03-25T12:43:39.133Z</time></trkpt><trkpt lat="41.0069267" lon="14.3199583"><ele>22.0</ele><time>2026-03-25T12:43:40.134Z</time></trkpt><trkpt lat="41.007005" lon="14.3199867"><ele>22.0</ele><time>2026-03-25T12:43:41.134Z</time></trkpt><trkpt lat="41.00708" lon="14.3200167"><ele>22.0</ele><time>2026-03-25T12:43:42.132Z</time></trkpt><trkpt lat="41.0071533" lon="14.3200467"><ele>22.0</ele><time>2026-03-25T12:43:43.134Z</time></trkpt><trkpt lat="41.00723" lon="14.3200783"><ele>22.0</ele><time>2026-03-25T12:43:44.132Z</time></trkpt><trkpt lat="41.0073083" lon="14.3201083"><ele>22.0</ele><time>2026-03-25T12:43:45.134Z</time></trkpt><trkpt lat="41.0073867" lon="14.3201333"><ele>22.0</ele><time>2026-03-25T12:43:46.134Z</time></trkpt><trkpt lat="41.007465" lon="14.32016"><ele>22.0</ele><time>2026-03-25T12:43:47.133Z</time></trkpt><trkpt lat="41.0075433" lon="14.3201883"><ele>22.0</ele><time>2026-03-25T12:43:48.133Z</time></trkpt><trkpt lat="41.0076233" lon="14.3202167"><ele>22.0</ele><time>2026-03-25T12:43:49.132Z</time></trkpt><trkpt lat="41.0077" lon="14.3202467"><ele>22.0</ele><time>2026-03-25T12:43:50.133Z</time></trkpt><trkpt lat="41.00778" lon="14.3202733"><ele>21.833333333333332</ele><time>2026-03-25T12:43:51.134Z</time></trkpt><trkpt lat="41.0078567" lon="14.3203017"><ele>21.666666666666664</ele><time>2026-03-25T12:43:52.134Z</time></trkpt><trkpt lat="41.0079333" lon="14.32033"><ele>21.5</ele><time>2026-03-25T12:43:53.134Z</time></trkpt><trkpt lat="41.0080117" lon="14.32036"><ele>21.333333333333332</ele><time>2026-03-25T12:43:54.131Z</time></trkpt><trkpt lat="41.0080917" lon="14.3203917"><ele>21.166666666666668</ele><time>2026-03-25T12:43:55.132Z</time></trkpt><trkpt lat="41.0081683" lon="14.3204217"><ele>21.0</ele><time>2026-03-25T12:43:56.134Z</time></trkpt><trkpt lat="41.0082433" lon="14.32045"><ele>21.0</ele><time>2026-03-25T12:43:57.131Z</time></trkpt><trkpt lat="41.00832" lon="14.3204783"><ele>21.0</ele><time>2026-03-25T12:43:58.131Z</time></trkpt><trkpt lat="41.0083967" lon="14.320505"><ele>21.0</ele><time>2026-03-25T12:43:59.132Z</time></trkpt><trkpt lat="41.008475" lon="14.3205317"><ele>21.0</ele><time>2026-03-25T12:44:00.134Z</time></trkpt><trkpt lat="41.0085533" lon="14.3205583"><ele>21.0</ele><time>2026-03-25T12:44:01.132Z</time></trkpt><trkpt lat="41.0086317" lon="14.320585"><ele>21.0</ele><time>2026-03-25T12:44:02.132Z</time></trkpt><trkpt lat="41.0087117" lon="14.3206117"><ele>21.166666666666668</ele><time>2026-03-25T12:44:03.133Z</time></trkpt><trkpt lat="41.00879" lon="14.3206383"><ele>21.333333333333332</ele><time>2026-03-25T12:44:04.132Z</time></trkpt><trkpt lat="41.00887" lon="14.3206683"><ele>21.5</ele><time>2026-03-25T12:44:05.134Z</time></trkpt><trkpt lat="41.0089517" lon="14.3206967"><ele>21.666666666666664</ele><time>2026-03-25T12:44:06.133Z</time></trkpt><trkpt lat="41.0090317" lon="14.3207217"><ele>21.833333333333332</ele><time>2026-03-25T12:44:07.131Z</time></trkpt><trkpt lat="41.00911" lon="14.32075"><ele>22.0</ele><time>2026-03-25T12:44:08.132Z</time></trkpt><trkpt lat="41.0091917" lon="14.32078"><ele>22.166666666666664</ele><time>2026-03-25T12:44:09.131Z</time></trkpt><trkpt lat="41.0092717" lon="14.3208067"><ele>22.333333333333332</ele><time>2026-03-25T12:44:10.133Z</time></trkpt><trkpt lat="41.0093533" lon="14.3208333"><ele>22.5</ele><time>2026-03-25T12:44:11.131Z</time></trkpt><trkpt lat="41.0094383" lon="14.3208633"><ele>22.666666666666668</ele><time>2026-03-25T12:44:12.134Z</time></trkpt><trkpt lat="41.0095217" lon="14.32089"><ele>22.833333333333336</ele><time>2026-03-25T12:44:13.133Z</time></trkpt><trkpt lat="41.0096033" lon="14.3209183"><ele>23.0</ele><time>2026-03-25T12:44:14.132Z</time></trkpt><trkpt lat="41.009685" lon="14.3209467"><ele>23.0</ele><time>2026-03-25T12:44:15.134Z</time></trkpt><trkpt lat="41.0097667" lon="14.3209783"><ele>23.0</ele><time>2026-03-25T12:44:16.133Z</time></trkpt><trkpt lat="41.0098483" lon="14.3210083"><ele>23.0</ele><time>2026-03-25T12:44:17.132Z</time></trkpt><trkpt lat="41.0099317" lon="14.32104"><ele>23.0</ele><time>2026-03-25T12:44:18.133Z</time></trkpt><trkpt lat="41.010015" lon="14.3210683"><ele>23.0</ele><time>2026-03-25T12:44:19.134Z</time></trkpt><trkpt lat="41.0100967" lon="14.3210967"><ele>23.0</ele><time>2026-03-25T12:44:20.134Z</time></trkpt><trkpt lat="41.0101783" lon="14.3211317"><ele>22.833333333333336</ele><time>2026-03-25T12:44:21.133Z</time></trkpt><trkpt lat="41.0102583" lon="14.3211633"><ele>22.666666666666668</ele><time>2026-03-25T12:44:22.134Z</time></trkpt><trkpt lat="41.0103417" lon="14.32119"><ele>22.5</ele><time>2026-03-25T12:44:23.133Z</time></trkpt><trkpt lat="41.0104217" lon="14.3212217"><ele>22.333333333333332</ele><time>2026-03-25T12:44:24.134Z</time></trkpt><trkpt lat="41.0105033" lon="14.3212483"><ele>22.166666666666664</ele><time>2026-03-25T12:44:25.134Z</time></trkpt><trkpt lat="41.010585" lon="14.3212767"><ele>22.0</ele><time>2026-03-25T12:44:26.134Z</time></trkpt><trkpt lat="41.010665" lon="14.32131"><ele>22.0</ele><time>2026-03-25T12:44:27.135Z</time></trkpt><trkpt lat="41.010745" lon="14.3213517"><ele>22.0</ele><time>2026-03-25T12:44:28.134Z</time></trkpt><trkpt lat="41.0108217" lon="14.3213917"><ele>22.0</ele><time>2026-03-25T12:44:29.134Z</time></trkpt><trkpt lat="41.0108967" lon="14.321435"><ele>22.0</ele><time>2026-03-25T12:44:30.132Z</time></trkpt><trkpt lat="41.0109683" lon="14.321475"><ele>22.0</ele><time>2026-03-25T12:44:31.135Z</time></trkpt><trkpt lat="41.0110417" lon="14.3215167"><ele>22.0</ele><time>2026-03-25T12:44:32.133Z</time></trkpt><trkpt lat="41.011115" lon="14.321565"><ele>22.166666666666664</ele><time>2026-03-25T12:44:33.131Z</time></trkpt><trkpt lat="41.0111867" lon="14.3216133"><ele>22.333333333333332</ele><time>2026-03-25T12:44:34.134Z</time></trkpt><trkpt lat="41.011255" lon="14.3216667"><ele>22.5</ele><time>2026-03-25T12:44:35.131Z</time></trkpt><trkpt lat="41.01132" lon="14.3217267"><ele>22.666666666666668</ele><time>2026-03-25T12:44:36.131Z</time></trkpt><trkpt lat="41.011385" lon="14.3217933"><ele>22.833333333333336</ele><time>2026-03-25T12:44:37.135Z</time></trkpt><trkpt lat="41.0114433" lon="14.32186"><ele>23.0</ele><time>2026-03-25T12:44:38.132Z</time></trkpt><trkpt lat="41.0115033" lon="14.3219233"><ele>23.0</ele><time>2026-03-25T12:44:39.133Z</time></trkpt><trkpt lat="41.0115583" lon="14.3219867"><ele>23.0</ele><time>2026-03-25T12:44:40.131Z</time></trkpt><trkpt lat="41.0116117" lon="14.32205"><ele>23.0</ele><time>2026-03-25T12:44:41.132Z</time></trkpt><trkpt lat="41.0116633" lon="14.3221117"><ele>23.0</ele><time>2026-03-25T12:44:42.135Z</time></trkpt><trkpt lat="41.0117133" lon="14.3221733"><ele>23.0</ele><time>2026-03-25T12:44:43.135Z</time></trkpt><trkpt lat="41.0117617" lon="14.3222317"><ele>23.0</ele><time>2026-03-25T12:44:44.132Z</time></trkpt><trkpt lat="41.0118533" lon="14.3223317"><ele>23.5</ele><time>2026-03-25T12:44:46.131Z</time></trkpt><trkpt lat="41.011945" lon="14.3224383"><ele>24.0</ele><time>2026-03-25T12:44:48.134Z</time></trkpt><trkpt lat="41.0120383" lon="14.3225467"><ele>24.5</ele><time>2026-03-25T12:44:50.133Z</time></trkpt><trkpt lat="41.012135" lon="14.3226533"><ele>25.0</ele><time>2026-03-25T12:44:52.134Z</time></trkpt><trkpt lat="41.0122283" lon="14.32276"><ele>25.000000000000004</ele><time>2026-03-25T12:44:54.135Z</time></trkpt><trkpt lat="41.0122783" lon="14.3228167"><ele>25.0</ele><time>2026-03-25T12:44:55.133Z</time></trkpt><trkpt lat="41.01233" lon="14.322875"><ele>25.0</ele><time>2026-03-25T12:44:56.134Z</time></trkpt><trkpt lat="41.01238" lon="14.3229333"><ele>25.0</ele><time>2026-03-25T12:44:57.133Z</time></trkpt><trkpt lat="41.01243" lon="14.3229883"><ele>25.0</ele><time>2026-03-25T12:44:58.134Z</time></trkpt><trkpt lat="41.0124817" lon="14.3230483"><ele>25.000000000000004</ele><time>2026-03-25T12:44:59.133Z</time></trkpt><trkpt lat="41.012535" lon="14.3231083"><ele>25.0</ele><time>2026-03-25T12:45:00.134Z</time></trkpt><trkpt lat="41.0125867" lon="14.3231683"><ele>25.142857142857146</ele><time>2026-03-25T12:45:01.131Z</time></trkpt><trkpt lat="41.0126383" lon="14.3232267"><ele>25.285714285714285</ele><time>2026-03-25T12:45:02.135Z</time></trkpt><trkpt lat="41.0126883" lon="14.32328"><ele>25.42857142857143</ele><time>2026-03-25T12:45:03.134Z</time></trkpt><trkpt lat="41.01274" lon="14.3233433"><ele>25.571428571428573</ele><time>2026-03-25T12:45:04.133Z</time></trkpt><trkpt lat="41.01279" lon="14.3234067"><ele>25.714285714285715</ele><time>2026-03-25T12:45:05.134Z</time></trkpt><trkpt lat="41.0128433" lon="14.32347"><ele>25.857142857142858</ele><time>2026-03-25T12:45:06.133Z</time></trkpt><trkpt lat="41.0128983" lon="14.32353"><ele>26.0</ele><time>2026-03-25T12:45:07.133Z</time></trkpt><trkpt lat="41.01295" lon="14.323585"><ele>26.0</ele><time>2026-03-25T12:45:08.131Z</time></trkpt><trkpt lat="41.0130017" lon="14.3236467"><ele>26.0</ele><time>2026-03-25T12:45:09.131Z</time></trkpt><trkpt lat="41.0130567" lon="14.3237083"><ele>26.0</ele><time>2026-03-25T12:45:10.132Z</time></trkpt><trkpt lat="41.0131117" lon="14.32377"><ele>26.0</ele><time>2026-03-25T12:45:11.133Z</time></trkpt><trkpt lat="41.0131667" lon="14.3238333"><ele>26.0</ele><time>2026-03-25T12:45:12.131Z</time></trkpt><trkpt lat="41.0132233" lon="14.323905"><ele>26.0</ele><time>2026-03-25T12:45:13.134Z</time></trkpt><trkpt lat="41.013275" lon="14.32398"><ele>26.0</ele><time>2026-03-25T12:45:14.133Z</time></trkpt><trkpt lat="41.0133233" lon="14.3240567"><ele>25.833333333333332</ele><time>2026-03-25T12:45:15.132Z</time></trkpt><trkpt lat="41.0133717" lon="14.324135"><ele>25.666666666666664</ele><time>2026-03-25T12:45:16.132Z</time></trkpt><trkpt lat="41.0134167" lon="14.3242167"><ele>25.5</ele><time>2026-03-25T12:45:17.133Z</time></trkpt><trkpt lat="41.0134583" lon="14.3243033"><ele>25.333333333333336</ele><time>2026-03-25T12:45:18.133Z</time></trkpt><trkpt lat="41.0134967" lon="14.3244"><ele>25.166666666666668</ele><time>2026-03-25T12:45:19.135Z</time></trkpt><trkpt lat="41.01353" lon="14.324495"><ele>25.0</ele><time>2026-03-25T12:45:20.132Z</time></trkpt><trkpt lat="41.01356" lon="14.32459"><ele>25.000000000000004</ele><time>2026-03-25T12:45:21.131Z</time></trkpt><trkpt lat="41.0135883" lon="14.324685"><ele>25.0</ele><time>2026-03-25T12:45:22.133Z</time></trkpt><trkpt lat="41.0136167" lon="14.3247783"><ele>25.0</ele><time>2026-03-25T12:45:23.133Z</time></trkpt><trkpt lat="41.0136433" lon="14.3248683"><ele>25.0</ele><time>2026-03-25T12:45:24.133Z</time></trkpt><trkpt lat="41.0136717" lon="14.3249567"><ele>25.0</ele><time>2026-03-25T12:45:25.132Z</time></trkpt><trkpt lat="41.0137017" lon="14.325045"><ele>25.000000000000004</ele><time>2026-03-25T12:45:26.132Z</time></trkpt><trkpt lat="41.01373" lon="14.3251317"><ele>25.0</ele><time>2026-03-25T12:45:27.131Z</time></trkpt><trkpt lat="41.013755" lon="14.3252167"><ele>24.714285714285715</ele><time>2026-03-25T12:45:28.132Z</time></trkpt><trkpt lat="41.0137817" lon="14.3253067"><ele>24.42857142857143</ele><time>2026-03-25T12:45:29.132Z</time></trkpt><trkpt lat="41.01381" lon="14.3253967"><ele>24.142857142857146</ele><time>2026-03-25T12:45:30.133Z</time></trkpt><trkpt lat="41.0138417" lon="14.3254817"><ele>23.857142857142858</ele><time>2026-03-25T12:45:31.136Z</time></trkpt><trkpt lat="41.0138733" lon="14.3255717"><ele>23.57142857142857</ele><time>2026-03-25T12:45:32.132Z</time></trkpt><trkpt lat="41.01391" lon="14.3256617"><ele>23.28571428571429</ele><time>2026-03-25T12:45:33.134Z</time></trkpt><trkpt lat="41.0139483" lon="14.3257533"><ele>23.0</ele><time>2026-03-25T12:45:34.133Z</time></trkpt><trkpt lat="41.0139883" lon="14.325845"><ele>23.0</ele><time>2026-03-25T12:45:35.134Z</time></trkpt><trkpt lat="41.0140317" lon="14.325935"><ele>23.0</ele><time>2026-03-25T12:45:36.133Z</time></trkpt><trkpt lat="41.0140767" lon="14.3260267"><ele>23.0</ele><time>2026-03-25T12:45:37.133Z</time></trkpt><trkpt lat="41.014115" lon="14.3261317"><ele>23.0</ele><time>2026-03-25T12:45:38.132Z</time></trkpt><trkpt lat="41.0141767" lon="14.3262333"><ele>23.0</ele><time>2026-03-25T12:45:39.133Z</time></trkpt><trkpt lat="41.0142267" lon="14.3263283"><ele>23.0</ele><time>2026-03-25T12:45:40.132Z</time></trkpt><trkpt lat="41.0142783" lon="14.32641"><ele>23.0</ele><time>2026-03-25T12:45:41.135Z</time></trkpt><trkpt lat="41.014345" lon="14.326495"><ele>23.0</ele><time>2026-03-25T12:45:42.134Z</time></trkpt><trkpt lat="41.0144083" lon="14.326575"><ele>23.0</ele><time>2026-03-25T12:45:43.135Z</time></trkpt><trkpt lat="41.0144767" lon="14.3266533"><ele>23.0</ele><time>2026-03-25T12:45:44.134Z</time></trkpt><trkpt lat="41.0145483" lon="14.3267317"><ele>23.0</ele><time>2026-03-25T12:45:45.134Z</time></trkpt><trkpt lat="41.0146233" lon="14.326805"><ele>23.0</ele><time>2026-03-25T12:45:46.132Z</time></trkpt><trkpt lat="41.0147" lon="14.326875"><ele>23.0</ele><time>2026-03-25T12:45:47.131Z</time></trkpt><trkpt lat="41.0147817" lon="14.32694"><ele>23.0</ele><time>2026-03-25T12:45:48.133Z</time></trkpt><trkpt lat="41.014865" lon="14.3269983"><ele>23.0</ele><time>2026-03-25T12:45:49.133Z</time></trkpt><trkpt lat="41.01495" lon="14.3270567"><ele>23.0</ele><time>2026-03-25T12:45:50.132Z</time></trkpt><trkpt lat="41.015035" lon="14.3271117"><ele>23.0</ele><time>2026-03-25T12:45:51.133Z</time></trkpt><trkpt lat="41.01512" lon="14.327165"><ele>23.0</ele><time>2026-03-25T12:45:52.133Z</time></trkpt><trkpt lat="41.015205" lon="14.327215"><ele>23.0</ele><time>2026-03-25T12:45:53.131Z</time></trkpt><trkpt lat="41.0152917" lon="14.32726"><ele>23.0</ele><time>2026-03-25T12:45:54.133Z</time></trkpt><trkpt lat="41.0153783" lon="14.3272983"><ele>23.0</ele><time>2026-03-25T12:45:55.136Z</time></trkpt><trkpt lat="41.015465" lon="14.3273383"><ele>23.0</ele><time>2026-03-25T12:45:56.135Z</time></trkpt><trkpt lat="41.0155483" lon="14.3273733"><ele>23.0</ele><time>2026-03-25T12:45:57.131Z</time></trkpt><trkpt lat="41.0156333" lon="14.3274"><ele>23.0</ele><time>2026-03-25T12:45:58.135Z</time></trkpt><trkpt lat="41.0157183" lon="14.3274183"><ele>23.0</ele><time>2026-03-25T12:45:59.132Z</time></trkpt><trkpt lat="41.0158017" lon="14.32743"><ele>23.0</ele><time>2026-03-25T12:46:00.132Z</time></trkpt><trkpt lat="41.0158817" lon="14.3274367"><ele>23.0</ele><time>2026-03-25T12:46:01.133Z</time></trkpt><trkpt lat="41.0159667" lon="14.3274483"><ele>23.0</ele><time>2026-03-25T12:46:02.133Z</time></trkpt><trkpt lat="41.01605" lon="14.3274567"><ele>23.0</ele><time>2026-03-25T12:46:03.132Z</time></trkpt><trkpt lat="41.016135" lon="14.3274617"><ele>23.0</ele><time>2026-03-25T12:46:04.133Z</time></trkpt><trkpt lat="41.0162183" lon="14.327465"><ele>23.0</ele><time>2026-03-25T12:46:05.134Z</time></trkpt><trkpt lat="41.0163" lon="14.3274667"><ele>23.0</ele><time>2026-03-25T12:46:06.134Z</time></trkpt><trkpt lat="41.0163833" lon="14.3274617"><ele>23.0</ele><time>2026-03-25T12:46:07.134Z</time></trkpt><trkpt lat="41.0164617" lon="14.3274517"><ele>23.0</ele><time>2026-03-25T12:46:08.134Z</time></trkpt><trkpt lat="41.01654" lon="14.32744"><ele>23.0</ele><time>2026-03-25T12:46:09.134Z</time></trkpt><trkpt lat="41.0166183" lon="14.3274267"><ele>23.0</ele><time>2026-03-25T12:46:10.133Z</time></trkpt><trkpt lat="41.0166983" lon="14.3274117"><ele>23.0</ele><time>2026-03-25T12:46:11.134Z</time></trkpt><trkpt lat="41.0167733" lon="14.3273983"><ele>23.0</ele><time>2026-03-25T12:46:12.133Z</time></trkpt><trkpt lat="41.0168533" lon="14.3273833"><ele>23.0</ele><time>2026-03-25T12:46:13.132Z</time></trkpt><trkpt lat="41.0169317" lon="14.32737"><ele>23.0</ele><time>2026-03-25T12:46:14.132Z</time></trkpt><trkpt lat="41.0170067" lon="14.3273583"><ele>23.0</ele><time>2026-03-25T12:46:15.133Z</time></trkpt><trkpt lat="41.0170817" lon="14.32734"><ele>23.0</ele><time>2026-03-25T12:46:16.132Z</time></trkpt><trkpt lat="41.01716" lon="14.3273283"><ele>23.0</ele><time>2026-03-25T12:46:17.133Z</time></trkpt><trkpt lat="41.0172383" lon="14.3273167"><ele>23.0</ele><time>2026-03-25T12:46:18.133Z</time></trkpt><trkpt lat="41.0173117" lon="14.3273033"><ele>23.0</ele><time>2026-03-25T12:46:19.132Z</time></trkpt><trkpt lat="41.0173867" lon="14.32729"><ele>23.0</ele><time>2026-03-25T12:46:20.133Z</time></trkpt><trkpt lat="41.01746" lon="14.3272767"><ele>23.0</ele><time>2026-03-25T12:46:21.132Z</time></trkpt><trkpt lat="41.017535" lon="14.3272617"><ele>23.0</ele><time>2026-03-25T12:46:22.133Z</time></trkpt><trkpt lat="41.01761" lon="14.3272483"><ele>23.0</ele><time>2026-03-25T12:46:23.135Z</time></trkpt><trkpt lat="41.0176833" lon="14.3272367"><ele>23.0</ele><time>2026-03-25T12:46:24.134Z</time></trkpt><trkpt lat="41.0177583" lon="14.3272233"><ele>23.0</ele><time>2026-03-25T12:46:25.135Z</time></trkpt><trkpt lat="41.0178317" lon="14.3272133"><ele>23.0</ele><time>2026-03-25T12:46:26.134Z</time></trkpt><trkpt lat="41.017905" lon="14.3272"><ele>23.0</ele><time>2026-03-25T12:46:27.135Z</time></trkpt><trkpt lat="41.01798" lon="14.3271883"><ele>23.0</ele><time>2026-03-25T12:46:28.134Z</time></trkpt><trkpt lat="41.018055" lon="14.327175"><ele>23.0</ele><time>2026-03-25T12:46:29.134Z</time></trkpt><trkpt lat="41.0181283" lon="14.327165"><ele>23.0</ele><time>2026-03-25T12:46:30.133Z</time></trkpt><trkpt lat="41.0182033" lon="14.3271533"><ele>23.0</ele><time>2026-03-25T12:46:31.132Z</time></trkpt><trkpt lat="41.018275" lon="14.3271383"><ele>23.0</ele><time>2026-03-25T12:46:32.134Z</time></trkpt><trkpt lat="41.01835" lon="14.32712"><ele>23.0</ele><time>2026-03-25T12:46:33.134Z</time></trkpt><trkpt lat="41.0184233" lon="14.3271067"><ele>23.142857142857142</ele><time>2026-03-25T12:46:34.133Z</time></trkpt><trkpt lat="41.018495" lon="14.3271"><ele>23.285714285714285</ele><time>2026-03-25T12:46:35.131Z</time></trkpt><trkpt lat="41.018565" lon="14.3270917"><ele>23.428571428571427</ele><time>2026-03-25T12:46:36.134Z</time></trkpt><trkpt lat="41.0186367" lon="14.3270783"><ele>23.57142857142857</ele><time>2026-03-25T12:46:37.135Z</time></trkpt><trkpt lat="41.018705" lon="14.3270683"><ele>23.714285714285715</ele><time>2026-03-25T12:46:38.133Z</time></trkpt><trkpt lat="41.0187733" lon="14.32706"><ele>23.857142857142854</ele><time>2026-03-25T12:46:39.135Z</time></trkpt><trkpt lat="41.0188417" lon="14.3270533"><ele>24.0</ele><time>2026-03-25T12:46:40.133Z</time></trkpt><trkpt lat="41.0189067" lon="14.3270417"><ele>23.999999999999996</ele><time>2026-03-25T12:46:41.133Z</time></trkpt><trkpt lat="41.0189733" lon="14.32703"><ele>24.0</ele><time>2026-03-25T12:46:42.134Z</time></trkpt><trkpt lat="41.01904" lon="14.3270133"><ele>24.0</ele><time>2026-03-25T12:46:43.131Z</time></trkpt><trkpt lat="41.0191033" lon="14.326995"><ele>24.0</ele><time>2026-03-25T12:46:44.134Z</time></trkpt><trkpt lat="41.0191683" lon="14.32698"><ele>24.0</ele><time>2026-03-25T12:46:45.135Z</time></trkpt><trkpt lat="41.0192333" lon="14.326965"><ele>23.999999999999996</ele><time>2026-03-25T12:46:46.133Z</time></trkpt><trkpt lat="41.0192967" lon="14.3269433"><ele>24.0</ele><time>2026-03-25T12:46:47.132Z</time></trkpt><trkpt lat="41.0193617" lon="14.3269133"><ele>24.285714285714285</ele><time>2026-03-25T12:46:48.133Z</time></trkpt><trkpt lat="41.019425" lon="14.32688"><ele>24.57142857142857</ele><time>2026-03-25T12:46:49.133Z</time></trkpt><trkpt lat="41.019485" lon="14.326845"><ele>24.857142857142854</ele><time>2026-03-25T12:46:50.131Z</time></trkpt><trkpt lat="41.019545" lon="14.32681"><ele>25.142857142857142</ele><time>2026-03-25T12:46:51.133Z</time></trkpt><trkpt lat="41.0196067" lon="14.3267733"><ele>25.42857142857143</ele><time>2026-03-25T12:46:52.133Z</time></trkpt><trkpt lat="41.0196667" lon="14.326735"><ele>25.71428571428571</ele><time>2026-03-25T12:46:53.135Z</time></trkpt><trkpt lat="41.019725" lon="14.3266933"><ele>26.0</ele><time>2026-03-25T12:46:54.134Z</time></trkpt><trkpt lat="41.0197817" lon="14.3266467"><ele>26.0</ele><time>2026-03-25T12:46:55.135Z</time></trkpt><trkpt lat="41.019835" lon="14.3265983"><ele>26.0</ele><time>2026-03-25T12:46:56.134Z</time></trkpt><trkpt lat="41.0198883" lon="14.32655"><ele>26.0</ele><time>2026-03-25T12:46:57.132Z</time></trkpt><trkpt lat="41.01999" lon="14.3264483"><ele>26.0</ele><time>2026-03-25T12:46:59.134Z</time></trkpt><trkpt lat="41.0200867" lon="14.326345"><ele>26.0</ele><time>2026-03-25T12:47:01.133Z</time></trkpt><trkpt lat="41.0201767" lon="14.326235"><ele>26.166666666666664</ele><time>2026-03-25T12:47:03.133Z</time></trkpt><trkpt lat="41.020265" lon="14.3261267"><ele>26.333333333333332</ele><time>2026-03-25T12:47:05.133Z</time></trkpt><trkpt lat="41.0203133" lon="14.32607"><ele>26.5</ele><time>2026-03-25T12:47:06.133Z</time></trkpt><trkpt lat="41.0203617" lon="14.326015"><ele>26.666666666666664</ele><time>2026-03-25T12:47:07.133Z</time></trkpt><trkpt lat="41.020455" lon="14.325905"><ele>26.833333333333332</ele><time>2026-03-25T12:47:09.132Z</time></trkpt><trkpt lat="41.0205017" lon="14.3258467"><ele>27.0</ele><time>2026-03-25T12:47:10.132Z</time></trkpt><trkpt lat="41.02055" lon="14.3257883"><ele>27.0</ele><time>2026-03-25T12:47:11.133Z</time></trkpt><trkpt lat="41.0205983" lon="14.3257283"><ele>27.0</ele><time>2026-03-25T12:47:12.133Z</time></trkpt><trkpt lat="41.0206467" lon="14.3256683"><ele>27.0</ele><time>2026-03-25T12:47:13.132Z</time></trkpt><trkpt lat="41.020695" lon="14.3256083"><ele>27.0</ele><time>2026-03-25T12:47:14.135Z</time></trkpt><trkpt lat="41.0207467" lon="14.325545"><ele>27.0</ele><time>2026-03-25T12:47:15.134Z</time></trkpt><trkpt lat="41.0207967" lon="14.325485"><ele>27.0</ele><time>2026-03-25T12:47:16.133Z</time></trkpt><trkpt lat="41.0208483" lon="14.3254233"><ele>27.0</ele><time>2026-03-25T12:47:17.132Z</time></trkpt><trkpt lat="41.0209033" lon="14.325365"><ele>26.857142857142858</ele><time>2026-03-25T12:47:18.132Z</time></trkpt><trkpt lat="41.020955" lon="14.3253133"><ele>26.714285714285715</ele><time>2026-03-25T12:47:19.134Z</time></trkpt><trkpt lat="41.02101" lon="14.3252617"><ele>26.57142857142857</ele><time>2026-03-25T12:47:20.132Z</time></trkpt><trkpt lat="41.0210717" lon="14.325215"><ele>26.42857142857143</ele><time>2026-03-25T12:47:21.131Z</time></trkpt><trkpt lat="41.0211367" lon="14.3251683"><ele>26.28571428571429</ele><time>2026-03-25T12:47:22.133Z</time></trkpt><trkpt lat="41.0211983" lon="14.3251267"><ele>26.142857142857142</ele><time>2026-03-25T12:47:23.132Z</time></trkpt><trkpt lat="41.0212633" lon="14.325085"><ele>26.0</ele><time>2026-03-25T12:47:24.132Z</time></trkpt><trkpt lat="41.02133" lon="14.3250533"><ele>26.0</ele><time>2026-03-25T12:47:25.134Z</time></trkpt><trkpt lat="41.0214" lon="14.32503"><ele>26.0</ele><time>2026-03-25T12:47:26.134Z</time></trkpt><trkpt lat="41.0214683" lon="14.3250117"><ele>26.0</ele><time>2026-03-25T12:47:27.134Z</time></trkpt><trkpt lat="41.02154" lon="14.3249983"><ele>26.0</ele><time>2026-03-25T12:47:28.134Z</time></trkpt><trkpt lat="41.0216117" lon="14.32499"><ele>26.0</ele><time>2026-03-25T12:47:29.133Z</time></trkpt><trkpt lat="41.0216833" lon="14.3249883"><ele>26.0</ele><time>2026-03-25T12:47:30.133Z</time></trkpt><trkpt lat="41.021755" lon="14.32499"><ele>26.0</ele><time>2026-03-25T12:47:31.133Z</time></trkpt><trkpt lat="41.021825" lon="14.3249917"><ele>26.142857142857142</ele><time>2026-03-25T12:47:32.133Z</time></trkpt><trkpt lat="41.021895" lon="14.3249917"><ele>26.28571428571429</ele><time>2026-03-25T12:47:33.135Z</time></trkpt><trkpt lat="41.0219667" lon="14.3249883"><ele>26.42857142857143</ele><time>2026-03-25T12:47:34.135Z</time></trkpt><trkpt lat="41.0220367" lon="14.324985"><ele>26.57142857142857</ele><time>2026-03-25T12:47:35.135Z</time></trkpt><trkpt lat="41.0221067" lon="14.3249817"><ele>26.714285714285715</ele><time>2026-03-25T12:47:36.134Z</time></trkpt><trkpt lat="41.0221733" lon="14.3249817"><ele>26.857142857142858</ele><time>2026-03-25T12:47:37.132Z</time></trkpt><trkpt lat="41.02224" lon="14.32498"><ele>27.0</ele><time>2026-03-25T12:47:38.132Z</time></trkpt><trkpt lat="41.0223067" lon="14.3249783"><ele>27.0</ele><time>2026-03-25T12:47:39.132Z</time></trkpt><trkpt lat="41.0223733" lon="14.3249783"><ele>27.0</ele><time>2026-03-25T12:47:40.133Z</time></trkpt><trkpt lat="41.02244" lon="14.32498"><ele>27.0</ele><time>2026-03-25T12:47:41.132Z</time></trkpt><trkpt lat="41.0225083" lon="14.3249783"><ele>27.0</ele><time>2026-03-25T12:47:42.132Z</time></trkpt><trkpt lat="41.0225767" lon="14.3249767"><ele>27.0</ele><time>2026-03-25T12:47:43.132Z</time></trkpt><trkpt lat="41.0226417" lon="14.324975"><ele>27.0</ele><time>2026-03-25T12:47:44.132Z</time></trkpt><trkpt lat="41.02271" lon="14.324975"><ele>27.0</ele><time>2026-03-25T12:47:45.133Z</time></trkpt><trkpt lat="41.0227783" lon="14.3249733"><ele>27.0</ele><time>2026-03-25T12:47:46.133Z</time></trkpt><trkpt lat="41.0228467" lon="14.3249733"><ele>27.0</ele><time>2026-03-25T12:47:47.133Z</time></trkpt><trkpt lat="41.022915" lon="14.3249733"><ele>27.0</ele><time>2026-03-25T12:47:48.134Z</time></trkpt><trkpt lat="41.0229833" lon="14.32497"><ele>27.0</ele><time>2026-03-25T12:47:49.132Z</time></trkpt><trkpt lat="41.02305" lon="14.3249667"><ele>27.0</ele><time>2026-03-25T12:47:50.133Z</time></trkpt><trkpt lat="41.0231183" lon="14.324965"><ele>27.0</ele><time>2026-03-25T12:47:51.132Z</time></trkpt><trkpt lat="41.0231883" lon="14.3249667"><ele>27.0</ele><time>2026-03-25T12:47:52.133Z</time></trkpt><trkpt lat="41.0232567" lon="14.3249683"><ele>27.0</ele><time>2026-03-25T12:47:53.133Z</time></trkpt><trkpt lat="41.0233233" lon="14.3249667"><ele>27.0</ele><time>2026-03-25T12:47:54.133Z</time></trkpt><trkpt lat="41.02339" lon="14.324965"><ele>27.0</ele><time>2026-03-25T12:47:55.133Z</time></trkpt><trkpt lat="41.0234583" lon="14.3249667"><ele>27.0</ele><time>2026-03-25T12:47:56.132Z</time></trkpt><trkpt lat="41.023525" lon="14.3249667"><ele>27.0</ele><time>2026-03-25T12:47:57.134Z</time></trkpt><trkpt lat="41.0235917" lon="14.3249667"><ele>27.0</ele><time>2026-03-25T12:47:58.132Z</time></trkpt><trkpt lat="41.0236567" lon="14.3249617"><ele>27.0</ele><time>2026-03-25T12:47:59.135Z</time></trkpt><trkpt lat="41.0237217" lon="14.32496"><ele>27.0</ele><time>2026-03-25T12:48:00.132Z</time></trkpt><trkpt lat="41.0237883" lon="14.3249567"><ele>27.0</ele><time>2026-03-25T12:48:01.133Z</time></trkpt><trkpt lat="41.0238533" lon="14.3249567"><ele>27.0</ele><time>2026-03-25T12:48:02.133Z</time></trkpt><trkpt lat="41.0239217" lon="14.3249583"><ele>27.0</ele><time>2026-03-25T12:48:03.135Z</time></trkpt><trkpt lat="41.02399" lon="14.3249583"><ele>27.0</ele><time>2026-03-25T12:48:04.133Z</time></trkpt><trkpt lat="41.0240583" lon="14.32496"><ele>27.0</ele><time>2026-03-25T12:48:05.133Z</time></trkpt><trkpt lat="41.0241233" lon="14.3249567"><ele>27.0</ele><time>2026-03-25T12:48:06.135Z</time></trkpt><trkpt lat="41.0242433" lon="14.3249767"><ele>26.75</ele><time>2026-03-25T12:48:08.133Z</time></trkpt><trkpt lat="41.024345" lon="14.32504"><ele>26.5</ele><time>2026-03-25T12:48:10.133Z</time></trkpt><trkpt lat="41.0244583" lon="14.325075"><ele>26.25</ele><time>2026-03-25T12:48:12.135Z</time></trkpt><trkpt lat="41.0245733" lon="14.3250367"><ele>26.0</ele><time>2026-03-25T12:48:14.134Z</time></trkpt><trkpt lat="41.0246933" lon="14.325"><ele>25.999999999999996</ele><time>2026-03-25T12:48:16.132Z</time></trkpt><trkpt lat="41.0247567" lon="14.3249933"><ele>26.0</ele><time>2026-03-25T12:48:17.132Z</time></trkpt><trkpt lat="41.02482" lon="14.3249867"><ele>26.0</ele><time>2026-03-25T12:48:18.133Z</time></trkpt><trkpt lat="41.0248833" lon="14.3249817"><ele>26.0</ele><time>2026-03-25T12:48:19.133Z</time></trkpt><trkpt lat="41.0250083" lon="14.3249717"><ele>25.999999999999996</ele><time>2026-03-25T12:48:21.131Z</time></trkpt><trkpt lat="41.0251333" lon="14.32496"><ele>26.0</ele><time>2026-03-25T12:48:23.133Z</time></trkpt><trkpt lat="41.0252567" lon="14.3249533"><ele>26.333333333333332</ele><time>2026-03-25T12:48:25.136Z</time></trkpt><trkpt lat="41.02538" lon="14.324945"><ele>26.666666666666664</ele><time>2026-03-25T12:48:27.135Z</time></trkpt><trkpt lat="41.025505" lon="14.3249467"><ele>27.0</ele><time>2026-03-25T12:48:29.135Z</time></trkpt><trkpt lat="41.02557" lon="14.3249467"><ele>27.333333333333336</ele><time>2026-03-25T12:48:30.134Z</time></trkpt><trkpt lat="41.0256333" lon="14.3249467"><ele>27.666666666666668</ele><time>2026-03-25T12:48:31.132Z</time></trkpt><trkpt lat="41.0256967" lon="14.324945"><ele>28.0</ele><time>2026-03-25T12:48:32.133Z</time></trkpt><trkpt lat="41.02576" lon="14.324945"><ele>28.142857142857142</ele><time>2026-03-25T12:48:33.132Z</time></trkpt><trkpt lat="41.0258233" lon="14.3249433"><ele>28.285714285714285</ele><time>2026-03-25T12:48:34.134Z</time></trkpt><trkpt lat="41.0258883" lon="14.3249467"><ele>28.42857142857143</ele><time>2026-03-25T12:48:35.133Z</time></trkpt><trkpt lat="41.0259517" lon="14.324945"><ele>28.571428571428573</ele><time>2026-03-25T12:48:36.133Z</time></trkpt><trkpt lat="41.026015" lon="14.32494"><ele>28.714285714285715</ele><time>2026-03-25T12:48:37.136Z</time></trkpt><trkpt lat="41.0260783" lon="14.324935"><ele>28.85714285714286</ele><time>2026-03-25T12:48:38.132Z</time></trkpt><trkpt lat="41.0261417" lon="14.3249317"><ele>29.000000000000004</ele><time>2026-03-25T12:48:39.135Z</time></trkpt><trkpt lat="41.0262667" lon="14.324935"><ele>29.0</ele><time>2026-03-25T12:48:41.135Z</time></trkpt><trkpt lat="41.0263867" lon="14.324935"><ele>29.0</ele><time>2026-03-25T12:48:43.136Z</time></trkpt><trkpt lat="41.026505" lon="14.3249317"><ele>29.0</ele><time>2026-03-25T12:48:45.135Z</time></trkpt><trkpt lat="41.0266267" lon="14.3249283"><ele>29.0</ele><time>2026-03-25T12:48:47.133Z</time></trkpt><trkpt lat="41.0267533" lon="14.3249267"><ele>29.142857142857146</ele><time>2026-03-25T12:48:49.133Z</time></trkpt><trkpt lat="41.02682" lon="14.3249267"><ele>29.285714285714285</ele><time>2026-03-25T12:48:50.131Z</time></trkpt><trkpt lat="41.0268883" lon="14.324925"><ele>29.42857142857143</ele><time>2026-03-25T12:48:51.131Z</time></trkpt><trkpt lat="41.0269583" lon="14.3249267"><ele>29.571428571428573</ele><time>2026-03-25T12:48:52.133Z</time></trkpt><trkpt lat="41.027025" lon="14.3249283"><ele>29.714285714285715</ele><time>2026-03-25T12:48:53.133Z</time></trkpt><trkpt lat="41.0270933" lon="14.3249283"><ele>29.857142857142858</ele><time>2026-03-25T12:48:54.133Z</time></trkpt><trkpt lat="41.02716" lon="14.32493"><ele>30.0</ele><time>2026-03-25T12:48:55.135Z</time></trkpt><trkpt lat="41.0272283" lon="14.3249283"><ele>30.0</ele><time>2026-03-25T12:48:56.135Z</time></trkpt><trkpt lat="41.0272933" lon="14.324925"><ele>30.0</ele><time>2026-03-25T12:48:57.132Z</time></trkpt><trkpt lat="41.0273583" lon="14.324925"><ele>30.0</ele><time>2026-03-25T12:48:58.134Z</time></trkpt><trkpt lat="41.0274233" lon="14.3249233"><ele>30.0</ele><time>2026-03-25T12:48:59.132Z</time></trkpt><trkpt lat="41.0274867" lon="14.32492"><ele>30.0</ele><time>2026-03-25T12:49:00.133Z</time></trkpt><trkpt lat="41.027555" lon="14.3249183"><ele>30.0</ele><time>2026-03-25T12:49:01.135Z</time></trkpt><trkpt lat="41.0276233" lon="14.3249167"><ele>30.0</ele><time>2026-03-25T12:49:02.133Z</time></trkpt><trkpt lat="41.0276883" lon="14.324915"><ele>30.6</ele><time>2026-03-25T12:49:03.133Z</time></trkpt><trkpt lat="41.0277567" lon="14.3249133"><ele>31.2</ele><time>2026-03-25T12:49:04.135Z</time></trkpt><trkpt lat="41.0278217" lon="14.3249083"><ele>31.799999999999997</ele><time>2026-03-25T12:49:05.135Z</time></trkpt><trkpt lat="41.0279433" lon="14.3249"><ele>32.4</ele><time>2026-03-25T12:49:07.135Z</time></trkpt><trkpt lat="41.0280567" lon="14.324875"><ele>33.0</ele><time>2026-03-25T12:49:09.134Z</time></trkpt><trkpt lat="41.028175" lon="14.3248467"><ele>33.0</ele><time>2026-03-25T12:49:11.134Z</time></trkpt><trkpt lat="41.0282383" lon="14.324845"><ele>33.0</ele><time>2026-03-25T12:49:12.134Z</time></trkpt><trkpt lat="41.0283017" lon="14.324845"><ele>33.0</ele><time>2026-03-25T12:49:13.136Z</time></trkpt><trkpt lat="41.028365" lon="14.3248517"><ele>33.0</ele><time>2026-03-25T12:49:14.135Z</time></trkpt><trkpt lat="41.02843" lon="14.3248583"><ele>33.0</ele><time>2026-03-25T12:49:15.132Z</time></trkpt><trkpt lat="41.0284967" lon="14.3248717"><ele>33.0</ele><time>2026-03-25T12:49:16.133Z</time></trkpt><trkpt lat="41.0285617" lon="14.324885"><ele>33.0</ele><time>2026-03-25T12:49:17.133Z</time></trkpt><trkpt lat="41.0286283" lon="14.3248933"><ele>32.833333333333336</ele><time>2026-03-25T12:49:18.132Z</time></trkpt><trkpt lat="41.0286967" lon="14.3248933"><ele>32.666666666666664</ele><time>2026-03-25T12:49:19.133Z</time></trkpt><trkpt lat="41.0287617" lon="14.32489"><ele>32.5</ele><time>2026-03-25T12:49:20.132Z</time></trkpt><trkpt lat="41.028825" lon="14.3248867"><ele>32.33333333333333</ele><time>2026-03-25T12:49:21.133Z</time></trkpt><trkpt lat="41.0288883" lon="14.3248867"><ele>32.166666666666664</ele><time>2026-03-25T12:49:22.133Z</time></trkpt><trkpt lat="41.0290167" lon="14.3249"><ele>32.0</ele><time>2026-03-25T12:49:24.131Z</time></trkpt><trkpt lat="41.0290867" lon="14.3249067"><ele>32.0</ele><time>2026-03-25T12:49:25.132Z</time></trkpt><trkpt lat="41.0291567" lon="14.3249083"><ele>31.999999999999996</ele><time>2026-03-25T12:49:26.136Z</time></trkpt><trkpt lat="41.029225" lon="14.32491"><ele>32.0</ele><time>2026-03-25T12:49:27.133Z</time></trkpt><trkpt lat="41.029295" lon="14.32491"><ele>32.0</ele><time>2026-03-25T12:49:28.133Z</time></trkpt><trkpt lat="41.0293633" lon="14.3249083"><ele>31.999999999999996</ele><time>2026-03-25T12:49:29.131Z</time></trkpt><trkpt lat="41.02943" lon="14.3249017"><ele>32.0</ele><time>2026-03-25T12:49:30.134Z</time></trkpt><trkpt lat="41.0294967" lon="14.3249"><ele>32.0</ele><time>2026-03-25T12:49:31.135Z</time></trkpt><trkpt lat="41.029565" lon="14.3249"><ele>32.0</ele><time>2026-03-25T12:49:32.129Z</time></trkpt><trkpt lat="41.0296333" lon="14.3249083"><ele>31.999999999999996</ele><time>2026-03-25T12:49:33.131Z</time></trkpt><trkpt lat="41.0297017" lon="14.324915"><ele>32.0</ele><time>2026-03-25T12:49:34.132Z</time></trkpt><trkpt lat="41.02977" lon="14.3249183"><ele>32.0</ele><time>2026-03-25T12:49:35.135Z</time></trkpt><trkpt lat="41.0298367" lon="14.32492"><ele>31.999999999999996</ele><time>2026-03-25T12:49:36.134Z</time></trkpt><trkpt lat="41.0299017" lon="14.3249183"><ele>32.0</ele><time>2026-03-25T12:49:37.134Z</time></trkpt><trkpt lat="41.02997" lon="14.3249183"><ele>32.0</ele><time>2026-03-25T12:49:38.134Z</time></trkpt><trkpt lat="41.0300383" lon="14.3249183"><ele>31.857142857142854</ele><time>2026-03-25T12:49:39.132Z</time></trkpt><trkpt lat="41.0301067" lon="14.3249117"><ele>31.71428571428571</ele><time>2026-03-25T12:49:40.133Z</time></trkpt><trkpt lat="41.03017" lon="14.32491"><ele>31.57142857142857</ele><time>2026-03-25T12:49:41.134Z</time></trkpt><trkpt lat="41.0302367" lon="14.3249117"><ele>31.42857142857143</ele><time>2026-03-25T12:49:42.134Z</time></trkpt><trkpt lat="41.0303" lon="14.32491"><ele>31.28571428571429</ele><time>2026-03-25T12:49:43.134Z</time></trkpt><trkpt lat="41.030365" lon="14.32491"><ele>31.142857142857146</ele><time>2026-03-25T12:49:44.134Z</time></trkpt><trkpt lat="41.0304283" lon="14.3249083"><ele>31.0</ele><time>2026-03-25T12:49:45.134Z</time></trkpt><trkpt lat="41.0304933" lon="14.32491"><ele>31.0</ele><time>2026-03-25T12:49:46.134Z</time></trkpt><trkpt lat="41.0305583" lon="14.32491"><ele>31.0</ele><time>2026-03-25T12:49:47.133Z</time></trkpt><trkpt lat="41.0306833" lon="14.3248967"><ele>31.0</ele><time>2026-03-25T12:49:49.136Z</time></trkpt><trkpt lat="41.0308083" lon="14.32489"><ele>31.0</ele><time>2026-03-25T12:49:51.133Z</time></trkpt><trkpt lat="41.0308717" lon="14.3248867"><ele>31.0</ele><time>2026-03-25T12:49:52.134Z</time></trkpt><trkpt lat="41.0309933" lon="14.3248883"><ele>31.25</ele><time>2026-03-25T12:49:54.134Z</time></trkpt><trkpt lat="41.0311133" lon="14.3248833"><ele>31.5</ele><time>2026-03-25T12:49:56.134Z</time></trkpt><trkpt lat="41.0312333" lon="14.3248783"><ele>31.75</ele><time>2026-03-25T12:49:58.132Z</time></trkpt><trkpt lat="41.031355" lon="14.3248833"><ele>32.0</ele><time>2026-03-25T12:50:00.132Z</time></trkpt><trkpt lat="41.0314717" lon="14.32489"><ele>31.999999999999996</ele><time>2026-03-25T12:50:02.133Z</time></trkpt><trkpt lat="41.031535" lon="14.3248967"><ele>32.0</ele><time>2026-03-25T12:50:03.134Z</time></trkpt><trkpt lat="41.0315983" lon="14.3248983"><ele>32.0</ele><time>2026-03-25T12:50:04.132Z</time></trkpt><trkpt lat="41.0316617" lon="14.3248983"><ele>32.0</ele><time>2026-03-25T12:50:05.135Z</time></trkpt><trkpt lat="41.03178" lon="14.3249067"><ele>31.999999999999996</ele><time>2026-03-25T12:50:07.133Z</time></trkpt><trkpt lat="41.0319017" lon="14.3249167"><ele>32.0</ele><time>2026-03-25T12:50:09.132Z</time></trkpt><trkpt lat="41.032025" lon="14.3249233"><ele>32.0</ele><time>2026-03-25T12:50:11.133Z</time></trkpt><trkpt lat="41.03214" lon="14.3249233"><ele>32.0</ele><time>2026-03-25T12:50:13.132Z</time></trkpt><trkpt lat="41.0322533" lon="14.32492"><ele>32.0</ele><time>2026-03-25T12:50:15.132Z</time></trkpt><trkpt lat="41.0323683" lon="14.324915"><ele>32.0</ele><time>2026-03-25T12:50:17.133Z</time></trkpt><trkpt lat="41.0324867" lon="14.32491"><ele>32.4</ele><time>2026-03-25T12:50:19.133Z</time></trkpt><trkpt lat="41.0326033" lon="14.3249017"><ele>32.800000000000004</ele><time>2026-03-25T12:50:21.134Z</time></trkpt><trkpt lat="41.0327283" lon="14.3249"><ele>33.2</ele><time>2026-03-25T12:50:23.132Z</time></trkpt><trkpt lat="41.0328567" lon="14.3248917"><ele>33.6</ele><time>2026-03-25T12:50:25.133Z</time></trkpt><trkpt lat="41.032925" lon="14.3248917"><ele>34.0</ele><time>2026-03-25T12:50:26.132Z</time></trkpt><trkpt lat="41.0329933" lon="14.3248883"><ele>33.99999999999999</ele><time>2026-03-25T12:50:27.131Z</time></trkpt><trkpt lat="41.0330617" lon="14.3248883"><ele>34.0</ele><time>2026-03-25T12:50:28.132Z</time></trkpt><trkpt lat="41.03313" lon="14.3248883"><ele>34.0</ele><time>2026-03-25T12:50:29.132Z</time></trkpt><trkpt lat="41.0332" lon="14.3248867"><ele>34.0</ele><time>2026-03-25T12:50:30.133Z</time></trkpt><trkpt lat="41.03327" lon="14.3248833"><ele>34.0</ele><time>2026-03-25T12:50:31.132Z</time></trkpt><trkpt lat="41.0333383" lon="14.3248817"><ele>33.99999999999999</ele><time>2026-03-25T12:50:32.132Z</time></trkpt><trkpt lat="41.0334067" lon="14.3248817"><ele>34.0</ele><time>2026-03-25T12:50:33.13Z</time></trkpt><trkpt lat="41.0334733" lon="14.32488"><ele>34.14285714285714</ele><time>2026-03-25T12:50:34.131Z</time></trkpt><trkpt lat="41.03354" lon="14.324875"><ele>34.285714285714285</ele><time>2026-03-25T12:50:35.132Z</time></trkpt><trkpt lat="41.0336067" lon="14.324875"><ele>34.42857142857143</ele><time>2026-03-25T12:50:36.134Z</time></trkpt><trkpt lat="41.033675" lon="14.3248767"><ele>34.57142857142857</ele><time>2026-03-25T12:50:37.134Z</time></trkpt><trkpt lat="41.0337417" lon="14.32488"><ele>34.714285714285715</ele><time>2026-03-25T12:50:38.134Z</time></trkpt><trkpt lat="41.0338133" lon="14.3248867"><ele>34.857142857142854</ele><time>2026-03-25T12:50:39.133Z</time></trkpt><trkpt lat="41.0338817" lon="14.3248983"><ele>35.0</ele><time>2026-03-25T12:50:40.134Z</time></trkpt><trkpt lat="41.0339467" lon="14.3249067"><ele>35.0</ele><time>2026-03-25T12:50:41.134Z</time></trkpt><trkpt lat="41.034015" lon="14.3249117"><ele>35.0</ele><time>2026-03-25T12:50:42.133Z</time></trkpt><trkpt lat="41.0340833" lon="14.32491"><ele>35.0</ele><time>2026-03-25T12:50:43.132Z</time></trkpt><trkpt lat="41.03415" lon="14.324905"><ele>35.0</ele><time>2026-03-25T12:50:44.134Z</time></trkpt><trkpt lat="41.0342167" lon="14.3249"><ele>35.0</ele><time>2026-03-25T12:50:45.134Z</time></trkpt><trkpt lat="41.0342833" lon="14.3249"><ele>35.0</ele><time>2026-03-25T12:50:46.134Z</time></trkpt><trkpt lat="41.0343517" lon="14.3249"><ele>35.0</ele><time>2026-03-25T12:50:47.133Z</time></trkpt><trkpt lat="41.0344217" lon="14.3248983"><ele>35.142857142857146</ele><time>2026-03-25T12:50:48.134Z</time></trkpt><trkpt lat="41.0344933" lon="14.3248933"><ele>35.285714285714285</ele><time>2026-03-25T12:50:49.132Z</time></trkpt><trkpt lat="41.03456" lon="14.3248883"><ele>35.42857142857143</ele><time>2026-03-25T12:50:50.132Z</time></trkpt><trkpt lat="41.0346283" lon="14.3248817"><ele>35.57142857142857</ele><time>2026-03-25T12:50:51.132Z</time></trkpt><trkpt lat="41.0346933" lon="14.324875"><ele>35.714285714285715</ele><time>2026-03-25T12:50:52.132Z</time></trkpt><trkpt lat="41.0347583" lon="14.32487"><ele>35.85714285714286</ele><time>2026-03-25T12:50:53.132Z</time></trkpt><trkpt lat="41.0348233" lon="14.3248667"><ele>36.0</ele><time>2026-03-25T12:50:54.133Z</time></trkpt><trkpt lat="41.0348883" lon="14.3248633"><ele>36.00000000000001</ele><time>2026-03-25T12:50:55.131Z</time></trkpt><trkpt lat="41.0349517" lon="14.3248567"><ele>36.0</ele><time>2026-03-25T12:50:56.132Z</time></trkpt><trkpt lat="41.0350167" lon="14.3248517"><ele>36.0</ele><time>2026-03-25T12:50:57.133Z</time></trkpt><trkpt lat="41.0350833" lon="14.3248517"><ele>36.0</ele><time>2026-03-25T12:50:58.132Z</time></trkpt><trkpt lat="41.0351483" lon="14.3248567"><ele>36.0</ele><time>2026-03-25T12:50:59.131Z</time></trkpt><trkpt lat="41.0352117" lon="14.324855"><ele>36.00000000000001</ele><time>2026-03-25T12:51:00.132Z</time></trkpt><trkpt lat="41.0352783" lon="14.3248583"><ele>36.0</ele><time>2026-03-25T12:51:01.133Z</time></trkpt><trkpt lat="41.0353417" lon="14.32486"><ele>36.00000000000001</ele><time>2026-03-25T12:51:02.131Z</time></trkpt><trkpt lat="41.0354083" lon="14.3248583"><ele>36.0</ele><time>2026-03-25T12:51:03.133Z</time></trkpt><trkpt lat="41.035475" lon="14.324855"><ele>36.0</ele><time>2026-03-25T12:51:04.133Z</time></trkpt><trkpt lat="41.0355383" lon="14.3248533"><ele>36.0</ele><time>2026-03-25T12:51:05.132Z</time></trkpt><trkpt lat="41.0356017" lon="14.3248517"><ele>36.0</ele><time>2026-03-25T12:51:06.133Z</time></trkpt><trkpt lat="41.035665" lon="14.3248517"><ele>36.00000000000001</ele><time>2026-03-25T12:51:07.133Z</time></trkpt><trkpt lat="41.03573" lon="14.324855"><ele>36.0</ele><time>2026-03-25T12:51:08.133Z</time></trkpt><trkpt lat="41.0357967" lon="14.3248567"><ele>36.28571428571429</ele><time>2026-03-25T12:51:09.132Z</time></trkpt><trkpt lat="41.0358633" lon="14.3248583"><ele>36.57142857142857</ele><time>2026-03-25T12:51:10.133Z</time></trkpt><trkpt lat="41.03593" lon="14.3248583"><ele>36.85714285714286</ele><time>2026-03-25T12:51:11.132Z</time></trkpt><trkpt lat="41.0359933" lon="14.324855"><ele>37.142857142857146</ele><time>2026-03-25T12:51:12.133Z</time></trkpt><trkpt lat="41.03606" lon="14.3248567"><ele>37.42857142857143</ele><time>2026-03-25T12:51:13.133Z</time></trkpt><trkpt lat="41.0361267" lon="14.32486"><ele>37.714285714285715</ele><time>2026-03-25T12:51:14.132Z</time></trkpt><trkpt lat="41.0361917" lon="14.324865"><ele>38.0</ele><time>2026-03-25T12:51:15.132Z</time></trkpt><trkpt lat="41.0363167" lon="14.32488"><ele>38.0</ele><time>2026-03-25T12:51:17.133Z</time></trkpt><trkpt lat="41.0364383" lon="14.3248683"><ele>38.0</ele><time>2026-03-25T12:51:19.132Z</time></trkpt><trkpt lat="41.03655" lon="14.3248333"><ele>38.0</ele><time>2026-03-25T12:51:21.131Z</time></trkpt><trkpt lat="41.0366533" lon="14.3248067"><ele>38.0</ele><time>2026-03-25T12:51:23.133Z</time></trkpt><trkpt lat="41.0367467" lon="14.324805"><ele>38.0</ele><time>2026-03-25T12:51:25.132Z</time></trkpt><trkpt lat="41.0368383" lon="14.3248117"><ele>38.285714285714285</ele><time>2026-03-25T12:51:27.13Z</time></trkpt><trkpt lat="41.03693" lon="14.3248117"><ele>38.57142857142858</ele><time>2026-03-25T12:51:29.133Z</time></trkpt><trkpt lat="41.037005" lon="14.3248117"><ele>38.85714285714286</ele><time>2026-03-25T12:51:31.133Z</time></trkpt><trkpt lat="41.0370717" lon="14.3248133"><ele>39.14285714285714</ele><time>2026-03-25T12:51:45.132Z</time></trkpt><trkpt lat="41.03715" lon="14.3248267"><ele>39.42857142857143</ele><time>2026-03-25T12:51:50.132Z</time></trkpt><trkpt lat="41.0372" lon="14.3248833"><ele>39.714285714285715</ele><time>2026-03-25T12:51:54.132Z</time></trkpt><trkpt lat="41.037245" lon="14.3249467"><ele>40.0</ele><time>2026-03-25T12:52:05.133Z</time></trkpt><trkpt lat="41.0373183" lon="14.3248817"><ele>40.0</ele><time>2026-03-25T12:52:09.132Z</time></trkpt><trkpt lat="41.0373967" lon="14.324835"><ele>40.0</ele><time>2026-03-25T12:52:12.131Z</time></trkpt><trkpt lat="41.0374667" lon="14.3248367"><ele>40.0</ele><time>2026-03-25T12:52:14.131Z</time></trkpt><trkpt lat="41.0375483" lon="14.324835"><ele>40.0</ele><time>2026-03-25T12:52:16.133Z</time></trkpt><trkpt lat="41.0376383" lon="14.3248367"><ele>40.0</ele><time>2026-03-25T12:52:18.131Z</time></trkpt><trkpt lat="41.03773" lon="14.3248367"><ele>40.0</ele><time>2026-03-25T12:52:20.133Z</time></trkpt><trkpt lat="41.037825" lon="14.3248367"><ele>40.0</ele><time>2026-03-25T12:52:22.133Z</time></trkpt><trkpt lat="41.037925" lon="14.3248283"><ele>40.0</ele><time>2026-03-25T12:52:24.131Z</time></trkpt><trkpt lat="41.03803" lon="14.3248233"><ele>40.0</ele><time>2026-03-25T12:52:26.133Z</time></trkpt><trkpt lat="41.0381433" lon="14.3248233"><ele>40.0</ele><time>2026-03-25T12:52:28.132Z</time></trkpt><trkpt lat="41.0382583" lon="14.3248217"><ele>40.0</ele><time>2026-03-25T12:52:30.131Z</time></trkpt><trkpt lat="41.038375" lon="14.3248133"><ele>40.0</ele><time>2026-03-25T12:52:32.133Z</time></trkpt><trkpt lat="41.0384917" lon="14.32481"><ele>40.0</ele><time>2026-03-25T12:52:34.132Z</time></trkpt><trkpt lat="41.0386117" lon="14.324815"><ele>40.0</ele><time>2026-03-25T12:52:36.135Z</time></trkpt><trkpt lat="41.038675" lon="14.3248133"><ele>40.0</ele><time>2026-03-25T12:52:37.132Z</time></trkpt><trkpt lat="41.0388" lon="14.3248067"><ele>40.0</ele><time>2026-03-25T12:52:39.132Z</time></trkpt><trkpt lat="41.0388633" lon="14.32481"><ele>40.0</ele><time>2026-03-25T12:52:40.135Z</time></trkpt><trkpt lat="41.03893" lon="14.3248133"><ele>40.0</ele><time>2026-03-25T12:52:41.134Z</time></trkpt><trkpt lat="41.038995" lon="14.3248133"><ele>40.0</ele><time>2026-03-25T12:52:42.135Z</time></trkpt><trkpt lat="41.0391183" lon="14.3248083"><ele>40.0</ele><time>2026-03-25T12:52:44.131Z</time></trkpt><trkpt lat="41.0391817" lon="14.324805"><ele>40.0</ele><time>2026-03-25T12:52:45.134Z</time></trkpt><trkpt lat="41.0393" lon="14.324795"><ele>40.0</ele><time>2026-03-25T12:52:47.133Z</time></trkpt><trkpt lat="41.0394133" lon="14.3247933"><ele>39.833333333333336</ele><time>2026-03-25T12:52:49.133Z</time></trkpt><trkpt lat="41.0395317" lon="14.3247967"><ele>39.66666666666667</ele><time>2026-03-25T12:52:51.131Z</time></trkpt><trkpt lat="41.0396567" lon="14.3247983"><ele>39.5</ele><time>2026-03-25T12:52:53.132Z</time></trkpt><trkpt lat="41.03972" lon="14.3248017"><ele>39.333333333333336</ele><time>2026-03-25T12:52:54.133Z</time></trkpt><trkpt lat="41.0397833" lon="14.324805"><ele>39.166666666666664</ele><time>2026-03-25T12:52:55.133Z</time></trkpt><trkpt lat="41.0398467" lon="14.3248067"><ele>39.0</ele><time>2026-03-25T12:52:56.133Z</time></trkpt><trkpt lat="41.0399667" lon="14.32481"><ele>39.0</ele><time>2026-03-25T12:52:58.132Z</time></trkpt><trkpt lat="41.04009" lon="14.3248133"><ele>39.0</ele><time>2026-03-25T12:53:00.134Z</time></trkpt><trkpt lat="41.0402133" lon="14.3248117"><ele>39.0</ele><time>2026-03-25T12:53:02.133Z</time></trkpt><trkpt lat="41.0403367" lon="14.3248067"><ele>39.0</ele><time>2026-03-25T12:53:04.132Z</time></trkpt><trkpt lat="41.0404" lon="14.3248033"><ele>39.0</ele><time>2026-03-25T12:53:05.133Z</time></trkpt><trkpt lat="41.0404633" lon="14.324805"><ele>39.0</ele><time>2026-03-25T12:53:06.134Z</time></trkpt><trkpt lat="41.0405283" lon="14.324805"><ele>39.0</ele><time>2026-03-25T12:53:07.133Z</time></trkpt><trkpt lat="41.0405917" lon="14.3247983"><ele>39.0</ele><time>2026-03-25T12:53:08.132Z</time></trkpt><trkpt lat="41.0406567" lon="14.3247967"><ele>39.0</ele><time>2026-03-25T12:53:09.133Z</time></trkpt><trkpt lat="41.04072" lon="14.3247967"><ele>39.0</ele><time>2026-03-25T12:53:10.132Z</time></trkpt><trkpt lat="41.0407833" lon="14.3247933"><ele>39.0</ele><time>2026-03-25T12:53:11.133Z</time></trkpt><trkpt lat="41.0408467" lon="14.324795"><ele>39.0</ele><time>2026-03-25T12:53:12.133Z</time></trkpt><trkpt lat="41.0409117" lon="14.3247967"><ele>39.0</ele><time>2026-03-25T12:53:13.134Z</time></trkpt><trkpt lat="41.0409783" lon="14.3247967"><ele>39.142857142857146</ele><time>2026-03-25T12:53:14.134Z</time></trkpt><trkpt lat="41.0410433" lon="14.3247967"><ele>39.285714285714285</ele><time>2026-03-25T12:53:15.134Z</time></trkpt><trkpt lat="41.0411083" lon="14.3247983"><ele>39.42857142857143</ele><time>2026-03-25T12:53:16.132Z</time></trkpt><trkpt lat="41.0411717" lon="14.3247983"><ele>39.57142857142857</ele><time>2026-03-25T12:53:17.133Z</time></trkpt><trkpt lat="41.0412367" lon="14.3247967"><ele>39.714285714285715</ele><time>2026-03-25T12:53:18.133Z</time></trkpt><trkpt lat="41.0413" lon="14.3247933"><ele>39.857142857142854</ele><time>2026-03-25T12:53:19.133Z</time></trkpt><trkpt lat="41.0413667" lon="14.324795"><ele>40.0</ele><time>2026-03-25T12:53:20.132Z</time></trkpt><trkpt lat="41.0414317" lon="14.3247967"><ele>40.0</ele><time>2026-03-25T12:53:21.132Z</time></trkpt><trkpt lat="41.0414967" lon="14.324795"><ele>40.0</ele><time>2026-03-25T12:53:22.132Z</time></trkpt><trkpt lat="41.04156" lon="14.324795"><ele>40.0</ele><time>2026-03-25T12:53:23.132Z</time></trkpt><trkpt lat="41.0416867" lon="14.3247933"><ele>40.0</ele><time>2026-03-25T12:53:25.133Z</time></trkpt><trkpt lat="41.0417517" lon="14.3247967"><ele>40.0</ele><time>2026-03-25T12:53:26.132Z</time></trkpt><trkpt lat="41.0418167" lon="14.3247967"><ele>40.0</ele><time>2026-03-25T12:53:27.135Z</time></trkpt><trkpt lat="41.0418833" lon="14.3247917"><ele>40.0</ele><time>2026-03-25T12:53:28.132Z</time></trkpt><trkpt lat="41.0419467" lon="14.3247883"><ele>40.0</ele><time>2026-03-25T12:53:29.135Z</time></trkpt><trkpt lat="41.04201" lon="14.3247867"><ele>40.0</ele><time>2026-03-25T12:53:30.134Z</time></trkpt><trkpt lat="41.0420767" lon="14.324785"><ele>40.0</ele><time>2026-03-25T12:53:31.135Z</time></trkpt><trkpt lat="41.042145" lon="14.3247833"><ele>40.0</ele><time>2026-03-25T12:53:32.134Z</time></trkpt><trkpt lat="41.0422133" lon="14.3247867"><ele>40.0</ele><time>2026-03-25T12:53:33.133Z</time></trkpt><trkpt lat="41.0422767" lon="14.3247917"><ele>40.0</ele><time>2026-03-25T12:53:34.134Z</time></trkpt><trkpt lat="41.0423983" lon="14.3247933"><ele>40.2</ele><time>2026-03-25T12:53:36.133Z</time></trkpt><trkpt lat="41.0425233" lon="14.3247917"><ele>40.4</ele><time>2026-03-25T12:53:38.133Z</time></trkpt><trkpt lat="41.0425867" lon="14.3247917"><ele>40.599999999999994</ele><time>2026-03-25T12:53:39.135Z</time></trkpt><trkpt lat="41.04265" lon="14.324795"><ele>40.8</ele><time>2026-03-25T12:53:40.134Z</time></trkpt><trkpt lat="41.04277" lon="14.324805"><ele>41.0</ele><time>2026-03-25T12:53:42.133Z</time></trkpt><trkpt lat="41.0428917" lon="14.3248183"><ele>41.0</ele><time>2026-03-25T12:53:44.134Z</time></trkpt><trkpt lat="41.042955" lon="14.3248217"><ele>41.0</ele><time>2026-03-25T12:53:45.13Z</time></trkpt><trkpt lat="41.0430183" lon="14.3248233"><ele>41.0</ele><time>2026-03-25T12:53:46.133Z</time></trkpt><trkpt lat="41.04314" lon="14.324835"><ele>41.0</ele><time>2026-03-25T12:53:48.131Z</time></trkpt><trkpt lat="41.0432517" lon="14.32487"><ele>41.0</ele><time>2026-03-25T12:53:50.133Z</time></trkpt><trkpt lat="41.0433683" lon="14.32491"><ele>41.25</ele><time>2026-03-25T12:53:52.133Z</time></trkpt><trkpt lat="41.0434867" lon="14.3249617"><ele>41.5</ele><time>2026-03-25T12:53:54.135Z</time></trkpt><trkpt lat="41.0435883" lon="14.32504"><ele>41.75</ele><time>2026-03-25T12:53:56.134Z</time></trkpt><trkpt lat="41.0436967" lon="14.3250833"><ele>42.0</ele><time>2026-03-25T12:53:58.134Z</time></trkpt><trkpt lat="41.043805" lon="14.3250583"><ele>42.0</ele><time>2026-03-25T12:54:00.135Z</time></trkpt><trkpt lat="41.0438983" lon="14.3249867"><ele>42.0</ele><time>2026-03-25T12:54:02.135Z</time></trkpt><trkpt lat="41.0440067" lon="14.3249533"><ele>42.0</ele><time>2026-03-25T12:54:04.134Z</time></trkpt><trkpt lat="41.0441183" lon="14.3249433"><ele>42.0</ele><time>2026-03-25T12:54:06.135Z</time></trkpt><trkpt lat="41.04423" lon="14.3249383"><ele>42.0</ele><time>2026-03-25T12:54:08.132Z</time></trkpt><trkpt lat="41.044345" lon="14.3249467"><ele>42.2</ele><time>2026-03-25T12:54:10.135Z</time></trkpt><trkpt lat="41.04446" lon="14.3249533"><ele>42.400000000000006</ele><time>2026-03-25T12:54:12.133Z</time></trkpt><trkpt lat="41.04457" lon="14.3249633"><ele>42.599999999999994</ele><time>2026-03-25T12:54:14.133Z</time></trkpt><trkpt lat="41.044675" lon="14.3249717"><ele>42.8</ele><time>2026-03-25T12:54:16.133Z</time></trkpt><trkpt lat="41.0447883" lon="14.324975"><ele>43.0</ele><time>2026-03-25T12:54:18.134Z</time></trkpt><trkpt lat="41.0449067" lon="14.3249783"><ele>43.5</ele><time>2026-03-25T12:54:20.134Z</time></trkpt><trkpt lat="41.0450267" lon="14.3249817"><ele>44.0</ele><time>2026-03-25T12:54:22.135Z</time></trkpt><trkpt lat="41.0451367" lon="14.3249917"><ele>44.5</ele><time>2026-03-25T12:54:24.133Z</time></trkpt><trkpt lat="41.0452517" lon="14.3250033"><ele>45.0</ele><time>2026-03-25T12:54:26.131Z</time></trkpt><trkpt lat="41.0453683" lon="14.3250183"><ele>45.0</ele><time>2026-03-25T12:54:28.132Z</time></trkpt><trkpt lat="41.0454817" lon="14.3250333"><ele>45.0</ele><time>2026-03-25T12:54:30.134Z</time></trkpt><trkpt lat="41.0456" lon="14.3250417"><ele>45.0</ele><time>2026-03-25T12:54:32.134Z</time></trkpt><trkpt lat="41.0457167" lon="14.3250533"><ele>45.0</ele><time>2026-03-25T12:54:34.134Z</time></trkpt><trkpt lat="41.0458267" lon="14.3250617"><ele>45.2</ele><time>2026-03-25T12:54:36.134Z</time></trkpt><trkpt lat="41.0459417" lon="14.32507"><ele>45.4</ele><time>2026-03-25T12:54:38.133Z</time></trkpt><trkpt lat="41.0460567" lon="14.32508"><ele>45.599999999999994</ele><time>2026-03-25T12:54:40.135Z</time></trkpt><trkpt lat="41.046165" lon="14.3250883"><ele>45.8</ele><time>2026-03-25T12:54:42.133Z</time></trkpt><trkpt lat="41.046275" lon="14.3250933"><ele>46.0</ele><time>2026-03-25T12:54:44.133Z</time></trkpt><trkpt lat="41.046385" lon="14.325095"><ele>46.0</ele><time>2026-03-25T12:54:46.134Z</time></trkpt><trkpt lat="41.0464933" lon="14.3251017"><ele>46.0</ele><time>2026-03-25T12:54:48.134Z</time></trkpt><trkpt lat="41.0466033" lon="14.32511"><ele>46.0</ele><time>2026-03-25T12:54:50.135Z</time></trkpt><trkpt lat="41.0467133" lon="14.3251233"><ele>46.0</ele><time>2026-03-25T12:54:52.133Z</time></trkpt><trkpt lat="41.046815" lon="14.3251317"><ele>46.0</ele><time>2026-03-25T12:54:54.132Z</time></trkpt><trkpt lat="41.04692" lon="14.3251433"><ele>46.4</ele><time>2026-03-25T12:54:56.135Z</time></trkpt><trkpt lat="41.0470217" lon="14.3251533"><ele>46.8</ele><time>2026-03-25T12:54:58.133Z</time></trkpt><trkpt lat="41.047125" lon="14.3251617"><ele>47.199999999999996</ele><time>2026-03-25T12:55:00.135Z</time></trkpt><trkpt lat="41.0472367" lon="14.3251767"><ele>47.599999999999994</ele><time>2026-03-25T12:55:02.135Z</time></trkpt><trkpt lat="41.0473533" lon="14.3251817"><ele>48.0</ele><time>2026-03-25T12:55:04.133Z</time></trkpt><trkpt lat="41.047465" lon="14.3251883"><ele>48.0</ele><time>2026-03-25T12:55:06.134Z</time></trkpt><trkpt lat="41.0475833" lon="14.3252017"><ele>48.0</ele><time>2026-03-25T12:55:08.134Z</time></trkpt><trkpt lat="41.0477" lon="14.3251967"><ele>48.0</ele><time>2026-03-25T12:55:10.132Z</time></trkpt><trkpt lat="41.0478167" lon="14.3252"><ele>48.0</ele><time>2026-03-25T12:55:12.132Z</time></trkpt><trkpt lat="41.0479283" lon="14.3252067"><ele>48.0</ele><time>2026-03-25T12:55:14.133Z</time></trkpt><trkpt lat="41.04804" lon="14.3252183"><ele>48.0</ele><time>2026-03-25T12:55:16.133Z</time></trkpt><trkpt lat="41.0481517" lon="14.32523"><ele>48.0</ele><time>2026-03-25T12:55:18.135Z</time></trkpt><trkpt lat="41.0482617" lon="14.3252417"><ele>48.0</ele><time>2026-03-25T12:55:20.133Z</time></trkpt><trkpt lat="41.0483667" lon="14.3252433"><ele>48.0</ele><time>2026-03-25T12:55:22.133Z</time></trkpt><trkpt lat="41.0484767" lon="14.3252533"><ele>48.4</ele><time>2026-03-25T12:55:24.133Z</time></trkpt><trkpt lat="41.048585" lon="14.32526"><ele>48.8</ele><time>2026-03-25T12:55:26.132Z</time></trkpt><trkpt lat="41.048695" lon="14.3252733"><ele>49.2</ele><time>2026-03-25T12:55:28.132Z</time></trkpt><trkpt lat="41.0488083" lon="14.3252833"><ele>49.6</ele><time>2026-03-25T12:55:30.133Z</time></trkpt><trkpt lat="41.0489183" lon="14.3252967"><ele>50.0</ele><time>2026-03-25T12:55:32.133Z</time></trkpt><trkpt lat="41.0490333" lon="14.32531"><ele>50.2</ele><time>2026-03-25T12:55:34.133Z</time></trkpt><trkpt lat="41.04914" lon="14.3253167"><ele>50.4</ele><time>2026-03-25T12:55:36.134Z</time></trkpt><trkpt lat="41.04924" lon="14.325325"><ele>50.599999999999994</ele><time>2026-03-25T12:55:38.132Z</time></trkpt><trkpt lat="41.0493417" lon="14.325325"><ele>50.8</ele><time>2026-03-25T12:55:40.133Z</time></trkpt><trkpt lat="41.049445" lon="14.3253367"><ele>51.0</ele><time>2026-03-25T12:55:42.132Z</time></trkpt><trkpt lat="41.0495517" lon="14.3253483"><ele>51.0</ele><time>2026-03-25T12:55:44.135Z</time></trkpt><trkpt lat="41.04965" lon="14.3253517"><ele>51.0</ele><time>2026-03-25T12:55:46.135Z</time></trkpt><trkpt lat="41.049745" lon="14.3253583"><ele>51.0</ele><time>2026-03-25T12:55:48.131Z</time></trkpt><trkpt lat="41.0498183" lon="14.3253617"><ele>51.0</ele><time>2026-03-25T12:55:50.132Z</time></trkpt><trkpt lat="41.049885" lon="14.3253717"><ele>51.0</ele><time>2026-03-25T12:55:54.134Z</time></trkpt><trkpt lat="41.0499733" lon="14.32538"><ele>51.0</ele><time>2026-03-25T12:55:57.131Z</time></trkpt><trkpt lat="41.05005" lon="14.3253717"><ele>51.199999999999996</ele><time>2026-03-25T12:55:59.133Z</time></trkpt><trkpt lat="41.05014" lon="14.3253733"><ele>51.4</ele><time>2026-03-25T12:56:01.136Z</time></trkpt><trkpt lat="41.0502417" lon="14.325395"><ele>51.6</ele><time>2026-03-25T12:56:03.135Z</time></trkpt><trkpt lat="41.050345" lon="14.3254133"><ele>51.8</ele><time>2026-03-25T12:56:05.136Z</time></trkpt><trkpt lat="41.05045" lon="14.3254183"><ele>52.0</ele><time>2026-03-25T12:56:07.134Z</time></trkpt><trkpt lat="41.0505567" lon="14.3254233"><ele>52.0</ele><time>2026-03-25T12:56:09.133Z</time></trkpt><trkpt lat="41.0506617" lon="14.3254333"><ele>52.0</ele><time>2026-03-25T12:56:11.132Z</time></trkpt><trkpt lat="41.05077" lon="14.3254367"><ele>52.0</ele><time>2026-03-25T12:56:13.136Z</time></trkpt><trkpt lat="41.0508817" lon="14.32544"><ele>52.0</ele><time>2026-03-25T12:56:15.133Z</time></trkpt><trkpt lat="41.0509983" lon="14.3254533"><ele>52.0</ele><time>2026-03-25T12:56:17.133Z</time></trkpt><trkpt lat="41.0511183" lon="14.3254633"><ele>51.75</ele><time>2026-03-25T12:56:19.133Z</time></trkpt><trkpt lat="41.0512383" lon="14.3254767"><ele>51.5</ele><time>2026-03-25T12:56:21.135Z</time></trkpt><trkpt lat="41.0513633" lon="14.32549"><ele>51.25</ele><time>2026-03-25T12:56:23.133Z</time></trkpt><trkpt lat="41.051485" lon="14.3255"><ele>51.0</ele><time>2026-03-25T12:56:25.135Z</time></trkpt><trkpt lat="41.0516083" lon="14.325505"><ele>51.0</ele><time>2026-03-25T12:56:27.132Z</time></trkpt><trkpt lat="41.0516733" lon="14.3255133"><ele>51.0</ele><time>2026-03-25T12:56:28.135Z</time></trkpt><trkpt lat="41.0517933" lon="14.3255183"><ele>51.0</ele><time>2026-03-25T12:56:30.132Z</time></trkpt><trkpt lat="41.0519167" lon="14.32553"><ele>51.0</ele><time>2026-03-25T12:56:32.132Z</time></trkpt><trkpt lat="41.05198" lon="14.3255367"><ele>51.0</ele><time>2026-03-25T12:56:33.131Z</time></trkpt><trkpt lat="41.0521067" lon="14.3255467"><ele>51.0</ele><time>2026-03-25T12:56:35.134Z</time></trkpt><trkpt lat="41.05217" lon="14.3255533"><ele>51.0</ele><time>2026-03-25T12:56:36.133Z</time></trkpt><trkpt lat="41.0522367" lon="14.32556"><ele>51.0</ele><time>2026-03-25T12:56:37.133Z</time></trkpt><trkpt lat="41.05236" lon="14.3255683"><ele>51.0</ele><time>2026-03-25T12:56:39.133Z</time></trkpt><trkpt lat="41.0524233" lon="14.3255717"><ele>51.0</ele><time>2026-03-25T12:56:40.133Z</time></trkpt><trkpt lat="41.0524867" lon="14.3255733"><ele>51.0</ele><time>2026-03-25T12:56:41.133Z</time></trkpt><trkpt lat="41.0525517" lon="14.32557"><ele>51.0</ele><time>2026-03-25T12:56:42.134Z</time></trkpt><trkpt lat="41.052615" lon="14.325575"><ele>51.5</ele><time>2026-03-25T12:56:43.133Z</time></trkpt><trkpt lat="41.05274" lon="14.32558"><ele>52.0</ele><time>2026-03-25T12:56:45.133Z</time></trkpt><trkpt lat="41.052865" lon="14.32559"><ele>52.5</ele><time>2026-03-25T12:56:47.132Z</time></trkpt><trkpt lat="41.0529283" lon="14.3255983"><ele>53.0</ele><time>2026-03-25T12:56:48.134Z</time></trkpt><trkpt lat="41.0529917" lon="14.3256033"><ele>53.5</ele><time>2026-03-25T12:56:49.133Z</time></trkpt><trkpt lat="41.0530567" lon="14.3256083"><ele>54.0</ele><time>2026-03-25T12:56:50.133Z</time></trkpt><trkpt lat="41.05312" lon="14.3256117"><ele>54.0</ele><time>2026-03-25T12:56:51.134Z</time></trkpt><trkpt lat="41.0531867" lon="14.3256167"><ele>54.0</ele><time>2026-03-25T12:56:52.134Z</time></trkpt><trkpt lat="41.05325" lon="14.3256183"><ele>54.0</ele><time>2026-03-25T12:56:53.134Z</time></trkpt><trkpt lat="41.053315" lon="14.325625"><ele>54.0</ele><time>2026-03-25T12:56:54.134Z</time></trkpt><trkpt lat="41.0533783" lon="14.325635"><ele>54.0</ele><time>2026-03-25T12:56:55.134Z</time></trkpt><trkpt lat="41.053505" lon="14.3256467"><ele>54.0</ele><time>2026-03-25T12:56:57.129Z</time></trkpt><trkpt lat="41.05357" lon="14.3256483"><ele>54.14285714285714</ele><time>2026-03-25T12:56:58.133Z</time></trkpt><trkpt lat="41.053635" lon="14.325655"><ele>54.285714285714285</ele><time>2026-03-25T12:56:59.132Z</time></trkpt><trkpt lat="41.0537033" lon="14.32566"><ele>54.42857142857143</ele><time>2026-03-25T12:57:00.134Z</time></trkpt><trkpt lat="41.0537733" lon="14.325665"><ele>54.57142857142857</ele><time>2026-03-25T12:57:01.134Z</time></trkpt><trkpt lat="41.0538417" lon="14.3256733"><ele>54.714285714285715</ele><time>2026-03-25T12:57:02.132Z</time></trkpt><trkpt lat="41.0539117" lon="14.3256783"><ele>54.857142857142854</ele><time>2026-03-25T12:57:03.132Z</time></trkpt><trkpt lat="41.0539833" lon="14.3256817"><ele>55.0</ele><time>2026-03-25T12:57:04.132Z</time></trkpt><trkpt lat="41.0540533" lon="14.3256883"><ele>54.71428571428571</ele><time>2026-03-25T12:57:05.134Z</time></trkpt><trkpt lat="41.0541217" lon="14.3256967"><ele>54.42857142857143</ele><time>2026-03-25T12:57:06.134Z</time></trkpt><trkpt lat="41.0541917" lon="14.3257067"><ele>54.14285714285714</ele><time>2026-03-25T12:57:07.135Z</time></trkpt><trkpt lat="41.05426" lon="14.3257133"><ele>53.857142857142854</ele><time>2026-03-25T12:57:08.131Z</time></trkpt><trkpt lat="41.0543317" lon="14.3257217"><ele>53.57142857142857</ele><time>2026-03-25T12:57:09.132Z</time></trkpt><trkpt lat="41.0544017" lon="14.3257317"><ele>53.285714285714285</ele><time>2026-03-25T12:57:10.134Z</time></trkpt><trkpt lat="41.0544717" lon="14.32574"><ele>53.0</ele><time>2026-03-25T12:57:11.132Z</time></trkpt><trkpt lat="41.0545433" lon="14.325745"><ele>53.0</ele><time>2026-03-25T12:57:12.134Z</time></trkpt><trkpt lat="41.0546117" lon="14.3257517"><ele>53.0</ele><time>2026-03-25T12:57:13.131Z</time></trkpt><trkpt lat="41.0546817" lon="14.32576"><ele>53.0</ele><time>2026-03-25T12:57:14.135Z</time></trkpt><trkpt lat="41.0547467" lon="14.32577"><ele>53.0</ele><time>2026-03-25T12:57:15.134Z</time></trkpt><trkpt lat="41.0548167" lon="14.325775"><ele>53.0</ele><time>2026-03-25T12:57:16.133Z</time></trkpt><trkpt lat="41.054885" lon="14.3257767"><ele>53.0</ele><time>2026-03-25T12:57:17.133Z</time></trkpt><trkpt lat="41.054955" lon="14.3257817"><ele>53.0</ele><time>2026-03-25T12:57:18.131Z</time></trkpt><trkpt lat="41.0550233" lon="14.3257883"><ele>52.57142857142858</ele><time>2026-03-25T12:57:19.135Z</time></trkpt><trkpt lat="41.055095" lon="14.3257933"><ele>52.14285714285714</ele><time>2026-03-25T12:57:20.135Z</time></trkpt><trkpt lat="41.055165" lon="14.3258"><ele>51.714285714285715</ele><time>2026-03-25T12:57:21.132Z</time></trkpt><trkpt lat="41.0552333" lon="14.325805"><ele>51.28571428571429</ele><time>2026-03-25T12:57:22.132Z</time></trkpt><trkpt lat="41.0553017" lon="14.3258133"><ele>50.85714285714286</ele><time>2026-03-25T12:57:23.134Z</time></trkpt><trkpt lat="41.0553717" lon="14.325815"><ele>50.42857142857143</ele><time>2026-03-25T12:57:24.132Z</time></trkpt><trkpt lat="41.0554417" lon="14.32582"><ele>50.0</ele><time>2026-03-25T12:57:25.132Z</time></trkpt><trkpt lat="41.05551" lon="14.3258233"><ele>50.00000000000001</ele><time>2026-03-25T12:57:26.133Z</time></trkpt><trkpt lat="41.0555783" lon="14.325825"><ele>50.0</ele><time>2026-03-25T12:57:27.132Z</time></trkpt><trkpt lat="41.0556467" lon="14.3258267"><ele>50.0</ele><time>2026-03-25T12:57:28.131Z</time></trkpt><trkpt lat="41.0557167" lon="14.3258283"><ele>50.0</ele><time>2026-03-25T12:57:29.134Z</time></trkpt><trkpt lat="41.0557833" lon="14.325835"><ele>50.0</ele><time>2026-03-25T12:57:30.134Z</time></trkpt><trkpt lat="41.05585" lon="14.3258467"><ele>50.00000000000001</ele><time>2026-03-25T12:57:31.134Z</time></trkpt><trkpt lat="41.0559167" lon="14.32585"><ele>50.0</ele><time>2026-03-25T12:57:32.134Z</time></trkpt><trkpt lat="41.0559817" lon="14.3258533"><ele>50.6</ele><time>2026-03-25T12:57:33.133Z</time></trkpt><trkpt lat="41.056045" lon="14.3258567"><ele>51.2</ele><time>2026-03-25T12:57:34.132Z</time></trkpt><trkpt lat="41.0561083" lon="14.3258617"><ele>51.8</ele><time>2026-03-25T12:57:35.134Z</time></trkpt><trkpt lat="41.05623" lon="14.3258717"><ele>52.4</ele><time>2026-03-25T12:57:37.135Z</time></trkpt><trkpt lat="41.0563483" lon="14.32588"><ele>53.0</ele><time>2026-03-25T12:57:39.133Z</time></trkpt><trkpt lat="41.0564567" lon="14.32587"><ele>53.0</ele><time>2026-03-25T12:57:41.131Z</time></trkpt><trkpt lat="41.05656" lon="14.3258617"><ele>53.0</ele><time>2026-03-25T12:57:43.132Z</time></trkpt><trkpt lat="41.0566617" lon="14.3259183"><ele>53.0</ele><time>2026-03-25T12:57:45.133Z</time></trkpt><trkpt lat="41.0567683" lon="14.3259867"><ele>53.0</ele><time>2026-03-25T12:57:47.133Z</time></trkpt><trkpt lat="41.0568883" lon="14.3259967"><ele>53.142857142857146</ele><time>2026-03-25T12:57:49.132Z</time></trkpt><trkpt lat="41.0570117" lon="14.32597"><ele>53.285714285714285</ele><time>2026-03-25T12:57:51.13Z</time></trkpt><trkpt lat="41.057075" lon="14.3259517"><ele>53.42857142857143</ele><time>2026-03-25T12:57:52.131Z</time></trkpt><trkpt lat="41.0571383" lon="14.3259467"><ele>53.57142857142857</ele><time>2026-03-25T12:57:53.134Z</time></trkpt><trkpt lat="41.0572033" lon="14.3259483"><ele>53.71428571428571</ele><time>2026-03-25T12:57:54.131Z</time></trkpt><trkpt lat="41.0572683" lon="14.325955"><ele>53.857142857142854</ele><time>2026-03-25T12:57:55.132Z</time></trkpt><trkpt lat="41.0573333" lon="14.3259617"><ele>54.0</ele><time>2026-03-25T12:57:56.132Z</time></trkpt><trkpt lat="41.0574" lon="14.3259683"><ele>53.714285714285715</ele><time>2026-03-25T12:57:57.132Z</time></trkpt><trkpt lat="41.057465" lon="14.325975"><ele>53.42857142857143</ele><time>2026-03-25T12:57:58.132Z</time></trkpt><trkpt lat="41.05753" lon="14.3259817"><ele>53.14285714285714</ele><time>2026-03-25T12:57:59.135Z</time></trkpt><trkpt lat="41.057595" lon="14.325985"><ele>52.85714285714286</ele><time>2026-03-25T12:58:00.134Z</time></trkpt><trkpt lat="41.05766" lon="14.325995"><ele>52.57142857142858</ele><time>2026-03-25T12:58:01.135Z</time></trkpt><trkpt lat="41.0577267" lon="14.326"><ele>52.285714285714285</ele><time>2026-03-25T12:58:02.134Z</time></trkpt><trkpt lat="41.0577967" lon="14.3260133"><ele>52.0</ele><time>2026-03-25T12:58:03.134Z</time></trkpt><trkpt lat="41.0578667" lon="14.32602"><ele>52.0</ele><time>2026-03-25T12:58:04.133Z</time></trkpt><trkpt lat="41.057935" lon="14.326025"><ele>52.0</ele><time>2026-03-25T12:58:05.134Z</time></trkpt><trkpt lat="41.0580033" lon="14.32603"><ele>52.0</ele><time>2026-03-25T12:58:06.135Z</time></trkpt><trkpt lat="41.0580683" lon="14.32604"><ele>52.0</ele><time>2026-03-25T12:58:07.134Z</time></trkpt><trkpt lat="41.0581333" lon="14.326045"><ele>52.0</ele><time>2026-03-25T12:58:08.134Z</time></trkpt><trkpt lat="41.0582" lon="14.3260467"><ele>52.0</ele><time>2026-03-25T12:58:09.134Z</time></trkpt><trkpt lat="41.0582633" lon="14.3260483"><ele>52.0</ele><time>2026-03-25T12:58:10.134Z</time></trkpt><trkpt lat="41.0583283" lon="14.32605"><ele>52.285714285714285</ele><time>2026-03-25T12:58:11.133Z</time></trkpt><trkpt lat="41.0583967" lon="14.32605"><ele>52.57142857142858</ele><time>2026-03-25T12:58:12.134Z</time></trkpt><trkpt lat="41.058465" lon="14.326055"><ele>52.85714285714286</ele><time>2026-03-25T12:58:13.132Z</time></trkpt><trkpt lat="41.05853" lon="14.32606"><ele>53.14285714285714</ele><time>2026-03-25T12:58:14.131Z</time></trkpt><trkpt lat="41.058595" lon="14.3260667"><ele>53.42857142857143</ele><time>2026-03-25T12:58:15.134Z</time></trkpt><trkpt lat="41.0586633" lon="14.326075"><ele>53.714285714285715</ele><time>2026-03-25T12:58:16.131Z</time></trkpt><trkpt lat="41.05873" lon="14.32608"><ele>54.0</ele><time>2026-03-25T12:58:17.131Z</time></trkpt><trkpt lat="41.0587967" lon="14.326085"><ele>54.0</ele><time>2026-03-25T12:58:18.133Z</time></trkpt><trkpt lat="41.0588617" lon="14.3260917"><ele>54.0</ele><time>2026-03-25T12:58:19.131Z</time></trkpt><trkpt lat="41.0589283" lon="14.3261"><ele>54.0</ele><time>2026-03-25T12:58:20.131Z</time></trkpt><trkpt lat="41.058995" lon="14.3261033"><ele>54.0</ele><time>2026-03-25T12:58:21.131Z</time></trkpt><trkpt lat="41.0590617" lon="14.32611"><ele>54.0</ele><time>2026-03-25T12:58:22.133Z</time></trkpt><trkpt lat="41.0591283" lon="14.3261133"><ele>54.0</ele><time>2026-03-25T12:58:23.135Z</time></trkpt><trkpt lat="41.0591917" lon="14.3261183"><ele>54.0</ele><time>2026-03-25T12:58:24.134Z</time></trkpt><trkpt lat="41.059255" lon="14.3261217"><ele>54.14285714285714</ele><time>2026-03-25T12:58:25.134Z</time></trkpt><trkpt lat="41.05932" lon="14.3261267"><ele>54.285714285714285</ele><time>2026-03-25T12:58:26.133Z</time></trkpt><trkpt lat="41.0593883" lon="14.3261317"><ele>54.42857142857143</ele><time>2026-03-25T12:58:27.134Z</time></trkpt><trkpt lat="41.0594533" lon="14.3261367"><ele>54.57142857142857</ele><time>2026-03-25T12:58:28.134Z</time></trkpt><trkpt lat="41.0595183" lon="14.3261417"><ele>54.714285714285715</ele><time>2026-03-25T12:58:29.132Z</time></trkpt><trkpt lat="41.059585" lon="14.3261467"><ele>54.857142857142854</ele><time>2026-03-25T12:58:30.132Z</time></trkpt><trkpt lat="41.0596517" lon="14.3261517"><ele>55.0</ele><time>2026-03-25T12:58:31.132Z</time></trkpt><trkpt lat="41.0597167" lon="14.326155"><ele>54.99999999999999</ele><time>2026-03-25T12:58:32.134Z</time></trkpt><trkpt lat="41.0597833" lon="14.3261583"><ele>55.0</ele><time>2026-03-25T12:58:33.131Z</time></trkpt><trkpt lat="41.05985" lon="14.3261667"><ele>55.0</ele><time>2026-03-25T12:58:34.133Z</time></trkpt><trkpt lat="41.0599167" lon="14.326175"><ele>55.0</ele><time>2026-03-25T12:58:35.132Z</time></trkpt><trkpt lat="41.0599833" lon="14.3261817"><ele>55.0</ele><time>2026-03-25T12:58:36.133Z</time></trkpt><trkpt lat="41.0600483" lon="14.32619"><ele>54.99999999999999</ele><time>2026-03-25T12:58:37.133Z</time></trkpt><trkpt lat="41.0601183" lon="14.3261967"><ele>55.0</ele><time>2026-03-25T12:58:38.134Z</time></trkpt><trkpt lat="41.060185" lon="14.3262033"><ele>54.99999999999999</ele><time>2026-03-25T12:58:39.132Z</time></trkpt><trkpt lat="41.06025" lon="14.3262083"><ele>55.0</ele><time>2026-03-25T12:58:40.131Z</time></trkpt><trkpt lat="41.0603167" lon="14.3262117"><ele>55.0</ele><time>2026-03-25T12:58:41.133Z</time></trkpt><trkpt lat="41.060385" lon="14.326215"><ele>55.0</ele><time>2026-03-25T12:58:42.132Z</time></trkpt><trkpt lat="41.0604517" lon="14.32622"><ele>55.0</ele><time>2026-03-25T12:58:43.132Z</time></trkpt><trkpt lat="41.0605183" lon="14.326225"><ele>54.99999999999999</ele><time>2026-03-25T12:58:44.132Z</time></trkpt><trkpt lat="41.0605833" lon="14.32623"><ele>55.0</ele><time>2026-03-25T12:58:45.13Z</time></trkpt><trkpt lat="41.06065" lon="14.3262333"><ele>54.99999999999999</ele><time>2026-03-25T12:58:46.133Z</time></trkpt><trkpt lat="41.0607167" lon="14.3262383"><ele>55.0</ele><time>2026-03-25T12:58:47.133Z</time></trkpt><trkpt lat="41.0607817" lon="14.3262433"><ele>55.0</ele><time>2026-03-25T12:58:48.132Z</time></trkpt><trkpt lat="41.0608483" lon="14.3262483"><ele>55.0</ele><time>2026-03-25T12:58:49.131Z</time></trkpt><trkpt lat="41.060915" lon="14.326255"><ele>55.0</ele><time>2026-03-25T12:58:50.131Z</time></trkpt><trkpt lat="41.06098" lon="14.32626"><ele>54.99999999999999</ele><time>2026-03-25T12:58:51.131Z</time></trkpt><trkpt lat="41.061045" lon="14.326265"><ele>55.0</ele><time>2026-03-25T12:58:52.131Z</time></trkpt><trkpt lat="41.0611133" lon="14.3262717"><ele>55.14285714285714</ele><time>2026-03-25T12:58:53.132Z</time></trkpt><trkpt lat="41.06118" lon="14.3262767"><ele>55.285714285714285</ele><time>2026-03-25T12:58:54.131Z</time></trkpt><trkpt lat="41.0612483" lon="14.3262817"><ele>55.42857142857143</ele><time>2026-03-25T12:58:55.132Z</time></trkpt><trkpt lat="41.0613167" lon="14.3262833"><ele>55.57142857142857</ele><time>2026-03-25T12:58:56.133Z</time></trkpt><trkpt lat="41.061385" lon="14.3262883"><ele>55.714285714285715</ele><time>2026-03-25T12:58:57.132Z</time></trkpt><trkpt lat="41.0614517" lon="14.3262917"><ele>55.857142857142854</ele><time>2026-03-25T12:58:58.131Z</time></trkpt><trkpt lat="41.06152" lon="14.3262983"><ele>56.0</ele><time>2026-03-25T12:58:59.132Z</time></trkpt><trkpt lat="41.0615867" lon="14.326305"><ele>56.285714285714285</ele><time>2026-03-25T12:59:00.133Z</time></trkpt><trkpt lat="41.0616517" lon="14.3263117"><ele>56.57142857142857</ele><time>2026-03-25T12:59:01.133Z</time></trkpt><trkpt lat="41.06172" lon="14.3263183"><ele>56.85714285714286</ele><time>2026-03-25T12:59:02.132Z</time></trkpt><trkpt lat="41.0617867" lon="14.326325"><ele>57.142857142857146</ele><time>2026-03-25T12:59:03.132Z</time></trkpt><trkpt lat="41.0618517" lon="14.3263283"><ele>57.42857142857143</ele><time>2026-03-25T12:59:04.133Z</time></trkpt><trkpt lat="41.0619183" lon="14.3263317"><ele>57.71428571428572</ele><time>2026-03-25T12:59:05.133Z</time></trkpt><trkpt lat="41.0619867" lon="14.3263367"><ele>58.00000000000001</ele><time>2026-03-25T12:59:06.132Z</time></trkpt><trkpt lat="41.0620517" lon="14.326345"><ele>58.00000000000001</ele><time>2026-03-25T12:59:07.135Z</time></trkpt><trkpt lat="41.0621183" lon="14.3263467"><ele>58.0</ele><time>2026-03-25T12:59:08.135Z</time></trkpt><trkpt lat="41.0621867" lon="14.32635"><ele>58.00000000000001</ele><time>2026-03-25T12:59:09.134Z</time></trkpt><trkpt lat="41.0622533" lon="14.3263517"><ele>58.00000000000001</ele><time>2026-03-25T12:59:10.135Z</time></trkpt><trkpt lat="41.0623233" lon="14.3263567"><ele>58.0</ele><time>2026-03-25T12:59:11.132Z</time></trkpt><trkpt lat="41.06239" lon="14.3263617"><ele>58.00000000000001</ele><time>2026-03-25T12:59:12.135Z</time></trkpt><trkpt lat="41.0624583" lon="14.3263683"><ele>58.00000000000001</ele><time>2026-03-25T12:59:13.134Z</time></trkpt><trkpt lat="41.06253" lon="14.3263717"><ele>58.14285714285715</ele><time>2026-03-25T12:59:14.133Z</time></trkpt><trkpt lat="41.0625983" lon="14.326375"><ele>58.28571428571429</ele><time>2026-03-25T12:59:15.133Z</time></trkpt><trkpt lat="41.0626683" lon="14.32638"><ele>58.42857142857143</ele><time>2026-03-25T12:59:16.133Z</time></trkpt><trkpt lat="41.0627367" lon="14.3263817"><ele>58.57142857142858</ele><time>2026-03-25T12:59:17.133Z</time></trkpt><trkpt lat="41.062805" lon="14.3263867"><ele>58.71428571428572</ele><time>2026-03-25T12:59:18.133Z</time></trkpt><trkpt lat="41.062875" lon="14.3263917"><ele>58.857142857142854</ele><time>2026-03-25T12:59:19.133Z</time></trkpt><trkpt lat="41.0629417" lon="14.3263983"><ele>59.0</ele><time>2026-03-25T12:59:20.133Z</time></trkpt><trkpt lat="41.06301" lon="14.326405"><ele>59.0</ele><time>2026-03-25T12:59:21.131Z</time></trkpt><trkpt lat="41.0630767" lon="14.32641"><ele>59.0</ele><time>2026-03-25T12:59:22.133Z</time></trkpt><trkpt lat="41.0631433" lon="14.326415"><ele>59.0</ele><time>2026-03-25T12:59:23.136Z</time></trkpt><trkpt lat="41.0632117" lon="14.3264217"><ele>59.0</ele><time>2026-03-25T12:59:24.131Z</time></trkpt><trkpt lat="41.0632783" lon="14.3264317"><ele>59.0</ele><time>2026-03-25T12:59:25.132Z</time></trkpt><trkpt lat="41.063345" lon="14.32644"><ele>59.0</ele><time>2026-03-25T12:59:26.134Z</time></trkpt><trkpt lat="41.0634117" lon="14.3264483"><ele>59.0</ele><time>2026-03-25T12:59:27.131Z</time></trkpt><trkpt lat="41.0634783" lon="14.3264533"><ele>59.66666666666667</ele><time>2026-03-25T12:59:28.131Z</time></trkpt><trkpt lat="41.063545" lon="14.3264567"><ele>60.333333333333336</ele><time>2026-03-25T12:59:29.133Z</time></trkpt><trkpt lat="41.06361" lon="14.3264617"><ele>61.0</ele><time>2026-03-25T12:59:30.131Z</time></trkpt><trkpt lat="41.0636733" lon="14.326465"><ele>61.66666666666667</ele><time>2026-03-25T12:59:31.133Z</time></trkpt><trkpt lat="41.0637367" lon="14.3264683"><ele>62.333333333333336</ele><time>2026-03-25T12:59:32.132Z</time></trkpt><trkpt lat="41.0638583" lon="14.326485"><ele>63.0</ele><time>2026-03-25T12:59:34.132Z</time></trkpt><trkpt lat="41.0639767" lon="14.3264867"><ele>63.0</ele><time>2026-03-25T12:59:36.132Z</time></trkpt><trkpt lat="41.06409" lon="14.3265"><ele>63.0</ele><time>2026-03-25T12:59:38.132Z</time></trkpt><trkpt lat="41.0642017" lon="14.326515"><ele>63.0</ele><time>2026-03-25T12:59:40.133Z</time></trkpt><trkpt lat="41.0643133" lon="14.326525"><ele>63.0</ele><time>2026-03-25T12:59:42.132Z</time></trkpt><trkpt lat="41.0644233" lon="14.3265317"><ele>63.0</ele><time>2026-03-25T12:59:44.134Z</time></trkpt><trkpt lat="41.0645333" lon="14.3265367"><ele>62.0</ele><time>2026-03-25T12:59:46.133Z</time></trkpt><trkpt lat="41.0646517" lon="14.3265467"><ele>61.0</ele><time>2026-03-25T12:59:48.131Z</time></trkpt><trkpt lat="41.0647683" lon="14.32656"><ele>60.0</ele><time>2026-03-25T12:59:50.131Z</time></trkpt><trkpt lat="41.0648867" lon="14.3265817"><ele>59.0</ele><time>2026-03-25T12:59:52.131Z</time></trkpt><trkpt lat="41.065005" lon="14.3265883"><ele>58.75</ele><time>2026-03-25T12:59:54.133Z</time></trkpt><trkpt lat="41.0651217" lon="14.3265967"><ele>58.5</ele><time>2026-03-25T12:59:56.132Z</time></trkpt><trkpt lat="41.06524" lon="14.3266"><ele>58.25</ele><time>2026-03-25T12:59:58.133Z</time></trkpt><trkpt lat="41.065355" lon="14.326605"><ele>58.0</ele><time>2026-03-25T13:00:00.133Z</time></trkpt><trkpt lat="41.0654733" lon="14.326615"><ele>58.0</ele><time>2026-03-25T13:00:02.13Z</time></trkpt><trkpt lat="41.0655867" lon="14.3266267"><ele>58.0</ele><time>2026-03-25T13:00:04.133Z</time></trkpt><trkpt lat="41.0656917" lon="14.326635"><ele>58.0</ele><time>2026-03-25T13:00:06.131Z</time></trkpt><trkpt lat="41.0657967" lon="14.32665"><ele>58.0</ele><time>2026-03-25T13:00:08.135Z</time></trkpt><trkpt lat="41.06589" lon="14.3267067"><ele>58.0</ele><time>2026-03-25T13:00:10.134Z</time></trkpt><trkpt lat="41.065975" lon="14.326795"><ele>58.4</ele><time>2026-03-25T13:00:12.134Z</time></trkpt><trkpt lat="41.0660517" lon="14.326905"><ele>58.8</ele><time>2026-03-25T13:00:14.134Z</time></trkpt><trkpt lat="41.06613" lon="14.3270167"><ele>59.2</ele><time>2026-03-25T13:00:16.133Z</time></trkpt><trkpt lat="41.0662" lon="14.327125"><ele>59.6</ele><time>2026-03-25T13:00:18.132Z</time></trkpt><trkpt lat="41.0662517" lon="14.3272433"><ele>60.0</ele><time>2026-03-25T13:00:20.132Z</time></trkpt><trkpt lat="41.0663" lon="14.327345"><ele>60.0</ele><time>2026-03-25T13:00:22.132Z</time></trkpt><trkpt lat="41.0663517" lon="14.3274467"><ele>60.0</ele><time>2026-03-25T13:00:24.133Z</time></trkpt><trkpt lat="41.066395" lon="14.3275483"><ele>60.0</ele><time>2026-03-25T13:00:26.132Z</time></trkpt><trkpt lat="41.0664483" lon="14.3276533"><ele>60.0</ele><time>2026-03-25T13:00:28.133Z</time></trkpt><trkpt lat="41.066505" lon="14.327755"><ele>60.0</ele><time>2026-03-25T13:00:30.132Z</time></trkpt><trkpt lat="41.0665517" lon="14.327865"><ele>60.0</ele><time>2026-03-25T13:00:32.132Z</time></trkpt><trkpt lat="41.0666" lon="14.3279783"><ele>60.0</ele><time>2026-03-25T13:00:34.13Z</time></trkpt><trkpt lat="41.0666517" lon="14.32808"><ele>60.0</ele><time>2026-03-25T13:00:36.131Z</time></trkpt><trkpt lat="41.066705" lon="14.3281783"><ele>60.0</ele><time>2026-03-25T13:00:38.131Z</time></trkpt><trkpt lat="41.0667467" lon="14.328285"><ele>60.0</ele><time>2026-03-25T13:00:40.133Z</time></trkpt><trkpt lat="41.0667733" lon="14.3283883"><ele>60.166666666666664</ele><time>2026-03-25T13:00:42.133Z</time></trkpt><trkpt lat="41.0668" lon="14.3284917"><ele>60.33333333333333</ele><time>2026-03-25T13:00:44.132Z</time></trkpt><trkpt lat="41.0668333" lon="14.3285817"><ele>60.5</ele><time>2026-03-25T13:00:46.132Z</time></trkpt><trkpt lat="41.06687" lon="14.3286917"><ele>60.666666666666664</ele><time>2026-03-25T13:00:48.132Z</time></trkpt><trkpt lat="41.0669067" lon="14.328805"><ele>60.83333333333333</ele><time>2026-03-25T13:00:50.132Z</time></trkpt><trkpt lat="41.0669567" lon="14.3289183"><ele>61.0</ele><time>2026-03-25T13:00:52.132Z</time></trkpt><trkpt lat="41.0670067" lon="14.329035"><ele>61.0</ele><time>2026-03-25T13:00:54.133Z</time></trkpt><trkpt lat="41.067055" lon="14.32916"><ele>60.99999999999999</ele><time>2026-03-25T13:00:56.134Z</time></trkpt><trkpt lat="41.0671017" lon="14.32927"><ele>60.99999999999999</ele><time>2026-03-25T13:00:58.134Z</time></trkpt><trkpt lat="41.0671483" lon="14.3293817"><ele>61.0</ele><time>2026-03-25T13:01:00.131Z</time></trkpt><trkpt lat="41.0672017" lon="14.3295067"><ele>61.0</ele><time>2026-03-25T13:01:02.134Z</time></trkpt><trkpt lat="41.0672533" lon="14.3296233"><ele>61.599999999999994</ele><time>2026-03-25T13:01:04.132Z</time></trkpt><trkpt lat="41.067305" lon="14.3297417"><ele>62.199999999999996</ele><time>2026-03-25T13:01:06.133Z</time></trkpt><trkpt lat="41.0673517" lon="14.3298583"><ele>62.800000000000004</ele><time>2026-03-25T13:01:08.134Z</time></trkpt><trkpt lat="41.0674017" lon="14.3299767"><ele>63.400000000000006</ele><time>2026-03-25T13:01:10.133Z</time></trkpt><trkpt lat="41.0674617" lon="14.33009"><ele>64.0</ele><time>2026-03-25T13:01:12.134Z</time></trkpt><trkpt lat="41.0675283" lon="14.33019"><ele>64.0</ele><time>2026-03-25T13:01:14.133Z</time></trkpt><trkpt lat="41.0676067" lon="14.33028"><ele>64.0</ele><time>2026-03-25T13:01:16.132Z</time></trkpt><trkpt lat="41.0676933" lon="14.330355"><ele>64.0</ele><time>2026-03-25T13:01:18.132Z</time></trkpt><trkpt lat="41.0677967" lon="14.3304183"><ele>64.0</ele><time>2026-03-25T13:01:20.131Z</time></trkpt><trkpt lat="41.0679117" lon="14.3304583"><ele>64.0</ele><time>2026-03-25T13:01:22.132Z</time></trkpt><trkpt lat="41.06803" lon="14.330475"><ele>64.0</ele><time>2026-03-25T13:01:24.132Z</time></trkpt><trkpt lat="41.0681433" lon="14.33048"><ele>64.0</ele><time>2026-03-25T13:01:26.133Z</time></trkpt><trkpt lat="41.0682533" lon="14.3304867"><ele>64.0</ele><time>2026-03-25T13:01:28.131Z</time></trkpt><trkpt lat="41.0683583" lon="14.3304983"><ele>64.0</ele><time>2026-03-25T13:01:30.134Z</time></trkpt><trkpt lat="41.0684667" lon="14.330505"><ele>64.0</ele><time>2026-03-25T13:01:32.134Z</time></trkpt><trkpt lat="41.0685733" lon="14.3305117"><ele>64.4</ele><time>2026-03-25T13:01:34.134Z</time></trkpt><trkpt lat="41.0686733" lon="14.3305233"><ele>64.80000000000001</ele><time>2026-03-25T13:01:36.131Z</time></trkpt><trkpt lat="41.0687783" lon="14.33053"><ele>65.19999999999999</ele><time>2026-03-25T13:01:38.133Z</time></trkpt><trkpt lat="41.0688817" lon="14.3305367"><ele>65.6</ele><time>2026-03-25T13:01:40.132Z</time></trkpt><trkpt lat="41.0689733" lon="14.3305533"><ele>66.0</ele><time>2026-03-25T13:01:42.13Z</time></trkpt><trkpt lat="41.069065" lon="14.3305567"><ele>66.83333333333333</ele><time>2026-03-25T13:01:44.13Z</time></trkpt><trkpt lat="41.0691567" lon="14.33056"><ele>67.66666666666667</ele><time>2026-03-25T13:01:46.131Z</time></trkpt><trkpt lat="41.069225" lon="14.330595"><ele>68.5</ele><time>2026-03-25T13:01:48.13Z</time></trkpt><trkpt lat="41.0693117" lon="14.3306283"><ele>69.33333333333334</ele><time>2026-03-25T13:01:50.13Z</time></trkpt><trkpt lat="41.0693767" lon="14.3306367"><ele>70.16666666666667</ele><time>2026-03-25T13:01:51.13Z</time></trkpt><trkpt lat="41.0694467" lon="14.3306467"><ele>71.0</ele><time>2026-03-25T13:01:52.13Z</time></trkpt><trkpt lat="41.0695167" lon="14.33065"><ele>71.0</ele><time>2026-03-25T13:01:53.13Z</time></trkpt><trkpt lat="41.0695883" lon="14.3306433"><ele>71.0</ele><time>2026-03-25T13:01:54.13Z</time></trkpt><trkpt lat="41.0696683" lon="14.330645"><ele>71.0</ele><time>2026-03-25T13:01:55.13Z</time></trkpt><trkpt lat="41.0697517" lon="14.3306567"><ele>71.0</ele><time>2026-03-25T13:01:56.128Z</time></trkpt><trkpt lat="41.0698317" lon="14.3306867"><ele>71.0</ele><time>2026-03-25T13:01:57.13Z</time></trkpt><trkpt lat="41.0699017" lon="14.330725"><ele>71.0</ele><time>2026-03-25T13:01:58.129Z</time></trkpt><trkpt lat="41.0699617" lon="14.3307667"><ele>70.57142857142857</ele><time>2026-03-25T13:01:59.13Z</time></trkpt><trkpt lat="41.0700217" lon="14.33082"><ele>70.14285714285714</ele><time>2026-03-25T13:02:00.13Z</time></trkpt><trkpt lat="41.0700733" lon="14.33089"><ele>69.71428571428571</ele><time>2026-03-25T13:02:01.13Z</time></trkpt><trkpt lat="41.0701133" lon="14.33096"><ele>69.28571428571428</ele><time>2026-03-25T13:02:02.13Z</time></trkpt><trkpt lat="41.0701383" lon="14.33106"><ele>68.85714285714286</ele><time>2026-03-25T13:02:03.13Z</time></trkpt><trkpt lat="41.070155" lon="14.3311533"><ele>68.42857142857142</ele><time>2026-03-25T13:02:04.13Z</time></trkpt><trkpt lat="41.0701617" lon="14.331245"><ele>68.0</ele><time>2026-03-25T13:02:05.13Z</time></trkpt><trkpt lat="41.0701667" lon="14.3313367"><ele>68.6</ele><time>2026-03-25T13:02:06.13Z</time></trkpt><trkpt lat="41.0701667" lon="14.3314783"><ele>69.19999999999999</ele><time>2026-03-25T13:02:08.13Z</time></trkpt><trkpt lat="41.0701733" lon="14.3315917"><ele>69.8</ele><time>2026-03-25T13:02:10.129Z</time></trkpt><trkpt lat="41.0701783" lon="14.3317117"><ele>70.39999999999999</ele><time>2026-03-25T13:02:12.129Z</time></trkpt><trkpt lat="41.0701767" lon="14.331835"><ele>71.0</ele><time>2026-03-25T13:02:14.13Z</time></trkpt><trkpt lat="41.0701767" lon="14.3319817"><ele>71.0</ele><time>2026-03-25T13:02:16.13Z</time></trkpt><trkpt lat="41.0701683" lon="14.332145"><ele>71.0</ele><time>2026-03-25T13:02:18.13Z</time></trkpt><trkpt lat="41.07018" lon="14.3323067"><ele>71.0</ele><time>2026-03-25T13:02:20.131Z</time></trkpt><trkpt lat="41.07018" lon="14.3324617"><ele>71.0</ele><time>2026-03-25T13:02:22.131Z</time></trkpt><trkpt lat="41.0701767" lon="14.332625"><ele>71.0</ele><time>2026-03-25T13:02:24.131Z</time></trkpt><trkpt lat="41.0701783" lon="14.3327783"><ele>71.0</ele><time>2026-03-25T13:02:26.131Z</time></trkpt><trkpt lat="41.07019" lon="14.3329217"><ele>71.0</ele><time>2026-03-25T13:02:28.13Z</time></trkpt><trkpt lat="41.070185" lon="14.3330717"><ele>71.0</ele><time>2026-03-25T13:02:30.13Z</time></trkpt><trkpt lat="41.0701683" lon="14.33324"><ele>70.6</ele><time>2026-03-25T13:02:32.13Z</time></trkpt><trkpt lat="41.0701633" lon="14.3333233"><ele>70.19999999999999</ele><time>2026-03-25T13:02:33.129Z</time></trkpt><trkpt lat="41.0701583" lon="14.333475"><ele>69.80000000000001</ele><time>2026-03-25T13:02:35.13Z</time></trkpt><trkpt lat="41.0701533" lon="14.3336117"><ele>69.4</ele><time>2026-03-25T13:02:37.13Z</time></trkpt><trkpt lat="41.07015" lon="14.3337533"><ele>69.0</ele><time>2026-03-25T13:02:39.129Z</time></trkpt><trkpt lat="41.0701483" lon="14.33389"><ele>69.0</ele><time>2026-03-25T13:02:41.129Z</time></trkpt><trkpt lat="41.070135" lon="14.33403"><ele>69.0</ele><time>2026-03-25T13:02:43.129Z</time></trkpt><trkpt lat="41.0701333" lon="14.3341717"><ele>69.0</ele><time>2026-03-25T13:02:45.13Z</time></trkpt><trkpt lat="41.0701183" lon="14.3343317"><ele>69.0</ele><time>2026-03-25T13:02:47.129Z</time></trkpt><trkpt lat="41.070095" lon="14.3344117"><ele>69.0</ele><time>2026-03-25T13:02:48.13Z</time></trkpt><trkpt lat="41.0700467" lon="14.3345733"><ele>69.0</ele><time>2026-03-25T13:02:50.129Z</time></trkpt><trkpt lat="41.0700167" lon="14.3346533"><ele>69.0</ele><time>2026-03-25T13:02:51.13Z</time></trkpt><trkpt lat="41.0699867" lon="14.3347333"><ele>69.0</ele><time>2026-03-25T13:02:52.13Z</time></trkpt><trkpt lat="41.0699683" lon="14.33488"><ele>69.0</ele><time>2026-03-25T13:02:54.13Z</time></trkpt><trkpt lat="41.0699467" lon="14.3350267"><ele>69.0</ele><time>2026-03-25T13:02:56.13Z</time></trkpt><trkpt lat="41.0699117" lon="14.335175"><ele>69.4</ele><time>2026-03-25T13:02:58.13Z</time></trkpt><trkpt lat="41.0698933" lon="14.3353133"><ele>69.80000000000001</ele><time>2026-03-25T13:03:00.129Z</time></trkpt><trkpt lat="41.069885" lon="14.33546"><ele>70.19999999999999</ele><time>2026-03-25T13:03:02.13Z</time></trkpt><trkpt lat="41.06988" lon="14.3356083"><ele>70.6</ele><time>2026-03-25T13:03:04.13Z</time></trkpt><trkpt lat="41.0698917" lon="14.3357517"><ele>71.0</ele><time>2026-03-25T13:03:06.13Z</time></trkpt><trkpt lat="41.0699017" lon="14.3358717"><ele>71.16666666666667</ele><time>2026-03-25T13:03:08.13Z</time></trkpt><trkpt lat="41.069915" lon="14.3359833"><ele>71.33333333333334</ele><time>2026-03-25T13:03:10.13Z</time></trkpt><trkpt lat="41.0699483" lon="14.3360717"><ele>71.5</ele><time>2026-03-25T13:03:12.128Z</time></trkpt><trkpt lat="41.0699433" lon="14.3361733"><ele>71.66666666666667</ele><time>2026-03-25T13:03:14.13Z</time></trkpt><trkpt lat="41.0699367" lon="14.3362967"><ele>71.83333333333333</ele><time>2026-03-25T13:03:16.129Z</time></trkpt><trkpt lat="41.069925" lon="14.3364483"><ele>72.0</ele><time>2026-03-25T13:03:18.129Z</time></trkpt><trkpt lat="41.0699133" lon="14.3366017"><ele>72.0</ele><time>2026-03-25T13:03:20.129Z</time></trkpt><trkpt lat="41.0699033" lon="14.3367467"><ele>72.0</ele><time>2026-03-25T13:03:22.129Z</time></trkpt><trkpt lat="41.069915" lon="14.3369083"><ele>72.0</ele><time>2026-03-25T13:03:24.128Z</time></trkpt><trkpt lat="41.0699183" lon="14.3370667"><ele>72.0</ele><time>2026-03-25T13:03:26.132Z</time></trkpt><trkpt lat="41.0698983" lon="14.3371467"><ele>72.0</ele><time>2026-03-25T13:03:27.13Z</time></trkpt><trkpt lat="41.069915" lon="14.3372283"><ele>72.0</ele><time>2026-03-25T13:03:28.128Z</time></trkpt><trkpt lat="41.0699467" lon="14.3373867"><ele>72.0</ele><time>2026-03-25T13:03:30.129Z</time></trkpt><trkpt lat="41.0699483" lon="14.3375483"><ele>72.0</ele><time>2026-03-25T13:03:32.129Z</time></trkpt><trkpt lat="41.0699367" lon="14.3376383"><ele>72.0</ele><time>2026-03-25T13:03:33.13Z</time></trkpt><trkpt lat="41.0699217" lon="14.33772"><ele>72.0</ele><time>2026-03-25T13:03:34.129Z</time></trkpt><trkpt lat="41.0699083" lon="14.33788"><ele>72.0</ele><time>2026-03-25T13:03:36.129Z</time></trkpt><trkpt lat="41.0699017" lon="14.338035"><ele>72.0</ele><time>2026-03-25T13:03:38.129Z</time></trkpt><trkpt lat="41.0699017" lon="14.3381883"><ele>72.0</ele><time>2026-03-25T13:03:40.129Z</time></trkpt><trkpt lat="41.0698917" lon="14.3383367"><ele>72.0</ele><time>2026-03-25T13:03:42.127Z</time></trkpt><trkpt lat="41.069885" lon="14.338485"><ele>71.6</ele><time>2026-03-25T13:03:44.13Z</time></trkpt><trkpt lat="41.069865" lon="14.3386317"><ele>71.2</ele><time>2026-03-25T13:03:46.129Z</time></trkpt><trkpt lat="41.0698367" lon="14.3387667"><ele>70.8</ele><time>2026-03-25T13:03:48.129Z</time></trkpt><trkpt lat="41.0698367" lon="14.3389117"><ele>70.4</ele><time>2026-03-25T13:03:50.13Z</time></trkpt><trkpt lat="41.0698333" lon="14.3390533"><ele>70.0</ele><time>2026-03-25T13:03:52.129Z</time></trkpt><trkpt lat="41.06983" lon="14.3392"><ele>70.0</ele><time>2026-03-25T13:03:54.129Z</time></trkpt><trkpt lat="41.06982" lon="14.33934"><ele>70.0</ele><time>2026-03-25T13:03:56.129Z</time></trkpt><trkpt lat="41.0698267" lon="14.33949"><ele>70.0</ele><time>2026-03-25T13:03:58.128Z</time></trkpt><trkpt lat="41.0698183" lon="14.3396417"><ele>70.0</ele><time>2026-03-25T13:04:00.129Z</time></trkpt><trkpt lat="41.069805" lon="14.3397833"><ele>70.0</ele><time>2026-03-25T13:04:02.129Z</time></trkpt><trkpt lat="41.0697883" lon="14.339905"><ele>70.4</ele><time>2026-03-25T13:04:04.129Z</time></trkpt><trkpt lat="41.0697833" lon="14.3400233"><ele>70.8</ele><time>2026-03-25T13:04:06.128Z</time></trkpt><trkpt lat="41.0697883" lon="14.34015"><ele>71.2</ele><time>2026-03-25T13:04:08.129Z</time></trkpt><trkpt lat="41.0697867" lon="14.3402817"><ele>71.6</ele><time>2026-03-25T13:04:10.131Z</time></trkpt><trkpt lat="41.0697833" lon="14.3404033"><ele>72.0</ele><time>2026-03-25T13:04:12.129Z</time></trkpt><trkpt lat="41.0697933" lon="14.340535"><ele>72.0</ele><time>2026-03-25T13:04:14.136Z</time></trkpt><trkpt lat="41.069785" lon="14.340665"><ele>72.0</ele><time>2026-03-25T13:04:16.129Z</time></trkpt><trkpt lat="41.0697717" lon="14.3408033"><ele>72.0</ele><time>2026-03-25T13:04:18.129Z</time></trkpt><trkpt lat="41.0697683" lon="14.340935"><ele>72.0</ele><time>2026-03-25T13:04:20.129Z</time></trkpt><trkpt lat="41.06976" lon="14.3410567"><ele>72.0</ele><time>2026-03-25T13:04:22.129Z</time></trkpt><trkpt lat="41.0697667" lon="14.3411783"><ele>72.0</ele><time>2026-03-25T13:04:24.129Z</time></trkpt><trkpt lat="41.069785" lon="14.3412933"><ele>72.0</ele><time>2026-03-25T13:04:26.128Z</time></trkpt><trkpt lat="41.069805" lon="14.34139"><ele>72.0</ele><time>2026-03-25T13:04:28.129Z</time></trkpt><trkpt lat="41.06984" lon="14.3414683"><ele>72.0</ele><time>2026-03-25T13:04:30.128Z</time></trkpt><trkpt lat="41.0699283" lon="14.3415017"><ele>72.0</ele><time>2026-03-25T13:04:32.129Z</time></trkpt><trkpt lat="41.0700233" lon="14.34146"><ele>72.0</ele><time>2026-03-25T13:04:34.129Z</time></trkpt><trkpt lat="41.0701033" lon="14.34142"><ele>71.6</ele><time>2026-03-25T13:04:36.129Z</time></trkpt><trkpt lat="41.0701917" lon="14.3413967"><ele>71.2</ele><time>2026-03-25T13:04:38.129Z</time></trkpt><trkpt lat="41.0702833" lon="14.3413817"><ele>70.8</ele><time>2026-03-25T13:04:40.129Z</time></trkpt><trkpt lat="41.0703683" lon="14.34137"><ele>70.4</ele><time>2026-03-25T13:04:42.13Z</time></trkpt><trkpt lat="41.07048" lon="14.341355"><ele>70.0</ele><time>2026-03-25T13:04:44.129Z</time></trkpt><trkpt lat="41.07059" lon="14.3413467"><ele>70.0</ele><time>2026-03-25T13:04:46.13Z</time></trkpt><trkpt lat="41.070695" lon="14.341355"><ele>70.0</ele><time>2026-03-25T13:04:48.129Z</time></trkpt><trkpt lat="41.0707983" lon="14.3413517"><ele>70.0</ele><time>2026-03-25T13:04:50.129Z</time></trkpt><trkpt lat="41.0709017" lon="14.3413533"><ele>70.0</ele><time>2026-03-25T13:04:52.13Z</time></trkpt><trkpt lat="41.0710067" lon="14.3413583"><ele>70.0</ele><time>2026-03-25T13:04:54.129Z</time></trkpt><trkpt lat="41.0711117" lon="14.3413667"><ele>70.0</ele><time>2026-03-25T13:04:56.131Z</time></trkpt><trkpt lat="41.0712083" lon="14.3413683"><ele>70.0</ele><time>2026-03-25T13:04:58.132Z</time></trkpt><trkpt lat="41.0713167" lon="14.3413567"><ele>70.0</ele><time>2026-03-25T13:05:00.13Z</time></trkpt><trkpt lat="41.071415" lon="14.3413717"><ele>70.0</ele><time>2026-03-25T13:05:02.129Z</time></trkpt><trkpt lat="41.0715117" lon="14.3413833"><ele>70.0</ele><time>2026-03-25T13:05:04.129Z</time></trkpt><trkpt lat="41.071615" lon="14.3414033"><ele>70.2</ele><time>2026-03-25T13:05:06.131Z</time></trkpt><trkpt lat="41.0717233" lon="14.3414183"><ele>70.4</ele><time>2026-03-25T13:05:08.129Z</time></trkpt><trkpt lat="41.071835" lon="14.3414317"><ele>70.6</ele><time>2026-03-25T13:05:10.129Z</time></trkpt><trkpt lat="41.0719433" lon="14.3414483"><ele>70.8</ele><time>2026-03-25T13:05:12.129Z</time></trkpt><trkpt lat="41.0720467" lon="14.3414617"><ele>71.0</ele><time>2026-03-25T13:05:14.128Z</time></trkpt><trkpt lat="41.072145" lon="14.3414633"><ele>71.0</ele><time>2026-03-25T13:05:16.129Z</time></trkpt><trkpt lat="41.0722467" lon="14.3414733"><ele>71.0</ele><time>2026-03-25T13:05:18.129Z</time></trkpt><trkpt lat="41.0723467" lon="14.3414883"><ele>71.0</ele><time>2026-03-25T13:05:20.13Z</time></trkpt><trkpt lat="41.072445" lon="14.3415033"><ele>71.0</ele><time>2026-03-25T13:05:22.129Z</time></trkpt><trkpt lat="41.07255" lon="14.3415117"><ele>71.0</ele><time>2026-03-25T13:05:24.128Z</time></trkpt><trkpt lat="41.0726583" lon="14.34152"><ele>71.2</ele><time>2026-03-25T13:05:26.13Z</time></trkpt><trkpt lat="41.0727567" lon="14.3415283"><ele>71.39999999999999</ele><time>2026-03-25T13:05:28.129Z</time></trkpt><trkpt lat="41.07285" lon="14.3415367"><ele>71.6</ele><time>2026-03-25T13:05:30.128Z</time></trkpt><trkpt lat="41.0729433" lon="14.3415467"><ele>71.8</ele><time>2026-03-25T13:05:32.129Z</time></trkpt><trkpt lat="41.0730383" lon="14.3415767"><ele>72.0</ele><time>2026-03-25T13:05:34.129Z</time></trkpt><trkpt lat="41.0731183" lon="14.3416233"><ele>72.0</ele><time>2026-03-25T13:05:36.128Z</time></trkpt><trkpt lat="41.073195" lon="14.3417033"><ele>72.0</ele><time>2026-03-25T13:05:38.132Z</time></trkpt><trkpt lat="41.073255" lon="14.341795"><ele>72.0</ele><time>2026-03-25T13:05:40.133Z</time></trkpt><trkpt lat="41.0732933" lon="14.341915"><ele>72.0</ele><time>2026-03-25T13:05:42.129Z</time></trkpt><trkpt lat="41.073325" lon="14.3420517"><ele>72.0</ele><time>2026-03-25T13:05:44.129Z</time></trkpt><trkpt lat="41.0733383" lon="14.3422083"><ele>72.0</ele><time>2026-03-25T13:05:46.128Z</time></trkpt><trkpt lat="41.073335" lon="14.3423617"><ele>72.0</ele><time>2026-03-25T13:05:48.129Z</time></trkpt><trkpt lat="41.0733467" lon="14.342505"><ele>72.0</ele><time>2026-03-25T13:05:50.13Z</time></trkpt><trkpt lat="41.07336" lon="14.342625"><ele>72.0</ele><time>2026-03-25T13:05:52.129Z</time></trkpt><trkpt lat="41.07336" lon="14.3427717"><ele>72.0</ele><time>2026-03-25T13:05:54.129Z</time></trkpt><trkpt lat="41.07336" lon="14.3429083"><ele>72.25</ele><time>2026-03-25T13:05:56.129Z</time></trkpt><trkpt lat="41.073375" lon="14.343055"><ele>72.5</ele><time>2026-03-25T13:05:58.129Z</time></trkpt><trkpt lat="41.0733933" lon="14.3432167"><ele>72.75</ele><time>2026-03-25T13:06:00.129Z</time></trkpt><trkpt lat="41.0734" lon="14.3433667"><ele>73.0</ele><time>2026-03-25T13:06:02.13Z</time></trkpt><trkpt lat="41.0733917" lon="14.34353"><ele>73.0</ele><time>2026-03-25T13:06:04.129Z</time></trkpt><trkpt lat="41.0733783" lon="14.3436117"><ele>73.0</ele><time>2026-03-25T13:06:05.13Z</time></trkpt><trkpt lat="41.0733733" lon="14.343695"><ele>73.0</ele><time>2026-03-25T13:06:06.129Z</time></trkpt><trkpt lat="41.0733683" lon="14.34385"><ele>73.0</ele><time>2026-03-25T13:06:08.128Z</time></trkpt><trkpt lat="41.0733717" lon="14.344"><ele>73.0</ele><time>2026-03-25T13:06:10.13Z</time></trkpt><trkpt lat="41.0733833" lon="14.34415"><ele>73.0</ele><time>2026-03-25T13:06:12.129Z</time></trkpt><trkpt lat="41.07339" lon="14.3443017"><ele>73.0</ele><time>2026-03-25T13:06:14.129Z</time></trkpt><trkpt lat="41.0733883" lon="14.3444483"><ele>73.0</ele><time>2026-03-25T13:06:16.129Z</time></trkpt><trkpt lat="41.0734083" lon="14.3445967"><ele>73.0</ele><time>2026-03-25T13:06:18.129Z</time></trkpt><trkpt lat="41.0734283" lon="14.34474"><ele>73.0</ele><time>2026-03-25T13:06:20.13Z</time></trkpt><trkpt lat="41.0734417" lon="14.3448917"><ele>73.0</ele><time>2026-03-25T13:06:22.13Z</time></trkpt><trkpt lat="41.0734483" lon="14.3449767"><ele>73.0</ele><time>2026-03-25T13:06:23.129Z</time></trkpt><trkpt lat="41.0734483" lon="14.3451283"><ele>73.0</ele><time>2026-03-25T13:06:25.13Z</time></trkpt><trkpt lat="41.0734467" lon="14.3452717"><ele>73.0</ele><time>2026-03-25T13:06:27.13Z</time></trkpt><trkpt lat="41.0734467" lon="14.3454183"><ele>73.0</ele><time>2026-03-25T13:06:29.129Z</time></trkpt><trkpt lat="41.0734617" lon="14.3455667"><ele>73.2</ele><time>2026-03-25T13:06:31.13Z</time></trkpt><trkpt lat="41.073465" lon="14.3457133"><ele>73.4</ele><time>2026-03-25T13:06:33.129Z</time></trkpt><trkpt lat="41.073465" lon="14.3458567"><ele>73.60000000000001</ele><time>2026-03-25T13:06:35.13Z</time></trkpt><trkpt lat="41.0734767" lon="14.3460083"><ele>73.8</ele><time>2026-03-25T13:06:37.13Z</time></trkpt><trkpt lat="41.0734633" lon="14.3461533"><ele>74.0</ele><time>2026-03-25T13:06:39.129Z</time></trkpt><trkpt lat="41.0734583" lon="14.3462967"><ele>74.2</ele><time>2026-03-25T13:06:41.13Z</time></trkpt><trkpt lat="41.07345" lon="14.3464467"><ele>74.4</ele><time>2026-03-25T13:06:43.13Z</time></trkpt><trkpt lat="41.0734533" lon="14.3465917"><ele>74.6</ele><time>2026-03-25T13:06:45.129Z</time></trkpt><trkpt lat="41.0734583" lon="14.34674"><ele>74.8</ele><time>2026-03-25T13:06:47.13Z</time></trkpt><trkpt lat="41.0734617" lon="14.3468883"><ele>75.0</ele><time>2026-03-25T13:06:49.13Z</time></trkpt><trkpt lat="41.0734633" lon="14.347035"><ele>75.0</ele><time>2026-03-25T13:06:51.13Z</time></trkpt><trkpt lat="41.07346" lon="14.3471867"><ele>75.0</ele><time>2026-03-25T13:06:53.13Z</time></trkpt><trkpt lat="41.0734633" lon="14.347335"><ele>75.0</ele><time>2026-03-25T13:06:55.13Z</time></trkpt><trkpt lat="41.0734633" lon="14.3474783"><ele>75.0</ele><time>2026-03-25T13:06:57.129Z</time></trkpt><trkpt lat="41.07347" lon="14.347615"><ele>75.0</ele><time>2026-03-25T13:06:59.13Z</time></trkpt><trkpt lat="41.0734783" lon="14.34778"><ele>74.8</ele><time>2026-03-25T13:07:01.13Z</time></trkpt><trkpt lat="41.07349" lon="14.34794"><ele>74.6</ele><time>2026-03-25T13:07:03.129Z</time></trkpt><trkpt lat="41.0735017" lon="14.3480883"><ele>74.4</ele><time>2026-03-25T13:07:05.13Z</time></trkpt><trkpt lat="41.0735067" lon="14.3482367"><ele>74.2</ele><time>2026-03-25T13:07:07.13Z</time></trkpt><trkpt lat="41.07352" lon="14.3483617"><ele>74.0</ele><time>2026-03-25T13:07:09.13Z</time></trkpt><trkpt lat="41.073535" lon="14.34849"><ele>74.0</ele><time>2026-03-25T13:07:11.13Z</time></trkpt><trkpt lat="41.073545" lon="14.3486283"><ele>74.0</ele><time>2026-03-25T13:07:13.13Z</time></trkpt><trkpt lat="41.07354" lon="14.3487967"><ele>74.0</ele><time>2026-03-25T13:07:15.129Z</time></trkpt><trkpt lat="41.0735133" lon="14.3489567"><ele>74.0</ele><time>2026-03-25T13:07:17.129Z</time></trkpt><trkpt lat="41.0735" lon="14.3491133"><ele>74.60000000000001</ele><time>2026-03-25T13:07:19.13Z</time></trkpt><trkpt lat="41.0734967" lon="14.34927"><ele>75.2</ele><time>2026-03-25T13:07:21.129Z</time></trkpt><trkpt lat="41.0734817" lon="14.3493517"><ele>75.80000000000001</ele><time>2026-03-25T13:07:22.129Z</time></trkpt><trkpt lat="41.0734567" lon="14.3494317"><ele>76.4</ele><time>2026-03-25T13:07:23.13Z</time></trkpt><trkpt lat="41.0734383" lon="14.3495883"><ele>77.0</ele><time>2026-03-25T13:07:25.13Z</time></trkpt><trkpt lat="41.07344" lon="14.3497367"><ele>77.5</ele><time>2026-03-25T13:07:27.129Z</time></trkpt><trkpt lat="41.07345" lon="14.3498933"><ele>78.0</ele><time>2026-03-25T13:07:29.13Z</time></trkpt><trkpt lat="41.0734467" lon="14.350055"><ele>78.5</ele><time>2026-03-25T13:07:31.13Z</time></trkpt><trkpt lat="41.07345" lon="14.3502117"><ele>79.0</ele><time>2026-03-25T13:07:33.13Z</time></trkpt><trkpt lat="41.073455" lon="14.3503683"><ele>79.0</ele><time>2026-03-25T13:07:35.13Z</time></trkpt><trkpt lat="41.0734583" lon="14.3505317"><ele>79.0</ele><time>2026-03-25T13:07:37.13Z</time></trkpt><trkpt lat="41.0734567" lon="14.350695"><ele>79.0</ele><time>2026-03-25T13:07:39.13Z</time></trkpt><trkpt lat="41.0734533" lon="14.3508533"><ele>79.0</ele><time>2026-03-25T13:07:41.129Z</time></trkpt><trkpt lat="41.0734583" lon="14.35099"><ele>79.0</ele><time>2026-03-25T13:07:43.129Z</time></trkpt><trkpt lat="41.073465" lon="14.3511167"><ele>79.0</ele><time>2026-03-25T13:07:45.128Z</time></trkpt><trkpt lat="41.0734733" lon="14.351255"><ele>79.0</ele><time>2026-03-25T13:07:47.129Z</time></trkpt><trkpt lat="41.07348" lon="14.351395"><ele>79.0</ele><time>2026-03-25T13:07:49.13Z</time></trkpt><trkpt lat="41.0734667" lon="14.3515367"><ele>79.0</ele><time>2026-03-25T13:07:51.129Z</time></trkpt><trkpt lat="41.0734567" lon="14.3516883"><ele>79.0</ele><time>2026-03-25T13:07:53.131Z</time></trkpt><trkpt lat="41.073455" lon="14.3518367"><ele>79.0</ele><time>2026-03-25T13:07:55.13Z</time></trkpt><trkpt lat="41.0734483" lon="14.3519917"><ele>79.0</ele><time>2026-03-25T13:07:57.129Z</time></trkpt><trkpt lat="41.0734433" lon="14.3521467"><ele>79.0</ele><time>2026-03-25T13:07:59.13Z</time></trkpt><trkpt lat="41.073435" lon="14.35229"><ele>79.0</ele><time>2026-03-25T13:08:01.129Z</time></trkpt><trkpt lat="41.0734283" lon="14.3524283"><ele>79.0</ele><time>2026-03-25T13:08:03.129Z</time></trkpt><trkpt lat="41.073425" lon="14.352565"><ele>79.0</ele><time>2026-03-25T13:08:05.129Z</time></trkpt><trkpt lat="41.0734217" lon="14.3526867"><ele>79.0</ele><time>2026-03-25T13:08:07.13Z</time></trkpt><trkpt lat="41.073425" lon="14.35278"><ele>79.0</ele><time>2026-03-25T13:08:09.129Z</time></trkpt><trkpt lat="41.0734417" lon="14.352865"><ele>79.0</ele><time>2026-03-25T13:08:12.129Z</time></trkpt><trkpt lat="41.0735233" lon="14.3529117"><ele>79.0</ele><time>2026-03-25T13:08:17.13Z</time></trkpt><trkpt lat="41.07358" lon="14.3529483"><ele>79.0</ele><time>2026-03-25T13:08:19.13Z</time></trkpt><trkpt lat="41.073665" lon="14.3529967"><ele>79.0</ele><time>2026-03-25T13:08:22.13Z</time></trkpt><trkpt lat="41.0737217" lon="14.3530533"><ele>79.0</ele><time>2026-03-25T13:08:24.13Z</time></trkpt><trkpt lat="41.073785" lon="14.3531283"><ele>79.0</ele><time>2026-03-25T13:08:26.13Z</time></trkpt><trkpt lat="41.0738467" lon="14.3532133"><ele>79.0</ele><time>2026-03-25T13:08:28.128Z</time></trkpt><trkpt lat="41.0739033" lon="14.35329"><ele>79.0</ele><time>2026-03-25T13:08:30.129Z</time></trkpt><trkpt lat="41.0739683" lon="14.3533717"><ele>79.0</ele><time>2026-03-25T13:08:32.131Z</time></trkpt><trkpt lat="41.0740317" lon="14.3534617"><ele>79.0</ele><time>2026-03-25T13:08:34.13Z</time></trkpt><trkpt lat="41.0741117" lon="14.3535267"><ele>79.0</ele><time>2026-03-25T13:08:36.13Z</time></trkpt><trkpt lat="41.0741783" lon="14.3535983"><ele>79.0</ele><time>2026-03-25T13:08:38.13Z</time></trkpt><trkpt lat="41.0742433" lon="14.35367"><ele>79.0</ele><time>2026-03-25T13:08:40.129Z</time></trkpt><trkpt lat="41.0743117" lon="14.35375"><ele>79.4</ele><time>2026-03-25T13:08:42.13Z</time></trkpt><trkpt lat="41.0743817" lon="14.353835"><ele>79.80000000000001</ele><time>2026-03-25T13:08:44.13Z</time></trkpt><trkpt lat="41.0744483" lon="14.3539183"><ele>80.19999999999999</ele><time>2026-03-25T13:08:46.129Z</time></trkpt><trkpt lat="41.07451" lon="14.3540217"><ele>80.6</ele><time>2026-03-25T13:08:48.13Z</time></trkpt><trkpt lat="41.07458" lon="14.35413"><ele>81.0</ele><time>2026-03-25T13:08:50.13Z</time></trkpt><trkpt lat="41.0746533" lon="14.3542217"><ele>80.8</ele><time>2026-03-25T13:08:52.13Z</time></trkpt><trkpt lat="41.0747317" lon="14.3543167"><ele>80.6</ele><time>2026-03-25T13:08:54.13Z</time></trkpt><trkpt lat="41.0747983" lon="14.3544033"><ele>80.4</ele><time>2026-03-25T13:08:56.13Z</time></trkpt><trkpt lat="41.0748783" lon="14.3545017"><ele>80.2</ele><time>2026-03-25T13:08:58.13Z</time></trkpt><trkpt lat="41.07495" lon="14.354595"><ele>80.0</ele><time>2026-03-25T13:09:00.129Z</time></trkpt><trkpt lat="41.075035" lon="14.35467"><ele>80.8</ele><time>2026-03-25T13:09:02.13Z</time></trkpt><trkpt lat="41.0751133" lon="14.3547683"><ele>81.6</ele><time>2026-03-25T13:09:04.13Z</time></trkpt><trkpt lat="41.0751817" lon="14.3548633"><ele>82.4</ele><time>2026-03-25T13:09:06.13Z</time></trkpt><trkpt lat="41.0752483" lon="14.3549633"><ele>83.2</ele><time>2026-03-25T13:09:08.13Z</time></trkpt><trkpt lat="41.0753317" lon="14.3550567"><ele>84.0</ele><time>2026-03-25T13:09:10.13Z</time></trkpt><trkpt lat="41.0754067" lon="14.355145"><ele>84.0</ele><time>2026-03-25T13:09:12.129Z</time></trkpt><trkpt lat="41.0754783" lon="14.3552367"><ele>84.0</ele><time>2026-03-25T13:09:14.129Z</time></trkpt><trkpt lat="41.075555" lon="14.35532"><ele>84.0</ele><time>2026-03-25T13:09:16.13Z</time></trkpt><trkpt lat="41.07563" lon="14.3554133"><ele>84.0</ele><time>2026-03-25T13:09:18.13Z</time></trkpt><trkpt lat="41.0757083" lon="14.3555033"><ele>84.0</ele><time>2026-03-25T13:09:20.13Z</time></trkpt><trkpt lat="41.07579" lon="14.3555883"><ele>84.0</ele><time>2026-03-25T13:09:22.129Z</time></trkpt><trkpt lat="41.0758633" lon="14.3556917"><ele>84.0</ele><time>2026-03-25T13:09:24.129Z</time></trkpt><trkpt lat="41.0759433" lon="14.355785"><ele>84.0</ele><time>2026-03-25T13:09:26.129Z</time></trkpt><trkpt lat="41.0760183" lon="14.3558733"><ele>84.0</ele><time>2026-03-25T13:09:28.129Z</time></trkpt><trkpt lat="41.07609" lon="14.3559717"><ele>84.0</ele><time>2026-03-25T13:09:30.129Z</time></trkpt><trkpt lat="41.0761633" lon="14.3560717"><ele>84.0</ele><time>2026-03-25T13:09:32.129Z</time></trkpt><trkpt lat="41.0762383" lon="14.3561717"><ele>84.0</ele><time>2026-03-25T13:09:34.128Z</time></trkpt><trkpt lat="41.0763183" lon="14.3562583"><ele>84.0</ele><time>2026-03-25T13:09:36.128Z</time></trkpt><trkpt lat="41.0763917" lon="14.35634"><ele>84.0</ele><time>2026-03-25T13:09:38.129Z</time></trkpt><trkpt lat="41.0764617" lon="14.35641"><ele>84.0</ele><time>2026-03-25T13:09:40.129Z</time></trkpt><trkpt lat="41.0765467" lon="14.356475"><ele>84.4</ele><time>2026-03-25T13:09:42.129Z</time></trkpt><trkpt lat="41.07663" lon="14.3565217"><ele>84.80000000000001</ele><time>2026-03-25T13:09:44.129Z</time></trkpt><trkpt lat="41.0767083" lon="14.3565583"><ele>85.19999999999999</ele><time>2026-03-25T13:09:46.129Z</time></trkpt><trkpt lat="41.0767883" lon="14.3566167"><ele>85.6</ele><time>2026-03-25T13:09:48.129Z</time></trkpt><trkpt lat="41.0768633" lon="14.356705"><ele>86.0</ele><time>2026-03-25T13:09:50.129Z</time></trkpt><trkpt lat="41.07694" lon="14.356785"><ele>86.0</ele><time>2026-03-25T13:09:52.129Z</time></trkpt><trkpt lat="41.077015" lon="14.3568567"><ele>86.0</ele><time>2026-03-25T13:09:54.129Z</time></trkpt><trkpt lat="41.0770833" lon="14.35692"><ele>86.0</ele><time>2026-03-25T13:09:56.13Z</time></trkpt><trkpt lat="41.07715" lon="14.3569767"><ele>86.0</ele><time>2026-03-25T13:09:58.129Z</time></trkpt><trkpt lat="41.077215" lon="14.3570433"><ele>86.0</ele><time>2026-03-25T13:10:00.128Z</time></trkpt><trkpt lat="41.0772983" lon="14.357125"><ele>86.0</ele><time>2026-03-25T13:10:02.129Z</time></trkpt><trkpt lat="41.0773867" lon="14.3572017"><ele>86.5</ele><time>2026-03-25T13:10:04.128Z</time></trkpt><trkpt lat="41.0774733" lon="14.35725"><ele>87.0</ele><time>2026-03-25T13:10:06.129Z</time></trkpt><trkpt lat="41.0775617" lon="14.35729"><ele>87.5</ele><time>2026-03-25T13:10:08.128Z</time></trkpt><trkpt lat="41.077645" lon="14.3573117"><ele>88.0</ele><time>2026-03-25T13:10:10.129Z</time></trkpt><trkpt lat="41.0777183" lon="14.35735"><ele>88.5</ele><time>2026-03-25T13:10:12.129Z</time></trkpt><trkpt lat="41.07779" lon="14.3573883"><ele>89.0</ele><time>2026-03-25T13:10:14.128Z</time></trkpt><trkpt lat="41.077865" lon="14.3574233"><ele>89.0</ele><time>2026-03-25T13:10:16.129Z</time></trkpt><trkpt lat="41.0779467" lon="14.357455"><ele>89.0</ele><time>2026-03-25T13:10:18.129Z</time></trkpt><trkpt lat="41.07803" lon="14.3574933"><ele>89.0</ele><time>2026-03-25T13:10:20.129Z</time></trkpt><trkpt lat="41.0781117" lon="14.3575467"><ele>89.0</ele><time>2026-03-25T13:10:22.129Z</time></trkpt><trkpt lat="41.0781883" lon="14.357605"><ele>89.0</ele><time>2026-03-25T13:10:24.129Z</time></trkpt><trkpt lat="41.0782667" lon="14.3576583"><ele>89.0</ele><time>2026-03-25T13:10:26.129Z</time></trkpt><trkpt lat="41.0783467" lon="14.3576983"><ele>89.0</ele><time>2026-03-25T13:10:28.128Z</time></trkpt><trkpt lat="41.0784317" lon="14.3577367"><ele>89.0</ele><time>2026-03-25T13:10:30.128Z</time></trkpt><trkpt lat="41.0785083" lon="14.3577667"><ele>89.0</ele><time>2026-03-25T13:10:32.128Z</time></trkpt><trkpt lat="41.0785817" lon="14.357795"><ele>89.0</ele><time>2026-03-25T13:10:34.129Z</time></trkpt><trkpt lat="41.078655" lon="14.3578383"><ele>89.0</ele><time>2026-03-25T13:10:36.129Z</time></trkpt><trkpt lat="41.078725" lon="14.3578567"><ele>89.0</ele><time>2026-03-25T13:10:38.128Z</time></trkpt><trkpt lat="41.0788017" lon="14.35788"><ele>89.0</ele><time>2026-03-25T13:10:40.128Z</time></trkpt><trkpt lat="41.0788767" lon="14.3579117"><ele>89.0</ele><time>2026-03-25T13:10:42.129Z</time></trkpt><trkpt lat="41.07895" lon="14.3579567"><ele>89.0</ele><time>2026-03-25T13:10:44.128Z</time></trkpt><trkpt lat="41.0790317" lon="14.3579867"><ele>89.0</ele><time>2026-03-25T13:10:46.129Z</time></trkpt><trkpt lat="41.0791133" lon="14.3580233"><ele>89.0</ele><time>2026-03-25T13:10:48.128Z</time></trkpt><trkpt lat="41.0791933" lon="14.3580717"><ele>89.0</ele><time>2026-03-25T13:10:50.129Z</time></trkpt><trkpt lat="41.0792683" lon="14.35814"><ele>89.5</ele><time>2026-03-25T13:10:52.129Z</time></trkpt><trkpt lat="41.0793333" lon="14.3582133"><ele>90.0</ele><time>2026-03-25T13:10:54.129Z</time></trkpt><trkpt lat="41.0794267" lon="14.35827"><ele>90.5</ele><time>2026-03-25T13:10:56.129Z</time></trkpt><trkpt lat="41.07951" lon="14.3583217"><ele>91.0</ele><time>2026-03-25T13:10:58.129Z</time></trkpt><trkpt lat="41.079585" lon="14.358375"><ele>91.5</ele><time>2026-03-25T13:11:00.13Z</time></trkpt><trkpt lat="41.07965" lon="14.35844"><ele>92.0</ele><time>2026-03-25T13:11:02.129Z</time></trkpt><trkpt lat="41.0797" lon="14.3585067"><ele>92.0</ele><time>2026-03-25T13:11:04.13Z</time></trkpt><trkpt lat="41.0797567" lon="14.3586067"><ele>92.0</ele><time>2026-03-25T13:11:06.128Z</time></trkpt><trkpt lat="41.0798267" lon="14.358685"><ele>92.0</ele><time>2026-03-25T13:11:08.128Z</time></trkpt><trkpt lat="41.079895" lon="14.3587633"><ele>92.0</ele><time>2026-03-25T13:11:10.129Z</time></trkpt><trkpt lat="41.0799767" lon="14.35884"><ele>92.0</ele><time>2026-03-25T13:11:12.129Z</time></trkpt><trkpt lat="41.080055" lon="14.3589383"><ele>92.33333333333334</ele><time>2026-03-25T13:11:14.129Z</time></trkpt><trkpt lat="41.0801283" lon="14.3590417"><ele>92.66666666666667</ele><time>2026-03-25T13:11:16.13Z</time></trkpt><trkpt lat="41.0801633" lon="14.3591317"><ele>93.0</ele><time>2026-03-25T13:11:18.129Z</time></trkpt><trkpt lat="41.08018" lon="14.35923"><ele>93.33333333333333</ele><time>2026-03-25T13:11:20.131Z</time></trkpt><trkpt lat="41.0801983" lon="14.3593367"><ele>93.66666666666666</ele><time>2026-03-25T13:11:22.129Z</time></trkpt><trkpt lat="41.0802117" lon="14.3594433"><ele>94.0</ele><time>2026-03-25T13:11:24.132Z</time></trkpt><trkpt lat="41.0801983" lon="14.3595433"><ele>94.0</ele><time>2026-03-25T13:11:26.129Z</time></trkpt><trkpt lat="41.0801683" lon="14.3596467"><ele>94.0</ele><time>2026-03-25T13:11:28.128Z</time></trkpt><trkpt lat="41.0801383" lon="14.3597583"><ele>94.0</ele><time>2026-03-25T13:11:30.129Z</time></trkpt><trkpt lat="41.0801183" lon="14.3598667"><ele>94.0</ele><time>2026-03-25T13:11:32.131Z</time></trkpt><trkpt lat="41.0801" lon="14.3599717"><ele>94.0</ele><time>2026-03-25T13:11:34.13Z</time></trkpt><trkpt lat="41.080075" lon="14.36007"><ele>94.0</ele><time>2026-03-25T13:11:36.129Z</time></trkpt><trkpt lat="41.0800683" lon="14.3601767"><ele>94.4</ele><time>2026-03-25T13:11:38.129Z</time></trkpt><trkpt lat="41.0800783" lon="14.3602683"><ele>94.80000000000001</ele><time>2026-03-25T13:11:41.13Z</time></trkpt><trkpt lat="41.08012" lon="14.3601683"><ele>95.19999999999999</ele><time>2026-03-25T13:11:44.13Z</time></trkpt><trkpt lat="41.080135" lon="14.3600433"><ele>95.6</ele><time>2026-03-25T13:11:46.129Z</time></trkpt><trkpt lat="41.08016" lon="14.3599017"><ele>96.0</ele><time>2026-03-25T13:11:48.13Z</time></trkpt><trkpt lat="41.08019" lon="14.3597533"><ele>95.5</ele><time>2026-03-25T13:11:50.129Z</time></trkpt><trkpt lat="41.08022" lon="14.3596017"><ele>95.0</ele><time>2026-03-25T13:11:52.13Z</time></trkpt><trkpt lat="41.080265" lon="14.359445"><ele>94.5</ele><time>2026-03-25T13:11:54.13Z</time></trkpt><trkpt lat="41.0803383" lon="14.3593233"><ele>94.0</ele><time>2026-03-25T13:11:56.129Z</time></trkpt><trkpt lat="41.080435" lon="14.3592267"><ele>94.0</ele><time>2026-03-25T13:11:58.128Z</time></trkpt><trkpt lat="41.08054" lon="14.3591917"><ele>94.0</ele><time>2026-03-25T13:12:00.129Z</time></trkpt><trkpt lat="41.080645" lon="14.359195"><ele>94.0</ele><time>2026-03-25T13:12:02.129Z</time></trkpt><trkpt lat="41.0807367" lon="14.3592233"><ele>94.0</ele><time>2026-03-25T13:12:04.129Z</time></trkpt><trkpt lat="41.0808167" lon="14.3592633"><ele>94.0</ele><time>2026-03-25T13:12:06.129Z</time></trkpt><trkpt lat="41.0808983" lon="14.3593083"><ele>94.66666666666666</ele><time>2026-03-25T13:12:08.129Z</time></trkpt><trkpt lat="41.08098" lon="14.3593617"><ele>95.33333333333333</ele><time>2026-03-25T13:12:10.129Z</time></trkpt><trkpt lat="41.0810617" lon="14.3594217"><ele>96.0</ele><time>2026-03-25T13:12:12.129Z</time></trkpt><trkpt lat="41.0811333" lon="14.359495"><ele>96.66666666666666</ele><time>2026-03-25T13:12:14.13Z</time></trkpt><trkpt lat="41.0812033" lon="14.359565"><ele>97.33333333333333</ele><time>2026-03-25T13:12:16.128Z</time></trkpt><trkpt lat="41.0812717" lon="14.3596317"><ele>98.0</ele><time>2026-03-25T13:12:18.128Z</time></trkpt><trkpt lat="41.0813267" lon="14.3597033"><ele>98.49999999999999</ele><time>2026-03-25T13:12:20.129Z</time></trkpt><trkpt lat="41.0813817" lon="14.3597767"><ele>99.0</ele><time>2026-03-25T13:12:22.129Z</time></trkpt><trkpt lat="41.0814367" lon="14.3598483"><ele>99.5</ele><time>2026-03-25T13:12:24.129Z</time></trkpt><trkpt lat="41.08149" lon="14.359915"><ele>100.0</ele><time>2026-03-25T13:12:26.13Z</time></trkpt><trkpt lat="41.0815567" lon="14.359975"><ele>100.49999999999999</ele><time>2026-03-25T13:12:28.13Z</time></trkpt><trkpt lat="41.08162" lon="14.36004"><ele>101.0</ele><time>2026-03-25T13:12:30.129Z</time></trkpt><trkpt lat="41.0816917" lon="14.3601033"><ele>101.49999999999999</ele><time>2026-03-25T13:12:32.131Z</time></trkpt><trkpt lat="41.0817567" lon="14.36016"><ele>102.0</ele><time>2026-03-25T13:12:34.13Z</time></trkpt><trkpt lat="41.08181" lon="14.3602267"><ele>102.5</ele><time>2026-03-25T13:12:36.13Z</time></trkpt><trkpt lat="41.08186" lon="14.360285"><ele>103.0</ele><time>2026-03-25T13:12:38.129Z</time></trkpt><trkpt lat="41.0819267" lon="14.3603617"><ele>103.49999999999999</ele><time>2026-03-25T13:12:41.129Z</time></trkpt><trkpt lat="41.0820083" lon="14.3604317"><ele>104.0</ele><time>2026-03-25T13:12:44.13Z</time></trkpt><trkpt lat="41.0820533" lon="14.36052"><ele>104.16666666666666</ele><time>2026-03-25T13:12:46.13Z</time></trkpt><trkpt lat="41.0821133" lon="14.3605883"><ele>104.33333333333333</ele><time>2026-03-25T13:12:48.128Z</time></trkpt><trkpt lat="41.0821733" lon="14.3606517"><ele>104.5</ele><time>2026-03-25T13:12:50.129Z</time></trkpt><trkpt lat="41.0822317" lon="14.3607183"><ele>104.66666666666666</ele><time>2026-03-25T13:12:52.13Z</time></trkpt><trkpt lat="41.0822967" lon="14.3607817"><ele>104.83333333333333</ele><time>2026-03-25T13:12:54.128Z</time></trkpt><trkpt lat="41.08235" lon="14.360845"><ele>105.0</ele><time>2026-03-25T13:12:56.131Z</time></trkpt><trkpt lat="41.0823983" lon="14.3609217"><ele>105.28571428571429</ele><time>2026-03-25T13:12:58.129Z</time></trkpt><trkpt lat="41.0824517" lon="14.3609933"><ele>105.57142857142857</ele><time>2026-03-25T13:13:00.129Z</time></trkpt><trkpt lat="41.0825017" lon="14.361065"><ele>105.85714285714286</ele><time>2026-03-25T13:13:02.129Z</time></trkpt><trkpt lat="41.0825433" lon="14.3611383"><ele>106.14285714285714</ele><time>2026-03-25T13:13:04.129Z</time></trkpt><trkpt lat="41.0825867" lon="14.3612117"><ele>106.42857142857143</ele><time>2026-03-25T13:13:06.131Z</time></trkpt><trkpt lat="41.0826283" lon="14.361295"><ele>106.71428571428572</ele><time>2026-03-25T13:13:08.13Z</time></trkpt><trkpt lat="41.0826817" lon="14.3613633"><ele>107.0</ele><time>2026-03-25T13:13:10.13Z</time></trkpt><trkpt lat="41.0827367" lon="14.3614483"><ele>107.42857142857143</ele><time>2026-03-25T13:13:13.13Z</time></trkpt><trkpt lat="41.08277" lon="14.3615217"><ele>107.85714285714286</ele><time>2026-03-25T13:13:15.129Z</time></trkpt><trkpt lat="41.0828067" lon="14.361605"><ele>108.28571428571428</ele><time>2026-03-25T13:13:17.13Z</time></trkpt><trkpt lat="41.0828417" lon="14.3616883"><ele>108.71428571428572</ele><time>2026-03-25T13:13:19.13Z</time></trkpt><trkpt lat="41.0828817" lon="14.3617617"><ele>109.14285714285714</ele><time>2026-03-25T13:13:21.129Z</time></trkpt><trkpt lat="41.082925" lon="14.361845"><ele>109.57142857142857</ele><time>2026-03-25T13:13:23.129Z</time></trkpt><trkpt lat="41.08296" lon="14.36192"><ele>110.0</ele><time>2026-03-25T13:13:25.13Z</time></trkpt><trkpt lat="41.0829967" lon="14.36199"><ele>109.99999999999999</ele><time>2026-03-25T13:13:27.13Z</time></trkpt><trkpt lat="41.08303" lon="14.3621067"><ele>110.0</ele><time>2026-03-25T13:13:30.128Z</time></trkpt><trkpt lat="41.08306" lon="14.362185"><ele>110.0</ele><time>2026-03-25T13:13:32.13Z</time></trkpt><trkpt lat="41.0830983" lon="14.36227"><ele>110.0</ele><time>2026-03-25T13:13:34.129Z</time></trkpt><trkpt lat="41.0831417" lon="14.3623483"><ele>109.99999999999999</ele><time>2026-03-25T13:13:36.13Z</time></trkpt><trkpt lat="41.0831833" lon="14.36242"><ele>110.0</ele><time>2026-03-25T13:13:38.13Z</time></trkpt><trkpt lat="41.083235" lon="14.3625217"><ele>111.33333333333333</ele><time>2026-03-25T13:13:41.13Z</time></trkpt><trkpt lat="41.0832667" lon="14.3626033"><ele>112.66666666666666</ele><time>2026-03-25T13:13:43.129Z</time></trkpt><trkpt lat="41.0833067" lon="14.362695"><ele>114.0</ele><time>2026-03-25T13:13:45.129Z</time></trkpt><trkpt lat="41.0833533" lon="14.3627717"><ele>115.33333333333334</ele><time>2026-03-25T13:13:47.13Z</time></trkpt><trkpt lat="41.0833917" lon="14.3628517"><ele>116.66666666666667</ele><time>2026-03-25T13:13:49.13Z</time></trkpt><trkpt lat="41.0834317" lon="14.36294"><ele>118.0</ele><time>2026-03-25T13:13:51.129Z</time></trkpt><trkpt lat="41.0834717" lon="14.3630383"><ele>118.16666666666667</ele><time>2026-03-25T13:13:53.13Z</time></trkpt><trkpt lat="41.0835067" lon="14.363135"><ele>118.33333333333334</ele><time>2026-03-25T13:13:55.132Z</time></trkpt><trkpt lat="41.08355" lon="14.3632217"><ele>118.5</ele><time>2026-03-25T13:13:57.132Z</time></trkpt><trkpt lat="41.0835833" lon="14.363325"><ele>118.66666666666666</ele><time>2026-03-25T13:13:59.129Z</time></trkpt><trkpt lat="41.0836117" lon="14.3634167"><ele>118.83333333333333</ele><time>2026-03-25T13:14:01.13Z</time></trkpt><trkpt lat="41.08363" lon="14.3635133"><ele>119.0</ele><time>2026-03-25T13:14:03.131Z</time></trkpt><trkpt lat="41.0836417" lon="14.3636133"><ele>119.0</ele><time>2026-03-25T13:14:05.13Z</time></trkpt><trkpt lat="41.0836567" lon="14.363705"><ele>119.0</ele><time>2026-03-25T13:14:07.13Z</time></trkpt><trkpt lat="41.0836733" lon="14.3637933"><ele>119.0</ele><time>2026-03-25T13:14:09.129Z</time></trkpt><trkpt lat="41.0836917" lon="14.363885"><ele>119.0</ele><time>2026-03-25T13:14:11.129Z</time></trkpt><trkpt lat="41.0837133" lon="14.363985"><ele>119.0</ele><time>2026-03-25T13:14:13.13Z</time></trkpt><trkpt lat="41.0837233" lon="14.3640833"><ele>119.0</ele><time>2026-03-25T13:14:15.129Z</time></trkpt><trkpt lat="41.083715" lon="14.3641833"><ele>119.0</ele><time>2026-03-25T13:14:17.13Z</time></trkpt><trkpt lat="41.0837083" lon="14.3642783"><ele>119.83333333333333</ele><time>2026-03-25T13:14:19.13Z</time></trkpt><trkpt lat="41.0837033" lon="14.3643717"><ele>120.66666666666666</ele><time>2026-03-25T13:14:21.129Z</time></trkpt><trkpt lat="41.0836817" lon="14.3644783"><ele>121.5</ele><time>2026-03-25T13:14:24.13Z</time></trkpt><trkpt lat="41.0836567" lon="14.3645883"><ele>122.33333333333334</ele><time>2026-03-25T13:14:27.13Z</time></trkpt><trkpt lat="41.0836217" lon="14.3646817"><ele>123.16666666666667</ele><time>2026-03-25T13:14:29.129Z</time></trkpt><trkpt lat="41.0835967" lon="14.36479"><ele>124.0</ele><time>2026-03-25T13:14:32.129Z</time></trkpt><trkpt lat="41.0835983" lon="14.364895"><ele>124.16666666666667</ele><time>2026-03-25T13:14:35.129Z</time></trkpt><trkpt lat="41.0836033" lon="14.365"><ele>124.33333333333334</ele><time>2026-03-25T13:14:38.129Z</time></trkpt><trkpt lat="41.0836467" lon="14.3650633"><ele>124.5</ele><time>2026-03-25T13:14:40.13Z</time></trkpt><trkpt lat="41.0836867" lon="14.3651583"><ele>124.66666666666666</ele><time>2026-03-25T13:14:43.129Z</time></trkpt><trkpt lat="41.0836967" lon="14.3652617"><ele>124.83333333333333</ele><time>2026-03-25T13:14:46.129Z</time></trkpt><trkpt lat="41.083695" lon="14.3653767"><ele>125.0</ele><time>2026-03-25T13:14:49.129Z</time></trkpt><trkpt lat="41.0837233" lon="14.3654967"><ele>125.33333333333333</ele><time>2026-03-25T13:14:52.128Z</time></trkpt><trkpt lat="41.0837617" lon="14.3656"><ele>125.66666666666666</ele><time>2026-03-25T13:14:54.13Z</time></trkpt><trkpt lat="41.08379" lon="14.3656867"><ele>126.0</ele><time>2026-03-25T13:14:56.128Z</time></trkpt><trkpt lat="41.08383" lon="14.3657517"><ele>126.33333333333334</ele><time>2026-03-25T13:14:59.129Z</time></trkpt><trkpt lat="41.083905" lon="14.365705"><ele>126.66666666666667</ele><time>2026-03-25T13:15:03.128Z</time></trkpt><trkpt lat="41.08396" lon="14.365635"><ele>127.0</ele><time>2026-03-25T13:15:07.13Z</time></trkpt><trkpt lat="41.0840033" lon="14.36555"><ele>126.66666666666667</ele><time>2026-03-25T13:15:10.13Z</time></trkpt><trkpt lat="41.0840667" lon="14.3654667"><ele>126.33333333333334</ele><time>2026-03-25T13:15:13.129Z</time></trkpt><trkpt lat="41.084125" lon="14.3653967"><ele>126.0</ele><time>2026-03-25T13:15:16.129Z</time></trkpt><trkpt lat="41.08418" lon="14.3653067"><ele>125.66666666666666</ele><time>2026-03-25T13:15:19.13Z</time></trkpt><trkpt lat="41.0842433" lon="14.3652433"><ele>125.33333333333333</ele><time>2026-03-25T13:15:22.128Z</time></trkpt><trkpt lat="41.0842867" lon="14.365175"><ele>125.0</ele><time>2026-03-25T13:15:25.129Z</time></trkpt><trkpt lat="41.0843383" lon="14.3651083"><ele>126.28571428571428</ele><time>2026-03-25T13:15:28.129Z</time></trkpt><trkpt lat="41.0843967" lon="14.3651533"><ele>127.57142857142858</ele><time>2026-03-25T13:15:31.129Z</time></trkpt><trkpt lat="41.0844367" lon="14.36523"><ele>128.85714285714286</ele><time>2026-03-25T13:15:34.129Z</time></trkpt><trkpt lat="41.0844683" lon="14.3653233"><ele>130.14285714285714</ele><time>2026-03-25T13:15:37.129Z</time></trkpt><trkpt lat="41.0845" lon="14.3654"><ele>131.42857142857142</ele><time>2026-03-25T13:15:40.13Z</time></trkpt><trkpt lat="41.0845583" lon="14.36544"><ele>132.71428571428572</ele><time>2026-03-25T13:15:43.129Z</time></trkpt><trkpt lat="41.0846017" lon="14.365515"><ele>134.0</ele><time>2026-03-25T13:15:46.13Z</time></trkpt><trkpt lat="41.0846533" lon="14.3655667"><ele>134.0</ele><time>2026-03-25T13:15:49.13Z</time></trkpt><trkpt lat="41.08472" lon="14.3656267"><ele>134.0</ele><time>2026-03-25T13:15:53.129Z</time></trkpt><trkpt lat="41.0847967" lon="14.3656283"><ele>134.0</ele><time>2026-03-25T13:15:57.129Z</time></trkpt><trkpt lat="41.0848633" lon="14.3655983"><ele>134.0</ele><time>2026-03-25T13:16:00.129Z</time></trkpt><trkpt lat="41.0849267" lon="14.3655467"><ele>134.0</ele><time>2026-03-25T13:16:04.129Z</time></trkpt><trkpt lat="41.084975" lon="14.3654533"><ele>134.0</ele><time>2026-03-25T13:16:08.13Z</time></trkpt><trkpt lat="41.0850383" lon="14.36544"><ele>135.0</ele><time>2026-03-25T13:16:11.13Z</time></trkpt><trkpt lat="41.0851267" lon="14.3654033"><ele>136.0</ele><time>2026-03-25T13:16:14.129Z</time></trkpt><trkpt lat="41.085195" lon="14.365325"><ele>137.0</ele><time>2026-03-25T13:16:17.128Z</time></trkpt><trkpt lat="41.085245" lon="14.36526"><ele>138.0</ele><time>2026-03-25T13:16:20.13Z</time></trkpt><trkpt lat="41.0852983" lon="14.365205"><ele>139.0</ele><time>2026-03-25T13:16:23.129Z</time></trkpt><trkpt lat="41.08535" lon="14.3651467"><ele>140.0</ele><time>2026-03-25T13:16:25.13Z</time></trkpt><trkpt lat="41.0853833" lon="14.3650683"><ele>140.0</ele><time>2026-03-25T13:16:28.128Z</time></trkpt><trkpt lat="41.0854433" lon="14.3650017"><ele>140.0</ele><time>2026-03-25T13:16:31.128Z</time></trkpt><trkpt lat="41.0855117" lon="14.36494"><ele>140.0</ele><time>2026-03-25T13:16:33.129Z</time></trkpt><trkpt lat="41.0855683" lon="14.3648983"><ele>140.0</ele><time>2026-03-25T13:16:35.13Z</time></trkpt><trkpt lat="41.0856417" lon="14.3648233"><ele>140.0</ele><time>2026-03-25T13:16:38.13Z</time></trkpt><trkpt lat="41.085695" lon="14.364745"><ele>140.0</ele><time>2026-03-25T13:16:40.128Z</time></trkpt><trkpt lat="41.0857517" lon="14.3646767"><ele>140.33333333333331</ele><time>2026-03-25T13:16:42.128Z</time></trkpt><trkpt lat="41.08581" lon="14.364635"><ele>140.66666666666666</ele><time>2026-03-25T13:16:44.129Z</time></trkpt><trkpt lat="41.085885" lon="14.3646183"><ele>141.0</ele><time>2026-03-25T13:16:47.128Z</time></trkpt><trkpt lat="41.0859817" lon="14.3645583"><ele>141.33333333333334</ele><time>2026-03-25T13:16:50.129Z</time></trkpt><trkpt lat="41.0860333" lon="14.364505"><ele>141.66666666666669</ele><time>2026-03-25T13:16:52.129Z</time></trkpt><trkpt lat="41.0860917" lon="14.36444"><ele>142.0</ele><time>2026-03-25T13:16:54.129Z</time></trkpt><trkpt lat="41.0861567" lon="14.3643383"><ele>142.0</ele><time>2026-03-25T13:16:56.13Z</time></trkpt><trkpt lat="41.086205" lon="14.3642283"><ele>142.0</ele><time>2026-03-25T13:16:58.128Z</time></trkpt><trkpt lat="41.0862733" lon="14.36413"><ele>142.0</ele><time>2026-03-25T13:17:00.128Z</time></trkpt><trkpt lat="41.0863433" lon="14.36405"><ele>142.0</ele><time>2026-03-25T13:17:02.13Z</time></trkpt><trkpt lat="41.0864217" lon="14.3640033"><ele>142.0</ele><time>2026-03-25T13:17:04.129Z</time></trkpt><trkpt lat="41.0865033" lon="14.3639567"><ele>142.0</ele><time>2026-03-25T13:17:06.129Z</time></trkpt><trkpt lat="41.0865867" lon="14.3639317"><ele>142.0</ele><time>2026-03-25T13:17:08.128Z</time></trkpt><trkpt lat="41.0866517" lon="14.3639133"><ele>142.0</ele><time>2026-03-25T13:17:10.13Z</time></trkpt><trkpt lat="41.08672" lon="14.3638667"><ele>142.0</ele><time>2026-03-25T13:17:12.128Z</time></trkpt><trkpt lat="41.0867883" lon="14.3638267"><ele>142.0</ele><time>2026-03-25T13:17:15.129Z</time></trkpt><trkpt lat="41.08685" lon="14.36379"><ele>142.0</ele><time>2026-03-25T13:17:17.129Z</time></trkpt><trkpt lat="41.0869267" lon="14.36375"><ele>142.0</ele><time>2026-03-25T13:17:19.13Z</time></trkpt><trkpt lat="41.0870017" lon="14.3637167"><ele>142.0</ele><time>2026-03-25T13:17:21.129Z</time></trkpt><trkpt lat="41.087065" lon="14.3636817"><ele>142.0</ele><time>2026-03-25T13:17:23.13Z</time></trkpt><trkpt lat="41.0871283" lon="14.363645"><ele>142.0</ele><time>2026-03-25T13:17:25.128Z</time></trkpt><trkpt lat="41.0872133" lon="14.3635917"><ele>142.0</ele><time>2026-03-25T13:17:27.128Z</time></trkpt><trkpt lat="41.0873067" lon="14.36351"><ele>142.0</ele><time>2026-03-25T13:17:29.129Z</time></trkpt><trkpt lat="41.0873983" lon="14.3633983"><ele>142.33333333333334</ele><time>2026-03-25T13:17:31.128Z</time></trkpt><trkpt lat="41.0874483" lon="14.363335"><ele>142.66666666666669</ele><time>2026-03-25T13:17:32.129Z</time></trkpt><trkpt lat="41.0874933" lon="14.3632667"><ele>143.0</ele><time>2026-03-25T13:17:33.129Z</time></trkpt><trkpt lat="41.08756" lon="14.3631433"><ele>143.33333333333334</ele><time>2026-03-25T13:17:35.129Z</time></trkpt><trkpt lat="41.087615" lon="14.3630333"><ele>143.66666666666666</ele><time>2026-03-25T13:17:37.13Z</time></trkpt><trkpt lat="41.0876783" lon="14.3629567"><ele>144.0</ele><time>2026-03-25T13:17:39.128Z</time></trkpt><trkpt lat="41.087735" lon="14.362895"><ele>144.0</ele><time>2026-03-25T13:17:41.13Z</time></trkpt><trkpt lat="41.0877933" lon="14.3628483"><ele>144.0</ele><time>2026-03-25T13:17:43.131Z</time></trkpt><trkpt lat="41.087865" lon="14.362785"><ele>144.0</ele><time>2026-03-25T13:17:46.129Z</time></trkpt><trkpt lat="41.08791" lon="14.3627083"><ele>144.0</ele><time>2026-03-25T13:17:48.129Z</time></trkpt><trkpt lat="41.0879633" lon="14.3626433"><ele>144.0</ele><time>2026-03-25T13:17:50.13Z</time></trkpt><trkpt lat="41.08803" lon="14.3625767"><ele>144.0</ele><time>2026-03-25T13:17:52.13Z</time></trkpt><trkpt lat="41.0880967" lon="14.3625017"><ele>144.0</ele><time>2026-03-25T13:17:54.13Z</time></trkpt><trkpt lat="41.088155" lon="14.3624267"><ele>144.0</ele><time>2026-03-25T13:17:56.131Z</time></trkpt><trkpt lat="41.08821" lon="14.3623533"><ele>144.0</ele><time>2026-03-25T13:17:58.129Z</time></trkpt><trkpt lat="41.0882833" lon="14.3622867"><ele>144.0</ele><time>2026-03-25T13:18:00.129Z</time></trkpt><trkpt lat="41.0883717" lon="14.3622383"><ele>144.0</ele><time>2026-03-25T13:18:02.129Z</time></trkpt><trkpt lat="41.0884633" lon="14.362185"><ele>144.0</ele><time>2026-03-25T13:18:04.13Z</time></trkpt><trkpt lat="41.08855" lon="14.3621283"><ele>144.5</ele><time>2026-03-25T13:18:06.13Z</time></trkpt><trkpt lat="41.0886233" lon="14.3620667"><ele>145.0</ele><time>2026-03-25T13:18:08.129Z</time></trkpt><trkpt lat="41.0886917" lon="14.362025"><ele>145.5</ele><time>2026-03-25T13:18:10.13Z</time></trkpt><trkpt lat="41.0887667" lon="14.3620117"><ele>146.0</ele><time>2026-03-25T13:18:12.13Z</time></trkpt><trkpt lat="41.0888767" lon="14.36196"><ele>146.5</ele><time>2026-03-25T13:18:15.129Z</time></trkpt><trkpt lat="41.0889317" lon="14.3619167"><ele>147.0</ele><time>2026-03-25T13:18:17.129Z</time></trkpt><trkpt lat="41.0889983" lon="14.3618733"><ele>147.0</ele><time>2026-03-25T13:18:19.129Z</time></trkpt><trkpt lat="41.0890733" lon="14.3618283"><ele>147.0</ele><time>2026-03-25T13:18:21.13Z</time></trkpt><trkpt lat="41.0891683" lon="14.3617833"><ele>147.0</ele><time>2026-03-25T13:18:23.13Z</time></trkpt><trkpt lat="41.08926" lon="14.361735"><ele>147.0</ele><time>2026-03-25T13:18:25.13Z</time></trkpt><trkpt lat="41.0893367" lon="14.3616883"><ele>147.0</ele><time>2026-03-25T13:18:27.129Z</time></trkpt><trkpt lat="41.0894117" lon="14.3616333"><ele>147.0</ele><time>2026-03-25T13:18:29.13Z</time></trkpt><trkpt lat="41.0894867" lon="14.3615783"><ele>147.0</ele><time>2026-03-25T13:18:31.129Z</time></trkpt><trkpt lat="41.08955" lon="14.3615217"><ele>147.0</ele><time>2026-03-25T13:18:33.129Z</time></trkpt><trkpt lat="41.089615" lon="14.36147"><ele>147.0</ele><time>2026-03-25T13:18:35.13Z</time></trkpt><trkpt lat="41.0897017" lon="14.3614183"><ele>147.0</ele><time>2026-03-25T13:18:37.129Z</time></trkpt><trkpt lat="41.089775" lon="14.3613833"><ele>147.0</ele><time>2026-03-25T13:18:39.128Z</time></trkpt><trkpt lat="41.0898417" lon="14.361315"><ele>147.0</ele><time>2026-03-25T13:18:41.13Z</time></trkpt><trkpt lat="41.0898983" lon="14.3612383"><ele>147.0</ele><time>2026-03-25T13:18:43.131Z</time></trkpt><trkpt lat="41.0899433" lon="14.3611667"><ele>147.0</ele><time>2026-03-25T13:18:45.13Z</time></trkpt><trkpt lat="41.0899883" lon="14.361075"><ele>147.0</ele><time>2026-03-25T13:18:47.131Z</time></trkpt><trkpt lat="41.0900333" lon="14.360975"><ele>147.0</ele><time>2026-03-25T13:18:49.13Z</time></trkpt><trkpt lat="41.0900883" lon="14.3608567"><ele>147.0</ele><time>2026-03-25T13:18:51.13Z</time></trkpt><trkpt lat="41.0901383" lon="14.360735"><ele>147.33333333333334</ele><time>2026-03-25T13:18:53.13Z</time></trkpt><trkpt lat="41.090195" lon="14.3606067"><ele>147.66666666666666</ele><time>2026-03-25T13:18:55.129Z</time></trkpt><trkpt lat="41.0902233" lon="14.3605317"><ele>148.0</ele><time>2026-03-25T13:18:56.129Z</time></trkpt><trkpt lat="41.0902533" lon="14.3604567"><ele>148.33333333333331</ele><time>2026-03-25T13:18:57.131Z</time></trkpt><trkpt lat="41.0902817" lon="14.3603817"><ele>148.66666666666666</ele><time>2026-03-25T13:18:58.13Z</time></trkpt><trkpt lat="41.09034" lon="14.3602483"><ele>149.0</ele><time>2026-03-25T13:19:00.13Z</time></trkpt><trkpt lat="41.0903933" lon="14.36011"><ele>149.0</ele><time>2026-03-25T13:19:02.13Z</time></trkpt><trkpt lat="41.0904233" lon="14.3600333"><ele>149.0</ele><time>2026-03-25T13:19:03.13Z</time></trkpt><trkpt lat="41.09046" lon="14.3599517"><ele>149.0</ele><time>2026-03-25T13:19:04.13Z</time></trkpt><trkpt lat="41.0904967" lon="14.3598733"><ele>149.0</ele><time>2026-03-25T13:19:05.129Z</time></trkpt><trkpt lat="41.0905383" lon="14.3597983"><ele>149.0</ele><time>2026-03-25T13:19:06.13Z</time></trkpt><trkpt lat="41.09058" lon="14.35972"><ele>149.0</ele><time>2026-03-25T13:19:07.132Z</time></trkpt><trkpt lat="41.09061" lon="14.3596383"><ele>149.0</ele><time>2026-03-25T13:19:08.13Z</time></trkpt><trkpt lat="41.0906467" lon="14.3595517"><ele>149.0</ele><time>2026-03-25T13:19:09.133Z</time></trkpt><trkpt lat="41.0906817" lon="14.3594633"><ele>149.0</ele><time>2026-03-25T13:19:10.13Z</time></trkpt><trkpt lat="41.0907267" lon="14.359385"><ele>149.0</ele><time>2026-03-25T13:19:11.13Z</time></trkpt><trkpt lat="41.0907767" lon="14.3593033"><ele>149.0</ele><time>2026-03-25T13:19:12.129Z</time></trkpt><trkpt lat="41.0908367" lon="14.359245"><ele>149.0</ele><time>2026-03-25T13:19:13.13Z</time></trkpt><trkpt lat="41.0908817" lon="14.3591667"><ele>149.0</ele><time>2026-03-25T13:19:14.129Z</time></trkpt><trkpt lat="41.0909217" lon="14.35909"><ele>149.0</ele><time>2026-03-25T13:19:15.128Z</time></trkpt><trkpt lat="41.0909667" lon="14.3590217"><ele>149.0</ele><time>2026-03-25T13:19:16.129Z</time></trkpt><trkpt lat="41.0909883" lon="14.3589233"><ele>149.0</ele><time>2026-03-25T13:19:17.129Z</time></trkpt><trkpt lat="41.090985" lon="14.3588383"><ele>149.0</ele><time>2026-03-25T13:19:18.129Z</time></trkpt><trkpt lat="41.0909717" lon="14.35875"><ele>149.0</ele><time>2026-03-25T13:19:19.129Z</time></trkpt><trkpt lat="41.0909667" lon="14.35858"><ele>149.0</ele><time>2026-03-25T13:19:21.127Z</time></trkpt><trkpt lat="41.09097" lon="14.358495"><ele>149.0</ele><time>2026-03-25T13:19:22.129Z</time></trkpt><trkpt lat="41.0909767" lon="14.3584067"><ele>148.6</ele><time>2026-03-25T13:19:23.127Z</time></trkpt><trkpt lat="41.0909983" lon="14.3583217"><ele>148.2</ele><time>2026-03-25T13:19:24.129Z</time></trkpt><trkpt lat="41.0910367" lon="14.358165"><ele>147.79999999999998</ele><time>2026-03-25T13:19:26.128Z</time></trkpt><trkpt lat="41.091065" lon="14.35809"><ele>147.4</ele><time>2026-03-25T13:19:27.128Z</time></trkpt><trkpt lat="41.091105" lon="14.357955"><ele>147.0</ele><time>2026-03-25T13:19:29.128Z</time></trkpt><trkpt lat="41.091165" lon="14.3578033"><ele>146.66666666666666</ele><time>2026-03-25T13:19:31.129Z</time></trkpt><trkpt lat="41.0912033" lon="14.35768"><ele>146.33333333333334</ele><time>2026-03-25T13:19:32.13Z</time></trkpt><trkpt lat="41.0912267" lon="14.3575917"><ele>146.0</ele><time>2026-03-25T13:19:33.129Z</time></trkpt><trkpt lat="41.0912517" lon="14.3575133"><ele>145.66666666666669</ele><time>2026-03-25T13:19:34.129Z</time></trkpt><trkpt lat="41.091235" lon="14.3574183"><ele>145.33333333333334</ele><time>2026-03-25T13:19:35.129Z</time></trkpt><trkpt lat="41.0912633" lon="14.3573433"><ele>145.0</ele><time>2026-03-25T13:19:36.128Z</time></trkpt><trkpt lat="41.0913217" lon="14.3572"><ele>144.0</ele><time>2026-03-25T13:19:38.129Z</time></trkpt><trkpt lat="41.0913483" lon="14.3571217"><ele>143.0</ele><time>2026-03-25T13:19:39.128Z</time></trkpt><trkpt lat="41.09141" lon="14.3569833"><ele>142.0</ele><time>2026-03-25T13:19:41.129Z</time></trkpt><trkpt lat="41.09145" lon="14.3568533"><ele>141.0</ele><time>2026-03-25T13:19:43.129Z</time></trkpt><trkpt lat="41.0914983" lon="14.356715"><ele>140.0</ele><time>2026-03-25T13:19:45.129Z</time></trkpt><trkpt lat="41.0915517" lon="14.3565867"><ele>141.0</ele><time>2026-03-25T13:19:47.129Z</time></trkpt><trkpt lat="41.09161" lon="14.3564717"><ele>142.0</ele><time>2026-03-25T13:19:49.13Z</time></trkpt><trkpt lat="41.091685" lon="14.3563867"><ele>143.0</ele><time>2026-03-25T13:19:51.128Z</time></trkpt><trkpt lat="41.0917667" lon="14.3563083"><ele>144.0</ele><time>2026-03-25T13:19:53.13Z</time></trkpt><trkpt lat="41.091845" lon="14.3562167"><ele>145.0</ele><time>2026-03-25T13:19:55.13Z</time></trkpt><trkpt lat="41.0919233" lon="14.3561233"><ele>145.0</ele><time>2026-03-25T13:19:57.129Z</time></trkpt><trkpt lat="41.091995" lon="14.3560283"><ele>145.0</ele><time>2026-03-25T13:19:59.129Z</time></trkpt><trkpt lat="41.0920617" lon="14.3559217"><ele>145.0</ele><time>2026-03-25T13:20:01.13Z</time></trkpt><trkpt lat="41.0921217" lon="14.3558117"><ele>145.0</ele><time>2026-03-25T13:20:03.129Z</time></trkpt><trkpt lat="41.09216" lon="14.355695"><ele>145.0</ele><time>2026-03-25T13:20:05.128Z</time></trkpt><trkpt lat="41.0921867" lon="14.3555533"><ele>143.75</ele><time>2026-03-25T13:20:07.129Z</time></trkpt><trkpt lat="41.0922017" lon="14.3553967"><ele>142.5</ele><time>2026-03-25T13:20:09.129Z</time></trkpt><trkpt lat="41.0922317" lon="14.3552533"><ele>141.25</ele><time>2026-03-25T13:20:11.129Z</time></trkpt><trkpt lat="41.0922667" lon="14.355115"><ele>140.0</ele><time>2026-03-25T13:20:13.13Z</time></trkpt><trkpt lat="41.0922883" lon="14.3549633"><ele>140.0</ele><time>2026-03-25T13:20:15.129Z</time></trkpt><trkpt lat="41.092325" lon="14.354845"><ele>140.0</ele><time>2026-03-25T13:20:17.129Z</time></trkpt><trkpt lat="41.0924133" lon="14.3548"><ele>140.0</ele><time>2026-03-25T13:20:19.129Z</time></trkpt><trkpt lat="41.09251" lon="14.35479"><ele>140.0</ele><time>2026-03-25T13:20:21.128Z</time></trkpt><trkpt lat="41.0925983" lon="14.35475"><ele>140.0</ele><time>2026-03-25T13:20:23.129Z</time></trkpt><trkpt lat="41.0926617" lon="14.3546617"><ele>140.8</ele><time>2026-03-25T13:20:25.129Z</time></trkpt><trkpt lat="41.0926883" lon="14.35453"><ele>141.6</ele><time>2026-03-25T13:20:27.129Z</time></trkpt><trkpt lat="41.0927017" lon="14.3543917"><ele>142.4</ele><time>2026-03-25T13:20:29.129Z</time></trkpt><trkpt lat="41.0927183" lon="14.3542633"><ele>143.2</ele><time>2026-03-25T13:20:31.129Z</time></trkpt><trkpt lat="41.0927467" lon="14.3541483"><ele>144.0</ele><time>2026-03-25T13:20:33.128Z</time></trkpt><trkpt lat="41.0927567" lon="14.3540367"><ele>144.0</ele><time>2026-03-25T13:20:35.13Z</time></trkpt><trkpt lat="41.092775" lon="14.353935"><ele>144.0</ele><time>2026-03-25T13:20:37.128Z</time></trkpt><trkpt lat="41.0927983" lon="14.3538433"><ele>144.0</ele><time>2026-03-25T13:20:39.131Z</time></trkpt><trkpt lat="41.0928717" lon="14.3538"><ele>144.0</ele><time>2026-03-25T13:20:46.129Z</time></trkpt><trkpt lat="41.0929517" lon="14.353795"><ele>144.0</ele><time>2026-03-25T13:20:49.129Z</time></trkpt><trkpt lat="41.09304" lon="14.3537817"><ele>144.0</ele><time>2026-03-25T13:20:52.129Z</time></trkpt><trkpt lat="41.093115" lon="14.3537867"><ele>144.2857142857143</ele><time>2026-03-25T13:20:54.13Z</time></trkpt><trkpt lat="41.0931817" lon="14.3537917"><ele>144.57142857142858</ele><time>2026-03-25T13:20:56.129Z</time></trkpt><trkpt lat="41.0932567" lon="14.3538067"><ele>144.85714285714286</ele><time>2026-03-25T13:20:58.13Z</time></trkpt><trkpt lat="41.0933333" lon="14.3538333"><ele>145.14285714285717</ele><time>2026-03-25T13:21:00.129Z</time></trkpt><trkpt lat="41.09341" lon="14.3538517"><ele>145.42857142857144</ele><time>2026-03-25T13:21:02.13Z</time></trkpt><trkpt lat="41.0934817" lon="14.3538817"><ele>145.71428571428572</ele><time>2026-03-25T13:21:04.131Z</time></trkpt><trkpt lat="41.093555" lon="14.353865"><ele>146.0</ele><time>2026-03-25T13:21:06.13Z</time></trkpt><trkpt lat="41.09363" lon="14.3538583"><ele>146.0</ele><time>2026-03-25T13:21:08.129Z</time></trkpt><trkpt lat="41.0937067" lon="14.35386"><ele>146.0</ele><time>2026-03-25T13:21:10.131Z</time></trkpt><trkpt lat="41.0937717" lon="14.3538883"><ele>146.0</ele><time>2026-03-25T13:21:12.13Z</time></trkpt><trkpt lat="41.0938433" lon="14.353865"><ele>146.0</ele><time>2026-03-25T13:21:14.129Z</time></trkpt><trkpt lat="41.093905" lon="14.3538917"><ele>146.0</ele><time>2026-03-25T13:21:16.13Z</time></trkpt><trkpt lat="41.0939783" lon="14.3539233"><ele>146.0</ele><time>2026-03-25T13:21:18.13Z</time></trkpt><trkpt lat="41.094045" lon="14.3539683"><ele>146.0</ele><time>2026-03-25T13:21:20.129Z</time></trkpt><trkpt lat="41.0940983" lon="14.3540483"><ele>147.0</ele><time>2026-03-25T13:21:23.129Z</time></trkpt><trkpt lat="41.09415" lon="14.3541067"><ele>148.0</ele><time>2026-03-25T13:21:25.13Z</time></trkpt><trkpt lat="41.0942033" lon="14.3541583"><ele>149.0</ele><time>2026-03-25T13:21:27.129Z</time></trkpt><trkpt lat="41.094265" lon="14.35419"><ele>150.0</ele><time>2026-03-25T13:21:29.129Z</time></trkpt><trkpt lat="41.0943483" lon="14.3542233"><ele>151.0</ele><time>2026-03-25T13:21:32.128Z</time></trkpt><trkpt lat="41.0944183" lon="14.3542517"><ele>152.0</ele><time>2026-03-25T13:21:35.129Z</time></trkpt><trkpt lat="41.09445" lon="14.3543583"><ele>153.0</ele><time>2026-03-25T13:21:38.129Z</time></trkpt><trkpt lat="41.0944967" lon="14.3544367"><ele>153.0</ele><time>2026-03-25T13:21:41.13Z</time></trkpt><trkpt lat="41.0945617" lon="14.3544467"><ele>153.0</ele><time>2026-03-25T13:21:44.13Z</time></trkpt><trkpt lat="41.0945983" lon="14.3543517"><ele>153.0</ele><time>2026-03-25T13:21:47.129Z</time></trkpt><trkpt lat="41.094635" lon="14.3542567"><ele>153.0</ele><time>2026-03-25T13:21:50.129Z</time></trkpt><trkpt lat="41.0946567" lon="14.35415"><ele>153.0</ele><time>2026-03-25T13:21:53.13Z</time></trkpt><trkpt lat="41.0946683" lon="14.354055"><ele>153.0</ele><time>2026-03-25T13:21:55.131Z</time></trkpt><trkpt lat="41.09465" lon="14.353975"><ele>153.0</ele><time>2026-03-25T13:21:57.13Z</time></trkpt><trkpt lat="41.0946567" lon="14.353855"><ele>152.5</ele><time>2026-03-25T13:22:00.132Z</time></trkpt><trkpt lat="41.0946183" lon="14.353755"><ele>152.0</ele><time>2026-03-25T13:22:03.133Z</time></trkpt><trkpt lat="41.09459" lon="14.3536783"><ele>151.5</ele><time>2026-03-25T13:22:05.131Z</time></trkpt><trkpt lat="41.0945267" lon="14.3535533"><ele>151.0</ele><time>2026-03-25T13:22:07.132Z</time></trkpt><trkpt lat="41.0945433" lon="14.3534583"><ele>150.5</ele><time>2026-03-25T13:22:09.131Z</time></trkpt><trkpt lat="41.0945533" lon="14.3533667"><ele>150.0</ele><time>2026-03-25T13:22:11.132Z</time></trkpt><trkpt lat="41.0945683" lon="14.353215"><ele>150.0</ele><time>2026-03-25T13:22:13.13Z</time></trkpt><trkpt lat="41.094585" lon="14.35311"><ele>150.0</ele><time>2026-03-25T13:22:15.13Z</time></trkpt><trkpt lat="41.094555" lon="14.352995"><ele>150.0</ele><time>2026-03-25T13:22:16.131Z</time></trkpt><trkpt lat="41.0945667" lon="14.352855"><ele>150.0</ele><time>2026-03-25T13:22:18.131Z</time></trkpt><trkpt lat="41.0946" lon="14.3527433"><ele>150.0</ele><time>2026-03-25T13:22:20.129Z</time></trkpt><trkpt lat="41.094615" lon="14.352615"><ele>149.6</ele><time>2026-03-25T13:22:22.129Z</time></trkpt><trkpt lat="41.0946217" lon="14.3524867"><ele>149.2</ele><time>2026-03-25T13:22:24.13Z</time></trkpt><trkpt lat="41.0946133" lon="14.35236"><ele>148.8</ele><time>2026-03-25T13:22:26.13Z</time></trkpt><trkpt lat="41.0945933" lon="14.352245"><ele>148.4</ele><time>2026-03-25T13:22:28.131Z</time></trkpt><trkpt lat="41.0945783" lon="14.3521033"><ele>148.0</ele><time>2026-03-25T13:22:29.131Z</time></trkpt><trkpt lat="41.0945567" lon="14.3520117"><ele>147.5</ele><time>2026-03-25T13:22:30.129Z</time></trkpt><trkpt lat="41.0945517" lon="14.35192"><ele>147.0</ele><time>2026-03-25T13:22:31.131Z</time></trkpt><trkpt lat="41.0945483" lon="14.3518217"><ele>146.5</ele><time>2026-03-25T13:22:32.13Z</time></trkpt><trkpt lat="41.094555" lon="14.3516767"><ele>146.0</ele><time>2026-03-25T13:22:34.131Z</time></trkpt><trkpt lat="41.0945583" lon="14.35156"><ele>145.5</ele><time>2026-03-25T13:22:36.133Z</time></trkpt><trkpt lat="41.0945517" lon="14.3514633"><ele>145.0</ele><time>2026-03-25T13:22:38.13Z</time></trkpt><trkpt lat="41.0945633" lon="14.3513717"><ele>144.83333333333334</ele><time>2026-03-25T13:22:40.13Z</time></trkpt><trkpt lat="41.0945767" lon="14.3512817"><ele>144.66666666666669</ele><time>2026-03-25T13:22:42.129Z</time></trkpt><trkpt lat="41.094575" lon="14.3511667"><ele>144.5</ele><time>2026-03-25T13:22:45.13Z</time></trkpt><trkpt lat="41.0945717" lon="14.3510717"><ele>144.33333333333334</ele><time>2026-03-25T13:22:47.13Z</time></trkpt><trkpt lat="41.0945683" lon="14.3509717"><ele>144.16666666666666</ele><time>2026-03-25T13:22:49.133Z</time></trkpt><trkpt lat="41.0945717" lon="14.3508567"><ele>144.0</ele><time>2026-03-25T13:22:51.13Z</time></trkpt><trkpt lat="41.0945833" lon="14.350735"><ele>144.0</ele><time>2026-03-25T13:22:53.131Z</time></trkpt><trkpt lat="41.0945767" lon="14.350605"><ele>144.0</ele><time>2026-03-25T13:22:55.133Z</time></trkpt><trkpt lat="41.0945533" lon="14.35049"><ele>144.0</ele><time>2026-03-25T13:22:57.131Z</time></trkpt><trkpt lat="41.0945983" lon="14.3504017"><ele>144.0</ele><time>2026-03-25T13:23:00.13Z</time></trkpt><trkpt lat="41.0946383" lon="14.3502733"><ele>144.0</ele><time>2026-03-25T13:23:03.13Z</time></trkpt><trkpt lat="41.0946617" lon="14.350165"><ele>144.33333333333334</ele><time>2026-03-25T13:23:05.13Z</time></trkpt><trkpt lat="41.0946933" lon="14.3500567"><ele>144.66666666666666</ele><time>2026-03-25T13:23:07.13Z</time></trkpt><trkpt lat="41.0947517" lon="14.349955"><ele>145.0</ele><time>2026-03-25T13:23:09.13Z</time></trkpt><trkpt lat="41.0948083" lon="14.3498767"><ele>145.33333333333331</ele><time>2026-03-25T13:23:11.131Z</time></trkpt><trkpt lat="41.09486" lon="14.349785"><ele>145.66666666666666</ele><time>2026-03-25T13:23:13.131Z</time></trkpt><trkpt lat="41.0949067" lon="14.3496967"><ele>146.0</ele><time>2026-03-25T13:23:15.13Z</time></trkpt><trkpt lat="41.0949667" lon="14.3496033"><ele>146.0</ele><time>2026-03-25T13:23:17.131Z</time></trkpt><trkpt lat="41.0950383" lon="14.3495167"><ele>146.0</ele><time>2026-03-25T13:23:19.131Z</time></trkpt><trkpt lat="41.0950883" lon="14.3494283"><ele>146.0</ele><time>2026-03-25T13:23:21.131Z</time></trkpt><trkpt lat="41.0951333" lon="14.3493467"><ele>146.0</ele><time>2026-03-25T13:23:23.13Z</time></trkpt><trkpt lat="41.09518" lon="14.3492667"><ele>146.0</ele><time>2026-03-25T13:23:25.131Z</time></trkpt><trkpt lat="41.0952283" lon="14.3491833"><ele>146.0</ele><time>2026-03-25T13:23:27.13Z</time></trkpt><trkpt lat="41.09529" lon="14.3491083"><ele>146.0</ele><time>2026-03-25T13:23:29.132Z</time></trkpt><trkpt lat="41.0953467" lon="14.3490333"><ele>146.0</ele><time>2026-03-25T13:23:31.131Z</time></trkpt><trkpt lat="41.0954" lon="14.3489633"><ele>146.0</ele><time>2026-03-25T13:23:33.131Z</time></trkpt><trkpt lat="41.095445" lon="14.3488917"><ele>146.0</ele><time>2026-03-25T13:23:35.131Z</time></trkpt><trkpt lat="41.0954917" lon="14.3488133"><ele>146.0</ele><time>2026-03-25T13:23:37.13Z</time></trkpt><trkpt lat="41.0955383" lon="14.3487267"><ele>146.0</ele><time>2026-03-25T13:23:39.13Z</time></trkpt><trkpt lat="41.0955833" lon="14.34866"><ele>146.0</ele><time>2026-03-25T13:23:41.133Z</time></trkpt><trkpt lat="41.09563" lon="14.348595"><ele>145.57142857142856</ele><time>2026-03-25T13:23:43.13Z</time></trkpt><trkpt lat="41.0956817" lon="14.3485267"><ele>145.14285714285714</ele><time>2026-03-25T13:23:45.132Z</time></trkpt><trkpt lat="41.095735" lon="14.34846"><ele>144.71428571428572</ele><time>2026-03-25T13:23:47.131Z</time></trkpt><trkpt lat="41.0957783" lon="14.3483917"><ele>144.28571428571428</ele><time>2026-03-25T13:23:49.131Z</time></trkpt><trkpt lat="41.0958233" lon="14.3483167"><ele>143.85714285714286</ele><time>2026-03-25T13:23:51.131Z</time></trkpt><trkpt lat="41.0958733" lon="14.3482417"><ele>143.42857142857142</ele><time>2026-03-25T13:23:53.131Z</time></trkpt><trkpt lat="41.0959333" lon="14.34817"><ele>143.0</ele><time>2026-03-25T13:23:55.131Z</time></trkpt><trkpt lat="41.09599" lon="14.3480883"><ele>144.14285714285714</ele><time>2026-03-25T13:23:57.129Z</time></trkpt><trkpt lat="41.09604" lon="14.3480067"><ele>145.28571428571428</ele><time>2026-03-25T13:23:59.13Z</time></trkpt><trkpt lat="41.0960783" lon="14.34792"><ele>146.42857142857144</ele><time>2026-03-25T13:24:01.131Z</time></trkpt><trkpt lat="41.09612" lon="14.347845"><ele>147.57142857142856</ele><time>2026-03-25T13:24:03.129Z</time></trkpt><trkpt lat="41.0961583" lon="14.3477717"><ele>148.71428571428572</ele><time>2026-03-25T13:24:05.131Z</time></trkpt><trkpt lat="41.0962" lon="14.3477"><ele>149.85714285714286</ele><time>2026-03-25T13:24:07.131Z</time></trkpt><trkpt lat="41.09623" lon="14.347625"><ele>151.0</ele><time>2026-03-25T13:24:09.13Z</time></trkpt><trkpt lat="41.0962667" lon="14.3475483"><ele>151.00000000000003</ele><time>2026-03-25T13:24:11.131Z</time></trkpt><trkpt lat="41.0963083" lon="14.3474767"><ele>151.0</ele><time>2026-03-25T13:24:13.132Z</time></trkpt><trkpt lat="41.0963517" lon="14.347405"><ele>151.0</ele><time>2026-03-25T13:24:15.131Z</time></trkpt><trkpt lat="41.0963967" lon="14.3473333"><ele>151.0</ele><time>2026-03-25T13:24:17.131Z</time></trkpt><trkpt lat="41.09644" lon="14.34727"><ele>151.0</ele><time>2026-03-25T13:24:19.131Z</time></trkpt><trkpt lat="41.0964817" lon="14.347205"><ele>151.00000000000003</ele><time>2026-03-25T13:24:21.134Z</time></trkpt><trkpt lat="41.0965217" lon="14.3471283"><ele>151.0</ele><time>2026-03-25T13:24:23.132Z</time></trkpt><trkpt lat="41.0965733" lon="14.34706"><ele>151.5</ele><time>2026-03-25T13:24:25.13Z</time></trkpt><trkpt lat="41.0966267" lon="14.346985"><ele>152.0</ele><time>2026-03-25T13:24:27.13Z</time></trkpt><trkpt lat="41.09668" lon="14.3469067"><ele>152.5</ele><time>2026-03-25T13:24:29.13Z</time></trkpt><trkpt lat="41.0967267" lon="14.3468333"><ele>153.0</ele><time>2026-03-25T13:24:31.131Z</time></trkpt><trkpt lat="41.096775" lon="14.346755"><ele>153.5</ele><time>2026-03-25T13:24:33.129Z</time></trkpt><trkpt lat="41.09683" lon="14.3466583"><ele>154.0</ele><time>2026-03-25T13:24:35.13Z</time></trkpt><trkpt lat="41.096885" lon="14.3465783"><ele>154.0</ele><time>2026-03-25T13:24:37.129Z</time></trkpt><trkpt lat="41.0969567" lon="14.3465033"><ele>154.0</ele><time>2026-03-25T13:24:39.13Z</time></trkpt><trkpt lat="41.09702" lon="14.3464233"><ele>154.0</ele><time>2026-03-25T13:24:41.129Z</time></trkpt><trkpt lat="41.0970633" lon="14.3463383"><ele>154.0</ele><time>2026-03-25T13:24:43.13Z</time></trkpt><trkpt lat="41.0971067" lon="14.3462717"><ele>154.0</ele><time>2026-03-25T13:24:45.129Z</time></trkpt><trkpt lat="41.0971517" lon="14.3462"><ele>154.0</ele><time>2026-03-25T13:24:47.13Z</time></trkpt><trkpt lat="41.0971983" lon="14.3461217"><ele>154.16666666666669</ele><time>2026-03-25T13:24:49.131Z</time></trkpt><trkpt lat="41.0972483" lon="14.3460517"><ele>154.33333333333334</ele><time>2026-03-25T13:24:51.129Z</time></trkpt><trkpt lat="41.0973017" lon="14.3459783"><ele>154.5</ele><time>2026-03-25T13:24:53.13Z</time></trkpt><trkpt lat="41.09735" lon="14.345915"><ele>154.66666666666666</ele><time>2026-03-25T13:24:55.13Z</time></trkpt><trkpt lat="41.0974133" lon="14.34582"><ele>154.83333333333331</ele><time>2026-03-25T13:24:58.129Z</time></trkpt><trkpt lat="41.09746" lon="14.3457467"><ele>155.0</ele><time>2026-03-25T13:25:00.129Z</time></trkpt><trkpt lat="41.0974983" lon="14.3456717"><ele>155.57142857142858</ele><time>2026-03-25T13:25:02.129Z</time></trkpt><trkpt lat="41.0975317" lon="14.3456"><ele>156.14285714285714</ele><time>2026-03-25T13:25:04.129Z</time></trkpt><trkpt lat="41.0975833" lon="14.345515"><ele>156.71428571428572</ele><time>2026-03-25T13:25:06.13Z</time></trkpt><trkpt lat="41.0976517" lon="14.3454633"><ele>157.28571428571428</ele><time>2026-03-25T13:25:08.13Z</time></trkpt><trkpt lat="41.0977067" lon="14.3453967"><ele>157.85714285714286</ele><time>2026-03-25T13:25:10.129Z</time></trkpt><trkpt lat="41.0977567" lon="14.3453217"><ele>158.42857142857142</ele><time>2026-03-25T13:25:12.129Z</time></trkpt><trkpt lat="41.0978" lon="14.3452533"><ele>159.0</ele><time>2026-03-25T13:25:14.129Z</time></trkpt><trkpt lat="41.0978567" lon="14.34517"><ele>159.0</ele><time>2026-03-25T13:25:17.129Z</time></trkpt><trkpt lat="41.0979133" lon="14.3450767"><ele>159.0</ele><time>2026-03-25T13:25:20.129Z</time></trkpt><trkpt lat="41.097975" lon="14.3449817"><ele>159.0</ele><time>2026-03-25T13:25:23.131Z</time></trkpt><trkpt lat="41.098015" lon="14.3449167"><ele>159.0</ele><time>2026-03-25T13:25:25.13Z</time></trkpt><trkpt lat="41.09807" lon="14.3448183"><ele>159.0</ele><time>2026-03-25T13:25:28.129Z</time></trkpt><trkpt lat="41.0981267" lon="14.3447283"><ele>159.0</ele><time>2026-03-25T13:25:31.13Z</time></trkpt><trkpt lat="41.0981883" lon="14.3446617"><ele>158.66666666666666</ele><time>2026-03-25T13:25:34.129Z</time></trkpt><trkpt lat="41.0982333" lon="14.3445917"><ele>158.33333333333334</ele><time>2026-03-25T13:25:36.13Z</time></trkpt><trkpt lat="41.0983117" lon="14.3445383"><ele>158.0</ele><time>2026-03-25T13:25:39.129Z</time></trkpt><trkpt lat="41.09839" lon="14.344505"><ele>157.66666666666669</ele><time>2026-03-25T13:25:42.129Z</time></trkpt><trkpt lat="41.0984717" lon="14.344455"><ele>157.33333333333334</ele><time>2026-03-25T13:25:45.129Z</time></trkpt><trkpt lat="41.098535" lon="14.3443767"><ele>157.0</ele><time>2026-03-25T13:25:48.129Z</time></trkpt><trkpt lat="41.0985783" lon="14.3442783"><ele>158.75</ele><time>2026-03-25T13:25:51.13Z</time></trkpt><trkpt lat="41.098695" lon="14.34418"><ele>160.5</ele><time>2026-03-25T13:28:24.13Z</time></trkpt><trkpt lat="41.09875" lon="14.3440717"><ele>162.25</ele><time>2026-03-25T13:28:27.13Z</time></trkpt><trkpt lat="41.0987783" lon="14.3439617"><ele>164.0</ele><time>2026-03-25T13:28:29.132Z</time></trkpt><trkpt lat="41.0988533" lon="14.3438233"><ele>164.0</ele><time>2026-03-25T13:28:31.131Z</time></trkpt><trkpt lat="41.098885" lon="14.34374"><ele>164.0</ele><time>2026-03-25T13:28:32.13Z</time></trkpt><trkpt lat="41.0989333" lon="14.343605"><ele>164.0</ele><time>2026-03-25T13:28:34.129Z</time></trkpt><trkpt lat="41.09898" lon="14.3434633"><ele>164.0</ele><time>2026-03-25T13:28:36.13Z</time></trkpt><trkpt lat="41.09898" lon="14.3433683"><ele>164.0</ele><time>2026-03-25T13:28:37.131Z</time></trkpt><trkpt lat="41.098985" lon="14.3432067"><ele>164.0</ele><time>2026-03-25T13:28:39.13Z</time></trkpt><trkpt lat="41.0989883" lon="14.3431167"><ele>164.0</ele><time>2026-03-25T13:28:40.13Z</time></trkpt><trkpt lat="41.0989867" lon="14.34299"><ele>164.0</ele><time>2026-03-25T13:28:42.13Z</time></trkpt><trkpt lat="41.0989683" lon="14.342865"><ele>164.0</ele><time>2026-03-25T13:28:44.129Z</time></trkpt><trkpt lat="41.0989383" lon="14.3427733"><ele>164.0</ele><time>2026-03-25T13:28:45.131Z</time></trkpt><trkpt lat="41.0989417" lon="14.3426817"><ele>164.0</ele><time>2026-03-25T13:28:46.129Z</time></trkpt><trkpt lat="41.0989333" lon="14.342505"><ele>163.79999999999998</ele><time>2026-03-25T13:28:48.13Z</time></trkpt><trkpt lat="41.0988967" lon="14.3423583"><ele>163.6</ele><time>2026-03-25T13:28:50.129Z</time></trkpt><trkpt lat="41.098885" lon="14.3422717"><ele>163.4</ele><time>2026-03-25T13:28:51.131Z</time></trkpt><trkpt lat="41.098855" lon="14.3421917"><ele>163.2</ele><time>2026-03-25T13:28:52.13Z</time></trkpt><trkpt lat="41.0988383" lon="14.342045"><ele>163.0</ele><time>2026-03-25T13:28:54.128Z</time></trkpt><trkpt lat="41.0988333" lon="14.341885"><ele>162.75</ele><time>2026-03-25T13:28:56.13Z</time></trkpt><trkpt lat="41.0988183" lon="14.3417317"><ele>162.5</ele><time>2026-03-25T13:28:58.13Z</time></trkpt><trkpt lat="41.0988033" lon="14.3415583"><ele>162.25</ele><time>2026-03-25T13:29:00.13Z</time></trkpt><trkpt lat="41.0987917" lon="14.341415"><ele>162.0</ele><time>2026-03-25T13:29:02.13Z</time></trkpt><trkpt lat="41.0987817" lon="14.3412733"><ele>162.0</ele><time>2026-03-25T13:29:04.129Z</time></trkpt><trkpt lat="41.09877" lon="14.3411483"><ele>162.0</ele><time>2026-03-25T13:29:06.132Z</time></trkpt><trkpt lat="41.0987317" lon="14.34103"><ele>162.0</ele><time>2026-03-25T13:29:08.13Z</time></trkpt><trkpt lat="41.0987383" lon="14.3409083"><ele>162.0</ele><time>2026-03-25T13:29:10.132Z</time></trkpt><trkpt lat="41.0987533" lon="14.3408267"><ele>162.0</ele><time>2026-03-25T13:29:11.13Z</time></trkpt><trkpt lat="41.098765" lon="14.3406917"><ele>162.0</ele><time>2026-03-25T13:29:13.129Z</time></trkpt><trkpt lat="41.0987617" lon="14.3405667"><ele>162.0</ele><time>2026-03-25T13:29:15.13Z</time></trkpt><trkpt lat="41.0987583" lon="14.34043"><ele>162.0</ele><time>2026-03-25T13:29:17.13Z</time></trkpt><trkpt lat="41.0987683" lon="14.340275"><ele>162.0</ele><time>2026-03-25T13:29:19.13Z</time></trkpt><trkpt lat="41.0987717" lon="14.3401167"><ele>162.0</ele><time>2026-03-25T13:29:21.129Z</time></trkpt><trkpt lat="41.0987733" lon="14.3399617"><ele>162.75</ele><time>2026-03-25T13:29:23.131Z</time></trkpt><trkpt lat="41.0987783" lon="14.3398033"><ele>163.5</ele><time>2026-03-25T13:29:25.129Z</time></trkpt><trkpt lat="41.0987817" lon="14.3396583"><ele>164.25</ele><time>2026-03-25T13:29:27.131Z</time></trkpt><trkpt lat="41.098785" lon="14.3394983"><ele>165.0</ele><time>2026-03-25T13:29:29.13Z</time></trkpt><trkpt lat="41.0987833" lon="14.33935"><ele>166.2</ele><time>2026-03-25T13:29:31.131Z</time></trkpt><trkpt lat="41.0987783" lon="14.3392083"><ele>167.4</ele><time>2026-03-25T13:29:33.131Z</time></trkpt><trkpt lat="41.0987717" lon="14.3390783"><ele>168.60000000000002</ele><time>2026-03-25T13:29:35.13Z</time></trkpt><trkpt lat="41.0987733" lon="14.338945"><ele>169.8</ele><time>2026-03-25T13:29:37.134Z</time></trkpt><trkpt lat="41.09877" lon="14.3388217"><ele>171.0</ele><time>2026-03-25T13:29:39.13Z</time></trkpt><trkpt lat="41.09877" lon="14.3387217"><ele>171.5</ele><time>2026-03-25T13:29:41.13Z</time></trkpt><trkpt lat="41.0987783" lon="14.33861"><ele>172.0</ele><time>2026-03-25T13:29:43.129Z</time></trkpt><trkpt lat="41.09877" lon="14.3384983"><ele>172.5</ele><time>2026-03-25T13:29:45.13Z</time></trkpt><trkpt lat="41.0987567" lon="14.3383967"><ele>173.0</ele><time>2026-03-25T13:29:47.129Z</time></trkpt><trkpt lat="41.0987583" lon="14.3382933"><ele>173.5</ele><time>2026-03-25T13:29:49.129Z</time></trkpt><trkpt lat="41.0987583" lon="14.33817"><ele>174.0</ele><time>2026-03-25T13:29:52.13Z</time></trkpt><trkpt lat="41.09876" lon="14.3380667"><ele>173.42857142857142</ele><time>2026-03-25T13:29:54.13Z</time></trkpt><trkpt lat="41.0987567" lon="14.337965"><ele>172.85714285714286</ele><time>2026-03-25T13:29:57.13Z</time></trkpt><trkpt lat="41.0987317" lon="14.3378817"><ele>172.28571428571428</ele><time>2026-03-25T13:30:00.129Z</time></trkpt><trkpt lat="41.0987167" lon="14.33778"><ele>171.71428571428572</ele><time>2026-03-25T13:30:03.13Z</time></trkpt><trkpt lat="41.0986817" lon="14.337695"><ele>171.14285714285714</ele><time>2026-03-25T13:30:06.13Z</time></trkpt><trkpt lat="41.098635" lon="14.3376233"><ele>170.57142857142858</ele><time>2026-03-25T13:30:09.13Z</time></trkpt><trkpt lat="41.0985583" lon="14.3375867"><ele>170.0</ele><time>2026-03-25T13:30:12.13Z</time></trkpt><trkpt lat="41.0984717" lon="14.3375567"><ele>170.0</ele><time>2026-03-25T13:30:14.131Z</time></trkpt><trkpt lat="41.0983533" lon="14.3374933"><ele>170.0</ele><time>2026-03-25T13:30:16.129Z</time></trkpt><trkpt lat="41.0982883" lon="14.33747"><ele>170.0</ele><time>2026-03-25T13:30:17.129Z</time></trkpt><trkpt lat="41.0982233" lon="14.3374483"><ele>170.0</ele><time>2026-03-25T13:30:18.132Z</time></trkpt><trkpt lat="41.0981483" lon="14.3374333"><ele>170.0</ele><time>2026-03-25T13:30:19.129Z</time></trkpt><trkpt lat="41.0980733" lon="14.3374167"><ele>170.0</ele><time>2026-03-25T13:30:20.129Z</time></trkpt><trkpt lat="41.0979967" lon="14.3373983"><ele>167.66666666666666</ele><time>2026-03-25T13:30:21.129Z</time></trkpt><trkpt lat="41.097915" lon="14.337375"><ele>165.33333333333331</ele><time>2026-03-25T13:30:22.129Z</time></trkpt><trkpt lat="41.0978333" lon="14.3373483"><ele>163.0</ele><time>2026-03-25T13:30:23.129Z</time></trkpt><trkpt lat="41.0977483" lon="14.3373217"><ele>160.66666666666666</ele><time>2026-03-25T13:30:24.128Z</time></trkpt><trkpt lat="41.0976683" lon="14.337295"><ele>158.33333333333334</ele><time>2026-03-25T13:30:25.128Z</time></trkpt><trkpt lat="41.0975867" lon="14.3372583"><ele>156.0</ele><time>2026-03-25T13:30:26.129Z</time></trkpt><trkpt lat="41.097505" lon="14.3372283"><ele>153.0</ele><time>2026-03-25T13:30:27.129Z</time></trkpt><trkpt lat="41.097415" lon="14.3372083"><ele>150.0</ele><time>2026-03-25T13:30:28.131Z</time></trkpt><trkpt lat="41.0973183" lon="14.337195"><ele>147.0</ele><time>2026-03-25T13:30:29.128Z</time></trkpt><trkpt lat="41.0972117" lon="14.3372"><ele>144.0</ele><time>2026-03-25T13:30:30.129Z</time></trkpt><trkpt lat="41.0971033" lon="14.3372133"><ele>141.0</ele><time>2026-03-25T13:30:31.129Z</time></trkpt><trkpt lat="41.0970017" lon="14.3372383"><ele>141.0</ele><time>2026-03-25T13:30:32.13Z</time></trkpt><trkpt lat="41.0969033" lon="14.3372683"><ele>141.0</ele><time>2026-03-25T13:30:33.129Z</time></trkpt><trkpt lat="41.096805" lon="14.33731"><ele>141.0</ele><time>2026-03-25T13:30:34.13Z</time></trkpt><trkpt lat="41.0967083" lon="14.337365"><ele>141.0</ele><time>2026-03-25T13:30:35.129Z</time></trkpt><trkpt lat="41.0966067" lon="14.337435"><ele>141.0</ele><time>2026-03-25T13:30:36.129Z</time></trkpt><trkpt lat="41.096515" lon="14.337515"><ele>139.33333333333334</ele><time>2026-03-25T13:30:37.129Z</time></trkpt><trkpt lat="41.0964317" lon="14.3375967"><ele>137.66666666666666</ele><time>2026-03-25T13:30:38.129Z</time></trkpt><trkpt lat="41.09636" lon="14.3376767"><ele>136.0</ele><time>2026-03-25T13:30:39.129Z</time></trkpt><trkpt lat="41.0963017" lon="14.337745"><ele>134.33333333333331</ele><time>2026-03-25T13:30:40.128Z</time></trkpt><trkpt lat="41.09625" lon="14.337795"><ele>132.66666666666666</ele><time>2026-03-25T13:30:41.128Z</time></trkpt><trkpt lat="41.0961733" lon="14.33786"><ele>131.0</ele><time>2026-03-25T13:30:43.129Z</time></trkpt><trkpt lat="41.09609" lon="14.3378667"><ele>131.0</ele><time>2026-03-25T13:30:46.13Z</time></trkpt><trkpt lat="41.0961133" lon="14.33774"><ele>131.0</ele><time>2026-03-25T13:30:49.13Z</time></trkpt><trkpt lat="41.0961883" lon="14.3376117"><ele>131.0</ele><time>2026-03-25T13:30:51.129Z</time></trkpt><trkpt lat="41.096235" lon="14.3375533"><ele>131.0</ele><time>2026-03-25T13:30:52.129Z</time></trkpt><trkpt lat="41.0962833" lon="14.337495"><ele>131.0</ele><time>2026-03-25T13:30:53.13Z</time></trkpt><trkpt lat="41.0963283" lon="14.3374317"><ele>131.0</ele><time>2026-03-25T13:30:54.132Z</time></trkpt><trkpt lat="41.09638" lon="14.3373633"><ele>131.0</ele><time>2026-03-25T13:30:55.13Z</time></trkpt><trkpt lat="41.09643" lon="14.3373"><ele>131.0</ele><time>2026-03-25T13:30:56.13Z</time></trkpt><trkpt lat="41.0964867" lon="14.3372383"><ele>131.0</ele><time>2026-03-25T13:30:57.132Z</time></trkpt><trkpt lat="41.09655" lon="14.3371783"><ele>131.0</ele><time>2026-03-25T13:30:58.13Z</time></trkpt><trkpt lat="41.0966283" lon="14.3371183"><ele>131.0</ele><time>2026-03-25T13:30:59.132Z</time></trkpt><trkpt lat="41.0966967" lon="14.3370617"><ele>131.0</ele><time>2026-03-25T13:31:00.129Z</time></trkpt><trkpt lat="41.0967683" lon="14.3370133"><ele>131.83333333333331</ele><time>2026-03-25T13:31:01.13Z</time></trkpt><trkpt lat="41.0968417" lon="14.3369617"><ele>132.66666666666666</ele><time>2026-03-25T13:31:02.13Z</time></trkpt><trkpt lat="41.0969117" lon="14.3369033"><ele>133.5</ele><time>2026-03-25T13:31:03.13Z</time></trkpt><trkpt lat="41.0969833" lon="14.3368367"><ele>134.33333333333334</ele><time>2026-03-25T13:31:04.13Z</time></trkpt><trkpt lat="41.097045" lon="14.33676"><ele>135.16666666666669</ele><time>2026-03-25T13:31:05.13Z</time></trkpt><trkpt lat="41.097105" lon="14.33668"><ele>136.0</ele><time>2026-03-25T13:31:06.13Z</time></trkpt><trkpt lat="41.0971517" lon="14.3365833"><ele>136.0</ele><time>2026-03-25T13:31:07.13Z</time></trkpt><trkpt lat="41.0971933" lon="14.3364767"><ele>136.0</ele><time>2026-03-25T13:31:08.131Z</time></trkpt><trkpt lat="41.0972317" lon="14.3363617"><ele>136.0</ele><time>2026-03-25T13:31:09.13Z</time></trkpt><trkpt lat="41.097275" lon="14.3362483"><ele>136.0</ele><time>2026-03-25T13:31:10.132Z</time></trkpt><trkpt lat="41.09731" lon="14.336135"><ele>136.0</ele><time>2026-03-25T13:31:11.13Z</time></trkpt><trkpt lat="41.0973433" lon="14.33603"><ele>134.66666666666669</ele><time>2026-03-25T13:31:12.131Z</time></trkpt><trkpt lat="41.0973683" lon="14.335935"><ele>133.33333333333334</ele><time>2026-03-25T13:31:13.13Z</time></trkpt><trkpt lat="41.097385" lon="14.3358483"><ele>132.0</ele><time>2026-03-25T13:31:14.13Z</time></trkpt><trkpt lat="41.0973983" lon="14.3357583"><ele>130.66666666666666</ele><time>2026-03-25T13:31:15.13Z</time></trkpt><trkpt lat="41.097375" lon="14.3356233"><ele>129.33333333333331</ele><time>2026-03-25T13:31:17.132Z</time></trkpt><trkpt lat="41.0972767" lon="14.3355483"><ele>128.0</ele><time>2026-03-25T13:31:19.133Z</time></trkpt><trkpt lat="41.097215" lon="14.3355017"><ele>127.99999999999999</ele><time>2026-03-25T13:31:20.131Z</time></trkpt><trkpt lat="41.0971317" lon="14.3354633"><ele>128.0</ele><time>2026-03-25T13:31:21.131Z</time></trkpt><trkpt lat="41.097055" lon="14.3354067"><ele>128.0</ele><time>2026-03-25T13:31:22.131Z</time></trkpt><trkpt lat="41.096965" lon="14.33535"><ele>128.0</ele><time>2026-03-25T13:31:23.133Z</time></trkpt><trkpt lat="41.0969017" lon="14.33529"><ele>127.99999999999999</ele><time>2026-03-25T13:31:24.131Z</time></trkpt><trkpt lat="41.096825" lon="14.3352417"><ele>128.0</ele><time>2026-03-25T13:31:25.129Z</time></trkpt><trkpt lat="41.096755" lon="14.3351867"><ele>127.99999999999999</ele><time>2026-03-25T13:31:26.13Z</time></trkpt><trkpt lat="41.0966867" lon="14.33514"><ele>128.0</ele><time>2026-03-25T13:31:27.13Z</time></trkpt><trkpt lat="41.0966183" lon="14.3351"><ele>128.0</ele><time>2026-03-25T13:31:28.13Z</time></trkpt><trkpt lat="41.0965567" lon="14.335065"><ele>128.0</ele><time>2026-03-25T13:31:29.13Z</time></trkpt><trkpt lat="41.0964567" lon="14.3350117"><ele>127.99999999999999</ele><time>2026-03-25T13:31:31.13Z</time></trkpt><trkpt lat="41.0963683" lon="14.3349617"><ele>128.0</ele><time>2026-03-25T13:31:33.13Z</time></trkpt><trkpt lat="41.0962817" lon="14.334965"><ele>126.83333333333333</ele><time>2026-03-25T13:31:35.131Z</time></trkpt><trkpt lat="41.0961983" lon="14.3350267"><ele>125.66666666666666</ele><time>2026-03-25T13:31:37.13Z</time></trkpt><trkpt lat="41.096135" lon="14.3351283"><ele>124.5</ele><time>2026-03-25T13:31:39.13Z</time></trkpt><trkpt lat="41.0960833" lon="14.3352167"><ele>123.33333333333334</ele><time>2026-03-25T13:31:41.131Z</time></trkpt><trkpt lat="41.096055" lon="14.3353017"><ele>122.16666666666667</ele><time>2026-03-25T13:31:43.13Z</time></trkpt><trkpt lat="41.0960367" lon="14.3353867"><ele>121.0</ele><time>2026-03-25T13:31:45.13Z</time></trkpt><trkpt lat="41.0960317" lon="14.3354883"><ele>121.16666666666667</ele><time>2026-03-25T13:31:47.13Z</time></trkpt><trkpt lat="41.096025" lon="14.3356017"><ele>121.33333333333334</ele><time>2026-03-25T13:31:49.131Z</time></trkpt><trkpt lat="41.0960017" lon="14.3356817"><ele>121.5</ele><time>2026-03-25T13:31:51.132Z</time></trkpt><trkpt lat="41.0959683" lon="14.335795"><ele>121.66666666666666</ele><time>2026-03-25T13:31:54.129Z</time></trkpt><trkpt lat="41.09594" lon="14.3359"><ele>121.83333333333333</ele><time>2026-03-25T13:31:57.131Z</time></trkpt><trkpt lat="41.09594" lon="14.3360033"><ele>122.0</ele><time>2026-03-25T13:32:00.13Z</time></trkpt><trkpt lat="41.09589" lon="14.3361117"><ele>121.99999999999999</ele><time>2026-03-25T13:32:32.132Z</time></trkpt><trkpt lat="41.0959117" lon="14.336195"><ele>122.0</ele><time>2026-03-25T13:32:35.131Z</time></trkpt><trkpt lat="41.0959117" lon="14.3362983"><ele>122.0</ele><time>2026-03-25T13:32:38.131Z</time></trkpt><trkpt lat="41.0959117" lon="14.3364117"><ele>122.0</ele><time>2026-03-25T13:32:41.131Z</time></trkpt><trkpt lat="41.0958967" lon="14.3365233"><ele>121.99999999999999</ele><time>2026-03-25T13:32:43.132Z</time></trkpt><trkpt lat="41.0958783" lon="14.33664"><ele>122.0</ele><time>2026-03-25T13:32:45.129Z</time></trkpt><trkpt lat="41.095885" lon="14.33675"><ele>122.6</ele><time>2026-03-25T13:32:47.131Z</time></trkpt><trkpt lat="41.0958367" lon="14.3368683"><ele>123.19999999999999</ele><time>2026-03-25T13:32:49.133Z</time></trkpt><trkpt lat="41.0957783" lon="14.3369717"><ele>123.8</ele><time>2026-03-25T13:32:51.13Z</time></trkpt><trkpt lat="41.09567" lon="14.337025"><ele>124.4</ele><time>2026-03-25T13:32:53.131Z</time></trkpt><trkpt lat="41.09556" lon="14.3370817"><ele>125.0</ele><time>2026-03-25T13:32:55.132Z</time></trkpt><trkpt lat="41.0955033" lon="14.3371183"><ele>123.83333333333333</ele><time>2026-03-25T13:32:56.13Z</time></trkpt><trkpt lat="41.0954417" lon="14.337165"><ele>122.66666666666666</ele><time>2026-03-25T13:32:57.13Z</time></trkpt><trkpt lat="41.0953733" lon="14.3372067"><ele>121.5</ele><time>2026-03-25T13:32:58.13Z</time></trkpt><trkpt lat="41.095295" lon="14.3372433"><ele>120.33333333333334</ele><time>2026-03-25T13:32:59.134Z</time></trkpt><trkpt lat="41.0952183" lon="14.3372783"><ele>119.16666666666667</ele><time>2026-03-25T13:33:00.133Z</time></trkpt><trkpt lat="41.09514" lon="14.3373117"><ele>118.0</ele><time>2026-03-25T13:33:01.134Z</time></trkpt><trkpt lat="41.095075" lon="14.337335"><ele>118.00000000000001</ele><time>2026-03-25T13:33:02.131Z</time></trkpt><trkpt lat="41.0950117" lon="14.3373467"><ele>118.0</ele><time>2026-03-25T13:33:03.133Z</time></trkpt><trkpt lat="41.09489" lon="14.3373617"><ele>118.0</ele><time>2026-03-25T13:33:05.132Z</time></trkpt><trkpt lat="41.094825" lon="14.3373717"><ele>118.0</ele><time>2026-03-25T13:33:06.133Z</time></trkpt><trkpt lat="41.0947583" lon="14.3373683"><ele>118.00000000000001</ele><time>2026-03-25T13:33:07.135Z</time></trkpt><trkpt lat="41.094695" lon="14.3373767"><ele>118.0</ele><time>2026-03-25T13:33:08.133Z</time></trkpt><trkpt lat="41.094625" lon="14.33739"><ele>117.16666666666667</ele><time>2026-03-25T13:33:09.132Z</time></trkpt><trkpt lat="41.0945617" lon="14.3374067"><ele>116.33333333333334</ele><time>2026-03-25T13:33:10.132Z</time></trkpt><trkpt lat="41.0944233" lon="14.3374533"><ele>115.5</ele><time>2026-03-25T13:33:12.134Z</time></trkpt><trkpt lat="41.09435" lon="14.337465"><ele>114.66666666666666</ele><time>2026-03-25T13:33:13.133Z</time></trkpt><trkpt lat="41.0942817" lon="14.3374833"><ele>113.83333333333333</ele><time>2026-03-25T13:33:14.132Z</time></trkpt><trkpt lat="41.0942167" lon="14.3374817"><ele>113.0</ele><time>2026-03-25T13:33:15.133Z</time></trkpt><trkpt lat="41.09412" lon="14.3375033"><ele>112.0</ele><time>2026-03-25T13:33:17.133Z</time></trkpt><trkpt lat="41.094015" lon="14.337475"><ele>111.00000000000001</ele><time>2026-03-25T13:33:19.133Z</time></trkpt><trkpt lat="41.093915" lon="14.3374817"><ele>110.00000000000001</ele><time>2026-03-25T13:33:21.131Z</time></trkpt><trkpt lat="41.0938133" lon="14.337475"><ele>109.0</ele><time>2026-03-25T13:33:23.134Z</time></trkpt><trkpt lat="41.0937617" lon="14.3374117"><ele>108.0</ele><time>2026-03-25T13:33:24.132Z</time></trkpt><trkpt lat="41.09369" lon="14.3373567"><ele>108.0</ele><time>2026-03-25T13:33:25.135Z</time></trkpt><trkpt lat="41.0936117" lon="14.3373267"><ele>108.00000000000001</ele><time>2026-03-25T13:33:26.134Z</time></trkpt><trkpt lat="41.0935233" lon="14.3371867"><ele>108.00000000000001</ele><time>2026-03-25T13:33:27.133Z</time></trkpt><trkpt lat="41.093445" lon="14.3371467"><ele>108.0</ele><time>2026-03-25T13:33:28.131Z</time></trkpt><trkpt lat="41.0933667" lon="14.337125"><ele>108.0</ele><time>2026-03-25T13:33:29.134Z</time></trkpt><trkpt lat="41.09326" lon="14.337075"><ele>107.0</ele><time>2026-03-25T13:33:31.134Z</time></trkpt><trkpt lat="41.0931983" lon="14.3370517"><ele>106.00000000000001</ele><time>2026-03-25T13:33:32.133Z</time></trkpt><trkpt lat="41.0930817" lon="14.3370233"><ele>105.0</ele><time>2026-03-25T13:33:34.134Z</time></trkpt><trkpt lat="41.0929683" lon="14.3369867"><ele>104.0</ele><time>2026-03-25T13:33:36.131Z</time></trkpt><trkpt lat="41.09285" lon="14.33693"><ele>103.0</ele><time>2026-03-25T13:33:38.132Z</time></trkpt><trkpt lat="41.09279" lon="14.336895"><ele>102.99999999999999</ele><time>2026-03-25T13:33:39.132Z</time></trkpt><trkpt lat="41.0927267" lon="14.3368483"><ele>103.0</ele><time>2026-03-25T13:33:40.133Z</time></trkpt><trkpt lat="41.0926767" lon="14.33679"><ele>103.0</ele><time>2026-03-25T13:33:41.135Z</time></trkpt><trkpt lat="41.0926233" lon="14.3367217"><ele>103.0</ele><time>2026-03-25T13:33:42.134Z</time></trkpt><trkpt lat="41.0925767" lon="14.336655"><ele>103.0</ele><time>2026-03-25T13:33:43.134Z</time></trkpt><trkpt lat="41.0925283" lon="14.3366"><ele>102.99999999999999</ele><time>2026-03-25T13:33:44.134Z</time></trkpt><trkpt lat="41.0924767" lon="14.336545"><ele>103.0</ele><time>2026-03-25T13:33:45.132Z</time></trkpt><trkpt lat="41.0923733" lon="14.33645"><ele>102.85714285714285</ele><time>2026-03-25T13:33:47.135Z</time></trkpt><trkpt lat="41.09232" lon="14.3364"><ele>102.71428571428571</ele><time>2026-03-25T13:33:48.134Z</time></trkpt><trkpt lat="41.0922667" lon="14.3363533"><ele>102.57142857142857</ele><time>2026-03-25T13:33:49.133Z</time></trkpt><trkpt lat="41.0922117" lon="14.336305"><ele>102.42857142857142</ele><time>2026-03-25T13:33:50.133Z</time></trkpt><trkpt lat="41.0921583" lon="14.3362567"><ele>102.28571428571429</ele><time>2026-03-25T13:33:51.133Z</time></trkpt><trkpt lat="41.092105" lon="14.33621"><ele>102.14285714285714</ele><time>2026-03-25T13:33:52.133Z</time></trkpt><trkpt lat="41.0920567" lon="14.3361533"><ele>102.0</ele><time>2026-03-25T13:33:53.134Z</time></trkpt><trkpt lat="41.0920067" lon="14.3360983"><ele>101.6</ele><time>2026-03-25T13:33:54.133Z</time></trkpt><trkpt lat="41.0919033" lon="14.335975"><ele>101.19999999999999</ele><time>2026-03-25T13:33:56.134Z</time></trkpt><trkpt lat="41.0918567" lon="14.33591"><ele>100.8</ele><time>2026-03-25T13:33:57.132Z</time></trkpt><trkpt lat="41.0918033" lon="14.3358517"><ele>100.4</ele><time>2026-03-25T13:33:58.133Z</time></trkpt><trkpt lat="41.0917017" lon="14.3357433"><ele>100.0</ele><time>2026-03-25T13:34:00.13Z</time></trkpt><trkpt lat="41.0916467" lon="14.3356783"><ele>100.00000000000001</ele><time>2026-03-25T13:34:01.134Z</time></trkpt><trkpt lat="41.0915917" lon="14.3356167"><ele>100.0</ele><time>2026-03-25T13:34:02.134Z</time></trkpt><trkpt lat="41.0915333" lon="14.335555"><ele>100.0</ele><time>2026-03-25T13:34:03.131Z</time></trkpt><trkpt lat="41.0914767" lon="14.3354983"><ele>100.0</ele><time>2026-03-25T13:34:04.134Z</time></trkpt><trkpt lat="41.0914183" lon="14.3354433"><ele>100.00000000000001</ele><time>2026-03-25T13:34:05.135Z</time></trkpt><trkpt lat="41.0913667" lon="14.33539"><ele>100.0</ele><time>2026-03-25T13:34:06.134Z</time></trkpt><trkpt lat="41.0912833" lon="14.335265"><ele>99.50000000000001</ele><time>2026-03-25T13:34:08.134Z</time></trkpt><trkpt lat="41.0912483" lon="14.3351917"><ele>99.0</ele><time>2026-03-25T13:34:09.133Z</time></trkpt><trkpt lat="41.091225" lon="14.33511"><ele>98.5</ele><time>2026-03-25T13:34:10.132Z</time></trkpt><trkpt lat="41.0912233" lon="14.3350217"><ele>98.0</ele><time>2026-03-25T13:34:11.133Z</time></trkpt><trkpt lat="41.0912283" lon="14.3349383"><ele>97.50000000000001</ele><time>2026-03-25T13:34:12.132Z</time></trkpt><trkpt lat="41.09124" lon="14.3347817"><ele>97.0</ele><time>2026-03-25T13:34:14.132Z</time></trkpt><trkpt lat="41.09126" lon="14.334645"><ele>97.0</ele><time>2026-03-25T13:34:16.132Z</time></trkpt><trkpt lat="41.0912683" lon="14.33453"><ele>97.0</ele><time>2026-03-25T13:34:18.132Z</time></trkpt><trkpt lat="41.0912633" lon="14.3344183"><ele>97.0</ele><time>2026-03-25T13:34:20.132Z</time></trkpt><trkpt lat="41.0912733" lon="14.3342933"><ele>97.0</ele><time>2026-03-25T13:34:22.133Z</time></trkpt><trkpt lat="41.09129" lon="14.33416"><ele>97.0</ele><time>2026-03-25T13:34:24.134Z</time></trkpt><trkpt lat="41.091305" lon="14.3340183"><ele>96.8</ele><time>2026-03-25T13:34:26.134Z</time></trkpt><trkpt lat="41.091305" lon="14.3338767"><ele>96.6</ele><time>2026-03-25T13:34:28.135Z</time></trkpt><trkpt lat="41.0913" lon="14.3337233"><ele>96.39999999999999</ele><time>2026-03-25T13:34:30.133Z</time></trkpt><trkpt lat="41.091295" lon="14.33358"><ele>96.19999999999999</ele><time>2026-03-25T13:34:32.133Z</time></trkpt><trkpt lat="41.0912917" lon="14.3334433"><ele>96.0</ele><time>2026-03-25T13:34:34.135Z</time></trkpt><trkpt lat="41.0912883" lon="14.3333217"><ele>96.0</ele><time>2026-03-25T13:34:36.134Z</time></trkpt><trkpt lat="41.0912833" lon="14.33319"><ele>96.0</ele><time>2026-03-25T13:34:38.134Z</time></trkpt><trkpt lat="41.0912767" lon="14.33306"><ele>96.0</ele><time>2026-03-25T13:34:40.134Z</time></trkpt><trkpt lat="41.0912667" lon="14.3329367"><ele>96.0</ele><time>2026-03-25T13:34:42.133Z</time></trkpt><trkpt lat="41.09124" lon="14.3328167"><ele>96.0</ele><time>2026-03-25T13:34:44.133Z</time></trkpt><trkpt lat="41.0911933" lon="14.3327117"><ele>95.8</ele><time>2026-03-25T13:34:46.132Z</time></trkpt><trkpt lat="41.091125" lon="14.33261"><ele>95.6</ele><time>2026-03-25T13:34:48.134Z</time></trkpt><trkpt lat="41.0910517" lon="14.332495"><ele>95.4</ele><time>2026-03-25T13:34:50.132Z</time></trkpt><trkpt lat="41.0909783" lon="14.3323667"><ele>95.2</ele><time>2026-03-25T13:34:52.135Z</time></trkpt><trkpt lat="41.0909367" lon="14.3323033"><ele>95.0</ele><time>2026-03-25T13:34:53.135Z</time></trkpt><trkpt lat="41.0908733" lon="14.3321717"><ele>95.0</ele><time>2026-03-25T13:34:55.134Z</time></trkpt><trkpt lat="41.0908067" lon="14.332045"><ele>95.0</ele><time>2026-03-25T13:34:57.133Z</time></trkpt><trkpt lat="41.090725" lon="14.3319183"><ele>95.0</ele><time>2026-03-25T13:34:59.133Z</time></trkpt><trkpt lat="41.0906883" lon="14.3318467"><ele>95.0</ele><time>2026-03-25T13:35:00.132Z</time></trkpt><trkpt lat="41.0906483" lon="14.3317733"><ele>95.0</ele><time>2026-03-25T13:35:01.134Z</time></trkpt><trkpt lat="41.0906083" lon="14.3317"><ele>95.0</ele><time>2026-03-25T13:35:02.134Z</time></trkpt><trkpt lat="41.09057" lon="14.3316317"><ele>95.0</ele><time>2026-03-25T13:35:03.134Z</time></trkpt><trkpt lat="41.090545" lon="14.3315483"><ele>95.0</ele><time>2026-03-25T13:35:04.133Z</time></trkpt><trkpt lat="41.0905133" lon="14.3314717"><ele>95.0</ele><time>2026-03-25T13:35:05.134Z</time></trkpt><trkpt lat="41.0904783" lon="14.3314017"><ele>95.0</ele><time>2026-03-25T13:35:06.135Z</time></trkpt><trkpt lat="41.0903967" lon="14.3313017"><ele>95.0</ele><time>2026-03-25T13:35:08.134Z</time></trkpt><trkpt lat="41.0903083" lon="14.3312533"><ele>95.0</ele><time>2026-03-25T13:35:10.133Z</time></trkpt><trkpt lat="41.090195" lon="14.33126"><ele>94.8</ele><time>2026-03-25T13:35:12.134Z</time></trkpt><trkpt lat="41.09008" lon="14.3312617"><ele>94.6</ele><time>2026-03-25T13:35:14.134Z</time></trkpt><trkpt lat="41.0900167" lon="14.3312617"><ele>94.4</ele><time>2026-03-25T13:35:15.135Z</time></trkpt><trkpt lat="41.0899067" lon="14.33127"><ele>94.2</ele><time>2026-03-25T13:35:17.135Z</time></trkpt><trkpt lat="41.08979" lon="14.33128"><ele>94.0</ele><time>2026-03-25T13:35:19.135Z</time></trkpt><trkpt lat="41.0896667" lon="14.331295"><ele>93.0</ele><time>2026-03-25T13:35:21.132Z</time></trkpt><trkpt lat="41.0895467" lon="14.3313033"><ele>92.0</ele><time>2026-03-25T13:35:23.134Z</time></trkpt><trkpt lat="41.0894283" lon="14.3313083"><ele>91.0</ele><time>2026-03-25T13:35:25.135Z</time></trkpt><trkpt lat="41.0893117" lon="14.331315"><ele>90.0</ele><time>2026-03-25T13:35:27.132Z</time></trkpt><trkpt lat="41.0891817" lon="14.33132"><ele>90.0</ele><time>2026-03-25T13:35:29.134Z</time></trkpt><trkpt lat="41.0891133" lon="14.3313233"><ele>90.0</ele><time>2026-03-25T13:35:30.134Z</time></trkpt><trkpt lat="41.0890433" lon="14.33132"><ele>90.0</ele><time>2026-03-25T13:35:31.134Z</time></trkpt><trkpt lat="41.0889733" lon="14.3313167"><ele>90.0</ele><time>2026-03-25T13:35:32.134Z</time></trkpt><trkpt lat="41.0888967" lon="14.3313183"><ele>90.0</ele><time>2026-03-25T13:35:33.134Z</time></trkpt><trkpt lat="41.08882" lon="14.3313217"><ele>90.0</ele><time>2026-03-25T13:35:34.133Z</time></trkpt><trkpt lat="41.0887467" lon="14.3313233"><ele>90.0</ele><time>2026-03-25T13:35:35.134Z</time></trkpt><trkpt lat="41.08868" lon="14.33132"><ele>89.5</ele><time>2026-03-25T13:35:36.134Z</time></trkpt><trkpt lat="41.0886083" lon="14.33133"><ele>89.0</ele><time>2026-03-25T13:35:37.135Z</time></trkpt><trkpt lat="41.08854" lon="14.3313333"><ele>88.5</ele><time>2026-03-25T13:35:38.132Z</time></trkpt><trkpt lat="41.0884167" lon="14.3313217"><ele>88.0</ele><time>2026-03-25T13:35:40.134Z</time></trkpt><trkpt lat="41.0883533" lon="14.3313233"><ele>87.5</ele><time>2026-03-25T13:35:41.135Z</time></trkpt><trkpt lat="41.0882883" lon="14.3313217"><ele>87.0</ele><time>2026-03-25T13:35:42.134Z</time></trkpt><trkpt lat="41.08822" lon="14.3313117"><ele>86.85714285714286</ele><time>2026-03-25T13:35:43.135Z</time></trkpt><trkpt lat="41.08815" lon="14.33131"><ele>86.71428571428572</ele><time>2026-03-25T13:35:44.133Z</time></trkpt><trkpt lat="41.0880833" lon="14.3313133"><ele>86.57142857142858</ele><time>2026-03-25T13:35:45.131Z</time></trkpt><trkpt lat="41.0880117" lon="14.331315"><ele>86.42857142857143</ele><time>2026-03-25T13:35:46.135Z</time></trkpt><trkpt lat="41.0879383" lon="14.331315"><ele>86.28571428571429</ele><time>2026-03-25T13:35:47.133Z</time></trkpt><trkpt lat="41.0878717" lon="14.331315"><ele>86.14285714285715</ele><time>2026-03-25T13:35:48.135Z</time></trkpt><trkpt lat="41.0878033" lon="14.3313133"><ele>86.0</ele><time>2026-03-25T13:35:49.134Z</time></trkpt><trkpt lat="41.0877367" lon="14.3313133"><ele>86.0</ele><time>2026-03-25T13:35:50.132Z</time></trkpt><trkpt lat="41.0876667" lon="14.3313183"><ele>86.0</ele><time>2026-03-25T13:35:51.131Z</time></trkpt><trkpt lat="41.0875983" lon="14.33132"><ele>86.0</ele><time>2026-03-25T13:35:52.132Z</time></trkpt><trkpt lat="41.0874717" lon="14.3313117"><ele>86.0</ele><time>2026-03-25T13:35:54.132Z</time></trkpt><trkpt lat="41.0873817" lon="14.3313067"><ele>86.0</ele><time>2026-03-25T13:35:56.135Z</time></trkpt><trkpt lat="41.0872717" lon="14.33131"><ele>86.0</ele><time>2026-03-25T13:35:58.133Z</time></trkpt><trkpt lat="41.0871483" lon="14.3313133"><ele>86.0</ele><time>2026-03-25T13:36:00.135Z</time></trkpt><trkpt lat="41.0870233" lon="14.33131"><ele>86.0</ele><time>2026-03-25T13:36:02.135Z</time></trkpt><trkpt lat="41.0869067" lon="14.3312983"><ele>86.0</ele><time>2026-03-25T13:36:04.135Z</time></trkpt><trkpt lat="41.0868433" lon="14.3313017"><ele>86.0</ele><time>2026-03-25T13:36:05.135Z</time></trkpt><trkpt lat="41.08672" lon="14.331305"><ele>86.00000000000001</ele><time>2026-03-25T13:36:07.135Z</time></trkpt><trkpt lat="41.086655" lon="14.3313067"><ele>86.0</ele><time>2026-03-25T13:36:08.136Z</time></trkpt><trkpt lat="41.08659" lon="14.3313083"><ele>86.0</ele><time>2026-03-25T13:36:09.133Z</time></trkpt><trkpt lat="41.086525" lon="14.3313183"><ele>86.0</ele><time>2026-03-25T13:36:10.134Z</time></trkpt><trkpt lat="41.0864617" lon="14.3313233"><ele>86.0</ele><time>2026-03-25T13:36:11.135Z</time></trkpt><trkpt lat="41.0863367" lon="14.3313183"><ele>86.00000000000001</ele><time>2026-03-25T13:36:13.135Z</time></trkpt><trkpt lat="41.0862717" lon="14.3313117"><ele>86.0</ele><time>2026-03-25T13:36:14.135Z</time></trkpt><trkpt lat="41.086205" lon="14.331315"><ele>85.57142857142858</ele><time>2026-03-25T13:36:15.133Z</time></trkpt><trkpt lat="41.0861417" lon="14.33132"><ele>85.14285714285714</ele><time>2026-03-25T13:36:16.134Z</time></trkpt><trkpt lat="41.0860767" lon="14.3313217"><ele>84.71428571428572</ele><time>2026-03-25T13:36:17.136Z</time></trkpt><trkpt lat="41.08601" lon="14.331325"><ele>84.28571428571429</ele><time>2026-03-25T13:36:18.134Z</time></trkpt><trkpt lat="41.0859417" lon="14.331325"><ele>83.85714285714286</ele><time>2026-03-25T13:36:19.135Z</time></trkpt><trkpt lat="41.0858733" lon="14.3313233"><ele>83.42857142857143</ele><time>2026-03-25T13:36:20.135Z</time></trkpt><trkpt lat="41.0858083" lon="14.3313283"><ele>83.0</ele><time>2026-03-25T13:36:21.134Z</time></trkpt><trkpt lat="41.0857417" lon="14.3313383"><ele>82.4</ele><time>2026-03-25T13:36:22.135Z</time></trkpt><trkpt lat="41.0856217" lon="14.33134"><ele>81.80000000000001</ele><time>2026-03-25T13:36:24.135Z</time></trkpt><trkpt lat="41.0855033" lon="14.3313483"><ele>81.2</ele><time>2026-03-25T13:36:26.135Z</time></trkpt><trkpt lat="41.08538" lon="14.3313633"><ele>80.6</ele><time>2026-03-25T13:36:28.134Z</time></trkpt><trkpt lat="41.085315" lon="14.3313617"><ele>80.0</ele><time>2026-03-25T13:36:29.135Z</time></trkpt><trkpt lat="41.08525" lon="14.3313533"><ele>80.0</ele><time>2026-03-25T13:36:30.134Z</time></trkpt><trkpt lat="41.0851283" lon="14.3313467"><ele>80.0</ele><time>2026-03-25T13:36:32.135Z</time></trkpt><trkpt lat="41.085065" lon="14.3313383"><ele>80.0</ele><time>2026-03-25T13:36:33.134Z</time></trkpt><trkpt lat="41.0849367" lon="14.33134"><ele>80.0</ele><time>2026-03-25T13:36:35.135Z</time></trkpt><trkpt lat="41.0848183" lon="14.3313383"><ele>80.0</ele><time>2026-03-25T13:36:37.134Z</time></trkpt><trkpt lat="41.084705" lon="14.33134"><ele>79.8</ele><time>2026-03-25T13:36:39.134Z</time></trkpt><trkpt lat="41.0846417" lon="14.3313417"><ele>79.6</ele><time>2026-03-25T13:36:40.135Z</time></trkpt><trkpt lat="41.0845783" lon="14.3313433"><ele>79.4</ele><time>2026-03-25T13:36:41.133Z</time></trkpt><trkpt lat="41.0844533" lon="14.3313417"><ele>79.2</ele><time>2026-03-25T13:36:43.135Z</time></trkpt><trkpt lat="41.0843317" lon="14.3313467"><ele>79.0</ele><time>2026-03-25T13:36:45.134Z</time></trkpt><trkpt lat="41.0842067" lon="14.33135"><ele>78.60000000000001</ele><time>2026-03-25T13:36:47.135Z</time></trkpt><trkpt lat="41.0840817" lon="14.3313583"><ele>78.2</ele><time>2026-03-25T13:36:49.134Z</time></trkpt><trkpt lat="41.0840167" lon="14.331365"><ele>77.80000000000001</ele><time>2026-03-25T13:36:50.135Z</time></trkpt><trkpt lat="41.08395" lon="14.3313683"><ele>77.4</ele><time>2026-03-25T13:36:51.134Z</time></trkpt><trkpt lat="41.08383" lon="14.3313783"><ele>77.0</ele><time>2026-03-25T13:36:53.134Z</time></trkpt><trkpt lat="41.0837117" lon="14.3313767"><ele>77.2</ele><time>2026-03-25T13:36:55.135Z</time></trkpt><trkpt lat="41.0836267" lon="14.331395"><ele>77.4</ele><time>2026-03-25T13:36:56.135Z</time></trkpt><trkpt lat="41.0835033" lon="14.3314083"><ele>77.6</ele><time>2026-03-25T13:36:58.134Z</time></trkpt><trkpt lat="41.0833933" lon="14.3314167"><ele>77.8</ele><time>2026-03-25T13:37:00.135Z</time></trkpt><trkpt lat="41.0832867" lon="14.3314117"><ele>78.0</ele><time>2026-03-25T13:37:02.135Z</time></trkpt><trkpt lat="41.0831633" lon="14.3313917"><ele>78.0</ele><time>2026-03-25T13:37:04.135Z</time></trkpt><trkpt lat="41.0830983" lon="14.33139"><ele>78.0</ele><time>2026-03-25T13:37:05.134Z</time></trkpt><trkpt lat="41.082985" lon="14.3313917"><ele>78.0</ele><time>2026-03-25T13:37:07.134Z</time></trkpt><trkpt lat="41.0828533" lon="14.33139"><ele>78.0</ele><time>2026-03-25T13:37:09.135Z</time></trkpt><trkpt lat="41.0827867" lon="14.3313833"><ele>78.0</ele><time>2026-03-25T13:37:10.134Z</time></trkpt><trkpt lat="41.0827167" lon="14.33138"><ele>78.0</ele><time>2026-03-25T13:37:11.133Z</time></trkpt><trkpt lat="41.0826483" lon="14.3313767"><ele>77.83333333333333</ele><time>2026-03-25T13:37:12.134Z</time></trkpt><trkpt lat="41.0825767" lon="14.331375"><ele>77.66666666666667</ele><time>2026-03-25T13:37:13.135Z</time></trkpt><trkpt lat="41.08251" lon="14.3313733"><ele>77.5</ele><time>2026-03-25T13:37:14.135Z</time></trkpt><trkpt lat="41.0824433" lon="14.33137"><ele>77.33333333333334</ele><time>2026-03-25T13:37:15.134Z</time></trkpt><trkpt lat="41.0823783" lon="14.33137"><ele>77.16666666666667</ele><time>2026-03-25T13:37:16.133Z</time></trkpt><trkpt lat="41.0823133" lon="14.33137"><ele>77.0</ele><time>2026-03-25T13:37:17.134Z</time></trkpt><trkpt lat="41.0821967" lon="14.33137"><ele>77.57142857142857</ele><time>2026-03-25T13:37:19.135Z</time></trkpt><trkpt lat="41.0821333" lon="14.3313683"><ele>78.14285714285714</ele><time>2026-03-25T13:37:20.135Z</time></trkpt><trkpt lat="41.082065" lon="14.33136"><ele>78.71428571428572</ele><time>2026-03-25T13:37:21.134Z</time></trkpt><trkpt lat="41.0819883" lon="14.33134"><ele>79.28571428571428</ele><time>2026-03-25T13:37:22.135Z</time></trkpt><trkpt lat="41.0819233" lon="14.3313417"><ele>79.85714285714286</ele><time>2026-03-25T13:37:23.134Z</time></trkpt><trkpt lat="41.0818583" lon="14.3313517"><ele>80.42857142857143</ele><time>2026-03-25T13:37:24.133Z</time></trkpt><trkpt lat="41.0817533" lon="14.3313583"><ele>81.0</ele><time>2026-03-25T13:37:26.135Z</time></trkpt><trkpt lat="41.081685" lon="14.331355"><ele>81.0</ele><time>2026-03-25T13:37:29.133Z</time></trkpt><trkpt lat="41.0816167" lon="14.3313267"><ele>81.0</ele><time>2026-03-25T13:37:34.133Z</time></trkpt><trkpt lat="41.0815417" lon="14.3313217"><ele>81.0</ele><time>2026-03-25T13:37:37.133Z</time></trkpt><trkpt lat="41.08147" lon="14.3313367"><ele>81.0</ele><time>2026-03-25T13:37:40.133Z</time></trkpt><trkpt lat="41.0813817" lon="14.3313733"><ele>81.0</ele><time>2026-03-25T13:37:42.133Z</time></trkpt><trkpt lat="41.0813167" lon="14.3313383"><ele>81.0</ele><time>2026-03-25T13:37:45.131Z</time></trkpt><trkpt lat="41.08123" lon="14.3313267"><ele>81.0</ele><time>2026-03-25T13:37:47.137Z</time></trkpt><trkpt lat="41.0811483" lon="14.3313133"><ele>81.0</ele><time>2026-03-25T13:37:49.133Z</time></trkpt><trkpt lat="41.0810617" lon="14.3313117"><ele>81.0</ele><time>2026-03-25T13:37:51.131Z</time></trkpt><trkpt lat="41.08097" lon="14.33131"><ele>81.0</ele><time>2026-03-25T13:37:53.131Z</time></trkpt><trkpt lat="41.0808767" lon="14.3313233"><ele>81.0</ele><time>2026-03-25T13:37:55.131Z</time></trkpt><trkpt lat="41.0808117" lon="14.33133"><ele>81.0</ele><time>2026-03-25T13:37:56.133Z</time></trkpt><trkpt lat="41.0807433" lon="14.3313317"><ele>80.8</ele><time>2026-03-25T13:37:57.13Z</time></trkpt><trkpt lat="41.0806217" lon="14.33135"><ele>80.6</ele><time>2026-03-25T13:37:59.13Z</time></trkpt><trkpt lat="41.0805217" lon="14.3313483"><ele>80.4</ele><time>2026-03-25T13:38:01.131Z</time></trkpt><trkpt lat="41.0804217" lon="14.3313533"><ele>80.2</ele><time>2026-03-25T13:38:03.131Z</time></trkpt><trkpt lat="41.0803283" lon="14.331355"><ele>80.0</ele><time>2026-03-25T13:38:05.13Z</time></trkpt><trkpt lat="41.08023" lon="14.3313567"><ele>80.0</ele><time>2026-03-25T13:38:07.132Z</time></trkpt><trkpt lat="41.0801433" lon="14.3313467"><ele>80.0</ele><time>2026-03-25T13:38:09.13Z</time></trkpt><trkpt lat="41.0800717" lon="14.331345"><ele>80.0</ele><time>2026-03-25T13:38:11.131Z</time></trkpt><trkpt lat="41.0800067" lon="14.3313533"><ele>80.0</ele><time>2026-03-25T13:38:13.131Z</time></trkpt><trkpt lat="41.079915" lon="14.3313467"><ele>80.0</ele><time>2026-03-25T13:38:15.13Z</time></trkpt><trkpt lat="41.0798167" lon="14.33135"><ele>80.0</ele><time>2026-03-25T13:38:17.13Z</time></trkpt><trkpt lat="41.0797133" lon="14.3313567"><ele>80.6</ele><time>2026-03-25T13:38:19.129Z</time></trkpt><trkpt lat="41.07961" lon="14.33135"><ele>81.2</ele><time>2026-03-25T13:38:21.129Z</time></trkpt><trkpt lat="41.0795217" lon="14.331345"><ele>81.80000000000001</ele><time>2026-03-25T13:38:23.13Z</time></trkpt><trkpt lat="41.079435" lon="14.331345"><ele>82.4</ele><time>2026-03-25T13:38:25.129Z</time></trkpt><trkpt lat="41.07935" lon="14.3313483"><ele>83.0</ele><time>2026-03-25T13:38:27.128Z</time></trkpt><trkpt lat="41.0792367" lon="14.331355"><ele>83.0</ele><time>2026-03-25T13:38:29.13Z</time></trkpt><trkpt lat="41.079125" lon="14.3313567"><ele>83.0</ele><time>2026-03-25T13:38:31.129Z</time></trkpt><trkpt lat="41.0790167" lon="14.331355"><ele>83.0</ele><time>2026-03-25T13:38:33.129Z</time></trkpt><trkpt lat="41.0789533" lon="14.3313583"><ele>83.0</ele><time>2026-03-25T13:38:34.13Z</time></trkpt><trkpt lat="41.0788733" lon="14.3313467"><ele>83.0</ele><time>2026-03-25T13:38:35.129Z</time></trkpt><trkpt lat="41.0787617" lon="14.331345"><ele>82.60000000000001</ele><time>2026-03-25T13:38:37.13Z</time></trkpt><trkpt lat="41.0786683" lon="14.3313417"><ele>82.2</ele><time>2026-03-25T13:38:39.129Z</time></trkpt><trkpt lat="41.0785767" lon="14.33133"><ele>81.8</ele><time>2026-03-25T13:38:41.131Z</time></trkpt><trkpt lat="41.0784833" lon="14.3313267"><ele>81.4</ele><time>2026-03-25T13:38:43.129Z</time></trkpt><trkpt lat="41.0783783" lon="14.3313283"><ele>81.0</ele><time>2026-03-25T13:38:45.13Z</time></trkpt><trkpt lat="41.078265" lon="14.3313317"><ele>80.8</ele><time>2026-03-25T13:38:47.13Z</time></trkpt><trkpt lat="41.078165" lon="14.331345"><ele>80.6</ele><time>2026-03-25T13:38:49.129Z</time></trkpt><trkpt lat="41.07806" lon="14.3313483"><ele>80.4</ele><time>2026-03-25T13:38:51.13Z</time></trkpt><trkpt lat="41.07794" lon="14.331345"><ele>80.2</ele><time>2026-03-25T13:38:53.129Z</time></trkpt><trkpt lat="41.0778667" lon="14.3313567"><ele>80.0</ele><time>2026-03-25T13:38:54.13Z</time></trkpt><trkpt lat="41.07776" lon="14.3313667"><ele>80.0</ele><time>2026-03-25T13:38:56.129Z</time></trkpt><trkpt lat="41.0776567" lon="14.3313767"><ele>80.0</ele><time>2026-03-25T13:38:58.128Z</time></trkpt><trkpt lat="41.0775533" lon="14.33139"><ele>80.0</ele><time>2026-03-25T13:39:00.128Z</time></trkpt><trkpt lat="41.0774533" lon="14.33141"><ele>80.0</ele><time>2026-03-25T13:39:02.132Z</time></trkpt><trkpt lat="41.0773483" lon="14.3314233"><ele>80.0</ele><time>2026-03-25T13:39:04.133Z</time></trkpt><trkpt lat="41.07725" lon="14.3314183"><ele>79.6</ele><time>2026-03-25T13:39:06.129Z</time></trkpt><trkpt lat="41.0771733" lon="14.3314233"><ele>79.2</ele><time>2026-03-25T13:39:08.13Z</time></trkpt><trkpt lat="41.0770917" lon="14.3314083"><ele>78.8</ele><time>2026-03-25T13:39:10.13Z</time></trkpt><trkpt lat="41.0770017" lon="14.331405"><ele>78.4</ele><time>2026-03-25T13:39:12.13Z</time></trkpt><trkpt lat="41.076885" lon="14.331395"><ele>78.0</ele><time>2026-03-25T13:39:14.13Z</time></trkpt><trkpt lat="41.076785" lon="14.3313933"><ele>77.0</ele><time>2026-03-25T13:39:16.129Z</time></trkpt><trkpt lat="41.0766717" lon="14.3313767"><ele>76.0</ele><time>2026-03-25T13:39:18.131Z</time></trkpt><trkpt lat="41.07658" lon="14.3313767"><ele>75.0</ele><time>2026-03-25T13:39:20.133Z</time></trkpt><trkpt lat="41.0764867" lon="14.3313717"><ele>74.0</ele><time>2026-03-25T13:39:22.13Z</time></trkpt><trkpt lat="41.0764017" lon="14.331365"><ele>73.0</ele><time>2026-03-25T13:39:24.13Z</time></trkpt><trkpt lat="41.076325" lon="14.3313683"><ele>73.0</ele><time>2026-03-25T13:39:26.129Z</time></trkpt><trkpt lat="41.0762417" lon="14.3313533"><ele>73.0</ele><time>2026-03-25T13:39:28.129Z</time></trkpt><trkpt lat="41.0761633" lon="14.3313433"><ele>73.0</ele><time>2026-03-25T13:39:30.129Z</time></trkpt><trkpt lat="41.0761067" lon="14.3314033"><ele>73.0</ele><time>2026-03-25T13:54:28.133Z</time></trkpt><trkpt lat="41.0760233" lon="14.3314"><ele>73.0</ele><time>2026-03-25T13:54:31.135Z</time></trkpt><trkpt lat="41.0759267" lon="14.3313933"><ele>73.0</ele><time>2026-03-25T13:54:34.132Z</time></trkpt><trkpt lat="41.0758583" lon="14.331395"><ele>73.0</ele><time>2026-03-25T13:54:36.132Z</time></trkpt><trkpt lat="41.075785" lon="14.3313967"><ele>73.0</ele><time>2026-03-25T13:54:38.131Z</time></trkpt><trkpt lat="41.0756967" lon="14.3313883"><ele>73.0</ele><time>2026-03-25T13:54:40.134Z</time></trkpt><trkpt lat="41.0756117" lon="14.331375"><ele>73.0</ele><time>2026-03-25T13:54:42.132Z</time></trkpt><trkpt lat="41.0755267" lon="14.3313617"><ele>73.0</ele><time>2026-03-25T13:54:44.134Z</time></trkpt><trkpt lat="41.0754467" lon="14.33135"><ele>73.0</ele><time>2026-03-25T13:54:46.133Z</time></trkpt><trkpt lat="41.0753783" lon="14.3313417"><ele>73.14285714285714</ele><time>2026-03-25T13:54:48.134Z</time></trkpt><trkpt lat="41.07531" lon="14.3313333"><ele>73.28571428571429</ele><time>2026-03-25T13:54:50.133Z</time></trkpt><trkpt lat="41.07524" lon="14.3313383"><ele>73.42857142857143</ele><time>2026-03-25T13:54:52.133Z</time></trkpt><trkpt lat="41.0751483" lon="14.33134"><ele>73.57142857142857</ele><time>2026-03-25T13:54:55.132Z</time></trkpt><trkpt lat="41.07508" lon="14.3313517"><ele>73.71428571428571</ele><time>2026-03-25T13:54:57.134Z</time></trkpt><trkpt lat="41.0750167" lon="14.3313617"><ele>73.85714285714286</ele><time>2026-03-25T13:54:59.134Z</time></trkpt><trkpt lat="41.0749483" lon="14.33137"><ele>74.0</ele><time>2026-03-25T13:55:01.134Z</time></trkpt><trkpt lat="41.07486" lon="14.3313867"><ele>74.0</ele><time>2026-03-25T13:55:04.133Z</time></trkpt><trkpt lat="41.074765" lon="14.3313883"><ele>74.0</ele><time>2026-03-25T13:55:07.131Z</time></trkpt><trkpt lat="41.0746917" lon="14.3313867"><ele>74.0</ele><time>2026-03-25T13:55:09.132Z</time></trkpt><trkpt lat="41.074615" lon="14.331385"><ele>74.0</ele><time>2026-03-25T13:55:11.132Z</time></trkpt><trkpt lat="41.0745333" lon="14.33139"><ele>74.0</ele><time>2026-03-25T13:55:13.131Z</time></trkpt><trkpt lat="41.0744567" lon="14.331385"><ele>74.0</ele><time>2026-03-25T13:55:15.132Z</time></trkpt><trkpt lat="41.0743733" lon="14.3313717"><ele>74.0</ele><time>2026-03-25T13:55:17.129Z</time></trkpt><trkpt lat="41.07428" lon="14.331365"><ele>74.0</ele><time>2026-03-25T13:55:19.13Z</time></trkpt><trkpt lat="41.0741783" lon="14.3313267"><ele>74.0</ele><time>2026-03-25T13:55:21.131Z</time></trkpt><trkpt lat="41.0741133" lon="14.3313217"><ele>74.0</ele><time>2026-03-25T13:55:22.13Z</time></trkpt><trkpt lat="41.074035" lon="14.33131"><ele>74.0</ele><time>2026-03-25T13:55:24.128Z</time></trkpt><trkpt lat="41.0739617" lon="14.3313"><ele>74.0</ele><time>2026-03-25T13:55:26.134Z</time></trkpt><trkpt lat="41.07388" lon="14.33127"><ele>74.0</ele><time>2026-03-25T13:55:28.13Z</time></trkpt><trkpt lat="41.0738067" lon="14.3312867"><ele>74.0</ele><time>2026-03-25T13:55:30.129Z</time></trkpt><trkpt lat="41.0737167" lon="14.3313267"><ele>74.0</ele><time>2026-03-25T13:55:32.129Z</time></trkpt><trkpt lat="41.0736417" lon="14.33133"><ele>74.0</ele><time>2026-03-25T13:55:34.13Z</time></trkpt><trkpt lat="41.07357" lon="14.3313433"><ele>74.0</ele><time>2026-03-25T13:55:36.135Z</time></trkpt><trkpt lat="41.0734983" lon="14.3313583"><ele>74.0</ele><time>2026-03-25T13:55:38.131Z</time></trkpt><trkpt lat="41.0734017" lon="14.3313567"><ele>74.0</ele><time>2026-03-25T13:55:41.129Z</time></trkpt><trkpt lat="41.073335" lon="14.331365"><ele>74.0</ele><time>2026-03-25T13:55:43.132Z</time></trkpt><trkpt lat="41.0732667" lon="14.331395"><ele>74.0</ele><time>2026-03-25T13:55:45.129Z</time></trkpt><trkpt lat="41.0732" lon="14.33141"><ele>74.0</ele><time>2026-03-25T13:55:47.13Z</time></trkpt><trkpt lat="41.073135" lon="14.3314083"><ele>74.0</ele><time>2026-03-25T13:55:49.13Z</time></trkpt><trkpt lat="41.0730667" lon="14.3313833"><ele>74.0</ele><time>2026-03-25T13:55:51.129Z</time></trkpt><trkpt lat="41.07299" lon="14.331415"><ele>74.0</ele><time>2026-03-25T13:55:54.138Z</time></trkpt><trkpt lat="41.0729183" lon="14.3314183"><ele>73.83333333333334</ele><time>2026-03-25T13:55:56.13Z</time></trkpt><trkpt lat="41.0728383" lon="14.3314083"><ele>73.66666666666667</ele><time>2026-03-25T13:55:58.129Z</time></trkpt><trkpt lat="41.0727617" lon="14.331375"><ele>73.5</ele><time>2026-03-25T13:56:00.128Z</time></trkpt><trkpt lat="41.0726783" lon="14.3313433"><ele>73.33333333333333</ele><time>2026-03-25T13:56:02.128Z</time></trkpt><trkpt lat="41.0725967" lon="14.3313217"><ele>73.16666666666666</ele><time>2026-03-25T13:56:04.129Z</time></trkpt><trkpt lat="41.0725133" lon="14.33131"><ele>73.0</ele><time>2026-03-25T13:56:06.13Z</time></trkpt><trkpt lat="41.0724167" lon="14.3313367"><ele>72.66666666666666</ele><time>2026-03-25T13:56:08.13Z</time></trkpt><trkpt lat="41.07232" lon="14.3313483"><ele>72.33333333333333</ele><time>2026-03-25T13:56:10.129Z</time></trkpt><trkpt lat="41.0722383" lon="14.3313417"><ele>72.0</ele><time>2026-03-25T13:56:12.129Z</time></trkpt><trkpt lat="41.0721583" lon="14.33133"><ele>71.66666666666667</ele><time>2026-03-25T13:56:14.129Z</time></trkpt><trkpt lat="41.0720683" lon="14.3313017"><ele>71.33333333333334</ele><time>2026-03-25T13:56:16.13Z</time></trkpt><trkpt lat="41.07198" lon="14.33128"><ele>71.0</ele><time>2026-03-25T13:56:18.131Z</time></trkpt><trkpt lat="41.0719017" lon="14.3312567"><ele>71.0</ele><time>2026-03-25T13:56:20.129Z</time></trkpt><trkpt lat="41.0718267" lon="14.3312533"><ele>71.0</ele><time>2026-03-25T13:56:22.13Z</time></trkpt><trkpt lat="41.071755" lon="14.3312617"><ele>71.0</ele><time>2026-03-25T13:56:24.131Z</time></trkpt><trkpt lat="41.0716717" lon="14.3312583"><ele>71.0</ele><time>2026-03-25T13:56:26.131Z</time></trkpt><trkpt lat="41.071595" lon="14.3312767"><ele>71.0</ele><time>2026-03-25T13:56:28.13Z</time></trkpt><trkpt lat="41.0715233" lon="14.3312667"><ele>71.0</ele><time>2026-03-25T13:56:30.129Z</time></trkpt><trkpt lat="41.0714517" lon="14.3312333"><ele>70.42857142857143</ele><time>2026-03-25T13:56:32.13Z</time></trkpt><trkpt lat="41.0713867" lon="14.3312"><ele>69.85714285714285</ele><time>2026-03-25T13:56:34.13Z</time></trkpt><trkpt lat="41.07131" lon="14.3311817"><ele>69.28571428571428</ele><time>2026-03-25T13:56:37.131Z</time></trkpt><trkpt lat="41.0712467" lon="14.331175"><ele>68.71428571428571</ele><time>2026-03-25T13:56:39.13Z</time></trkpt><trkpt lat="41.0711767" lon="14.3312033"><ele>68.14285714285714</ele><time>2026-03-25T13:56:41.129Z</time></trkpt><trkpt lat="41.07109" lon="14.33122"><ele>67.57142857142857</ele><time>2026-03-25T13:56:44.131Z</time></trkpt><trkpt lat="41.071015" lon="14.3312317"><ele>67.0</ele><time>2026-03-25T13:56:47.13Z</time></trkpt><trkpt lat="41.0709267" lon="14.3312567"><ele>67.0</ele><time>2026-03-25T13:56:50.13Z</time></trkpt><trkpt lat="41.0708617" lon="14.3312767"><ele>67.0</ele><time>2026-03-25T13:56:52.13Z</time></trkpt><trkpt lat="41.0707767" lon="14.331265"><ele>67.0</ele><time>2026-03-25T13:56:54.13Z</time></trkpt><trkpt lat="41.0706917" lon="14.331255"><ele>67.0</ele><time>2026-03-25T13:56:56.13Z</time></trkpt><trkpt lat="41.070625" lon="14.33125"><ele>67.0</ele><time>2026-03-25T13:56:58.13Z</time></trkpt><trkpt lat="41.0705567" lon="14.3312483"><ele>67.0</ele><time>2026-03-25T13:57:00.131Z</time></trkpt><trkpt lat="41.0704783" lon="14.33126"><ele>67.16666666666666</ele><time>2026-03-25T13:57:02.13Z</time></trkpt><trkpt lat="41.0703933" lon="14.33125"><ele>67.33333333333333</ele><time>2026-03-25T13:57:05.13Z</time></trkpt><trkpt lat="41.0703183" lon="14.3312083"><ele>67.5</ele><time>2026-03-25T13:57:07.13Z</time></trkpt><trkpt lat="41.070285" lon="14.3311233"><ele>67.66666666666667</ele><time>2026-03-25T13:57:12.13Z</time></trkpt><trkpt lat="41.0703033" lon="14.3312383"><ele>67.83333333333334</ele><time>2026-03-25T13:57:15.129Z</time></trkpt><trkpt lat="41.0703117" lon="14.3313333"><ele>68.0</ele><time>2026-03-25T13:57:17.131Z</time></trkpt><trkpt lat="41.0702233" lon="14.3312983"><ele>68.0</ele><time>2026-03-25T13:57:27.131Z</time></trkpt><trkpt lat="41.0701633" lon="14.3312517"><ele>68.0</ele><time>2026-03-25T13:57:29.132Z</time></trkpt><trkpt lat="41.0701283" lon="14.3311667"><ele>68.0</ele><time>2026-03-25T13:57:32.131Z</time></trkpt><trkpt lat="41.0700633" lon="14.331095"><ele>68.0</ele><time>2026-03-25T13:57:34.131Z</time></trkpt><trkpt lat="41.07005" lon="14.3309917"><ele>68.0</ele><time>2026-03-25T13:57:36.131Z</time></trkpt><trkpt lat="41.0700067" lon="14.33091"><ele>68.0</ele><time>2026-03-25T13:57:38.131Z</time></trkpt><trkpt lat="41.0699483" lon="14.330825"><ele>68.42857142857142</ele><time>2026-03-25T13:57:40.131Z</time></trkpt><trkpt lat="41.0698983" lon="14.33077"><ele>68.85714285714286</ele><time>2026-03-25T13:57:42.131Z</time></trkpt><trkpt lat="41.0698467" lon="14.3307183"><ele>69.28571428571428</ele><time>2026-03-25T13:57:44.132Z</time></trkpt><trkpt lat="41.0697867" lon="14.33067"><ele>69.71428571428571</ele><time>2026-03-25T13:57:46.131Z</time></trkpt><trkpt lat="41.069715" lon="14.3306533"><ele>70.14285714285714</ele><time>2026-03-25T13:57:48.131Z</time></trkpt><trkpt lat="41.0696467" lon="14.33064"><ele>70.57142857142857</ele><time>2026-03-25T13:57:50.133Z</time></trkpt><trkpt lat="41.0695833" lon="14.3306317"><ele>71.0</ele><time>2026-03-25T13:57:52.129Z</time></trkpt><trkpt lat="41.0695133" lon="14.3306317"><ele>71.0</ele><time>2026-03-25T13:57:54.129Z</time></trkpt><trkpt lat="41.06944" lon="14.330625"><ele>71.0</ele><time>2026-03-25T13:57:56.128Z</time></trkpt><trkpt lat="41.0693633" lon="14.3306283"><ele>71.0</ele><time>2026-03-25T13:57:58.129Z</time></trkpt><trkpt lat="41.0692767" lon="14.3306317"><ele>71.0</ele><time>2026-03-25T13:58:00.132Z</time></trkpt><trkpt lat="41.069195" lon="14.3306317"><ele>71.0</ele><time>2026-03-25T13:58:02.129Z</time></trkpt><trkpt lat="41.0691133" lon="14.330625"><ele>71.0</ele><time>2026-03-25T13:58:04.129Z</time></trkpt><trkpt lat="41.0690333" lon="14.330605"><ele>70.16666666666667</ele><time>2026-03-25T13:58:06.13Z</time></trkpt><trkpt lat="41.0689517" lon="14.3305867"><ele>69.33333333333334</ele><time>2026-03-25T13:58:08.129Z</time></trkpt><trkpt lat="41.0688733" lon="14.3305783"><ele>68.5</ele><time>2026-03-25T13:58:10.131Z</time></trkpt><trkpt lat="41.0687883" lon="14.3305767"><ele>67.66666666666667</ele><time>2026-03-25T13:58:12.129Z</time></trkpt><trkpt lat="41.0687033" lon="14.3305683"><ele>66.83333333333333</ele><time>2026-03-25T13:58:14.128Z</time></trkpt><trkpt lat="41.0686117" lon="14.3305567"><ele>66.0</ele><time>2026-03-25T13:58:16.129Z</time></trkpt><trkpt lat="41.0685267" lon="14.33055"><ele>66.0</ele><time>2026-03-25T13:58:18.13Z</time></trkpt><trkpt lat="41.068435" lon="14.3305417"><ele>66.0</ele><time>2026-03-25T13:58:20.129Z</time></trkpt><trkpt lat="41.0683483" lon="14.3305317"><ele>66.0</ele><time>2026-03-25T13:58:22.129Z</time></trkpt><trkpt lat="41.0682583" lon="14.3305233"><ele>66.0</ele><time>2026-03-25T13:58:24.13Z</time></trkpt><trkpt lat="41.068175" lon="14.330515"><ele>66.0</ele><time>2026-03-25T13:58:26.132Z</time></trkpt><trkpt lat="41.0680983" lon="14.3305033"><ele>66.0</ele><time>2026-03-25T13:58:28.129Z</time></trkpt><trkpt lat="41.0680183" lon="14.3304967"><ele>65.66666666666667</ele><time>2026-03-25T13:58:30.129Z</time></trkpt><trkpt lat="41.0679283" lon="14.3304933"><ele>65.33333333333333</ele><time>2026-03-25T13:58:32.13Z</time></trkpt><trkpt lat="41.0678317" lon="14.3304683"><ele>65.0</ele><time>2026-03-25T13:58:34.13Z</time></trkpt><trkpt lat="41.0677617" lon="14.3304417"><ele>64.66666666666666</ele><time>2026-03-25T13:58:36.13Z</time></trkpt><trkpt lat="41.0676733" lon="14.33039"><ele>64.33333333333333</ele><time>2026-03-25T13:58:39.129Z</time></trkpt><trkpt lat="41.0675967" lon="14.3303317"><ele>64.0</ele><time>2026-03-25T13:58:41.13Z</time></trkpt><trkpt lat="41.0675183" lon="14.3302583"><ele>64.0</ele><time>2026-03-25T13:58:43.129Z</time></trkpt><trkpt lat="41.067445" lon="14.33017"><ele>64.0</ele><time>2026-03-25T13:58:45.129Z</time></trkpt><trkpt lat="41.06738" lon="14.330065"><ele>64.0</ele><time>2026-03-25T13:58:47.129Z</time></trkpt><trkpt lat="41.0673267" lon="14.3299383"><ele>64.0</ele><time>2026-03-25T13:58:49.132Z</time></trkpt><trkpt lat="41.0672717" lon="14.3298033"><ele>64.0</ele><time>2026-03-25T13:58:51.13Z</time></trkpt><trkpt lat="41.067215" lon="14.3296617"><ele>63.49999999999999</ele><time>2026-03-25T13:58:53.13Z</time></trkpt><trkpt lat="41.0671817" lon="14.3295867"><ele>63.0</ele><time>2026-03-25T13:58:54.129Z</time></trkpt><trkpt lat="41.0671217" lon="14.3294333"><ele>62.5</ele><time>2026-03-25T13:58:56.129Z</time></trkpt><trkpt lat="41.06709" lon="14.3293583"><ele>62.0</ele><time>2026-03-25T13:58:57.131Z</time></trkpt><trkpt lat="41.0670583" lon="14.3292817"><ele>61.49999999999999</ele><time>2026-03-25T13:58:58.13Z</time></trkpt><trkpt lat="41.067005" lon="14.3291517"><ele>61.0</ele><time>2026-03-25T13:59:00.129Z</time></trkpt><trkpt lat="41.0669733" lon="14.3290667"><ele>60.99999999999999</ele><time>2026-03-25T13:59:02.13Z</time></trkpt><trkpt lat="41.066965" lon="14.3289617"><ele>61.0</ele><time>2026-03-25T13:59:06.13Z</time></trkpt><trkpt lat="41.066965" lon="14.32887"><ele>61.0</ele><time>2026-03-25T13:59:10.129Z</time></trkpt><trkpt lat="41.0669433" lon="14.32876"><ele>61.0</ele><time>2026-03-25T13:59:13.129Z</time></trkpt><trkpt lat="41.0669133" lon="14.3286683"><ele>60.99999999999999</ele><time>2026-03-25T13:59:15.13Z</time></trkpt><trkpt lat="41.0668683" lon="14.32856"><ele>61.0</ele><time>2026-03-25T13:59:17.13Z</time></trkpt><trkpt lat="41.06681" lon="14.3284433"><ele>61.0</ele><time>2026-03-25T13:59:19.131Z</time></trkpt><trkpt lat="41.0667517" lon="14.3283167"><ele>61.0</ele><time>2026-03-25T13:59:21.13Z</time></trkpt><trkpt lat="41.0667" lon="14.3281817"><ele>61.0</ele><time>2026-03-25T13:59:23.13Z</time></trkpt><trkpt lat="41.0666567" lon="14.3280417"><ele>61.0</ele><time>2026-03-25T13:59:25.131Z</time></trkpt><trkpt lat="41.066605" lon="14.3279033"><ele>60.75</ele><time>2026-03-25T13:59:27.129Z</time></trkpt><trkpt lat="41.0665533" lon="14.327765"><ele>60.5</ele><time>2026-03-25T13:59:29.13Z</time></trkpt><trkpt lat="41.0664917" lon="14.32763"><ele>60.25</ele><time>2026-03-25T13:59:31.13Z</time></trkpt><trkpt lat="41.0664283" lon="14.3274917"><ele>60.0</ele><time>2026-03-25T13:59:33.13Z</time></trkpt><trkpt lat="41.0663683" lon="14.3273433"><ele>60.0</ele><time>2026-03-25T13:59:35.13Z</time></trkpt><trkpt lat="41.0663033" lon="14.3272117"><ele>60.0</ele><time>2026-03-25T13:59:37.13Z</time></trkpt><trkpt lat="41.0662517" lon="14.327075"><ele>60.0</ele><time>2026-03-25T13:59:39.129Z</time></trkpt><trkpt lat="41.0662033" lon="14.32694"><ele>60.0</ele><time>2026-03-25T13:59:41.13Z</time></trkpt><trkpt lat="41.066165" lon="14.326805"><ele>60.0</ele><time>2026-03-25T13:59:43.13Z</time></trkpt><trkpt lat="41.0661283" lon="14.3266633"><ele>60.0</ele><time>2026-03-25T13:59:45.131Z</time></trkpt><trkpt lat="41.0660667" lon="14.3265517"><ele>60.0</ele><time>2026-03-25T13:59:47.131Z</time></trkpt><trkpt lat="41.0659617" lon="14.32649"><ele>60.0</ele><time>2026-03-25T13:59:49.13Z</time></trkpt><trkpt lat="41.06584" lon="14.3264583"><ele>59.714285714285715</ele><time>2026-03-25T13:59:51.129Z</time></trkpt><trkpt lat="41.0657717" lon="14.32645"><ele>59.42857142857143</ele><time>2026-03-25T13:59:52.13Z</time></trkpt><trkpt lat="41.0657033" lon="14.326445"><ele>59.142857142857146</ele><time>2026-03-25T13:59:53.129Z</time></trkpt><trkpt lat="41.065635" lon="14.32644"><ele>58.85714285714286</ele><time>2026-03-25T13:59:54.13Z</time></trkpt><trkpt lat="41.0655683" lon="14.326435"><ele>58.57142857142857</ele><time>2026-03-25T13:59:55.13Z</time></trkpt><trkpt lat="41.0655017" lon="14.3264333"><ele>58.28571428571429</ele><time>2026-03-25T13:59:56.131Z</time></trkpt><trkpt lat="41.0654367" lon="14.3264317"><ele>58.00000000000001</ele><time>2026-03-25T13:59:57.13Z</time></trkpt><trkpt lat="41.0653717" lon="14.3264317"><ele>58.00000000000001</ele><time>2026-03-25T13:59:58.13Z</time></trkpt><trkpt lat="41.065305" lon="14.3264283"><ele>58.0</ele><time>2026-03-25T13:59:59.13Z</time></trkpt><trkpt lat="41.0652417" lon="14.326425"><ele>58.00000000000001</ele><time>2026-03-25T14:00:00.129Z</time></trkpt><trkpt lat="41.0651767" lon="14.32642"><ele>58.00000000000001</ele><time>2026-03-25T14:00:01.13Z</time></trkpt><trkpt lat="41.065105" lon="14.3264117"><ele>58.0</ele><time>2026-03-25T14:00:02.129Z</time></trkpt><trkpt lat="41.0650417" lon="14.326405"><ele>58.00000000000001</ele><time>2026-03-25T14:00:03.128Z</time></trkpt><trkpt lat="41.0649783" lon="14.3264017"><ele>58.00000000000001</ele><time>2026-03-25T14:00:04.129Z</time></trkpt><trkpt lat="41.064915" lon="14.3263917"><ele>58.00000000000001</ele><time>2026-03-25T14:00:05.13Z</time></trkpt><trkpt lat="41.0648483" lon="14.32638"><ele>58.0</ele><time>2026-03-25T14:00:06.129Z</time></trkpt><trkpt lat="41.0647817" lon="14.3263717"><ele>58.00000000000001</ele><time>2026-03-25T14:00:07.13Z</time></trkpt><trkpt lat="41.0647183" lon="14.3263683"><ele>58.00000000000001</ele><time>2026-03-25T14:00:08.128Z</time></trkpt><trkpt lat="41.06465" lon="14.326365"><ele>58.0</ele><time>2026-03-25T14:00:09.13Z</time></trkpt><trkpt lat="41.064585" lon="14.32636"><ele>58.00000000000001</ele><time>2026-03-25T14:00:10.13Z</time></trkpt><trkpt lat="41.0645167" lon="14.3263533"><ele>58.00000000000001</ele><time>2026-03-25T14:00:11.13Z</time></trkpt><trkpt lat="41.0644483" lon="14.3263517"><ele>58.00000000000001</ele><time>2026-03-25T14:00:12.129Z</time></trkpt><trkpt lat="41.0643783" lon="14.326345"><ele>58.0</ele><time>2026-03-25T14:00:13.13Z</time></trkpt><trkpt lat="41.0643067" lon="14.32634"><ele>58.00000000000001</ele><time>2026-03-25T14:00:14.129Z</time></trkpt><trkpt lat="41.0642367" lon="14.3263333"><ele>58.00000000000001</ele><time>2026-03-25T14:00:15.129Z</time></trkpt><trkpt lat="41.0641667" lon="14.3263267"><ele>58.0</ele><time>2026-03-25T14:00:16.13Z</time></trkpt><trkpt lat="41.0640967" lon="14.3263217"><ele>58.00000000000001</ele><time>2026-03-25T14:00:17.13Z</time></trkpt><trkpt lat="41.0640267" lon="14.326315"><ele>58.00000000000001</ele><time>2026-03-25T14:00:18.129Z</time></trkpt><trkpt lat="41.0639583" lon="14.3263117"><ele>58.14285714285715</ele><time>2026-03-25T14:00:19.129Z</time></trkpt><trkpt lat="41.06389" lon="14.32631"><ele>58.28571428571429</ele><time>2026-03-25T14:00:20.13Z</time></trkpt><trkpt lat="41.0638233" lon="14.3263067"><ele>58.42857142857143</ele><time>2026-03-25T14:00:21.13Z</time></trkpt><trkpt lat="41.0637533" lon="14.3263033"><ele>58.57142857142858</ele><time>2026-03-25T14:00:22.13Z</time></trkpt><trkpt lat="41.06368" lon="14.3263"><ele>58.71428571428572</ele><time>2026-03-25T14:00:23.129Z</time></trkpt><trkpt lat="41.0636083" lon="14.3262933"><ele>58.857142857142854</ele><time>2026-03-25T14:00:24.129Z</time></trkpt><trkpt lat="41.0635367" lon="14.3262917"><ele>59.0</ele><time>2026-03-25T14:00:25.13Z</time></trkpt><trkpt lat="41.0634667" lon="14.3262883"><ele>59.0</ele><time>2026-03-25T14:00:26.128Z</time></trkpt><trkpt lat="41.0633983" lon="14.3262817"><ele>59.0</ele><time>2026-03-25T14:00:27.13Z</time></trkpt><trkpt lat="41.0633283" lon="14.3262733"><ele>59.0</ele><time>2026-03-25T14:00:28.13Z</time></trkpt><trkpt lat="41.0632533" lon="14.3262667"><ele>59.0</ele><time>2026-03-25T14:00:29.13Z</time></trkpt><trkpt lat="41.0631817" lon="14.3262617"><ele>59.0</ele><time>2026-03-25T14:00:30.129Z</time></trkpt><trkpt lat="41.06311" lon="14.3262583"><ele>59.0</ele><time>2026-03-25T14:00:31.13Z</time></trkpt><trkpt lat="41.0630367" lon="14.3262517"><ele>59.0</ele><time>2026-03-25T14:00:32.129Z</time></trkpt><trkpt lat="41.062965" lon="14.326245"><ele>59.0</ele><time>2026-03-25T14:00:33.13Z</time></trkpt><trkpt lat="41.0628933" lon="14.3262367"><ele>59.0</ele><time>2026-03-25T14:00:34.129Z</time></trkpt><trkpt lat="41.0628217" lon="14.3262317"><ele>59.0</ele><time>2026-03-25T14:00:35.13Z</time></trkpt><trkpt lat="41.06275" lon="14.3262267"><ele>59.0</ele><time>2026-03-25T14:00:36.129Z</time></trkpt><trkpt lat="41.06268" lon="14.3262183"><ele>59.0</ele><time>2026-03-25T14:00:37.13Z</time></trkpt><trkpt lat="41.0626083" lon="14.32621"><ele>59.0</ele><time>2026-03-25T14:00:38.129Z</time></trkpt><trkpt lat="41.0625383" lon="14.3262017"><ele>59.0</ele><time>2026-03-25T14:00:39.13Z</time></trkpt><trkpt lat="41.0624683" lon="14.326195"><ele>58.857142857142854</ele><time>2026-03-25T14:00:40.13Z</time></trkpt><trkpt lat="41.0623983" lon="14.3261883"><ele>58.71428571428572</ele><time>2026-03-25T14:00:41.13Z</time></trkpt><trkpt lat="41.06233" lon="14.3261833"><ele>58.57142857142858</ele><time>2026-03-25T14:00:42.13Z</time></trkpt><trkpt lat="41.0622617" lon="14.3261733"><ele>58.42857142857143</ele><time>2026-03-25T14:00:43.129Z</time></trkpt><trkpt lat="41.0621967" lon="14.3261717"><ele>58.28571428571429</ele><time>2026-03-25T14:00:44.132Z</time></trkpt><trkpt lat="41.0621267" lon="14.3261683"><ele>58.14285714285715</ele><time>2026-03-25T14:00:45.13Z</time></trkpt><trkpt lat="41.0620533" lon="14.3261633"><ele>58.00000000000001</ele><time>2026-03-25T14:00:46.129Z</time></trkpt><trkpt lat="41.0619817" lon="14.32616"><ele>58.00000000000001</ele><time>2026-03-25T14:00:47.129Z</time></trkpt><trkpt lat="41.0619133" lon="14.3261533"><ele>58.0</ele><time>2026-03-25T14:00:48.13Z</time></trkpt><trkpt lat="41.0618417" lon="14.3261483"><ele>58.00000000000001</ele><time>2026-03-25T14:00:49.128Z</time></trkpt><trkpt lat="41.0617717" lon="14.3261467"><ele>58.00000000000001</ele><time>2026-03-25T14:00:50.13Z</time></trkpt><trkpt lat="41.0617067" lon="14.3261417"><ele>58.0</ele><time>2026-03-25T14:00:51.129Z</time></trkpt><trkpt lat="41.061635" lon="14.3261333"><ele>58.00000000000001</ele><time>2026-03-25T14:00:52.13Z</time></trkpt><trkpt lat="41.06156" lon="14.326125"><ele>58.00000000000001</ele><time>2026-03-25T14:00:53.132Z</time></trkpt><trkpt lat="41.0614883" lon="14.3261167"><ele>57.71428571428572</ele><time>2026-03-25T14:00:54.13Z</time></trkpt><trkpt lat="41.0614167" lon="14.32611"><ele>57.42857142857143</ele><time>2026-03-25T14:00:55.129Z</time></trkpt><trkpt lat="41.061345" lon="14.3261067"><ele>57.142857142857146</ele><time>2026-03-25T14:00:56.13Z</time></trkpt><trkpt lat="41.0612717" lon="14.3261033"><ele>56.85714285714286</ele><time>2026-03-25T14:00:57.13Z</time></trkpt><trkpt lat="41.0611983" lon="14.3260983"><ele>56.57142857142857</ele><time>2026-03-25T14:00:58.13Z</time></trkpt><trkpt lat="41.06112" lon="14.3260917"><ele>56.285714285714285</ele><time>2026-03-25T14:00:59.13Z</time></trkpt><trkpt lat="41.0610433" lon="14.3260867"><ele>56.0</ele><time>2026-03-25T14:01:00.13Z</time></trkpt><trkpt lat="41.0609667" lon="14.32608"><ele>56.00000000000001</ele><time>2026-03-25T14:01:01.13Z</time></trkpt><trkpt lat="41.06089" lon="14.3260733"><ele>56.0</ele><time>2026-03-25T14:01:02.131Z</time></trkpt><trkpt lat="41.0608133" lon="14.3260683"><ele>56.0</ele><time>2026-03-25T14:01:03.129Z</time></trkpt><trkpt lat="41.0607333" lon="14.3260633"><ele>56.0</ele><time>2026-03-25T14:01:04.129Z</time></trkpt><trkpt lat="41.060655" lon="14.3260567"><ele>56.00000000000001</ele><time>2026-03-25T14:01:05.129Z</time></trkpt><trkpt lat="41.06058" lon="14.3260533"><ele>56.0</ele><time>2026-03-25T14:01:06.13Z</time></trkpt><trkpt lat="41.0605067" lon="14.3260483"><ele>55.833333333333336</ele><time>2026-03-25T14:01:07.13Z</time></trkpt><trkpt lat="41.06043" lon="14.32604"><ele>55.66666666666667</ele><time>2026-03-25T14:01:08.13Z</time></trkpt><trkpt lat="41.0603567" lon="14.326035"><ele>55.5</ele><time>2026-03-25T14:01:09.13Z</time></trkpt><trkpt lat="41.0602867" lon="14.3260267"><ele>55.33333333333333</ele><time>2026-03-25T14:01:10.133Z</time></trkpt><trkpt lat="41.0602183" lon="14.3260233"><ele>55.166666666666664</ele><time>2026-03-25T14:01:11.231Z</time></trkpt><trkpt lat="41.060075" lon="14.32601"><ele>55.0</ele><time>2026-03-25T14:01:13.13Z</time></trkpt><trkpt lat="41.0600017" lon="14.326005"><ele>54.99999999999999</ele><time>2026-03-25T14:01:14.129Z</time></trkpt><trkpt lat="41.05993" lon="14.3259983"><ele>55.0</ele><time>2026-03-25T14:01:15.129Z</time></trkpt><trkpt lat="41.0598583" lon="14.3259933"><ele>55.0</ele><time>2026-03-25T14:01:16.13Z</time></trkpt><trkpt lat="41.0597867" lon="14.325985"><ele>55.0</ele><time>2026-03-25T14:01:17.13Z</time></trkpt><trkpt lat="41.0597133" lon="14.325975"><ele>55.0</ele><time>2026-03-25T14:01:18.129Z</time></trkpt><trkpt lat="41.05964" lon="14.3259667"><ele>54.99999999999999</ele><time>2026-03-25T14:01:19.13Z</time></trkpt><trkpt lat="41.059565" lon="14.32596"><ele>55.0</ele><time>2026-03-25T14:01:20.13Z</time></trkpt><trkpt lat="41.0594917" lon="14.3259533"><ele>54.99999999999999</ele><time>2026-03-25T14:01:21.13Z</time></trkpt><trkpt lat="41.0594233" lon="14.325945"><ele>55.0</ele><time>2026-03-25T14:01:22.131Z</time></trkpt><trkpt lat="41.05935" lon="14.32594"><ele>55.0</ele><time>2026-03-25T14:01:23.13Z</time></trkpt><trkpt lat="41.0592783" lon="14.325935"><ele>55.0</ele><time>2026-03-25T14:01:24.129Z</time></trkpt><trkpt lat="41.0592033" lon="14.32593"><ele>55.0</ele><time>2026-03-25T14:01:25.13Z</time></trkpt><trkpt lat="41.0591283" lon="14.3259267"><ele>54.99999999999999</ele><time>2026-03-25T14:01:26.131Z</time></trkpt><trkpt lat="41.0590567" lon="14.3259233"><ele>55.0</ele><time>2026-03-25T14:01:27.13Z</time></trkpt><trkpt lat="41.0589817" lon="14.32592"><ele>54.857142857142854</ele><time>2026-03-25T14:01:28.129Z</time></trkpt><trkpt lat="41.0589083" lon="14.3259117"><ele>54.714285714285715</ele><time>2026-03-25T14:01:29.13Z</time></trkpt><trkpt lat="41.0588367" lon="14.3259033"><ele>54.57142857142857</ele><time>2026-03-25T14:01:30.13Z</time></trkpt><trkpt lat="41.058765" lon="14.3259"><ele>54.42857142857143</ele><time>2026-03-25T14:01:31.13Z</time></trkpt><trkpt lat="41.0586933" lon="14.3258917"><ele>54.285714285714285</ele><time>2026-03-25T14:01:32.129Z</time></trkpt><trkpt lat="41.0586233" lon="14.32589"><ele>54.14285714285714</ele><time>2026-03-25T14:01:33.129Z</time></trkpt><trkpt lat="41.058545" lon="14.3258933"><ele>54.0</ele><time>2026-03-25T14:01:34.13Z</time></trkpt><trkpt lat="41.0584733" lon="14.3258917"><ele>54.0</ele><time>2026-03-25T14:01:35.131Z</time></trkpt><trkpt lat="41.0584033" lon="14.32589"><ele>54.0</ele><time>2026-03-25T14:01:36.128Z</time></trkpt><trkpt lat="41.0583367" lon="14.3258817"><ele>54.0</ele><time>2026-03-25T14:01:37.13Z</time></trkpt><trkpt lat="41.0582717" lon="14.3258767"><ele>54.0</ele><time>2026-03-25T14:01:38.131Z</time></trkpt><trkpt lat="41.0581517" lon="14.3258633"><ele>54.0</ele><time>2026-03-25T14:01:40.13Z</time></trkpt><trkpt lat="41.0580333" lon="14.3258533"><ele>54.0</ele><time>2026-03-25T14:01:42.13Z</time></trkpt><trkpt lat="41.0579183" lon="14.3258417"><ele>53.5</ele><time>2026-03-25T14:01:44.129Z</time></trkpt><trkpt lat="41.0577933" lon="14.3258433"><ele>53.0</ele><time>2026-03-25T14:01:46.132Z</time></trkpt><trkpt lat="41.0576767" lon="14.3258367"><ele>52.5</ele><time>2026-03-25T14:01:48.13Z</time></trkpt><trkpt lat="41.0575717" lon="14.3258367"><ele>52.0</ele><time>2026-03-25T14:01:50.131Z</time></trkpt><trkpt lat="41.0574633" lon="14.3258267"><ele>52.400000000000006</ele><time>2026-03-25T14:01:52.133Z</time></trkpt><trkpt lat="41.057355" lon="14.3258233"><ele>52.800000000000004</ele><time>2026-03-25T14:01:54.132Z</time></trkpt><trkpt lat="41.057255" lon="14.32581"><ele>53.2</ele><time>2026-03-25T14:01:56.13Z</time></trkpt><trkpt lat="41.05715" lon="14.3258"><ele>53.6</ele><time>2026-03-25T14:01:58.132Z</time></trkpt><trkpt lat="41.057055" lon="14.3257783"><ele>54.0</ele><time>2026-03-25T14:02:00.131Z</time></trkpt><trkpt lat="41.05697" lon="14.3257433"><ele>54.0</ele><time>2026-03-25T14:02:02.136Z</time></trkpt><trkpt lat="41.056885" lon="14.32568"><ele>54.00000000000001</ele><time>2026-03-25T14:02:04.131Z</time></trkpt><trkpt lat="41.0567867" lon="14.3256467"><ele>54.00000000000001</ele><time>2026-03-25T14:02:06.132Z</time></trkpt><trkpt lat="41.0566817" lon="14.3256633"><ele>54.0</ele><time>2026-03-25T14:02:08.132Z</time></trkpt><trkpt lat="41.0565683" lon="14.3257167"><ele>54.0</ele><time>2026-03-25T14:02:10.131Z</time></trkpt><trkpt lat="41.0564483" lon="14.3257417"><ele>53.833333333333336</ele><time>2026-03-25T14:02:12.131Z</time></trkpt><trkpt lat="41.056385" lon="14.3257367"><ele>53.66666666666667</ele><time>2026-03-25T14:02:13.131Z</time></trkpt><trkpt lat="41.0563167" lon="14.32573"><ele>53.5</ele><time>2026-03-25T14:02:14.131Z</time></trkpt><trkpt lat="41.05625" lon="14.3257233"><ele>53.333333333333336</ele><time>2026-03-25T14:02:15.13Z</time></trkpt><trkpt lat="41.0561817" lon="14.32572"><ele>53.16666666666667</ele><time>2026-03-25T14:02:16.132Z</time></trkpt><trkpt lat="41.05606" lon="14.32571"><ele>53.0</ele><time>2026-03-25T14:02:18.131Z</time></trkpt><trkpt lat="41.0559433" lon="14.325705"><ele>53.00000000000001</ele><time>2026-03-25T14:02:20.131Z</time></trkpt><trkpt lat="41.0558217" lon="14.3256933"><ele>53.0</ele><time>2026-03-25T14:02:22.132Z</time></trkpt><trkpt lat="41.0557033" lon="14.3256783"><ele>53.0</ele><time>2026-03-25T14:02:24.132Z</time></trkpt><trkpt lat="41.05564" lon="14.3256767"><ele>53.0</ele><time>2026-03-25T14:02:25.132Z</time></trkpt><trkpt lat="41.055575" lon="14.32567"><ele>53.00000000000001</ele><time>2026-03-25T14:02:26.131Z</time></trkpt><trkpt lat="41.05551" lon="14.3256633"><ele>53.0</ele><time>2026-03-25T14:02:27.133Z</time></trkpt><trkpt lat="41.055445" lon="14.3256583"><ele>52.50000000000001</ele><time>2026-03-25T14:02:28.132Z</time></trkpt><trkpt lat="41.05538" lon="14.3256533"><ele>52.0</ele><time>2026-03-25T14:02:29.131Z</time></trkpt><trkpt lat="41.0553167" lon="14.325645"><ele>51.5</ele><time>2026-03-25T14:02:30.131Z</time></trkpt><trkpt lat="41.0551917" lon="14.32563"><ele>51.0</ele><time>2026-03-25T14:02:32.13Z</time></trkpt><trkpt lat="41.055125" lon="14.325625"><ele>50.50000000000001</ele><time>2026-03-25T14:02:33.128Z</time></trkpt><trkpt lat="41.0550567" lon="14.3256167"><ele>50.0</ele><time>2026-03-25T14:02:34.129Z</time></trkpt><trkpt lat="41.05499" lon="14.3256083"><ele>50.42857142857143</ele><time>2026-03-25T14:02:35.132Z</time></trkpt><trkpt lat="41.0549233" lon="14.3256017"><ele>50.85714285714286</ele><time>2026-03-25T14:02:36.129Z</time></trkpt><trkpt lat="41.054855" lon="14.3255967"><ele>51.28571428571429</ele><time>2026-03-25T14:02:37.129Z</time></trkpt><trkpt lat="41.0547883" lon="14.3255933"><ele>51.714285714285715</ele><time>2026-03-25T14:02:38.128Z</time></trkpt><trkpt lat="41.05472" lon="14.32559"><ele>52.14285714285714</ele><time>2026-03-25T14:02:39.13Z</time></trkpt><trkpt lat="41.0546517" lon="14.3255883"><ele>52.57142857142858</ele><time>2026-03-25T14:02:40.13Z</time></trkpt><trkpt lat="41.0545867" lon="14.3255867"><ele>53.0</ele><time>2026-03-25T14:02:41.132Z</time></trkpt><trkpt lat="41.05452" lon="14.32558"><ele>53.0</ele><time>2026-03-25T14:02:42.13Z</time></trkpt><trkpt lat="41.0544517" lon="14.325575"><ele>53.0</ele><time>2026-03-25T14:02:43.13Z</time></trkpt><trkpt lat="41.0543867" lon="14.3255683"><ele>53.0</ele><time>2026-03-25T14:02:44.129Z</time></trkpt><trkpt lat="41.0543183" lon="14.325565"><ele>53.0</ele><time>2026-03-25T14:02:45.13Z</time></trkpt><trkpt lat="41.0542517" lon="14.3255583"><ele>53.0</ele><time>2026-03-25T14:02:46.129Z</time></trkpt><trkpt lat="41.05418" lon="14.3255567"><ele>53.0</ele><time>2026-03-25T14:02:47.131Z</time></trkpt><trkpt lat="41.0541117" lon="14.3255483"><ele>53.0</ele><time>2026-03-25T14:02:48.13Z</time></trkpt><trkpt lat="41.05404" lon="14.3255433"><ele>53.0</ele><time>2026-03-25T14:02:49.131Z</time></trkpt><trkpt lat="41.0539717" lon="14.3255367"><ele>53.0</ele><time>2026-03-25T14:02:50.13Z</time></trkpt><trkpt lat="41.053905" lon="14.3255267"><ele>53.0</ele><time>2026-03-25T14:02:51.129Z</time></trkpt><trkpt lat="41.0538367" lon="14.3255167"><ele>53.0</ele><time>2026-03-25T14:02:52.13Z</time></trkpt><trkpt lat="41.0537667" lon="14.3255133"><ele>53.0</ele><time>2026-03-25T14:02:53.129Z</time></trkpt><trkpt lat="41.053695" lon="14.3255117"><ele>53.0</ele><time>2026-03-25T14:02:54.132Z</time></trkpt><trkpt lat="41.053625" lon="14.325505"><ele>53.0</ele><time>2026-03-25T14:02:55.13Z</time></trkpt><trkpt lat="41.053555" lon="14.3254983"><ele>53.0</ele><time>2026-03-25T14:02:56.129Z</time></trkpt><trkpt lat="41.053485" lon="14.3254933"><ele>53.0</ele><time>2026-03-25T14:02:57.133Z</time></trkpt><trkpt lat="41.053415" lon="14.3254883"><ele>53.0</ele><time>2026-03-25T14:02:58.129Z</time></trkpt><trkpt lat="41.0533433" lon="14.3254817"><ele>53.0</ele><time>2026-03-25T14:02:59.131Z</time></trkpt><trkpt lat="41.0532733" lon="14.325475"><ele>53.0</ele><time>2026-03-25T14:03:00.13Z</time></trkpt><trkpt lat="41.0532017" lon="14.32547"><ele>53.0</ele><time>2026-03-25T14:03:01.13Z</time></trkpt><trkpt lat="41.0531367" lon="14.3254617"><ele>53.0</ele><time>2026-03-25T14:03:02.129Z</time></trkpt><trkpt lat="41.05307" lon="14.325455"><ele>53.0</ele><time>2026-03-25T14:03:03.129Z</time></trkpt><trkpt lat="41.0530017" lon="14.32545"><ele>53.0</ele><time>2026-03-25T14:03:04.13Z</time></trkpt><trkpt lat="41.05293" lon="14.3254467"><ele>53.0</ele><time>2026-03-25T14:03:05.13Z</time></trkpt><trkpt lat="41.0528617" lon="14.3254433"><ele>53.0</ele><time>2026-03-25T14:03:06.131Z</time></trkpt><trkpt lat="41.052795" lon="14.3254383"><ele>53.0</ele><time>2026-03-25T14:03:07.131Z</time></trkpt><trkpt lat="41.052725" lon="14.3254333"><ele>53.0</ele><time>2026-03-25T14:03:08.13Z</time></trkpt><trkpt lat="41.052655" lon="14.325435"><ele>53.0</ele><time>2026-03-25T14:03:09.129Z</time></trkpt><trkpt lat="41.05259" lon="14.3254333"><ele>53.00000000000001</ele><time>2026-03-25T14:03:10.131Z</time></trkpt><trkpt lat="41.0525217" lon="14.32543"><ele>53.0</ele><time>2026-03-25T14:03:11.13Z</time></trkpt><trkpt lat="41.0524583" lon="14.32543"><ele>53.0</ele><time>2026-03-25T14:03:12.129Z</time></trkpt><trkpt lat="41.0523933" lon="14.32542"><ele>53.0</ele><time>2026-03-25T14:03:13.13Z</time></trkpt><trkpt lat="41.0523267" lon="14.3254133"><ele>53.00000000000001</ele><time>2026-03-25T14:03:14.13Z</time></trkpt><trkpt lat="41.0522633" lon="14.3254067"><ele>53.0</ele><time>2026-03-25T14:03:15.129Z</time></trkpt><trkpt lat="41.0521367" lon="14.3253967"><ele>52.66666666666667</ele><time>2026-03-25T14:03:17.13Z</time></trkpt><trkpt lat="41.05207" lon="14.325395"><ele>52.333333333333336</ele><time>2026-03-25T14:03:18.13Z</time></trkpt><trkpt lat="41.0520067" lon="14.3253933"><ele>52.0</ele><time>2026-03-25T14:03:19.13Z</time></trkpt><trkpt lat="41.0519" lon="14.3253833"><ele>51.66666666666667</ele><time>2026-03-25T14:03:21.13Z</time></trkpt><trkpt lat="41.0518" lon="14.3253617"><ele>51.333333333333336</ele><time>2026-03-25T14:03:23.131Z</time></trkpt><trkpt lat="41.051695" lon="14.3253517"><ele>51.0</ele><time>2026-03-25T14:03:25.13Z</time></trkpt><trkpt lat="41.05158" lon="14.3253383"><ele>51.0</ele><time>2026-03-25T14:03:27.129Z</time></trkpt><trkpt lat="41.0514667" lon="14.325325"><ele>51.0</ele><time>2026-03-25T14:03:29.133Z</time></trkpt><trkpt lat="41.0513467" lon="14.32531"><ele>51.0</ele><time>2026-03-25T14:03:31.131Z</time></trkpt><trkpt lat="41.0512267" lon="14.3253067"><ele>51.0</ele><time>2026-03-25T14:03:33.134Z</time></trkpt><trkpt lat="41.0511167" lon="14.3253117"><ele>51.0</ele><time>2026-03-25T14:03:35.129Z</time></trkpt><trkpt lat="41.0510083" lon="14.3253183"><ele>51.0</ele><time>2026-03-25T14:03:37.13Z</time></trkpt><trkpt lat="41.0509017" lon="14.325315"><ele>51.0</ele><time>2026-03-25T14:03:39.13Z</time></trkpt><trkpt lat="41.0507917" lon="14.325305"><ele>51.0</ele><time>2026-03-25T14:03:41.13Z</time></trkpt><trkpt lat="41.0506783" lon="14.32529"><ele>51.0</ele><time>2026-03-25T14:03:43.13Z</time></trkpt><trkpt lat="41.0505683" lon="14.325275"><ele>51.199999999999996</ele><time>2026-03-25T14:03:45.13Z</time></trkpt><trkpt lat="41.0504633" lon="14.32527"><ele>51.4</ele><time>2026-03-25T14:03:47.13Z</time></trkpt><trkpt lat="41.0503583" lon="14.3252633"><ele>51.6</ele><time>2026-03-25T14:03:49.13Z</time></trkpt><trkpt lat="41.0502583" lon="14.32526"><ele>51.8</ele><time>2026-03-25T14:03:51.13Z</time></trkpt><trkpt lat="41.05016" lon="14.325255"><ele>52.0</ele><time>2026-03-25T14:03:53.129Z</time></trkpt><trkpt lat="41.050085" lon="14.32526"><ele>51.99999999999999</ele><time>2026-03-25T14:03:55.13Z</time></trkpt><trkpt lat="41.050015" lon="14.3252433"><ele>52.0</ele><time>2026-03-25T14:03:58.13Z</time></trkpt><trkpt lat="41.04993" lon="14.32522"><ele>52.0</ele><time>2026-03-25T14:04:01.13Z</time></trkpt><trkpt lat="41.0498583" lon="14.3252233"><ele>52.0</ele><time>2026-03-25T14:04:03.129Z</time></trkpt><trkpt lat="41.049765" lon="14.3252183"><ele>51.99999999999999</ele><time>2026-03-25T14:04:05.129Z</time></trkpt><trkpt lat="41.04966" lon="14.3252083"><ele>52.0</ele><time>2026-03-25T14:04:07.131Z</time></trkpt><trkpt lat="41.0495533" lon="14.3252117"><ele>51.75</ele><time>2026-03-25T14:04:09.13Z</time></trkpt><trkpt lat="41.0494433" lon="14.325215"><ele>51.5</ele><time>2026-03-25T14:04:11.13Z</time></trkpt><trkpt lat="41.0493283" lon="14.3251917"><ele>51.25</ele><time>2026-03-25T14:04:13.132Z</time></trkpt><trkpt lat="41.0492117" lon="14.3251717"><ele>51.0</ele><time>2026-03-25T14:04:15.13Z</time></trkpt><trkpt lat="41.04909" lon="14.3251583"><ele>50.833333333333336</ele><time>2026-03-25T14:04:17.13Z</time></trkpt><trkpt lat="41.0490267" lon="14.3251517"><ele>50.66666666666667</ele><time>2026-03-25T14:04:18.13Z</time></trkpt><trkpt lat="41.0489583" lon="14.325145"><ele>50.5</ele><time>2026-03-25T14:04:19.131Z</time></trkpt><trkpt lat="41.0488933" lon="14.3251367"><ele>50.333333333333336</ele><time>2026-03-25T14:04:20.128Z</time></trkpt><trkpt lat="41.0487667" lon="14.3251267"><ele>50.16666666666667</ele><time>2026-03-25T14:04:22.13Z</time></trkpt><trkpt lat="41.0487017" lon="14.3251233"><ele>50.0</ele><time>2026-03-25T14:04:23.132Z</time></trkpt><trkpt lat="41.0486383" lon="14.3251183"><ele>50.00000000000001</ele><time>2026-03-25T14:04:24.129Z</time></trkpt><trkpt lat="41.04857" lon="14.32511"><ele>50.0</ele><time>2026-03-25T14:04:25.13Z</time></trkpt><trkpt lat="41.0485033" lon="14.3251033"><ele>50.0</ele><time>2026-03-25T14:04:26.13Z</time></trkpt><trkpt lat="41.04838" lon="14.3250983"><ele>50.0</ele><time>2026-03-25T14:04:28.13Z</time></trkpt><trkpt lat="41.0483167" lon="14.3250967"><ele>50.00000000000001</ele><time>2026-03-25T14:04:29.129Z</time></trkpt><trkpt lat="41.04819" lon="14.325085"><ele>50.0</ele><time>2026-03-25T14:04:31.13Z</time></trkpt><trkpt lat="41.0480667" lon="14.325075"><ele>49.714285714285715</ele><time>2026-03-25T14:04:33.13Z</time></trkpt><trkpt lat="41.0480017" lon="14.3250733"><ele>49.42857142857143</ele><time>2026-03-25T14:04:34.128Z</time></trkpt><trkpt lat="41.047935" lon="14.32507"><ele>49.14285714285714</ele><time>2026-03-25T14:04:35.13Z</time></trkpt><trkpt lat="41.047865" lon="14.3250633"><ele>48.85714285714286</ele><time>2026-03-25T14:04:36.13Z</time></trkpt><trkpt lat="41.0478" lon="14.3250583"><ele>48.57142857142857</ele><time>2026-03-25T14:04:37.129Z</time></trkpt><trkpt lat="41.0477367" lon="14.3250533"><ele>48.285714285714285</ele><time>2026-03-25T14:04:38.13Z</time></trkpt><trkpt lat="41.0476733" lon="14.3250467"><ele>48.0</ele><time>2026-03-25T14:04:39.13Z</time></trkpt><trkpt lat="41.04755" lon="14.3250283"><ele>47.99999999999999</ele><time>2026-03-25T14:04:41.13Z</time></trkpt><trkpt lat="41.047485" lon="14.325025"><ele>48.0</ele><time>2026-03-25T14:04:42.13Z</time></trkpt><trkpt lat="41.0474183" lon="14.3250183"><ele>48.0</ele><time>2026-03-25T14:04:43.13Z</time></trkpt><trkpt lat="41.0473533" lon="14.3250117"><ele>48.0</ele><time>2026-03-25T14:04:44.13Z</time></trkpt><trkpt lat="41.0472883" lon="14.325005"><ele>48.0</ele><time>2026-03-25T14:04:45.129Z</time></trkpt><trkpt lat="41.0472183" lon="14.3249983"><ele>47.99999999999999</ele><time>2026-03-25T14:04:46.13Z</time></trkpt><trkpt lat="41.0471467" lon="14.32499"><ele>48.0</ele><time>2026-03-25T14:04:47.129Z</time></trkpt><trkpt lat="41.0470767" lon="14.3249867"><ele>48.166666666666664</ele><time>2026-03-25T14:04:48.128Z</time></trkpt><trkpt lat="41.0470083" lon="14.3249833"><ele>48.33333333333333</ele><time>2026-03-25T14:04:49.132Z</time></trkpt><trkpt lat="41.0469417" lon="14.3249767"><ele>48.5</ele><time>2026-03-25T14:04:50.131Z</time></trkpt><trkpt lat="41.046875" lon="14.3249733"><ele>48.666666666666664</ele><time>2026-03-25T14:04:51.13Z</time></trkpt><trkpt lat="41.0468117" lon="14.3249683"><ele>48.83333333333333</ele><time>2026-03-25T14:04:52.129Z</time></trkpt><trkpt lat="41.0467467" lon="14.3249633"><ele>49.0</ele><time>2026-03-25T14:04:53.131Z</time></trkpt><trkpt lat="41.0466233" lon="14.3249517"><ele>48.25</ele><time>2026-03-25T14:04:55.131Z</time></trkpt><trkpt lat="41.0465" lon="14.3249383"><ele>47.5</ele><time>2026-03-25T14:04:57.13Z</time></trkpt><trkpt lat="41.0463817" lon="14.3249333"><ele>46.75</ele><time>2026-03-25T14:04:59.129Z</time></trkpt><trkpt lat="41.04626" lon="14.324925"><ele>46.0</ele><time>2026-03-25T14:05:01.131Z</time></trkpt><trkpt lat="41.0461367" lon="14.324915"><ele>46.0</ele><time>2026-03-25T14:05:03.129Z</time></trkpt><trkpt lat="41.046015" lon="14.3249033"><ele>46.0</ele><time>2026-03-25T14:05:05.13Z</time></trkpt><trkpt lat="41.045895" lon="14.3248917"><ele>46.0</ele><time>2026-03-25T14:05:07.13Z</time></trkpt><trkpt lat="41.0457733" lon="14.3248817"><ele>46.0</ele><time>2026-03-25T14:05:09.129Z</time></trkpt><trkpt lat="41.04571" lon="14.3248833"><ele>46.0</ele><time>2026-03-25T14:05:10.129Z</time></trkpt><trkpt lat="41.045645" lon="14.3248833"><ele>45.85714285714286</ele><time>2026-03-25T14:05:11.13Z</time></trkpt><trkpt lat="41.0455817" lon="14.3248817"><ele>45.71428571428571</ele><time>2026-03-25T14:05:12.13Z</time></trkpt><trkpt lat="41.0455183" lon="14.3248783"><ele>45.57142857142857</ele><time>2026-03-25T14:05:13.13Z</time></trkpt><trkpt lat="41.0454517" lon="14.3248767"><ele>45.42857142857143</ele><time>2026-03-25T14:05:14.129Z</time></trkpt><trkpt lat="41.045385" lon="14.3248733"><ele>45.28571428571429</ele><time>2026-03-25T14:05:15.13Z</time></trkpt><trkpt lat="41.0453167" lon="14.3248667"><ele>45.14285714285714</ele><time>2026-03-25T14:05:16.13Z</time></trkpt><trkpt lat="41.0452517" lon="14.3248633"><ele>45.0</ele><time>2026-03-25T14:05:17.129Z</time></trkpt><trkpt lat="41.0451833" lon="14.324865"><ele>45.0</ele><time>2026-03-25T14:05:18.129Z</time></trkpt><trkpt lat="41.0451167" lon="14.3248617"><ele>45.0</ele><time>2026-03-25T14:05:19.131Z</time></trkpt><trkpt lat="41.0450483" lon="14.3248567"><ele>45.0</ele><time>2026-03-25T14:05:20.13Z</time></trkpt><trkpt lat="41.04498" lon="14.32485"><ele>45.0</ele><time>2026-03-25T14:05:21.13Z</time></trkpt><trkpt lat="41.0449117" lon="14.324845"><ele>45.0</ele><time>2026-03-25T14:05:22.13Z</time></trkpt><trkpt lat="41.0448433" lon="14.324845"><ele>45.0</ele><time>2026-03-25T14:05:23.13Z</time></trkpt><trkpt lat="41.0447733" lon="14.3248433"><ele>45.0</ele><time>2026-03-25T14:05:24.13Z</time></trkpt><trkpt lat="41.0447017" lon="14.3248333"><ele>44.714285714285715</ele><time>2026-03-25T14:05:25.133Z</time></trkpt><trkpt lat="41.0446333" lon="14.3248183"><ele>44.42857142857143</ele><time>2026-03-25T14:05:26.133Z</time></trkpt><trkpt lat="41.0445667" lon="14.3248033"><ele>44.142857142857146</ele><time>2026-03-25T14:05:27.134Z</time></trkpt><trkpt lat="41.0445" lon="14.3247933"><ele>43.85714285714286</ele><time>2026-03-25T14:05:28.13Z</time></trkpt><trkpt lat="41.0444333" lon="14.324785"><ele>43.57142857142857</ele><time>2026-03-25T14:05:29.129Z</time></trkpt><trkpt lat="41.044365" lon="14.3247767"><ele>43.28571428571429</ele><time>2026-03-25T14:05:30.13Z</time></trkpt><trkpt lat="41.0443" lon="14.32477"><ele>43.0</ele><time>2026-03-25T14:05:31.129Z</time></trkpt><trkpt lat="41.0442333" lon="14.3247667"><ele>43.00000000000001</ele><time>2026-03-25T14:05:32.131Z</time></trkpt><trkpt lat="41.0441667" lon="14.32476"><ele>43.0</ele><time>2026-03-25T14:05:33.13Z</time></trkpt><trkpt lat="41.0440983" lon="14.3247533"><ele>43.0</ele><time>2026-03-25T14:05:34.129Z</time></trkpt><trkpt lat="41.0440283" lon="14.3247483"><ele>43.0</ele><time>2026-03-25T14:05:35.13Z</time></trkpt><trkpt lat="41.04396" lon="14.3247433"><ele>43.0</ele><time>2026-03-25T14:05:36.13Z</time></trkpt><trkpt lat="41.0438933" lon="14.3247417"><ele>43.00000000000001</ele><time>2026-03-25T14:05:37.132Z</time></trkpt><trkpt lat="41.0438283" lon="14.3247383"><ele>43.0</ele><time>2026-03-25T14:05:38.13Z</time></trkpt><trkpt lat="41.043765" lon="14.3247283"><ele>42.833333333333336</ele><time>2026-03-25T14:05:39.13Z</time></trkpt><trkpt lat="41.0437017" lon="14.324715"><ele>42.66666666666667</ele><time>2026-03-25T14:05:40.13Z</time></trkpt><trkpt lat="41.0436383" lon="14.324715"><ele>42.5</ele><time>2026-03-25T14:05:41.13Z</time></trkpt><trkpt lat="41.0435133" lon="14.32474"><ele>42.333333333333336</ele><time>2026-03-25T14:05:43.129Z</time></trkpt><trkpt lat="41.043445" lon="14.32474"><ele>42.166666666666664</ele><time>2026-03-25T14:05:44.13Z</time></trkpt><trkpt lat="41.04338" lon="14.324735"><ele>42.0</ele><time>2026-03-25T14:05:45.13Z</time></trkpt><trkpt lat="41.0433117" lon="14.3247283"><ele>41.857142857142854</ele><time>2026-03-25T14:05:46.13Z</time></trkpt><trkpt lat="41.043245" lon="14.3247167"><ele>41.714285714285715</ele><time>2026-03-25T14:05:47.13Z</time></trkpt><trkpt lat="41.04318" lon="14.3247033"><ele>41.57142857142857</ele><time>2026-03-25T14:05:48.129Z</time></trkpt><trkpt lat="41.0431133" lon="14.32469"><ele>41.42857142857143</ele><time>2026-03-25T14:05:49.132Z</time></trkpt><trkpt lat="41.0430433" lon="14.32468"><ele>41.285714285714285</ele><time>2026-03-25T14:05:50.131Z</time></trkpt><trkpt lat="41.0429767" lon="14.3246717"><ele>41.14285714285714</ele><time>2026-03-25T14:05:51.134Z</time></trkpt><trkpt lat="41.04291" lon="14.324675"><ele>41.0</ele><time>2026-03-25T14:05:52.13Z</time></trkpt><trkpt lat="41.0428433" lon="14.3246783"><ele>40.99999999999999</ele><time>2026-03-25T14:05:53.129Z</time></trkpt><trkpt lat="41.042775" lon="14.32468"><ele>41.0</ele><time>2026-03-25T14:05:54.13Z</time></trkpt><trkpt lat="41.0427067" lon="14.32468"><ele>41.0</ele><time>2026-03-25T14:05:55.135Z</time></trkpt><trkpt lat="41.042635" lon="14.3246783"><ele>41.0</ele><time>2026-03-25T14:05:56.129Z</time></trkpt><trkpt lat="41.042565" lon="14.3246767"><ele>41.0</ele><time>2026-03-25T14:05:57.131Z</time></trkpt><trkpt lat="41.0424983" lon="14.3246767"><ele>40.99999999999999</ele><time>2026-03-25T14:05:58.131Z</time></trkpt><trkpt lat="41.04243" lon="14.324675"><ele>41.0</ele><time>2026-03-25T14:05:59.129Z</time></trkpt><trkpt lat="41.04236" lon="14.3246733"><ele>41.285714285714285</ele><time>2026-03-25T14:06:00.13Z</time></trkpt><trkpt lat="41.04229" lon="14.32467"><ele>41.57142857142857</ele><time>2026-03-25T14:06:01.13Z</time></trkpt><trkpt lat="41.04222" lon="14.32467"><ele>41.85714285714286</ele><time>2026-03-25T14:06:02.13Z</time></trkpt><trkpt lat="41.0421533" lon="14.3246733"><ele>42.14285714285714</ele><time>2026-03-25T14:06:03.13Z</time></trkpt><trkpt lat="41.0420883" lon="14.3246733"><ele>42.42857142857143</ele><time>2026-03-25T14:06:04.129Z</time></trkpt><trkpt lat="41.04202" lon="14.3246733"><ele>42.714285714285715</ele><time>2026-03-25T14:06:05.13Z</time></trkpt><trkpt lat="41.0419517" lon="14.3246783"><ele>43.0</ele><time>2026-03-25T14:06:06.13Z</time></trkpt><trkpt lat="41.0418833" lon="14.3246817"><ele>43.00000000000001</ele><time>2026-03-25T14:06:07.13Z</time></trkpt><trkpt lat="41.0418133" lon="14.3246833"><ele>43.0</ele><time>2026-03-25T14:06:08.129Z</time></trkpt><trkpt lat="41.0417433" lon="14.3246867"><ele>43.0</ele><time>2026-03-25T14:06:09.131Z</time></trkpt><trkpt lat="41.0416733" lon="14.3246883"><ele>43.0</ele><time>2026-03-25T14:06:10.132Z</time></trkpt><trkpt lat="41.0416033" lon="14.3246917"><ele>43.0</ele><time>2026-03-25T14:06:11.13Z</time></trkpt><trkpt lat="41.0415317" lon="14.3246867"><ele>43.00000000000001</ele><time>2026-03-25T14:06:12.133Z</time></trkpt><trkpt lat="41.0414633" lon="14.324685"><ele>43.0</ele><time>2026-03-25T14:06:13.13Z</time></trkpt><trkpt lat="41.0413933" lon="14.3246833"><ele>42.42857142857143</ele><time>2026-03-25T14:06:14.13Z</time></trkpt><trkpt lat="41.0413233" lon="14.324685"><ele>41.85714285714286</ele><time>2026-03-25T14:06:15.129Z</time></trkpt><trkpt lat="41.0412517" lon="14.3246867"><ele>41.28571428571429</ele><time>2026-03-25T14:06:16.13Z</time></trkpt><trkpt lat="41.041185" lon="14.3246917"><ele>40.714285714285715</ele><time>2026-03-25T14:06:17.13Z</time></trkpt><trkpt lat="41.0411183" lon="14.32469"><ele>40.14285714285714</ele><time>2026-03-25T14:06:18.13Z</time></trkpt><trkpt lat="41.04105" lon="14.324685"><ele>39.57142857142858</ele><time>2026-03-25T14:06:19.13Z</time></trkpt><trkpt lat="41.0409833" lon="14.3246817"><ele>39.0</ele><time>2026-03-25T14:06:20.129Z</time></trkpt><trkpt lat="41.0409167" lon="14.3246817"><ele>39.0</ele><time>2026-03-25T14:06:21.129Z</time></trkpt><trkpt lat="41.0408533" lon="14.324685"><ele>39.0</ele><time>2026-03-25T14:06:22.13Z</time></trkpt><trkpt lat="41.0407883" lon="14.3246883"><ele>39.0</ele><time>2026-03-25T14:06:23.13Z</time></trkpt><trkpt lat="41.0407233" lon="14.3246917"><ele>39.0</ele><time>2026-03-25T14:06:24.129Z</time></trkpt><trkpt lat="41.0406567" lon="14.324695"><ele>39.0</ele><time>2026-03-25T14:06:25.13Z</time></trkpt><trkpt lat="41.040585" lon="14.3246967"><ele>39.0</ele><time>2026-03-25T14:06:26.129Z</time></trkpt><trkpt lat="41.04052" lon="14.3246883"><ele>39.0</ele><time>2026-03-25T14:06:27.133Z</time></trkpt><trkpt lat="41.0403967" lon="14.3246767"><ele>39.0</ele><time>2026-03-25T14:06:29.129Z</time></trkpt><trkpt lat="41.0403317" lon="14.32467"><ele>39.0</ele><time>2026-03-25T14:06:30.13Z</time></trkpt><trkpt lat="41.0402667" lon="14.3246667"><ele>39.0</ele><time>2026-03-25T14:06:31.13Z</time></trkpt><trkpt lat="41.0402017" lon="14.32466"><ele>39.0</ele><time>2026-03-25T14:06:32.13Z</time></trkpt><trkpt lat="41.0400783" lon="14.3246667"><ele>39.0</ele><time>2026-03-25T14:06:34.129Z</time></trkpt><trkpt lat="41.040015" lon="14.32467"><ele>39.0</ele><time>2026-03-25T14:06:35.13Z</time></trkpt><trkpt lat="41.03995" lon="14.3246783"><ele>39.0</ele><time>2026-03-25T14:06:36.128Z</time></trkpt><trkpt lat="41.0398867" lon="14.3246867"><ele>39.0</ele><time>2026-03-25T14:06:37.13Z</time></trkpt><trkpt lat="41.03982" lon="14.3246917"><ele>39.0</ele><time>2026-03-25T14:06:38.13Z</time></trkpt><trkpt lat="41.0397567" lon="14.3246917"><ele>39.0</ele><time>2026-03-25T14:06:39.129Z</time></trkpt><trkpt lat="41.0396933" lon="14.3246933"><ele>39.0</ele><time>2026-03-25T14:06:40.128Z</time></trkpt><trkpt lat="41.0396283" lon="14.3246917"><ele>39.0</ele><time>2026-03-25T14:06:41.131Z</time></trkpt><trkpt lat="41.0395067" lon="14.3246917"><ele>39.0</ele><time>2026-03-25T14:06:43.129Z</time></trkpt><trkpt lat="41.0393883" lon="14.32469"><ele>39.0</ele><time>2026-03-25T14:06:45.13Z</time></trkpt><trkpt lat="41.0392667" lon="14.32469"><ele>39.0</ele><time>2026-03-25T14:06:47.131Z</time></trkpt><trkpt lat="41.0391467" lon="14.32469"><ele>39.0</ele><time>2026-03-25T14:06:49.129Z</time></trkpt><trkpt lat="41.0390817" lon="14.3246917"><ele>39.0</ele><time>2026-03-25T14:06:50.129Z</time></trkpt><trkpt lat="41.0390183" lon="14.3246933"><ele>39.0</ele><time>2026-03-25T14:06:51.129Z</time></trkpt><trkpt lat="41.038955" lon="14.3246933"><ele>39.0</ele><time>2026-03-25T14:06:52.131Z</time></trkpt><trkpt lat="41.038835" lon="14.3246933"><ele>38.8</ele><time>2026-03-25T14:06:54.129Z</time></trkpt><trkpt lat="41.0387717" lon="14.3246917"><ele>38.599999999999994</ele><time>2026-03-25T14:06:55.132Z</time></trkpt><trkpt lat="41.03865" lon="14.3246883"><ele>38.4</ele><time>2026-03-25T14:06:57.128Z</time></trkpt><trkpt lat="41.03853" lon="14.32469"><ele>38.199999999999996</ele><time>2026-03-25T14:06:59.13Z</time></trkpt><trkpt lat="41.0384083" lon="14.3247017"><ele>38.0</ele><time>2026-03-25T14:07:01.13Z</time></trkpt><trkpt lat="41.0383417" lon="14.3247067"><ele>38.199999999999996</ele><time>2026-03-25T14:07:02.129Z</time></trkpt><trkpt lat="41.038275" lon="14.32471"><ele>38.4</ele><time>2026-03-25T14:07:03.13Z</time></trkpt><trkpt lat="41.0381517" lon="14.3247117"><ele>38.599999999999994</ele><time>2026-03-25T14:07:05.13Z</time></trkpt><trkpt lat="41.03803" lon="14.3247133"><ele>38.8</ele><time>2026-03-25T14:07:07.129Z</time></trkpt><trkpt lat="41.0379167" lon="14.3247183"><ele>39.0</ele><time>2026-03-25T14:07:09.129Z</time></trkpt><trkpt lat="41.0378067" lon="14.3247167"><ele>39.2</ele><time>2026-03-25T14:07:11.13Z</time></trkpt><trkpt lat="41.0376967" lon="14.324735"><ele>39.4</ele><time>2026-03-25T14:07:13.13Z</time></trkpt><trkpt lat="41.0375933" lon="14.324735"><ele>39.6</ele><time>2026-03-25T14:07:15.128Z</time></trkpt><trkpt lat="41.037485" lon="14.3247433"><ele>39.8</ele><time>2026-03-25T14:07:17.13Z</time></trkpt><trkpt lat="41.0373833" lon="14.3247267"><ele>40.0</ele><time>2026-03-25T14:07:19.129Z</time></trkpt><trkpt lat="41.0372883" lon="14.324715"><ele>40.0</ele><time>2026-03-25T14:07:21.136Z</time></trkpt><trkpt lat="41.03718" lon="14.3247"><ele>40.0</ele><time>2026-03-25T14:07:23.13Z</time></trkpt><trkpt lat="41.0370733" lon="14.3246983"><ele>40.0</ele><time>2026-03-25T14:07:25.129Z</time></trkpt><trkpt lat="41.0369567" lon="14.3246967"><ele>40.0</ele><time>2026-03-25T14:07:27.129Z</time></trkpt><trkpt lat="41.036845" lon="14.3246983"><ele>40.0</ele><time>2026-03-25T14:07:29.13Z</time></trkpt><trkpt lat="41.0367267" lon="14.324695"><ele>39.25</ele><time>2026-03-25T14:07:31.13Z</time></trkpt><trkpt lat="41.0366133" lon="14.3246933"><ele>38.5</ele><time>2026-03-25T14:07:33.129Z</time></trkpt><trkpt lat="41.0365083" lon="14.3246983"><ele>37.75</ele><time>2026-03-25T14:07:35.13Z</time></trkpt><trkpt lat="41.0363883" lon="14.3247"><ele>37.0</ele><time>2026-03-25T14:07:37.13Z</time></trkpt><trkpt lat="41.0362717" lon="14.324695"><ele>37.0</ele><time>2026-03-25T14:07:39.13Z</time></trkpt><trkpt lat="41.03616" lon="14.3246983"><ele>37.0</ele><time>2026-03-25T14:07:41.13Z</time></trkpt><trkpt lat="41.0360967" lon="14.3247233"><ele>37.0</ele><time>2026-03-25T14:07:42.129Z</time></trkpt><trkpt lat="41.03603" lon="14.3247033"><ele>37.0</ele><time>2026-03-25T14:07:43.13Z</time></trkpt><trkpt lat="41.0359517" lon="14.3246933"><ele>37.0</ele><time>2026-03-25T14:07:44.13Z</time></trkpt><trkpt lat="41.0358283" lon="14.3246883"><ele>37.0</ele><time>2026-03-25T14:07:46.129Z</time></trkpt><trkpt lat="41.0357633" lon="14.3246867"><ele>36.714285714285715</ele><time>2026-03-25T14:07:47.13Z</time></trkpt><trkpt lat="41.035695" lon="14.3246833"><ele>36.42857142857143</ele><time>2026-03-25T14:07:48.13Z</time></trkpt><trkpt lat="41.0356283" lon="14.3246867"><ele>36.14285714285714</ele><time>2026-03-25T14:07:49.129Z</time></trkpt><trkpt lat="41.0355633" lon="14.32469"><ele>35.85714285714286</ele><time>2026-03-25T14:07:50.129Z</time></trkpt><trkpt lat="41.035495" lon="14.324695"><ele>35.57142857142857</ele><time>2026-03-25T14:07:51.129Z</time></trkpt><trkpt lat="41.03543" lon="14.3246917"><ele>35.285714285714285</ele><time>2026-03-25T14:07:52.13Z</time></trkpt><trkpt lat="41.0353617" lon="14.3246917"><ele>35.0</ele><time>2026-03-25T14:07:53.13Z</time></trkpt><trkpt lat="41.0352967" lon="14.3246933"><ele>35.0</ele><time>2026-03-25T14:07:54.129Z</time></trkpt><trkpt lat="41.0352233" lon="14.3246917"><ele>35.0</ele><time>2026-03-25T14:07:55.13Z</time></trkpt><trkpt lat="41.03515" lon="14.3246933"><ele>35.0</ele><time>2026-03-25T14:07:56.129Z</time></trkpt><trkpt lat="41.0350783" lon="14.324695"><ele>35.0</ele><time>2026-03-25T14:07:57.129Z</time></trkpt><trkpt lat="41.0350017" lon="14.324695"><ele>35.0</ele><time>2026-03-25T14:07:58.129Z</time></trkpt><trkpt lat="41.034925" lon="14.324695"><ele>35.0</ele><time>2026-03-25T14:07:59.129Z</time></trkpt><trkpt lat="41.03485" lon="14.324695"><ele>35.0</ele><time>2026-03-25T14:08:00.129Z</time></trkpt><trkpt lat="41.0347767" lon="14.3246967"><ele>35.0</ele><time>2026-03-25T14:08:01.13Z</time></trkpt><trkpt lat="41.0347033" lon="14.3246983"><ele>35.0</ele><time>2026-03-25T14:08:02.128Z</time></trkpt><trkpt lat="41.03463" lon="14.3247017"><ele>35.0</ele><time>2026-03-25T14:08:03.13Z</time></trkpt><trkpt lat="41.0345583" lon="14.3247017"><ele>35.0</ele><time>2026-03-25T14:08:04.129Z</time></trkpt><trkpt lat="41.03449" lon="14.3247017"><ele>35.0</ele><time>2026-03-25T14:08:05.13Z</time></trkpt><trkpt lat="41.0344233" lon="14.3247"><ele>35.0</ele><time>2026-03-25T14:08:06.13Z</time></trkpt><trkpt lat="41.03436" lon="14.3247"><ele>35.0</ele><time>2026-03-25T14:08:07.13Z</time></trkpt><trkpt lat="41.0342967" lon="14.3247083"><ele>35.0</ele><time>2026-03-25T14:08:08.13Z</time></trkpt><trkpt lat="41.034225" lon="14.32471"><ele>35.0</ele><time>2026-03-25T14:08:09.13Z</time></trkpt><trkpt lat="41.034155" lon="14.3247117"><ele>35.0</ele><time>2026-03-25T14:08:10.133Z</time></trkpt><trkpt lat="41.0340867" lon="14.3247117"><ele>35.0</ele><time>2026-03-25T14:08:11.13Z</time></trkpt><trkpt lat="41.034015" lon="14.32471"><ele>35.0</ele><time>2026-03-25T14:08:12.13Z</time></trkpt><trkpt lat="41.033945" lon="14.3247083"><ele>35.0</ele><time>2026-03-25T14:08:13.131Z</time></trkpt><trkpt lat="41.03387" lon="14.3247083"><ele>35.0</ele><time>2026-03-25T14:08:14.129Z</time></trkpt><trkpt lat="41.0337983" lon="14.324715"><ele>35.0</ele><time>2026-03-25T14:08:15.133Z</time></trkpt><trkpt lat="41.0337267" lon="14.3247217"><ele>35.0</ele><time>2026-03-25T14:08:16.129Z</time></trkpt><trkpt lat="41.0336533" lon="14.3247233"><ele>35.0</ele><time>2026-03-25T14:08:17.129Z</time></trkpt><trkpt lat="41.0335767" lon="14.324725"><ele>35.0</ele><time>2026-03-25T14:08:18.129Z</time></trkpt><trkpt lat="41.0335067" lon="14.3247267"><ele>35.0</ele><time>2026-03-25T14:08:19.13Z</time></trkpt><trkpt lat="41.0334383" lon="14.3247317"><ele>35.0</ele><time>2026-03-25T14:08:20.129Z</time></trkpt><trkpt lat="41.03337" lon="14.3247367"><ele>35.0</ele><time>2026-03-25T14:08:21.129Z</time></trkpt><trkpt lat="41.0333017" lon="14.3247367"><ele>34.857142857142854</ele><time>2026-03-25T14:08:22.13Z</time></trkpt><trkpt lat="41.03323" lon="14.324735"><ele>34.714285714285715</ele><time>2026-03-25T14:08:23.13Z</time></trkpt><trkpt lat="41.033155" lon="14.324735"><ele>34.57142857142857</ele><time>2026-03-25T14:08:24.129Z</time></trkpt><trkpt lat="41.033085" lon="14.32474"><ele>34.42857142857143</ele><time>2026-03-25T14:08:25.129Z</time></trkpt><trkpt lat="41.0330183" lon="14.32474"><ele>34.285714285714285</ele><time>2026-03-25T14:08:26.129Z</time></trkpt><trkpt lat="41.0329517" lon="14.3247383"><ele>34.14285714285714</ele><time>2026-03-25T14:08:27.128Z</time></trkpt><trkpt lat="41.032885" lon="14.3247383"><ele>34.0</ele><time>2026-03-25T14:08:28.133Z</time></trkpt><trkpt lat="41.0328183" lon="14.32474"><ele>33.99999999999999</ele><time>2026-03-25T14:08:29.13Z</time></trkpt><trkpt lat="41.0327533" lon="14.324745"><ele>34.0</ele><time>2026-03-25T14:08:30.131Z</time></trkpt><trkpt lat="41.0326267" lon="14.3247517"><ele>34.0</ele><time>2026-03-25T14:08:32.13Z</time></trkpt><trkpt lat="41.0325633" lon="14.3247583"><ele>34.0</ele><time>2026-03-25T14:08:33.128Z</time></trkpt><trkpt lat="41.0325" lon="14.3247617"><ele>34.0</ele><time>2026-03-25T14:08:34.13Z</time></trkpt><trkpt lat="41.032435" lon="14.3247633"><ele>33.99999999999999</ele><time>2026-03-25T14:08:35.13Z</time></trkpt><trkpt lat="41.03237" lon="14.324765"><ele>34.0</ele><time>2026-03-25T14:08:36.13Z</time></trkpt><trkpt lat="41.032305" lon="14.324765"><ele>33.71428571428571</ele><time>2026-03-25T14:08:37.13Z</time></trkpt><trkpt lat="41.0322383" lon="14.3247633"><ele>33.42857142857143</ele><time>2026-03-25T14:08:38.129Z</time></trkpt><trkpt lat="41.0321733" lon="14.324765"><ele>33.14285714285714</ele><time>2026-03-25T14:08:39.13Z</time></trkpt><trkpt lat="41.0321067" lon="14.3247683"><ele>32.857142857142854</ele><time>2026-03-25T14:08:40.128Z</time></trkpt><trkpt lat="41.0320367" lon="14.3247683"><ele>32.57142857142857</ele><time>2026-03-25T14:08:41.13Z</time></trkpt><trkpt lat="41.0319717" lon="14.324765"><ele>32.285714285714285</ele><time>2026-03-25T14:08:42.13Z</time></trkpt><trkpt lat="41.0319033" lon="14.3247667"><ele>32.0</ele><time>2026-03-25T14:08:43.13Z</time></trkpt><trkpt lat="41.0318317" lon="14.324765"><ele>32.0</ele><time>2026-03-25T14:08:44.129Z</time></trkpt><trkpt lat="41.0317617" lon="14.3247667"><ele>31.999999999999996</ele><time>2026-03-25T14:08:45.129Z</time></trkpt><trkpt lat="41.0316933" lon="14.32477"><ele>32.0</ele><time>2026-03-25T14:08:46.13Z</time></trkpt><trkpt lat="41.0316217" lon="14.3247733"><ele>32.0</ele><time>2026-03-25T14:08:47.129Z</time></trkpt><trkpt lat="41.0315483" lon="14.324775"><ele>31.999999999999996</ele><time>2026-03-25T14:08:48.129Z</time></trkpt><trkpt lat="41.0314733" lon="14.3247717"><ele>32.0</ele><time>2026-03-25T14:08:49.13Z</time></trkpt><trkpt lat="41.0313983" lon="14.32477"><ele>32.0</ele><time>2026-03-25T14:08:50.129Z</time></trkpt><trkpt lat="41.0313283" lon="14.324765"><ele>32.0</ele><time>2026-03-25T14:08:51.13Z</time></trkpt><trkpt lat="41.0312617" lon="14.324765"><ele>31.999999999999996</ele><time>2026-03-25T14:08:52.133Z</time></trkpt><trkpt lat="41.031195" lon="14.324765"><ele>32.0</ele><time>2026-03-25T14:08:53.13Z</time></trkpt><trkpt lat="41.0311233" lon="14.324765"><ele>32.0</ele><time>2026-03-25T14:08:54.129Z</time></trkpt><trkpt lat="41.0310517" lon="14.324765"><ele>31.999999999999996</ele><time>2026-03-25T14:08:55.133Z</time></trkpt><trkpt lat="41.030985" lon="14.3247683"><ele>32.0</ele><time>2026-03-25T14:08:56.129Z</time></trkpt><trkpt lat="41.0309167" lon="14.3247717"><ele>32.0</ele><time>2026-03-25T14:08:57.13Z</time></trkpt><trkpt lat="41.0308483" lon="14.3247767"><ele>31.857142857142854</ele><time>2026-03-25T14:08:58.129Z</time></trkpt><trkpt lat="41.0307817" lon="14.3247783"><ele>31.71428571428571</ele><time>2026-03-25T14:08:59.13Z</time></trkpt><trkpt lat="41.0307167" lon="14.3247767"><ele>31.57142857142857</ele><time>2026-03-25T14:09:00.13Z</time></trkpt><trkpt lat="41.0306517" lon="14.32477"><ele>31.42857142857143</ele><time>2026-03-25T14:09:01.13Z</time></trkpt><trkpt lat="41.0305833" lon="14.3247667"><ele>31.28571428571429</ele><time>2026-03-25T14:09:02.13Z</time></trkpt><trkpt lat="41.030515" lon="14.3247667"><ele>31.142857142857146</ele><time>2026-03-25T14:09:03.129Z</time></trkpt><trkpt lat="41.0304483" lon="14.32477"><ele>31.0</ele><time>2026-03-25T14:09:04.129Z</time></trkpt><trkpt lat="41.030375" lon="14.3247733"><ele>31.0</ele><time>2026-03-25T14:09:05.132Z</time></trkpt><trkpt lat="41.0303017" lon="14.3247733"><ele>31.000000000000004</ele><time>2026-03-25T14:09:06.13Z</time></trkpt><trkpt lat="41.0302317" lon="14.3247733"><ele>31.0</ele><time>2026-03-25T14:09:07.13Z</time></trkpt><trkpt lat="41.03016" lon="14.32477"><ele>31.0</ele><time>2026-03-25T14:09:08.13Z</time></trkpt><trkpt lat="41.03009" lon="14.3247733"><ele>31.000000000000004</ele><time>2026-03-25T14:09:09.129Z</time></trkpt><trkpt lat="41.03002" lon="14.3247733"><ele>31.0</ele><time>2026-03-25T14:09:10.129Z</time></trkpt><trkpt lat="41.0299517" lon="14.32477"><ele>31.0</ele><time>2026-03-25T14:09:11.129Z</time></trkpt><trkpt lat="41.0298867" lon="14.3247733"><ele>31.142857142857146</ele><time>2026-03-25T14:09:12.13Z</time></trkpt><trkpt lat="41.02982" lon="14.324775"><ele>31.28571428571429</ele><time>2026-03-25T14:09:13.13Z</time></trkpt><trkpt lat="41.0297483" lon="14.324775"><ele>31.42857142857143</ele><time>2026-03-25T14:09:14.129Z</time></trkpt><trkpt lat="41.0296783" lon="14.3247767"><ele>31.57142857142857</ele><time>2026-03-25T14:09:15.13Z</time></trkpt><trkpt lat="41.029605" lon="14.3247783"><ele>31.71428571428571</ele><time>2026-03-25T14:09:16.13Z</time></trkpt><trkpt lat="41.029535" lon="14.32478"><ele>31.857142857142854</ele><time>2026-03-25T14:09:17.133Z</time></trkpt><trkpt lat="41.0294633" lon="14.3247833"><ele>32.0</ele><time>2026-03-25T14:09:18.13Z</time></trkpt><trkpt lat="41.029395" lon="14.324785"><ele>31.999999999999996</ele><time>2026-03-25T14:09:19.13Z</time></trkpt><trkpt lat="41.0293233" lon="14.3247883"><ele>32.0</ele><time>2026-03-25T14:09:20.132Z</time></trkpt><trkpt lat="41.0292533" lon="14.324785"><ele>32.0</ele><time>2026-03-25T14:09:21.134Z</time></trkpt><trkpt lat="41.0291867" lon="14.32478"><ele>32.0</ele><time>2026-03-25T14:09:22.13Z</time></trkpt><trkpt lat="41.0291217" lon="14.3247833"><ele>31.999999999999996</ele><time>2026-03-25T14:09:23.13Z</time></trkpt><trkpt lat="41.0290567" lon="14.324785"><ele>32.0</ele><time>2026-03-25T14:09:24.131Z</time></trkpt><trkpt lat="41.0289267" lon="14.324785"><ele>32.0</ele><time>2026-03-25T14:09:26.133Z</time></trkpt><trkpt lat="41.0288567" lon="14.3247833"><ele>32.0</ele><time>2026-03-25T14:09:27.13Z</time></trkpt><trkpt lat="41.0287317" lon="14.3247833"><ele>32.0</ele><time>2026-03-25T14:09:29.13Z</time></trkpt><trkpt lat="41.028665" lon="14.3247833"><ele>32.0</ele><time>2026-03-25T14:09:30.134Z</time></trkpt><trkpt lat="41.0285467" lon="14.3247833"><ele>32.0</ele><time>2026-03-25T14:09:32.129Z</time></trkpt><trkpt lat="41.0284217" lon="14.3247833"><ele>31.999999999999996</ele><time>2026-03-25T14:09:34.129Z</time></trkpt><trkpt lat="41.0283567" lon="14.3247817"><ele>32.0</ele><time>2026-03-25T14:09:35.129Z</time></trkpt><trkpt lat="41.0282883" lon="14.3247817"><ele>32.0</ele><time>2026-03-25T14:09:36.133Z</time></trkpt><trkpt lat="41.02822" lon="14.32478"><ele>32.0</ele><time>2026-03-25T14:09:37.131Z</time></trkpt><trkpt lat="41.0280933" lon="14.3247783"><ele>31.999999999999996</ele><time>2026-03-25T14:09:39.13Z</time></trkpt><trkpt lat="41.0280267" lon="14.3247783"><ele>32.0</ele><time>2026-03-25T14:09:40.129Z</time></trkpt><trkpt lat="41.0279617" lon="14.3247767"><ele>32.166666666666664</ele><time>2026-03-25T14:09:41.132Z</time></trkpt><trkpt lat="41.0278967" lon="14.3247767"><ele>32.33333333333333</ele><time>2026-03-25T14:09:42.132Z</time></trkpt><trkpt lat="41.0278317" lon="14.3247767"><ele>32.5</ele><time>2026-03-25T14:09:43.129Z</time></trkpt><trkpt lat="41.0277667" lon="14.3247767"><ele>32.666666666666664</ele><time>2026-03-25T14:09:44.13Z</time></trkpt><trkpt lat="41.0277033" lon="14.3247717"><ele>32.833333333333336</ele><time>2026-03-25T14:09:45.13Z</time></trkpt><trkpt lat="41.02758" lon="14.3247683"><ele>33.0</ele><time>2026-03-25T14:09:47.13Z</time></trkpt><trkpt lat="41.0274583" lon="14.3247717"><ele>32.5</ele><time>2026-03-25T14:09:49.133Z</time></trkpt><trkpt lat="41.02733" lon="14.3247733"><ele>32.0</ele><time>2026-03-25T14:09:51.13Z</time></trkpt><trkpt lat="41.0272617" lon="14.3247733"><ele>31.5</ele><time>2026-03-25T14:09:52.13Z</time></trkpt><trkpt lat="41.0271917" lon="14.3247717"><ele>31.0</ele><time>2026-03-25T14:09:53.13Z</time></trkpt><trkpt lat="41.0271233" lon="14.3247717"><ele>30.5</ele><time>2026-03-25T14:09:54.13Z</time></trkpt><trkpt lat="41.027055" lon="14.3247733"><ele>30.0</ele><time>2026-03-25T14:09:55.13Z</time></trkpt><trkpt lat="41.0269867" lon="14.324775"><ele>30.0</ele><time>2026-03-25T14:09:56.129Z</time></trkpt><trkpt lat="41.026915" lon="14.3247717"><ele>30.0</ele><time>2026-03-25T14:09:57.129Z</time></trkpt><trkpt lat="41.02685" lon="14.324775"><ele>30.0</ele><time>2026-03-25T14:09:58.13Z</time></trkpt><trkpt lat="41.026785" lon="14.3247817"><ele>30.0</ele><time>2026-03-25T14:09:59.131Z</time></trkpt><trkpt lat="41.0267183" lon="14.3247867"><ele>30.0</ele><time>2026-03-25T14:10:00.131Z</time></trkpt><trkpt lat="41.0266517" lon="14.324785"><ele>30.0</ele><time>2026-03-25T14:10:01.13Z</time></trkpt><trkpt lat="41.0265833" lon="14.3247867"><ele>30.0</ele><time>2026-03-25T14:10:02.13Z</time></trkpt><trkpt lat="41.0265167" lon="14.32479"><ele>29.833333333333332</ele><time>2026-03-25T14:10:03.129Z</time></trkpt><trkpt lat="41.0264483" lon="14.3247917"><ele>29.666666666666664</ele><time>2026-03-25T14:10:04.13Z</time></trkpt><trkpt lat="41.02638" lon="14.3247967"><ele>29.5</ele><time>2026-03-25T14:10:05.13Z</time></trkpt><trkpt lat="41.0263167" lon="14.3248017"><ele>29.333333333333332</ele><time>2026-03-25T14:10:06.129Z</time></trkpt><trkpt lat="41.0262533" lon="14.3248017"><ele>29.166666666666664</ele><time>2026-03-25T14:10:07.13Z</time></trkpt><trkpt lat="41.0261283" lon="14.3247967"><ele>29.0</ele><time>2026-03-25T14:10:09.128Z</time></trkpt><trkpt lat="41.026" lon="14.324805"><ele>28.999999999999996</ele><time>2026-03-25T14:10:11.131Z</time></trkpt><trkpt lat="41.0259333" lon="14.3248033"><ele>29.0</ele><time>2026-03-25T14:10:12.13Z</time></trkpt><trkpt lat="41.0258667" lon="14.324805"><ele>29.0</ele><time>2026-03-25T14:10:13.13Z</time></trkpt><trkpt lat="41.0257983" lon="14.3248067"><ele>29.0</ele><time>2026-03-25T14:10:14.132Z</time></trkpt><trkpt lat="41.02573" lon="14.3248117"><ele>28.999999999999996</ele><time>2026-03-25T14:10:15.13Z</time></trkpt><trkpt lat="41.0256667" lon="14.3248183"><ele>29.0</ele><time>2026-03-25T14:10:16.13Z</time></trkpt><trkpt lat="41.0255417" lon="14.3248333"><ele>28.799999999999997</ele><time>2026-03-25T14:10:18.129Z</time></trkpt><trkpt lat="41.025475" lon="14.3248367"><ele>28.599999999999998</ele><time>2026-03-25T14:10:19.13Z</time></trkpt><trkpt lat="41.0254117" lon="14.3248367"><ele>28.4</ele><time>2026-03-25T14:10:20.13Z</time></trkpt><trkpt lat="41.0252967" lon="14.32486"><ele>28.2</ele><time>2026-03-25T14:10:22.129Z</time></trkpt><trkpt lat="41.0251783" lon="14.3248783"><ele>28.0</ele><time>2026-03-25T14:10:24.13Z</time></trkpt><trkpt lat="41.02505" lon="14.324875"><ele>28.000000000000004</ele><time>2026-03-25T14:10:26.129Z</time></trkpt><trkpt lat="41.0249833" lon="14.324875"><ele>28.0</ele><time>2026-03-25T14:10:27.13Z</time></trkpt><trkpt lat="41.024915" lon="14.3248767"><ele>28.0</ele><time>2026-03-25T14:10:28.131Z</time></trkpt><trkpt lat="41.02485" lon="14.3248783"><ele>28.0</ele><time>2026-03-25T14:10:29.129Z</time></trkpt><trkpt lat="41.0247267" lon="14.3248667"><ele>28.000000000000004</ele><time>2026-03-25T14:10:31.133Z</time></trkpt><trkpt lat="41.0246633" lon="14.3248567"><ele>28.0</ele><time>2026-03-25T14:10:32.129Z</time></trkpt><trkpt lat="41.024555" lon="14.3248117"><ele>27.833333333333336</ele><time>2026-03-25T14:10:34.129Z</time></trkpt><trkpt lat="41.024465" lon="14.3247667"><ele>27.666666666666668</ele><time>2026-03-25T14:10:36.128Z</time></trkpt><trkpt lat="41.0244017" lon="14.32475"><ele>27.5</ele><time>2026-03-25T14:10:38.13Z</time></trkpt><trkpt lat="41.0243233" lon="14.3247667"><ele>27.333333333333336</ele><time>2026-03-25T14:10:41.128Z</time></trkpt><trkpt lat="41.02424" lon="14.32479"><ele>27.166666666666668</ele><time>2026-03-25T14:10:43.13Z</time></trkpt><trkpt lat="41.0241333" lon="14.3247933"><ele>27.0</ele><time>2026-03-25T14:10:45.129Z</time></trkpt><trkpt lat="41.0240183" lon="14.324795"><ele>27.0</ele><time>2026-03-25T14:10:47.128Z</time></trkpt><trkpt lat="41.0238967" lon="14.3247967"><ele>27.000000000000004</ele><time>2026-03-25T14:10:49.131Z</time></trkpt><trkpt lat="41.0237717" lon="14.3248067"><ele>27.000000000000004</ele><time>2026-03-25T14:10:51.128Z</time></trkpt><trkpt lat="41.0237083" lon="14.3248117"><ele>27.0</ele><time>2026-03-25T14:10:52.13Z</time></trkpt><trkpt lat="41.0235867" lon="14.3248167"><ele>27.0</ele><time>2026-03-25T14:10:54.13Z</time></trkpt><trkpt lat="41.0235233" lon="14.3248133"><ele>27.0</ele><time>2026-03-25T14:10:55.129Z</time></trkpt><trkpt lat="41.02346" lon="14.3248133"><ele>27.0</ele><time>2026-03-25T14:10:56.129Z</time></trkpt><trkpt lat="41.0233933" lon="14.3248117"><ele>27.0</ele><time>2026-03-25T14:10:57.129Z</time></trkpt><trkpt lat="41.0233267" lon="14.3248117"><ele>27.0</ele><time>2026-03-25T14:10:58.131Z</time></trkpt><trkpt lat="41.0232633" lon="14.3248133"><ele>27.0</ele><time>2026-03-25T14:10:59.129Z</time></trkpt><trkpt lat="41.0232" lon="14.324815"><ele>27.0</ele><time>2026-03-25T14:11:00.129Z</time></trkpt><trkpt lat="41.023135" lon="14.324815"><ele>27.0</ele><time>2026-03-25T14:11:01.129Z</time></trkpt><trkpt lat="41.02307" lon="14.324815"><ele>27.0</ele><time>2026-03-25T14:11:02.129Z</time></trkpt><trkpt lat="41.0230067" lon="14.324815"><ele>27.0</ele><time>2026-03-25T14:11:03.129Z</time></trkpt><trkpt lat="41.02294" lon="14.32482"><ele>27.0</ele><time>2026-03-25T14:11:04.129Z</time></trkpt><trkpt lat="41.0228733" lon="14.3248217"><ele>27.0</ele><time>2026-03-25T14:11:05.13Z</time></trkpt><trkpt lat="41.0228067" lon="14.3248233"><ele>27.0</ele><time>2026-03-25T14:11:06.129Z</time></trkpt><trkpt lat="41.02274" lon="14.3248233"><ele>27.0</ele><time>2026-03-25T14:11:07.13Z</time></trkpt><trkpt lat="41.02267" lon="14.3248267"><ele>27.0</ele><time>2026-03-25T14:11:08.129Z</time></trkpt><trkpt lat="41.0226033" lon="14.32483"><ele>27.0</ele><time>2026-03-25T14:11:09.129Z</time></trkpt><trkpt lat="41.0225367" lon="14.3248333"><ele>27.0</ele><time>2026-03-25T14:11:10.129Z</time></trkpt><trkpt lat="41.02247" lon="14.3248333"><ele>27.0</ele><time>2026-03-25T14:11:11.129Z</time></trkpt><trkpt lat="41.0224" lon="14.324835"><ele>27.0</ele><time>2026-03-25T14:11:12.129Z</time></trkpt><trkpt lat="41.0223283" lon="14.3248333"><ele>27.0</ele><time>2026-03-25T14:11:13.129Z</time></trkpt><trkpt lat="41.02226" lon="14.324835"><ele>27.0</ele><time>2026-03-25T14:11:14.129Z</time></trkpt><trkpt lat="41.02219" lon="14.324835"><ele>27.0</ele><time>2026-03-25T14:11:15.128Z</time></trkpt><trkpt lat="41.0221217" lon="14.3248333"><ele>27.0</ele><time>2026-03-25T14:11:16.13Z</time></trkpt><trkpt lat="41.0220533" lon="14.32483"><ele>27.0</ele><time>2026-03-25T14:11:17.129Z</time></trkpt><trkpt lat="41.0219817" lon="14.32483"><ele>27.0</ele><time>2026-03-25T14:11:18.129Z</time></trkpt><trkpt lat="41.0219133" lon="14.3248333"><ele>27.0</ele><time>2026-03-25T14:11:19.128Z</time></trkpt><trkpt lat="41.0218433" lon="14.3248383"><ele>27.0</ele><time>2026-03-25T14:11:20.128Z</time></trkpt><trkpt lat="41.0217733" lon="14.3248417"><ele>27.0</ele><time>2026-03-25T14:11:21.128Z</time></trkpt><trkpt lat="41.0217033" lon="14.3248433"><ele>27.0</ele><time>2026-03-25T14:11:22.13Z</time></trkpt><trkpt lat="41.0216283" lon="14.3248417"><ele>26.857142857142858</ele><time>2026-03-25T14:11:23.129Z</time></trkpt><trkpt lat="41.0215583" lon="14.3248433"><ele>26.714285714285715</ele><time>2026-03-25T14:11:24.129Z</time></trkpt><trkpt lat="41.02149" lon="14.3248467"><ele>26.57142857142857</ele><time>2026-03-25T14:11:25.13Z</time></trkpt><trkpt lat="41.0214217" lon="14.32485"><ele>26.42857142857143</ele><time>2026-03-25T14:11:26.129Z</time></trkpt><trkpt lat="41.02135" lon="14.324855"><ele>26.28571428571429</ele><time>2026-03-25T14:11:27.128Z</time></trkpt><trkpt lat="41.02128" lon="14.324855"><ele>26.142857142857142</ele><time>2026-03-25T14:11:28.128Z</time></trkpt><trkpt lat="41.0212083" lon="14.3248533"><ele>26.0</ele><time>2026-03-25T14:11:29.129Z</time></trkpt><trkpt lat="41.0211383" lon="14.3248533"><ele>26.0</ele><time>2026-03-25T14:11:30.131Z</time></trkpt><trkpt lat="41.02107" lon="14.3248517"><ele>26.0</ele><time>2026-03-25T14:11:31.129Z</time></trkpt><trkpt lat="41.0210017" lon="14.32485"><ele>26.0</ele><time>2026-03-25T14:11:32.129Z</time></trkpt><trkpt lat="41.020935" lon="14.32485"><ele>26.0</ele><time>2026-03-25T14:11:33.132Z</time></trkpt><trkpt lat="41.02087" lon="14.32485"><ele>26.0</ele><time>2026-03-25T14:11:34.13Z</time></trkpt><trkpt lat="41.0208" lon="14.3248533"><ele>26.0</ele><time>2026-03-25T14:11:35.131Z</time></trkpt><trkpt lat="41.020735" lon="14.3248533"><ele>26.0</ele><time>2026-03-25T14:11:36.13Z</time></trkpt><trkpt lat="41.02067" lon="14.3248517"><ele>25.857142857142858</ele><time>2026-03-25T14:11:37.129Z</time></trkpt><trkpt lat="41.0206033" lon="14.3248483"><ele>25.714285714285715</ele><time>2026-03-25T14:11:38.129Z</time></trkpt><trkpt lat="41.0205367" lon="14.3248467"><ele>25.571428571428573</ele><time>2026-03-25T14:11:39.129Z</time></trkpt><trkpt lat="41.0204717" lon="14.3248483"><ele>25.42857142857143</ele><time>2026-03-25T14:11:40.128Z</time></trkpt><trkpt lat="41.020405" lon="14.3248483"><ele>25.285714285714285</ele><time>2026-03-25T14:11:41.13Z</time></trkpt><trkpt lat="41.0203367" lon="14.32485"><ele>25.142857142857146</ele><time>2026-03-25T14:11:42.129Z</time></trkpt><trkpt lat="41.0202733" lon="14.3248517"><ele>25.0</ele><time>2026-03-25T14:11:43.129Z</time></trkpt><trkpt lat="41.02021" lon="14.3248533"><ele>25.000000000000004</ele><time>2026-03-25T14:11:44.128Z</time></trkpt><trkpt lat="41.0201467" lon="14.3248517"><ele>25.0</ele><time>2026-03-25T14:11:45.129Z</time></trkpt><trkpt lat="41.0200833" lon="14.3248517"><ele>25.0</ele><time>2026-03-25T14:11:46.129Z</time></trkpt><trkpt lat="41.02002" lon="14.3248533"><ele>25.0</ele><time>2026-03-25T14:11:47.13Z</time></trkpt><trkpt lat="41.0198933" lon="14.3248533"><ele>25.0</ele><time>2026-03-25T14:11:49.129Z</time></trkpt><trkpt lat="41.0198267" lon="14.3248583"><ele>25.000000000000004</ele><time>2026-03-25T14:11:50.129Z</time></trkpt><trkpt lat="41.0197617" lon="14.3248617"><ele>25.0</ele><time>2026-03-25T14:11:51.127Z</time></trkpt><trkpt lat="41.0196933" lon="14.3248617"><ele>24.714285714285715</ele><time>2026-03-25T14:11:52.128Z</time></trkpt><trkpt lat="41.0196233" lon="14.3248583"><ele>24.42857142857143</ele><time>2026-03-25T14:11:53.131Z</time></trkpt><trkpt lat="41.019555" lon="14.3248583"><ele>24.142857142857146</ele><time>2026-03-25T14:11:54.129Z</time></trkpt><trkpt lat="41.019485" lon="14.3248567"><ele>23.857142857142858</ele><time>2026-03-25T14:11:55.128Z</time></trkpt><trkpt lat="41.0194133" lon="14.324855"><ele>23.57142857142857</ele><time>2026-03-25T14:11:56.129Z</time></trkpt><trkpt lat="41.0193417" lon="14.3248567"><ele>23.28571428571429</ele><time>2026-03-25T14:11:57.128Z</time></trkpt><trkpt lat="41.0192667" lon="14.3248567"><ele>23.0</ele><time>2026-03-25T14:11:58.129Z</time></trkpt><trkpt lat="41.0191933" lon="14.32486"><ele>23.142857142857142</ele><time>2026-03-25T14:11:59.129Z</time></trkpt><trkpt lat="41.0191217" lon="14.3248583"><ele>23.285714285714285</ele><time>2026-03-25T14:12:00.129Z</time></trkpt><trkpt lat="41.0190517" lon="14.3248617"><ele>23.428571428571427</ele><time>2026-03-25T14:12:01.129Z</time></trkpt><trkpt lat="41.01898" lon="14.32486"><ele>23.57142857142857</ele><time>2026-03-25T14:12:02.129Z</time></trkpt><trkpt lat="41.01891" lon="14.3248583"><ele>23.714285714285715</ele><time>2026-03-25T14:12:03.129Z</time></trkpt><trkpt lat="41.0188367" lon="14.3248567"><ele>23.857142857142854</ele><time>2026-03-25T14:12:04.128Z</time></trkpt><trkpt lat="41.018765" lon="14.3248567"><ele>24.0</ele><time>2026-03-25T14:12:05.128Z</time></trkpt><trkpt lat="41.0186933" lon="14.3248583"><ele>23.999999999999996</ele><time>2026-03-25T14:12:06.129Z</time></trkpt><trkpt lat="41.018625" lon="14.32486"><ele>24.0</ele><time>2026-03-25T14:12:07.129Z</time></trkpt><trkpt lat="41.018555" lon="14.32486"><ele>24.0</ele><time>2026-03-25T14:12:08.128Z</time></trkpt><trkpt lat="41.0184833" lon="14.32486"><ele>24.0</ele><time>2026-03-25T14:12:09.129Z</time></trkpt><trkpt lat="41.018405" lon="14.3248583"><ele>24.0</ele><time>2026-03-25T14:12:10.129Z</time></trkpt><trkpt lat="41.0183333" lon="14.3248617"><ele>23.999999999999996</ele><time>2026-03-25T14:12:11.128Z</time></trkpt><trkpt lat="41.01826" lon="14.3248617"><ele>24.0</ele><time>2026-03-25T14:12:12.129Z</time></trkpt><trkpt lat="41.01819" lon="14.3248633"><ele>23.857142857142854</ele><time>2026-03-25T14:12:13.13Z</time></trkpt><trkpt lat="41.0181217" lon="14.324865"><ele>23.714285714285715</ele><time>2026-03-25T14:12:14.129Z</time></trkpt><trkpt lat="41.01805" lon="14.32487"><ele>23.57142857142857</ele><time>2026-03-25T14:12:15.128Z</time></trkpt><trkpt lat="41.0179817" lon="14.32487"><ele>23.428571428571427</ele><time>2026-03-25T14:12:16.128Z</time></trkpt><trkpt lat="41.0179117" lon="14.324875"><ele>23.285714285714285</ele><time>2026-03-25T14:12:17.128Z</time></trkpt><trkpt lat="41.0178417" lon="14.3248767"><ele>23.142857142857142</ele><time>2026-03-25T14:12:18.129Z</time></trkpt><trkpt lat="41.01777" lon="14.3248767"><ele>23.0</ele><time>2026-03-25T14:12:19.129Z</time></trkpt><trkpt lat="41.017705" lon="14.3248783"><ele>23.0</ele><time>2026-03-25T14:12:20.129Z</time></trkpt><trkpt lat="41.0176367" lon="14.324885"><ele>23.0</ele><time>2026-03-25T14:12:21.129Z</time></trkpt><trkpt lat="41.0175717" lon="14.3248933"><ele>23.0</ele><time>2026-03-25T14:12:22.129Z</time></trkpt><trkpt lat="41.0175033" lon="14.32489"><ele>23.0</ele><time>2026-03-25T14:12:23.129Z</time></trkpt><trkpt lat="41.017435" lon="14.3248817"><ele>23.0</ele><time>2026-03-25T14:12:24.129Z</time></trkpt><trkpt lat="41.0173667" lon="14.3248767"><ele>23.0</ele><time>2026-03-25T14:12:25.128Z</time></trkpt><trkpt lat="41.0172983" lon="14.3248767"><ele>23.0</ele><time>2026-03-25T14:12:26.129Z</time></trkpt><trkpt lat="41.0172283" lon="14.32488"><ele>23.42857142857143</ele><time>2026-03-25T14:12:27.128Z</time></trkpt><trkpt lat="41.0171583" lon="14.324885"><ele>23.857142857142854</ele><time>2026-03-25T14:12:28.13Z</time></trkpt><trkpt lat="41.0170867" lon="14.3248917"><ele>24.285714285714285</ele><time>2026-03-25T14:12:29.129Z</time></trkpt><trkpt lat="41.0170183" lon="14.3249017"><ele>24.714285714285715</ele><time>2026-03-25T14:12:30.129Z</time></trkpt><trkpt lat="41.0169533" lon="14.3249083"><ele>25.142857142857146</ele><time>2026-03-25T14:12:31.129Z</time></trkpt><trkpt lat="41.0168867" lon="14.3249133"><ele>25.57142857142857</ele><time>2026-03-25T14:12:32.129Z</time></trkpt><trkpt lat="41.0168183" lon="14.3249117"><ele>26.0</ele><time>2026-03-25T14:12:33.128Z</time></trkpt><trkpt lat="41.0167517" lon="14.3249133"><ele>26.0</ele><time>2026-03-25T14:12:34.129Z</time></trkpt><trkpt lat="41.01668" lon="14.3249133"><ele>26.0</ele><time>2026-03-25T14:12:35.13Z</time></trkpt><trkpt lat="41.01661" lon="14.3249133"><ele>26.0</ele><time>2026-03-25T14:12:36.129Z</time></trkpt><trkpt lat="41.01654" lon="14.3249167"><ele>26.0</ele><time>2026-03-25T14:12:37.129Z</time></trkpt><trkpt lat="41.01647" lon="14.3249183"><ele>26.0</ele><time>2026-03-25T14:12:38.129Z</time></trkpt><trkpt lat="41.0164" lon="14.3249167"><ele>26.0</ele><time>2026-03-25T14:12:39.129Z</time></trkpt><trkpt lat="41.0163233" lon="14.3249183"><ele>26.0</ele><time>2026-03-25T14:12:40.129Z</time></trkpt><trkpt lat="41.0162583" lon="14.32492"><ele>25.6</ele><time>2026-03-25T14:12:41.129Z</time></trkpt><trkpt lat="41.0161917" lon="14.324915"><ele>25.200000000000003</ele><time>2026-03-25T14:12:42.128Z</time></trkpt><trkpt lat="41.016075" lon="14.3249167"><ele>24.799999999999997</ele><time>2026-03-25T14:12:44.131Z</time></trkpt><trkpt lat="41.015955" lon="14.3249167"><ele>24.4</ele><time>2026-03-25T14:12:46.129Z</time></trkpt><trkpt lat="41.0158317" lon="14.3249067"><ele>24.0</ele><time>2026-03-25T14:12:48.129Z</time></trkpt><trkpt lat="41.0157683" lon="14.324905"><ele>23.999999999999996</ele><time>2026-03-25T14:12:49.13Z</time></trkpt><trkpt lat="41.015705" lon="14.3249033"><ele>24.0</ele><time>2026-03-25T14:12:50.128Z</time></trkpt><trkpt lat="41.01564" lon="14.3249"><ele>24.0</ele><time>2026-03-25T14:12:51.127Z</time></trkpt><trkpt lat="41.015575" lon="14.3248983"><ele>24.0</ele><time>2026-03-25T14:12:52.128Z</time></trkpt><trkpt lat="41.0155067" lon="14.3248933"><ele>24.0</ele><time>2026-03-25T14:12:53.13Z</time></trkpt><trkpt lat="41.0154417" lon="14.3248883"><ele>23.999999999999996</ele><time>2026-03-25T14:12:54.13Z</time></trkpt><trkpt lat="41.015375" lon="14.324885"><ele>24.0</ele><time>2026-03-25T14:12:55.129Z</time></trkpt><trkpt lat="41.0153117" lon="14.3248817"><ele>24.0</ele><time>2026-03-25T14:12:56.13Z</time></trkpt><trkpt lat="41.01519" lon="14.3248633"><ele>24.0</ele><time>2026-03-25T14:12:58.129Z</time></trkpt><trkpt lat="41.0151267" lon="14.3248467"><ele>24.0</ele><time>2026-03-25T14:12:59.13Z</time></trkpt><trkpt lat="41.015065" lon="14.32483"><ele>24.0</ele><time>2026-03-25T14:13:00.129Z</time></trkpt><trkpt lat="41.014945" lon="14.3247983"><ele>24.0</ele><time>2026-03-25T14:13:02.128Z</time></trkpt><trkpt lat="41.0148267" lon="14.324755"><ele>24.25</ele><time>2026-03-25T14:13:04.129Z</time></trkpt><trkpt lat="41.0147067" lon="14.32471"><ele>24.5</ele><time>2026-03-25T14:13:06.129Z</time></trkpt><trkpt lat="41.0145967" lon="14.3246633"><ele>24.75</ele><time>2026-03-25T14:13:08.131Z</time></trkpt><trkpt lat="41.0144867" lon="14.3246183"><ele>25.0</ele><time>2026-03-25T14:13:10.129Z</time></trkpt><trkpt lat="41.014365" lon="14.3245583"><ele>25.0</ele><time>2026-03-25T14:13:12.129Z</time></trkpt><trkpt lat="41.014305" lon="14.3245317"><ele>25.0</ele><time>2026-03-25T14:13:13.129Z</time></trkpt><trkpt lat="41.0142083" lon="14.32446"><ele>25.0</ele><time>2026-03-25T14:13:15.128Z</time></trkpt><trkpt lat="41.0141117" lon="14.3243833"><ele>25.0</ele><time>2026-03-25T14:13:17.128Z</time></trkpt><trkpt lat="41.0140167" lon="14.3243133"><ele>25.0</ele><time>2026-03-25T14:13:19.129Z</time></trkpt><trkpt lat="41.01392" lon="14.3242517"><ele>25.0</ele><time>2026-03-25T14:13:21.129Z</time></trkpt><trkpt lat="41.0138283" lon="14.3241917"><ele>25.0</ele><time>2026-03-25T14:13:23.129Z</time></trkpt><trkpt lat="41.0137267" lon="14.324125"><ele>25.0</ele><time>2026-03-25T14:13:25.129Z</time></trkpt><trkpt lat="41.0136283" lon="14.3240567"><ele>25.0</ele><time>2026-03-25T14:13:27.128Z</time></trkpt><trkpt lat="41.01353" lon="14.3239833"><ele>25.0</ele><time>2026-03-25T14:13:29.128Z</time></trkpt><trkpt lat="41.01343" lon="14.32391"><ele>25.2</ele><time>2026-03-25T14:13:31.129Z</time></trkpt><trkpt lat="41.0133483" lon="14.3238367"><ele>25.4</ele><time>2026-03-25T14:13:33.128Z</time></trkpt><trkpt lat="41.0132567" lon="14.3237583"><ele>25.6</ele><time>2026-03-25T14:13:35.129Z</time></trkpt><trkpt lat="41.0131667" lon="14.3236733"><ele>25.8</ele><time>2026-03-25T14:13:37.129Z</time></trkpt><trkpt lat="41.0130717" lon="14.3235817"><ele>26.0</ele><time>2026-03-25T14:13:39.128Z</time></trkpt><trkpt lat="41.01298" lon="14.323485"><ele>26.0</ele><time>2026-03-25T14:13:41.129Z</time></trkpt><trkpt lat="41.01289" lon="14.3233917"><ele>26.0</ele><time>2026-03-25T14:13:43.129Z</time></trkpt><trkpt lat="41.012815" lon="14.3233083"><ele>26.0</ele><time>2026-03-25T14:13:45.129Z</time></trkpt><trkpt lat="41.0127317" lon="14.3232133"><ele>26.0</ele><time>2026-03-25T14:13:47.129Z</time></trkpt><trkpt lat="41.0126417" lon="14.32311"><ele>26.0</ele><time>2026-03-25T14:13:49.129Z</time></trkpt><trkpt lat="41.0125583" lon="14.3230083"><ele>25.8</ele><time>2026-03-25T14:13:51.129Z</time></trkpt><trkpt lat="41.012465" lon="14.3229083"><ele>25.6</ele><time>2026-03-25T14:13:53.129Z</time></trkpt><trkpt lat="41.0123717" lon="14.3228033"><ele>25.4</ele><time>2026-03-25T14:13:55.129Z</time></trkpt><trkpt lat="41.0123217" lon="14.3227483"><ele>25.2</ele><time>2026-03-25T14:13:56.129Z</time></trkpt><trkpt lat="41.012275" lon="14.3226917"><ele>25.0</ele><time>2026-03-25T14:13:57.129Z</time></trkpt><trkpt lat="41.0121867" lon="14.3225817"><ele>25.0</ele><time>2026-03-25T14:13:59.129Z</time></trkpt><trkpt lat="41.0120883" lon="14.3224767"><ele>25.0</ele><time>2026-03-25T14:14:01.13Z</time></trkpt><trkpt lat="41.0119967" lon="14.3223683"><ele>25.0</ele><time>2026-03-25T14:14:03.129Z</time></trkpt><trkpt lat="41.0119033" lon="14.322255"><ele>25.0</ele><time>2026-03-25T14:14:05.129Z</time></trkpt><trkpt lat="41.0118533" lon="14.3221967"><ele>25.0</ele><time>2026-03-25T14:14:06.13Z</time></trkpt><trkpt lat="41.0118" lon="14.3221433"><ele>24.714285714285715</ele><time>2026-03-25T14:14:07.129Z</time></trkpt><trkpt lat="41.0117483" lon="14.322085"><ele>24.42857142857143</ele><time>2026-03-25T14:14:08.136Z</time></trkpt><trkpt lat="41.0116933" lon="14.3220283"><ele>24.142857142857146</ele><time>2026-03-25T14:14:09.129Z</time></trkpt><trkpt lat="41.0116383" lon="14.321965"><ele>23.857142857142858</ele><time>2026-03-25T14:14:10.13Z</time></trkpt><trkpt lat="41.0115817" lon="14.3219017"><ele>23.57142857142857</ele><time>2026-03-25T14:14:11.129Z</time></trkpt><trkpt lat="41.0115283" lon="14.32183"><ele>23.28571428571429</ele><time>2026-03-25T14:14:12.128Z</time></trkpt><trkpt lat="41.0114783" lon="14.3217567"><ele>23.0</ele><time>2026-03-25T14:14:13.13Z</time></trkpt><trkpt lat="41.01142" lon="14.3216817"><ele>23.0</ele><time>2026-03-25T14:14:14.128Z</time></trkpt><trkpt lat="41.0113617" lon="14.32161"><ele>23.0</ele><time>2026-03-25T14:14:15.128Z</time></trkpt><trkpt lat="41.0113083" lon="14.321545"><ele>23.0</ele><time>2026-03-25T14:14:16.128Z</time></trkpt><trkpt lat="41.011255" lon="14.3214767"><ele>23.0</ele><time>2026-03-25T14:14:17.129Z</time></trkpt><trkpt lat="41.011205" lon="14.3214067"><ele>23.0</ele><time>2026-03-25T14:14:18.129Z</time></trkpt><trkpt lat="41.0111533" lon="14.3213367"><ele>23.0</ele><time>2026-03-25T14:14:19.128Z</time></trkpt><trkpt lat="41.0110983" lon="14.3212683"><ele>23.0</ele><time>2026-03-25T14:14:20.129Z</time></trkpt><trkpt lat="41.0110467" lon="14.321205"><ele>22.833333333333336</ele><time>2026-03-25T14:14:21.129Z</time></trkpt><trkpt lat="41.0109933" lon="14.3211417"><ele>22.666666666666668</ele><time>2026-03-25T14:14:22.128Z</time></trkpt><trkpt lat="41.0109383" lon="14.3210767"><ele>22.5</ele><time>2026-03-25T14:14:23.129Z</time></trkpt><trkpt lat="41.010875" lon="14.321015"><ele>22.333333333333332</ele><time>2026-03-25T14:14:24.129Z</time></trkpt><trkpt lat="41.0108183" lon="14.32095"><ele>22.166666666666664</ele><time>2026-03-25T14:14:25.129Z</time></trkpt><trkpt lat="41.0107633" lon="14.32088"><ele>22.0</ele><time>2026-03-25T14:14:26.128Z</time></trkpt><trkpt lat="41.01071" lon="14.32081"><ele>22.0</ele><time>2026-03-25T14:14:27.128Z</time></trkpt><trkpt lat="41.0106583" lon="14.3207367"><ele>22.0</ele><time>2026-03-25T14:14:28.129Z</time></trkpt><trkpt lat="41.0106017" lon="14.3206683"><ele>22.0</ele><time>2026-03-25T14:14:29.129Z</time></trkpt><trkpt lat="41.0105417" lon="14.3206083"><ele>22.0</ele><time>2026-03-25T14:14:30.13Z</time></trkpt><trkpt lat="41.0104833" lon="14.3205583"><ele>22.0</ele><time>2026-03-25T14:14:31.129Z</time></trkpt><trkpt lat="41.0104233" lon="14.3205133"><ele>22.0</ele><time>2026-03-25T14:14:32.128Z</time></trkpt><trkpt lat="41.010365" lon="14.3204733"><ele>22.0</ele><time>2026-03-25T14:14:33.129Z</time></trkpt><trkpt lat="41.0103017" lon="14.320435"><ele>22.142857142857142</ele><time>2026-03-25T14:14:34.129Z</time></trkpt><trkpt lat="41.0102367" lon="14.3204017"><ele>22.285714285714285</ele><time>2026-03-25T14:14:35.129Z</time></trkpt><trkpt lat="41.0101717" lon="14.3203717"><ele>22.42857142857143</ele><time>2026-03-25T14:14:36.129Z</time></trkpt><trkpt lat="41.0101083" lon="14.3203517"><ele>22.57142857142857</ele><time>2026-03-25T14:14:37.128Z</time></trkpt><trkpt lat="41.0100417" lon="14.3203367"><ele>22.71428571428571</ele><time>2026-03-25T14:14:38.129Z</time></trkpt><trkpt lat="41.009975" lon="14.32032"><ele>22.857142857142858</ele><time>2026-03-25T14:14:39.13Z</time></trkpt><trkpt lat="41.009905" lon="14.3203"><ele>23.0</ele><time>2026-03-25T14:14:40.129Z</time></trkpt><trkpt lat="41.009835" lon="14.3202783"><ele>22.571428571428573</ele><time>2026-03-25T14:14:41.129Z</time></trkpt><trkpt lat="41.0097667" lon="14.3202533"><ele>22.142857142857142</ele><time>2026-03-25T14:14:42.129Z</time></trkpt><trkpt lat="41.0097" lon="14.3202267"><ele>21.714285714285715</ele><time>2026-03-25T14:14:43.129Z</time></trkpt><trkpt lat="41.009635" lon="14.320195"><ele>21.285714285714285</ele><time>2026-03-25T14:14:44.128Z</time></trkpt><trkpt lat="41.0095667" lon="14.3201633"><ele>20.857142857142858</ele><time>2026-03-25T14:14:45.129Z</time></trkpt><trkpt lat="41.0094983" lon="14.3201383"><ele>20.428571428571427</ele><time>2026-03-25T14:14:46.13Z</time></trkpt><trkpt lat="41.0094267" lon="14.3201117"><ele>20.0</ele><time>2026-03-25T14:14:47.13Z</time></trkpt><trkpt lat="41.0093567" lon="14.3200833"><ele>20.0</ele><time>2026-03-25T14:14:48.129Z</time></trkpt><trkpt lat="41.009285" lon="14.320055"><ele>20.0</ele><time>2026-03-25T14:14:49.13Z</time></trkpt><trkpt lat="41.0092117" lon="14.3200283"><ele>20.0</ele><time>2026-03-25T14:14:50.129Z</time></trkpt><trkpt lat="41.0091433" lon="14.3200083"><ele>20.0</ele><time>2026-03-25T14:14:51.13Z</time></trkpt><trkpt lat="41.0090767" lon="14.3199833"><ele>20.0</ele><time>2026-03-25T14:14:52.129Z</time></trkpt><trkpt lat="41.0090083" lon="14.3199583"><ele>20.0</ele><time>2026-03-25T14:14:53.129Z</time></trkpt><trkpt lat="41.0089367" lon="14.319935"><ele>20.0</ele><time>2026-03-25T14:14:54.129Z</time></trkpt><trkpt lat="41.008865" lon="14.3199133"><ele>20.0</ele><time>2026-03-25T14:14:55.128Z</time></trkpt><trkpt lat="41.0087967" lon="14.3198883"><ele>20.0</ele><time>2026-03-25T14:14:56.128Z</time></trkpt><trkpt lat="41.0087217" lon="14.3198633"><ele>20.0</ele><time>2026-03-25T14:14:57.129Z</time></trkpt><trkpt lat="41.0086517" lon="14.3198417"><ele>20.0</ele><time>2026-03-25T14:14:58.128Z</time></trkpt><trkpt lat="41.0085867" lon="14.3198183"><ele>20.0</ele><time>2026-03-25T14:14:59.129Z</time></trkpt><trkpt lat="41.00852" lon="14.3197883"><ele>20.0</ele><time>2026-03-25T14:15:00.129Z</time></trkpt><trkpt lat="41.0084517" lon="14.3197633"><ele>20.0</ele><time>2026-03-25T14:15:01.129Z</time></trkpt><trkpt lat="41.0083833" lon="14.3197383"><ele>20.0</ele><time>2026-03-25T14:15:02.129Z</time></trkpt><trkpt lat="41.00832" lon="14.3197183"><ele>20.0</ele><time>2026-03-25T14:15:03.129Z</time></trkpt><trkpt lat="41.0082567" lon="14.3196983"><ele>20.0</ele><time>2026-03-25T14:15:04.129Z</time></trkpt><trkpt lat="41.008195" lon="14.3196783"><ele>20.0</ele><time>2026-03-25T14:15:05.129Z</time></trkpt><trkpt lat="41.0081283" lon="14.319655"><ele>20.0</ele><time>2026-03-25T14:15:06.131Z</time></trkpt><trkpt lat="41.0080583" lon="14.3196333"><ele>20.0</ele><time>2026-03-25T14:15:07.128Z</time></trkpt><trkpt lat="41.0079917" lon="14.31961"><ele>20.0</ele><time>2026-03-25T14:15:08.129Z</time></trkpt><trkpt lat="41.0079283" lon="14.3195817"><ele>20.0</ele><time>2026-03-25T14:15:09.129Z</time></trkpt><trkpt lat="41.0078667" lon="14.31956"><ele>20.0</ele><time>2026-03-25T14:15:10.129Z</time></trkpt><trkpt lat="41.0077967" lon="14.319535"><ele>20.0</ele><time>2026-03-25T14:15:11.131Z</time></trkpt><trkpt lat="41.0077283" lon="14.3195083"><ele>20.0</ele><time>2026-03-25T14:15:12.129Z</time></trkpt><trkpt lat="41.0076617" lon="14.31948"><ele>20.0</ele><time>2026-03-25T14:15:13.13Z</time></trkpt><trkpt lat="41.00759" lon="14.3194567"><ele>20.0</ele><time>2026-03-25T14:15:14.131Z</time></trkpt><trkpt lat="41.0075233" lon="14.3194317"><ele>20.0</ele><time>2026-03-25T14:15:15.13Z</time></trkpt><trkpt lat="41.0074567" lon="14.3194133"><ele>20.333333333333336</ele><time>2026-03-25T14:15:16.129Z</time></trkpt><trkpt lat="41.007325" lon="14.319375"><ele>20.666666666666668</ele><time>2026-03-25T14:15:18.129Z</time></trkpt><trkpt lat="41.0072583" lon="14.319355"><ele>21.0</ele><time>2026-03-25T14:15:19.13Z</time></trkpt><trkpt lat="41.0071867" lon="14.3193333"><ele>21.333333333333332</ele><time>2026-03-25T14:15:20.129Z</time></trkpt><trkpt lat="41.0071117" lon="14.3193117"><ele>21.666666666666664</ele><time>2026-03-25T14:15:21.129Z</time></trkpt><trkpt lat="41.00704" lon="14.3192967"><ele>22.0</ele><time>2026-03-25T14:15:22.133Z</time></trkpt><trkpt lat="41.006975" lon="14.3192733"><ele>22.0</ele><time>2026-03-25T14:15:23.129Z</time></trkpt><trkpt lat="41.0069117" lon="14.319245"><ele>22.0</ele><time>2026-03-25T14:15:24.129Z</time></trkpt><trkpt lat="41.0068467" lon="14.3192267"><ele>22.0</ele><time>2026-03-25T14:15:25.13Z</time></trkpt><trkpt lat="41.0067217" lon="14.3191817"><ele>22.0</ele><time>2026-03-25T14:15:27.128Z</time></trkpt><trkpt lat="41.0066583" lon="14.3191533"><ele>22.0</ele><time>2026-03-25T14:15:28.128Z</time></trkpt><trkpt lat="41.0065933" lon="14.3191267"><ele>22.0</ele><time>2026-03-25T14:15:29.129Z</time></trkpt><trkpt lat="41.0065283" lon="14.3191033"><ele>21.833333333333332</ele><time>2026-03-25T14:15:30.129Z</time></trkpt><trkpt lat="41.00646" lon="14.3190817"><ele>21.666666666666664</ele><time>2026-03-25T14:15:31.129Z</time></trkpt><trkpt lat="41.006395" lon="14.3190583"><ele>21.5</ele><time>2026-03-25T14:15:32.128Z</time></trkpt><trkpt lat="41.00633" lon="14.3190333"><ele>21.333333333333332</ele><time>2026-03-25T14:15:33.129Z</time></trkpt><trkpt lat="41.0062717" lon="14.3189983"><ele>21.166666666666668</ele><time>2026-03-25T14:15:34.128Z</time></trkpt><trkpt lat="41.0062183" lon="14.3189517"><ele>21.0</ele><time>2026-03-25T14:15:35.132Z</time></trkpt><trkpt lat="41.0061267" lon="14.3188267"><ele>21.0</ele><time>2026-03-25T14:15:37.132Z</time></trkpt><trkpt lat="41.0060867" lon="14.3187533"><ele>21.0</ele><time>2026-03-25T14:15:38.129Z</time></trkpt><trkpt lat="41.0060483" lon="14.3186817"><ele>21.0</ele><time>2026-03-25T14:15:39.129Z</time></trkpt><trkpt lat="41.0060083" lon="14.3186133"><ele>21.0</ele><time>2026-03-25T14:15:40.13Z</time></trkpt><trkpt lat="41.0059083" lon="14.3185317"><ele>21.0</ele><time>2026-03-25T14:15:42.129Z</time></trkpt><trkpt lat="41.0057983" lon="14.3185133"><ele>21.0</ele><time>2026-03-25T14:15:44.129Z</time></trkpt><trkpt lat="41.0056833" lon="14.3185733"><ele>20.857142857142858</ele><time>2026-03-25T14:15:46.129Z</time></trkpt><trkpt lat="41.0056317" lon="14.3186217"><ele>20.714285714285715</ele><time>2026-03-25T14:15:47.128Z</time></trkpt><trkpt lat="41.0055783" lon="14.3186717"><ele>20.57142857142857</ele><time>2026-03-25T14:15:48.129Z</time></trkpt><trkpt lat="41.005485" lon="14.3187767"><ele>20.42857142857143</ele><time>2026-03-25T14:15:50.128Z</time></trkpt><trkpt lat="41.00544" lon="14.3188367"><ele>20.285714285714285</ele><time>2026-03-25T14:15:51.129Z</time></trkpt><trkpt lat="41.0053967" lon="14.3188983"><ele>20.142857142857142</ele><time>2026-03-25T14:15:52.13Z</time></trkpt><trkpt lat="41.0053517" lon="14.3189617"><ele>20.0</ele><time>2026-03-25T14:15:53.131Z</time></trkpt><trkpt lat="41.005255" lon="14.3190733"><ele>20.333333333333336</ele><time>2026-03-25T14:15:55.129Z</time></trkpt><trkpt lat="41.005135" lon="14.3191367"><ele>20.666666666666668</ele><time>2026-03-25T14:15:57.129Z</time></trkpt><trkpt lat="41.0050683" lon="14.3191467"><ele>21.0</ele><time>2026-03-25T14:15:58.13Z</time></trkpt><trkpt lat="41.005" lon="14.3191467"><ele>21.333333333333332</ele><time>2026-03-25T14:15:59.131Z</time></trkpt><trkpt lat="41.004925" lon="14.3191433"><ele>21.666666666666664</ele><time>2026-03-25T14:16:00.129Z</time></trkpt><trkpt lat="41.0048533" lon="14.31913"><ele>22.0</ele><time>2026-03-25T14:16:01.13Z</time></trkpt><trkpt lat="41.0047817" lon="14.31911"><ele>22.142857142857142</ele><time>2026-03-25T14:16:02.129Z</time></trkpt><trkpt lat="41.0047133" lon="14.3190817"><ele>22.285714285714285</ele><time>2026-03-25T14:16:03.129Z</time></trkpt><trkpt lat="41.0046517" lon="14.3190433"><ele>22.42857142857143</ele><time>2026-03-25T14:16:04.129Z</time></trkpt><trkpt lat="41.0045817" lon="14.31902"><ele>22.57142857142857</ele><time>2026-03-25T14:16:05.13Z</time></trkpt><trkpt lat="41.004515" lon="14.3189967"><ele>22.71428571428571</ele><time>2026-03-25T14:16:06.129Z</time></trkpt><trkpt lat="41.00445" lon="14.3189733"><ele>22.857142857142858</ele><time>2026-03-25T14:16:07.13Z</time></trkpt><trkpt lat="41.0043783" lon="14.318945"><ele>23.0</ele><time>2026-03-25T14:16:08.129Z</time></trkpt><trkpt lat="41.0043117" lon="14.3189167"><ele>22.5</ele><time>2026-03-25T14:16:09.129Z</time></trkpt><trkpt lat="41.0042483" lon="14.3188967"><ele>22.0</ele><time>2026-03-25T14:16:10.129Z</time></trkpt><trkpt lat="41.0041833" lon="14.3188767"><ele>21.5</ele><time>2026-03-25T14:16:11.129Z</time></trkpt><trkpt lat="41.00412" lon="14.3188583"><ele>21.0</ele><time>2026-03-25T14:16:12.13Z</time></trkpt><trkpt lat="41.003995" lon="14.31882"><ele>20.5</ele><time>2026-03-25T14:16:14.128Z</time></trkpt><trkpt lat="41.0039283" lon="14.3188167"><ele>20.0</ele><time>2026-03-25T14:16:15.129Z</time></trkpt><trkpt lat="41.0038633" lon="14.31881"><ele>19.857142857142858</ele><time>2026-03-25T14:16:16.129Z</time></trkpt><trkpt lat="41.0037983" lon="14.3188017"><ele>19.714285714285715</ele><time>2026-03-25T14:16:17.129Z</time></trkpt><trkpt lat="41.0037333" lon="14.318795"><ele>19.57142857142857</ele><time>2026-03-25T14:16:18.129Z</time></trkpt><trkpt lat="41.0036683" lon="14.31879"><ele>19.42857142857143</ele><time>2026-03-25T14:16:19.132Z</time></trkpt><trkpt lat="41.0035467" lon="14.3187717"><ele>19.28571428571429</ele><time>2026-03-25T14:16:21.13Z</time></trkpt><trkpt lat="41.0034833" lon="14.3187617"><ele>19.142857142857142</ele><time>2026-03-25T14:16:22.129Z</time></trkpt><trkpt lat="41.0034167" lon="14.3187533"><ele>19.0</ele><time>2026-03-25T14:16:23.128Z</time></trkpt><trkpt lat="41.0033483" lon="14.3187433"><ele>19.428571428571427</ele><time>2026-03-25T14:16:24.13Z</time></trkpt><trkpt lat="41.0032783" lon="14.318735"><ele>19.857142857142858</ele><time>2026-03-25T14:16:25.129Z</time></trkpt><trkpt lat="41.0032067" lon="14.3187267"><ele>20.285714285714285</ele><time>2026-03-25T14:16:26.13Z</time></trkpt><trkpt lat="41.0031367" lon="14.3187167"><ele>20.714285714285715</ele><time>2026-03-25T14:16:27.129Z</time></trkpt><trkpt lat="41.003065" lon="14.3187083"><ele>21.142857142857142</ele><time>2026-03-25T14:16:28.129Z</time></trkpt><trkpt lat="41.0029933" lon="14.3187033"><ele>21.571428571428573</ele><time>2026-03-25T14:16:29.129Z</time></trkpt><trkpt lat="41.0029233" lon="14.3186967"><ele>22.0</ele><time>2026-03-25T14:16:30.13Z</time></trkpt><trkpt lat="41.0028533" lon="14.3186883"><ele>22.0</ele><time>2026-03-25T14:16:31.129Z</time></trkpt><trkpt lat="41.0027833" lon="14.3186783"><ele>22.0</ele><time>2026-03-25T14:16:32.129Z</time></trkpt><trkpt lat="41.0027133" lon="14.3186717"><ele>22.0</ele><time>2026-03-25T14:16:33.13Z</time></trkpt><trkpt lat="41.0026417" lon="14.3186683"><ele>22.0</ele><time>2026-03-25T14:16:34.129Z</time></trkpt><trkpt lat="41.0025717" lon="14.3186667"><ele>22.0</ele><time>2026-03-25T14:16:35.128Z</time></trkpt><trkpt lat="41.0025067" lon="14.3186667"><ele>22.0</ele><time>2026-03-25T14:16:36.133Z</time></trkpt><trkpt lat="41.0024383" lon="14.3186683"><ele>22.0</ele><time>2026-03-25T14:16:37.129Z</time></trkpt><trkpt lat="41.0023717" lon="14.3186683"><ele>21.857142857142858</ele><time>2026-03-25T14:16:38.133Z</time></trkpt><trkpt lat="41.002305" lon="14.3186783"><ele>21.714285714285715</ele><time>2026-03-25T14:16:39.129Z</time></trkpt><trkpt lat="41.0022383" lon="14.3186967"><ele>21.57142857142857</ele><time>2026-03-25T14:16:40.13Z</time></trkpt><trkpt lat="41.0021733" lon="14.3187217"><ele>21.42857142857143</ele><time>2026-03-25T14:16:41.129Z</time></trkpt><trkpt lat="41.00211" lon="14.3187483"><ele>21.285714285714285</ele><time>2026-03-25T14:16:42.129Z</time></trkpt><trkpt lat="41.002045" lon="14.3187683"><ele>21.142857142857142</ele><time>2026-03-25T14:16:43.129Z</time></trkpt><trkpt lat="41.0019733" lon="14.3187767"><ele>21.0</ele><time>2026-03-25T14:16:44.129Z</time></trkpt><trkpt lat="41.0019" lon="14.3187733"><ele>21.0</ele><time>2026-03-25T14:16:45.129Z</time></trkpt><trkpt lat="41.0018383" lon="14.3187467"><ele>21.0</ele><time>2026-03-25T14:16:46.129Z</time></trkpt><trkpt lat="41.00177" lon="14.3187217"><ele>21.0</ele><time>2026-03-25T14:16:47.129Z</time></trkpt><trkpt lat="41.0017017" lon="14.3187017"><ele>21.0</ele><time>2026-03-25T14:16:48.129Z</time></trkpt><trkpt lat="41.0016333" lon="14.3187"><ele>21.0</ele><time>2026-03-25T14:16:49.129Z</time></trkpt><trkpt lat="41.0015683" lon="14.3187033"><ele>21.0</ele><time>2026-03-25T14:16:50.128Z</time></trkpt><trkpt lat="41.001445" lon="14.3186783"><ele>21.0</ele><time>2026-03-25T14:16:52.129Z</time></trkpt><trkpt lat="41.0013817" lon="14.318645"><ele>21.0</ele><time>2026-03-25T14:16:53.129Z</time></trkpt><trkpt lat="41.00132" lon="14.3186017"><ele>21.0</ele><time>2026-03-25T14:16:54.13Z</time></trkpt><trkpt lat="41.0012567" lon="14.3185633"><ele>21.0</ele><time>2026-03-25T14:16:55.129Z</time></trkpt><trkpt lat="41.0011917" lon="14.3185333"><ele>21.0</ele><time>2026-03-25T14:16:56.128Z</time></trkpt><trkpt lat="41.0011267" lon="14.318515"><ele>21.0</ele><time>2026-03-25T14:16:57.13Z</time></trkpt><trkpt lat="41.0010617" lon="14.3185033"><ele>21.0</ele><time>2026-03-25T14:16:58.129Z</time></trkpt><trkpt lat="41.0009983" lon="14.3184933"><ele>21.0</ele><time>2026-03-25T14:16:59.13Z</time></trkpt><trkpt lat="41.00093" lon="14.3184867"><ele>21.0</ele><time>2026-03-25T14:17:00.129Z</time></trkpt><trkpt lat="41.0008617" lon="14.3184783"><ele>21.0</ele><time>2026-03-25T14:17:01.129Z</time></trkpt><trkpt lat="41.0007933" lon="14.31847"><ele>21.0</ele><time>2026-03-25T14:17:02.129Z</time></trkpt><trkpt lat="41.0007283" lon="14.3184583"><ele>21.0</ele><time>2026-03-25T14:17:03.129Z</time></trkpt><trkpt lat="41.0006017" lon="14.31843"><ele>21.0</ele><time>2026-03-25T14:17:05.13Z</time></trkpt><trkpt lat="41.0005367" lon="14.3184183"><ele>21.0</ele><time>2026-03-25T14:17:06.13Z</time></trkpt><trkpt lat="41.0004667" lon="14.3184117"><ele>21.0</ele><time>2026-03-25T14:17:07.134Z</time></trkpt><trkpt lat="41.000395" lon="14.31841"><ele>21.0</ele><time>2026-03-25T14:17:08.133Z</time></trkpt><trkpt lat="41.0003217" lon="14.3184083"><ele>21.0</ele><time>2026-03-25T14:17:09.129Z</time></trkpt><trkpt lat="41.00025" lon="14.3184"><ele>21.0</ele><time>2026-03-25T14:17:10.13Z</time></trkpt><trkpt lat="41.000175" lon="14.3183917"><ele>21.0</ele><time>2026-03-25T14:17:11.132Z</time></trkpt><trkpt lat="41.0001" lon="14.3183817"><ele>21.0</ele><time>2026-03-25T14:17:12.129Z</time></trkpt><trkpt lat="41.0000217" lon="14.3183733"><ele>21.0</ele><time>2026-03-25T14:17:13.129Z</time></trkpt><trkpt lat="40.999945" lon="14.3183633"><ele>21.0</ele><time>2026-03-25T14:17:14.129Z</time></trkpt><trkpt lat="40.9998717" lon="14.318355"><ele>21.0</ele><time>2026-03-25T14:17:15.134Z</time></trkpt><trkpt lat="40.9997983" lon="14.3183483"><ele>21.0</ele><time>2026-03-25T14:17:16.129Z</time></trkpt><trkpt lat="40.9997283" lon="14.3183433"><ele>21.0</ele><time>2026-03-25T14:17:17.13Z</time></trkpt><trkpt lat="40.9996567" lon="14.31834"><ele>21.0</ele><time>2026-03-25T14:17:18.132Z</time></trkpt><trkpt lat="40.9995883" lon="14.31833"><ele>21.0</ele><time>2026-03-25T14:17:19.133Z</time></trkpt><trkpt lat="40.9995233" lon="14.3183217"><ele>21.0</ele><time>2026-03-25T14:17:20.128Z</time></trkpt><trkpt lat="40.999455" lon="14.3183183"><ele>21.0</ele><time>2026-03-25T14:17:21.132Z</time></trkpt><trkpt lat="40.9993867" lon="14.3183133"><ele>21.0</ele><time>2026-03-25T14:17:22.129Z</time></trkpt><trkpt lat="40.9993183" lon="14.318305"><ele>21.0</ele><time>2026-03-25T14:17:23.129Z</time></trkpt><trkpt lat="40.9992517" lon="14.3182917"><ele>21.0</ele><time>2026-03-25T14:17:24.129Z</time></trkpt><trkpt lat="40.9991867" lon="14.3182817"><ele>21.0</ele><time>2026-03-25T14:17:25.228Z</time></trkpt><trkpt lat="40.99912" lon="14.318275"><ele>21.0</ele><time>2026-03-25T14:17:26.128Z</time></trkpt><trkpt lat="40.9990533" lon="14.318265"><ele>21.0</ele><time>2026-03-25T14:17:27.132Z</time></trkpt><trkpt lat="40.998985" lon="14.3182567"><ele>21.0</ele><time>2026-03-25T14:17:28.129Z</time></trkpt><trkpt lat="40.9989167" lon="14.3182483"><ele>21.0</ele><time>2026-03-25T14:17:29.129Z</time></trkpt><trkpt lat="40.9987917" lon="14.3182217"><ele>21.0</ele><time>2026-03-25T14:17:31.128Z</time></trkpt><trkpt lat="40.9987267" lon="14.3182117"><ele>21.0</ele><time>2026-03-25T14:17:32.129Z</time></trkpt><trkpt lat="40.9986617" lon="14.3182067"><ele>21.0</ele><time>2026-03-25T14:17:33.129Z</time></trkpt><trkpt lat="40.9985967" lon="14.3182033"><ele>21.0</ele><time>2026-03-25T14:17:34.13Z</time></trkpt><trkpt lat="40.99853" lon="14.3181983"><ele>21.0</ele><time>2026-03-25T14:17:35.132Z</time></trkpt><trkpt lat="40.9984633" lon="14.3181917"><ele>21.0</ele><time>2026-03-25T14:17:36.132Z</time></trkpt><trkpt lat="40.9983967" lon="14.318185"><ele>21.0</ele><time>2026-03-25T14:17:37.13Z</time></trkpt><trkpt lat="40.9983283" lon="14.31818"><ele>21.0</ele><time>2026-03-25T14:17:38.128Z</time></trkpt><trkpt lat="40.9982583" lon="14.318175"><ele>21.0</ele><time>2026-03-25T14:17:39.129Z</time></trkpt><trkpt lat="40.9981917" lon="14.3181683"><ele>21.0</ele><time>2026-03-25T14:17:40.129Z</time></trkpt><trkpt lat="40.9981267" lon="14.3181617"><ele>20.857142857142858</ele><time>2026-03-25T14:17:41.129Z</time></trkpt><trkpt lat="40.9980583" lon="14.318155"><ele>20.714285714285715</ele><time>2026-03-25T14:17:42.133Z</time></trkpt><trkpt lat="40.99799" lon="14.3181517"><ele>20.57142857142857</ele><time>2026-03-25T14:17:43.128Z</time></trkpt><trkpt lat="40.997925" lon="14.3181467"><ele>20.42857142857143</ele><time>2026-03-25T14:17:44.132Z</time></trkpt><trkpt lat="40.9978617" lon="14.3181383"><ele>20.285714285714285</ele><time>2026-03-25T14:17:45.128Z</time></trkpt><trkpt lat="40.9977917" lon="14.3181317"><ele>20.142857142857142</ele><time>2026-03-25T14:17:46.132Z</time></trkpt><trkpt lat="40.9977233" lon="14.318125"><ele>20.0</ele><time>2026-03-25T14:17:47.13Z</time></trkpt><trkpt lat="40.9976567" lon="14.3181217"><ele>20.0</ele><time>2026-03-25T14:17:48.129Z</time></trkpt><trkpt lat="40.9975917" lon="14.3181167"><ele>20.0</ele><time>2026-03-25T14:17:49.129Z</time></trkpt><trkpt lat="40.9975283" lon="14.31811"><ele>20.0</ele><time>2026-03-25T14:17:50.128Z</time></trkpt><trkpt lat="40.9974583" lon="14.318105"><ele>20.0</ele><time>2026-03-25T14:17:51.129Z</time></trkpt><trkpt lat="40.9973917" lon="14.3180983"><ele>20.0</ele><time>2026-03-25T14:17:52.13Z</time></trkpt><trkpt lat="40.9973267" lon="14.3180917"><ele>20.0</ele><time>2026-03-25T14:17:53.128Z</time></trkpt><trkpt lat="40.99726" lon="14.318085"><ele>20.0</ele><time>2026-03-25T14:17:54.129Z</time></trkpt><trkpt lat="40.9971917" lon="14.3180767"><ele>20.142857142857142</ele><time>2026-03-25T14:17:55.133Z</time></trkpt><trkpt lat="40.9971283" lon="14.3180683"><ele>20.285714285714285</ele><time>2026-03-25T14:17:56.129Z</time></trkpt><trkpt lat="40.99706" lon="14.3180617"><ele>20.42857142857143</ele><time>2026-03-25T14:17:57.129Z</time></trkpt><trkpt lat="40.9969883" lon="14.3180583"><ele>20.57142857142857</ele><time>2026-03-25T14:17:58.129Z</time></trkpt><trkpt lat="40.9969183" lon="14.318055"><ele>20.714285714285715</ele><time>2026-03-25T14:17:59.128Z</time></trkpt><trkpt lat="40.9968533" lon="14.31805"><ele>20.857142857142858</ele><time>2026-03-25T14:18:00.132Z</time></trkpt><trkpt lat="40.9967883" lon="14.3180433"><ele>21.0</ele><time>2026-03-25T14:18:01.129Z</time></trkpt><trkpt lat="40.996725" lon="14.3180367"><ele>20.833333333333332</ele><time>2026-03-25T14:18:02.13Z</time></trkpt><trkpt lat="40.99666" lon="14.31803"><ele>20.666666666666668</ele><time>2026-03-25T14:18:03.13Z</time></trkpt><trkpt lat="40.9965933" lon="14.3180233"><ele>20.5</ele><time>2026-03-25T14:18:04.13Z</time></trkpt><trkpt lat="40.9965283" lon="14.3180167"><ele>20.333333333333336</ele><time>2026-03-25T14:18:05.13Z</time></trkpt><trkpt lat="40.99646" lon="14.31801"><ele>20.166666666666668</ele><time>2026-03-25T14:18:06.13Z</time></trkpt><trkpt lat="40.9963317" lon="14.317995"><ele>20.0</ele><time>2026-03-25T14:18:08.129Z</time></trkpt><trkpt lat="40.9962633" lon="14.317985"><ele>20.0</ele><time>2026-03-25T14:18:09.133Z</time></trkpt><trkpt lat="40.9961983" lon="14.3179783"><ele>20.0</ele><time>2026-03-25T14:18:10.129Z</time></trkpt><trkpt lat="40.9961333" lon="14.3179683"><ele>20.0</ele><time>2026-03-25T14:18:11.129Z</time></trkpt><trkpt lat="40.9960133" lon="14.317955"><ele>20.0</ele><time>2026-03-25T14:18:13.129Z</time></trkpt><trkpt lat="40.99595" lon="14.31795"><ele>20.0</ele><time>2026-03-25T14:18:14.128Z</time></trkpt><trkpt lat="40.995885" lon="14.3179433"><ele>20.0</ele><time>2026-03-25T14:18:15.13Z</time></trkpt><trkpt lat="40.9958183" lon="14.3179367"><ele>20.0</ele><time>2026-03-25T14:18:16.13Z</time></trkpt><trkpt lat="40.9957517" lon="14.31793"><ele>19.857142857142858</ele><time>2026-03-25T14:18:17.129Z</time></trkpt><trkpt lat="40.9956833" lon="14.317925"><ele>19.714285714285715</ele><time>2026-03-25T14:18:18.129Z</time></trkpt><trkpt lat="40.9956183" lon="14.3179217"><ele>19.57142857142857</ele><time>2026-03-25T14:18:19.128Z</time></trkpt><trkpt lat="40.9955517" lon="14.317915"><ele>19.42857142857143</ele><time>2026-03-25T14:18:20.13Z</time></trkpt><trkpt lat="40.9954867" lon="14.3179067"><ele>19.28571428571429</ele><time>2026-03-25T14:18:21.133Z</time></trkpt><trkpt lat="40.99542" lon="14.3179017"><ele>19.142857142857142</ele><time>2026-03-25T14:18:22.133Z</time></trkpt><trkpt lat="40.9953517" lon="14.317895"><ele>19.0</ele><time>2026-03-25T14:18:23.128Z</time></trkpt><trkpt lat="40.99528" lon="14.3178867"><ele>19.0</ele><time>2026-03-25T14:18:24.129Z</time></trkpt><trkpt lat="40.995215" lon="14.3178783"><ele>19.0</ele><time>2026-03-25T14:18:25.129Z</time></trkpt><trkpt lat="40.99515" lon="14.31787"><ele>19.0</ele><time>2026-03-25T14:18:26.129Z</time></trkpt><trkpt lat="40.9950867" lon="14.3178617"><ele>19.0</ele><time>2026-03-25T14:18:27.131Z</time></trkpt><trkpt lat="40.99502" lon="14.3178533"><ele>19.0</ele><time>2026-03-25T14:18:28.129Z</time></trkpt><trkpt lat="40.9949567" lon="14.3178483"><ele>19.0</ele><time>2026-03-25T14:18:29.132Z</time></trkpt><trkpt lat="40.9948917" lon="14.3178433"><ele>19.0</ele><time>2026-03-25T14:18:30.13Z</time></trkpt><trkpt lat="40.9948267" lon="14.3178383"><ele>19.0</ele><time>2026-03-25T14:18:31.132Z</time></trkpt><trkpt lat="40.9947583" lon="14.317835"><ele>19.0</ele><time>2026-03-25T14:18:32.128Z</time></trkpt><trkpt lat="40.9946917" lon="14.3178317"><ele>19.0</ele><time>2026-03-25T14:18:33.128Z</time></trkpt><trkpt lat="40.9946233" lon="14.31783"><ele>19.0</ele><time>2026-03-25T14:18:34.129Z</time></trkpt><trkpt lat="40.9945567" lon="14.3178267"><ele>19.0</ele><time>2026-03-25T14:18:35.129Z</time></trkpt><trkpt lat="40.9944883" lon="14.31782"><ele>19.0</ele><time>2026-03-25T14:18:36.13Z</time></trkpt><trkpt lat="40.9944183" lon="14.3178133"><ele>19.0</ele><time>2026-03-25T14:18:37.13Z</time></trkpt><trkpt lat="40.99435" lon="14.3178083"><ele>19.0</ele><time>2026-03-25T14:18:38.129Z</time></trkpt><trkpt lat="40.994285" lon="14.3178017"><ele>19.0</ele><time>2026-03-25T14:18:39.131Z</time></trkpt><trkpt lat="40.9942183" lon="14.3177967"><ele>19.0</ele><time>2026-03-25T14:18:40.129Z</time></trkpt><trkpt lat="40.9941517" lon="14.3177883"><ele>19.0</ele><time>2026-03-25T14:18:41.129Z</time></trkpt><trkpt lat="40.99408" lon="14.3177767"><ele>19.0</ele><time>2026-03-25T14:18:42.129Z</time></trkpt><trkpt lat="40.9940117" lon="14.317765"><ele>19.0</ele><time>2026-03-25T14:18:43.13Z</time></trkpt><trkpt lat="40.99394" lon="14.3177567"><ele>19.0</ele><time>2026-03-25T14:18:44.132Z</time></trkpt><trkpt lat="40.99387" lon="14.31775"><ele>19.0</ele><time>2026-03-25T14:18:45.128Z</time></trkpt><trkpt lat="40.9937983" lon="14.3177433"><ele>19.0</ele><time>2026-03-25T14:18:46.13Z</time></trkpt><trkpt lat="40.9937283" lon="14.3177367"><ele>19.0</ele><time>2026-03-25T14:18:47.129Z</time></trkpt><trkpt lat="40.993655" lon="14.31773"><ele>19.0</ele><time>2026-03-25T14:18:48.133Z</time></trkpt><trkpt lat="40.9935817" lon="14.31772"><ele>19.0</ele><time>2026-03-25T14:18:49.13Z</time></trkpt><trkpt lat="40.9935083" lon="14.3177083"><ele>19.0</ele><time>2026-03-25T14:18:50.129Z</time></trkpt><trkpt lat="40.9934383" lon="14.3176967"><ele>19.0</ele><time>2026-03-25T14:18:51.129Z</time></trkpt><trkpt lat="40.9933683" lon="14.3176883"><ele>19.0</ele><time>2026-03-25T14:18:52.13Z</time></trkpt><trkpt lat="40.9933033" lon="14.3176767"><ele>19.0</ele><time>2026-03-25T14:18:53.132Z</time></trkpt><trkpt lat="40.99324" lon="14.3176617"><ele>19.0</ele><time>2026-03-25T14:18:54.129Z</time></trkpt><trkpt lat="40.9931767" lon="14.3176467"><ele>19.0</ele><time>2026-03-25T14:18:55.128Z</time></trkpt><trkpt lat="40.9931117" lon="14.31763"><ele>19.0</ele><time>2026-03-25T14:18:56.129Z</time></trkpt><trkpt lat="40.993045" lon="14.3176117"><ele>19.0</ele><time>2026-03-25T14:18:57.129Z</time></trkpt><trkpt lat="40.9929783" lon="14.31759"><ele>19.0</ele><time>2026-03-25T14:18:58.13Z</time></trkpt><trkpt lat="40.9929083" lon="14.3175667"><ele>19.0</ele><time>2026-03-25T14:18:59.13Z</time></trkpt><trkpt lat="40.99284" lon="14.3175383"><ele>19.0</ele><time>2026-03-25T14:19:00.13Z</time></trkpt><trkpt lat="40.992775" lon="14.3175067"><ele>19.0</ele><time>2026-03-25T14:19:01.13Z</time></trkpt><trkpt lat="40.99271" lon="14.31747"><ele>19.0</ele><time>2026-03-25T14:19:02.129Z</time></trkpt><trkpt lat="40.9926517" lon="14.3174367"><ele>19.0</ele><time>2026-03-25T14:19:03.128Z</time></trkpt><trkpt lat="40.9925967" lon="14.317395"><ele>19.0</ele><time>2026-03-25T14:19:04.129Z</time></trkpt><trkpt lat="40.9925383" lon="14.3173567"><ele>19.0</ele><time>2026-03-25T14:19:05.129Z</time></trkpt><trkpt lat="40.9924833" lon="14.317315"><ele>19.2</ele><time>2026-03-25T14:19:06.131Z</time></trkpt><trkpt lat="40.9923767" lon="14.31723"><ele>19.4</ele><time>2026-03-25T14:19:08.13Z</time></trkpt><trkpt lat="40.9923217" lon="14.3171783"><ele>19.6</ele><time>2026-03-25T14:19:09.129Z</time></trkpt><trkpt lat="40.99227" lon="14.3171283"><ele>19.8</ele><time>2026-03-25T14:19:10.131Z</time></trkpt><trkpt lat="40.9921717" lon="14.3170233"><ele>20.0</ele><time>2026-03-25T14:19:12.13Z</time></trkpt><trkpt lat="40.9920767" lon="14.3169217"><ele>20.0</ele><time>2026-03-25T14:19:14.129Z</time></trkpt><trkpt lat="40.991985" lon="14.3168217"><ele>20.0</ele><time>2026-03-25T14:19:16.132Z</time></trkpt><trkpt lat="40.9918967" lon="14.3167267"><ele>20.0</ele><time>2026-03-25T14:19:18.128Z</time></trkpt><trkpt lat="40.9918133" lon="14.3166317"><ele>20.0</ele><time>2026-03-25T14:19:20.129Z</time></trkpt><trkpt lat="40.99173" lon="14.316565"><ele>20.0</ele><time>2026-03-25T14:19:22.13Z</time></trkpt><trkpt lat="40.99165" lon="14.3164833"><ele>20.0</ele><time>2026-03-25T14:19:24.129Z</time></trkpt><trkpt lat="40.9915667" lon="14.3164033"><ele>20.0</ele><time>2026-03-25T14:19:26.134Z</time></trkpt><trkpt lat="40.9914783" lon="14.3163217"><ele>20.0</ele><time>2026-03-25T14:19:28.13Z</time></trkpt><trkpt lat="40.9914067" lon="14.3162483"><ele>20.0</ele><time>2026-03-25T14:19:30.13Z</time></trkpt><trkpt lat="40.991315" lon="14.3161633"><ele>20.0</ele><time>2026-03-25T14:19:32.129Z</time></trkpt><trkpt lat="40.9912267" lon="14.3160717"><ele>19.8</ele><time>2026-03-25T14:19:34.13Z</time></trkpt><trkpt lat="40.9911417" lon="14.315985"><ele>19.6</ele><time>2026-03-25T14:19:36.129Z</time></trkpt><trkpt lat="40.991055" lon="14.315895"><ele>19.4</ele><time>2026-03-25T14:19:38.129Z</time></trkpt><trkpt lat="40.9909633" lon="14.31581"><ele>19.2</ele><time>2026-03-25T14:19:40.128Z</time></trkpt><trkpt lat="40.990875" lon="14.3157133"><ele>19.0</ele><time>2026-03-25T14:19:42.128Z</time></trkpt><trkpt lat="40.9907933" lon="14.31561"><ele>19.166666666666664</ele><time>2026-03-25T14:19:44.13Z</time></trkpt><trkpt lat="40.9907067" lon="14.315495"><ele>19.333333333333332</ele><time>2026-03-25T14:19:46.13Z</time></trkpt><trkpt lat="40.9906583" lon="14.3154367"><ele>19.5</ele><time>2026-03-25T14:19:47.13Z</time></trkpt><trkpt lat="40.9906083" lon="14.3153783"><ele>19.666666666666668</ele><time>2026-03-25T14:19:48.13Z</time></trkpt><trkpt lat="40.990555" lon="14.3153233"><ele>19.833333333333336</ele><time>2026-03-25T14:19:49.131Z</time></trkpt><trkpt lat="40.9905033" lon="14.3152683"><ele>20.0</ele><time>2026-03-25T14:19:50.128Z</time></trkpt><trkpt lat="40.990445" lon="14.3152133"><ele>20.0</ele><time>2026-03-25T14:19:51.129Z</time></trkpt><trkpt lat="40.9903917" lon="14.3151583"><ele>20.0</ele><time>2026-03-25T14:19:52.131Z</time></trkpt><trkpt lat="40.9903333" lon="14.315105"><ele>20.0</ele><time>2026-03-25T14:19:53.129Z</time></trkpt><trkpt lat="40.990275" lon="14.3150517"><ele>20.0</ele><time>2026-03-25T14:19:54.128Z</time></trkpt><trkpt lat="40.9902133" lon="14.3149933"><ele>20.0</ele><time>2026-03-25T14:19:55.132Z</time></trkpt><trkpt lat="40.9901533" lon="14.3149333"><ele>20.0</ele><time>2026-03-25T14:19:56.129Z</time></trkpt><trkpt lat="40.9900917" lon="14.3148783"><ele>20.0</ele><time>2026-03-25T14:19:57.129Z</time></trkpt><trkpt lat="40.9900333" lon="14.3148217"><ele>20.166666666666668</ele><time>2026-03-25T14:19:58.129Z</time></trkpt><trkpt lat="40.9899817" lon="14.3147617"><ele>20.333333333333336</ele><time>2026-03-25T14:19:59.133Z</time></trkpt><trkpt lat="40.9899317" lon="14.3147067"><ele>20.5</ele><time>2026-03-25T14:20:00.129Z</time></trkpt><trkpt lat="40.989875" lon="14.3146533"><ele>20.666666666666668</ele><time>2026-03-25T14:20:01.128Z</time></trkpt><trkpt lat="40.989785" lon="14.3145533"><ele>20.833333333333332</ele><time>2026-03-25T14:20:03.133Z</time></trkpt><trkpt lat="40.9897033" lon="14.314455"><ele>21.0</ele><time>2026-03-25T14:20:05.133Z</time></trkpt><trkpt lat="40.989615" lon="14.3143517"><ele>21.0</ele><time>2026-03-25T14:20:07.13Z</time></trkpt><trkpt lat="40.9895333" lon="14.31426"><ele>21.0</ele><time>2026-03-25T14:20:09.128Z</time></trkpt><trkpt lat="40.9894417" lon="14.31417"><ele>21.0</ele><time>2026-03-25T14:20:11.129Z</time></trkpt><trkpt lat="40.9893417" lon="14.3140733"><ele>21.0</ele><time>2026-03-25T14:20:13.128Z</time></trkpt><trkpt lat="40.9892467" lon="14.313975"><ele>21.0</ele><time>2026-03-25T14:20:15.131Z</time></trkpt><trkpt lat="40.9891967" lon="14.3139233"><ele>21.0</ele><time>2026-03-25T14:20:16.129Z</time></trkpt><trkpt lat="40.989095" lon="14.3138233"><ele>21.0</ele><time>2026-03-25T14:20:18.131Z</time></trkpt><trkpt lat="40.9890433" lon="14.313775"><ele>21.0</ele><time>2026-03-25T14:20:19.129Z</time></trkpt><trkpt lat="40.9889383" lon="14.3136783"><ele>21.0</ele><time>2026-03-25T14:20:21.129Z</time></trkpt><trkpt lat="40.9888467" lon="14.3135867"><ele>21.0</ele><time>2026-03-25T14:20:23.128Z</time></trkpt><trkpt lat="40.98875" lon="14.3134967"><ele>21.0</ele><time>2026-03-25T14:20:25.13Z</time></trkpt><trkpt lat="40.988655" lon="14.3134033"><ele>21.0</ele><time>2026-03-25T14:20:27.129Z</time></trkpt><trkpt lat="40.9885583" lon="14.313315"><ele>21.0</ele><time>2026-03-25T14:20:29.131Z</time></trkpt><trkpt lat="40.9884617" lon="14.313225"><ele>21.0</ele><time>2026-03-25T14:20:31.133Z</time></trkpt><trkpt lat="40.9883667" lon="14.3131317"><ele>21.0</ele><time>2026-03-25T14:20:33.128Z</time></trkpt><trkpt lat="40.9882767" lon="14.3130383"><ele>21.0</ele><time>2026-03-25T14:20:35.129Z</time></trkpt><trkpt lat="40.9881867" lon="14.3129383"><ele>21.0</ele><time>2026-03-25T14:20:37.134Z</time></trkpt><trkpt lat="40.988095" lon="14.3128433"><ele>20.6</ele><time>2026-03-25T14:20:39.128Z</time></trkpt><trkpt lat="40.9879983" lon="14.3127467"><ele>20.200000000000003</ele><time>2026-03-25T14:20:41.129Z</time></trkpt><trkpt lat="40.9879017" lon="14.3126517"><ele>19.799999999999997</ele><time>2026-03-25T14:20:43.129Z</time></trkpt><trkpt lat="40.98785" lon="14.3126"><ele>19.4</ele><time>2026-03-25T14:20:44.129Z</time></trkpt><trkpt lat="40.9877483" lon="14.3125033"><ele>19.0</ele><time>2026-03-25T14:20:46.13Z</time></trkpt><trkpt lat="40.9876967" lon="14.3124533"><ele>19.0</ele><time>2026-03-25T14:20:47.129Z</time></trkpt><trkpt lat="40.987645" lon="14.3124033"><ele>19.0</ele><time>2026-03-25T14:20:48.13Z</time></trkpt><trkpt lat="40.9875917" lon="14.31235"><ele>19.0</ele><time>2026-03-25T14:20:49.129Z</time></trkpt><trkpt lat="40.987535" lon="14.3122967"><ele>19.0</ele><time>2026-03-25T14:20:50.129Z</time></trkpt><trkpt lat="40.9874783" lon="14.3122483"><ele>19.0</ele><time>2026-03-25T14:20:51.129Z</time></trkpt><trkpt lat="40.9873783" lon="14.3121467"><ele>19.0</ele><time>2026-03-25T14:20:53.129Z</time></trkpt><trkpt lat="40.9872817" lon="14.3120483"><ele>19.2</ele><time>2026-03-25T14:20:55.13Z</time></trkpt><trkpt lat="40.9871817" lon="14.311955"><ele>19.4</ele><time>2026-03-25T14:20:57.129Z</time></trkpt><trkpt lat="40.9870767" lon="14.3118783"><ele>19.6</ele><time>2026-03-25T14:20:59.129Z</time></trkpt><trkpt lat="40.98697" lon="14.3118083"><ele>19.8</ele><time>2026-03-25T14:21:01.13Z</time></trkpt><trkpt lat="40.9869117" lon="14.3117733"><ele>20.0</ele><time>2026-03-25T14:21:02.133Z</time></trkpt><trkpt lat="40.9868517" lon="14.3117433"><ele>20.0</ele><time>2026-03-25T14:21:03.128Z</time></trkpt><trkpt lat="40.9867367" lon="14.3117083"><ele>20.0</ele><time>2026-03-25T14:21:05.13Z</time></trkpt><trkpt lat="40.9866167" lon="14.3116817"><ele>20.0</ele><time>2026-03-25T14:21:07.132Z</time></trkpt><trkpt lat="40.986495" lon="14.31166"><ele>20.0</ele><time>2026-03-25T14:21:09.13Z</time></trkpt><trkpt lat="40.9863717" lon="14.3116383"><ele>20.0</ele><time>2026-03-25T14:21:11.129Z</time></trkpt><trkpt lat="40.9862483" lon="14.311615"><ele>20.0</ele><time>2026-03-25T14:21:13.129Z</time></trkpt><trkpt lat="40.9861267" lon="14.3115967"><ele>20.0</ele><time>2026-03-25T14:21:15.13Z</time></trkpt><trkpt lat="40.9860633" lon="14.3115867"><ele>20.0</ele><time>2026-03-25T14:21:16.129Z</time></trkpt><trkpt lat="40.9859983" lon="14.3115767"><ele>20.0</ele><time>2026-03-25T14:21:17.13Z</time></trkpt><trkpt lat="40.9859317" lon="14.3115667"><ele>20.0</ele><time>2026-03-25T14:21:18.131Z</time></trkpt><trkpt lat="40.9858683" lon="14.3115567"><ele>20.0</ele><time>2026-03-25T14:21:19.129Z</time></trkpt><trkpt lat="40.985745" lon="14.3115333"><ele>20.0</ele><time>2026-03-25T14:21:21.133Z</time></trkpt><trkpt lat="40.9856817" lon="14.3115217"><ele>20.0</ele><time>2026-03-25T14:21:22.129Z</time></trkpt><trkpt lat="40.9856133" lon="14.3115083"><ele>20.0</ele><time>2026-03-25T14:21:23.131Z</time></trkpt><trkpt lat="40.985545" lon="14.311495"><ele>20.0</ele><time>2026-03-25T14:21:24.129Z</time></trkpt><trkpt lat="40.98548" lon="14.311485"><ele>20.0</ele><time>2026-03-25T14:21:25.133Z</time></trkpt><trkpt lat="40.9854133" lon="14.31148"><ele>20.0</ele><time>2026-03-25T14:21:26.129Z</time></trkpt><trkpt lat="40.9853467" lon="14.311475"><ele>20.0</ele><time>2026-03-25T14:21:27.129Z</time></trkpt><trkpt lat="40.9852817" lon="14.311475"><ele>20.0</ele><time>2026-03-25T14:21:28.129Z</time></trkpt><trkpt lat="40.9852167" lon="14.31148"><ele>20.0</ele><time>2026-03-25T14:21:29.134Z</time></trkpt><trkpt lat="40.9850917" lon="14.3115083"><ele>20.0</ele><time>2026-03-25T14:21:31.132Z</time></trkpt><trkpt lat="40.985025" lon="14.3115283"><ele>20.0</ele><time>2026-03-25T14:21:32.13Z</time></trkpt><trkpt lat="40.9849583" lon="14.3115517"><ele>20.142857142857142</ele><time>2026-03-25T14:21:33.129Z</time></trkpt><trkpt lat="40.9848917" lon="14.3115783"><ele>20.285714285714285</ele><time>2026-03-25T14:21:34.129Z</time></trkpt><trkpt lat="40.98483" lon="14.3116117"><ele>20.42857142857143</ele><time>2026-03-25T14:21:35.129Z</time></trkpt><trkpt lat="40.98476" lon="14.3116433"><ele>20.57142857142857</ele><time>2026-03-25T14:21:36.129Z</time></trkpt><trkpt lat="40.9846933" lon="14.31168"><ele>20.714285714285715</ele><time>2026-03-25T14:21:37.13Z</time></trkpt><trkpt lat="40.98463" lon="14.3117133"><ele>20.857142857142858</ele><time>2026-03-25T14:21:38.129Z</time></trkpt><trkpt lat="40.9845633" lon="14.3117417"><ele>21.0</ele><time>2026-03-25T14:21:39.128Z</time></trkpt><trkpt lat="40.9845017" lon="14.31177"><ele>21.0</ele><time>2026-03-25T14:21:40.129Z</time></trkpt><trkpt lat="40.98444" lon="14.3118017"><ele>21.0</ele><time>2026-03-25T14:21:41.129Z</time></trkpt><trkpt lat="40.984375" lon="14.3118283"><ele>21.0</ele><time>2026-03-25T14:21:42.132Z</time></trkpt><trkpt lat="40.9842583" lon="14.3118917"><ele>21.0</ele><time>2026-03-25T14:21:44.13Z</time></trkpt><trkpt lat="40.9841983" lon="14.3119267"><ele>21.0</ele><time>2026-03-25T14:21:45.129Z</time></trkpt><trkpt lat="40.9841367" lon="14.31196"><ele>21.0</ele><time>2026-03-25T14:21:46.129Z</time></trkpt><trkpt lat="40.984075" lon="14.3119917"><ele>20.833333333333332</ele><time>2026-03-25T14:21:47.132Z</time></trkpt><trkpt lat="40.9840117" lon="14.3120217"><ele>20.666666666666668</ele><time>2026-03-25T14:21:48.129Z</time></trkpt><trkpt lat="40.9839467" lon="14.3120533"><ele>20.5</ele><time>2026-03-25T14:21:49.129Z</time></trkpt><trkpt lat="40.983885" lon="14.3120883"><ele>20.333333333333336</ele><time>2026-03-25T14:21:50.132Z</time></trkpt><trkpt lat="40.9838217" lon="14.31212"><ele>20.166666666666668</ele><time>2026-03-25T14:21:51.13Z</time></trkpt><trkpt lat="40.9837" lon="14.31218"><ele>20.0</ele><time>2026-03-25T14:21:53.13Z</time></trkpt><trkpt lat="40.9836317" lon="14.3122117"><ele>20.0</ele><time>2026-03-25T14:21:54.13Z</time></trkpt><trkpt lat="40.9835667" lon="14.312245"><ele>20.0</ele><time>2026-03-25T14:21:55.13Z</time></trkpt><trkpt lat="40.9835033" lon="14.3122817"><ele>20.0</ele><time>2026-03-25T14:21:56.129Z</time></trkpt><trkpt lat="40.9834383" lon="14.3123133"><ele>20.0</ele><time>2026-03-25T14:21:57.13Z</time></trkpt><trkpt lat="40.983375" lon="14.3123417"><ele>20.0</ele><time>2026-03-25T14:21:58.129Z</time></trkpt><trkpt lat="40.9833117" lon="14.3123717"><ele>20.0</ele><time>2026-03-25T14:21:59.129Z</time></trkpt><trkpt lat="40.9832467" lon="14.3123933"><ele>20.0</ele><time>2026-03-25T14:22:00.13Z</time></trkpt><trkpt lat="40.9831783" lon="14.3124117"><ele>20.0</ele><time>2026-03-25T14:22:01.134Z</time></trkpt><trkpt lat="40.983115" lon="14.312435"><ele>20.0</ele><time>2026-03-25T14:22:02.129Z</time></trkpt><trkpt lat="40.9830483" lon="14.31244"><ele>20.0</ele><time>2026-03-25T14:22:03.13Z</time></trkpt><trkpt lat="40.9829817" lon="14.3124433"><ele>20.0</ele><time>2026-03-25T14:22:04.129Z</time></trkpt><trkpt lat="40.9829183" lon="14.312445"><ele>20.0</ele><time>2026-03-25T14:22:05.13Z</time></trkpt><trkpt lat="40.9828517" lon="14.312445"><ele>20.0</ele><time>2026-03-25T14:22:06.13Z</time></trkpt><trkpt lat="40.9827867" lon="14.3124483"><ele>20.0</ele><time>2026-03-25T14:22:07.132Z</time></trkpt><trkpt lat="40.9826617" lon="14.31244"><ele>20.0</ele><time>2026-03-25T14:22:09.132Z</time></trkpt><trkpt lat="40.9825983" lon="14.3124383"><ele>20.0</ele><time>2026-03-25T14:22:10.13Z</time></trkpt><trkpt lat="40.9825333" lon="14.3124383"><ele>20.0</ele><time>2026-03-25T14:22:11.133Z</time></trkpt><trkpt lat="40.9824667" lon="14.3124367"><ele>20.0</ele><time>2026-03-25T14:22:12.131Z</time></trkpt><trkpt lat="40.9824017" lon="14.31244"><ele>20.0</ele><time>2026-03-25T14:22:13.129Z</time></trkpt><trkpt lat="40.9823333" lon="14.3124367"><ele>20.0</ele><time>2026-03-25T14:22:14.133Z</time></trkpt><trkpt lat="40.982265" lon="14.3124367"><ele>20.0</ele><time>2026-03-25T14:22:15.13Z</time></trkpt><trkpt lat="40.9822" lon="14.3124383"><ele>20.0</ele><time>2026-03-25T14:22:16.138Z</time></trkpt><trkpt lat="40.9821367" lon="14.31244"><ele>20.0</ele><time>2026-03-25T14:22:17.13Z</time></trkpt><trkpt lat="40.9820683" lon="14.31244"><ele>20.0</ele><time>2026-03-25T14:22:18.129Z</time></trkpt><trkpt lat="40.982" lon="14.31244"><ele>20.0</ele><time>2026-03-25T14:22:19.129Z</time></trkpt><trkpt lat="40.9819317" lon="14.3124383"><ele>20.0</ele><time>2026-03-25T14:22:20.129Z</time></trkpt><trkpt lat="40.9818617" lon="14.3124383"><ele>20.0</ele><time>2026-03-25T14:22:21.134Z</time></trkpt><trkpt lat="40.9817933" lon="14.3124383"><ele>20.0</ele><time>2026-03-25T14:22:22.129Z</time></trkpt><trkpt lat="40.9817283" lon="14.312435"><ele>20.166666666666668</ele><time>2026-03-25T14:22:23.128Z</time></trkpt><trkpt lat="40.9816633" lon="14.3124283"><ele>20.333333333333336</ele><time>2026-03-25T14:22:24.128Z</time></trkpt><trkpt lat="40.9816" lon="14.3124233"><ele>20.5</ele><time>2026-03-25T14:22:25.129Z</time></trkpt><trkpt lat="40.9814767" lon="14.3124067"><ele>20.666666666666668</ele><time>2026-03-25T14:22:27.129Z</time></trkpt><trkpt lat="40.981355" lon="14.31236"><ele>20.833333333333332</ele><time>2026-03-25T14:22:29.131Z</time></trkpt><trkpt lat="40.9812917" lon="14.3123317"><ele>21.0</ele><time>2026-03-25T14:22:30.13Z</time></trkpt><trkpt lat="40.9811733" lon="14.3122783"><ele>21.0</ele><time>2026-03-25T14:22:32.132Z</time></trkpt><trkpt lat="40.9811117" lon="14.3122483"><ele>21.0</ele><time>2026-03-25T14:22:33.13Z</time></trkpt><trkpt lat="40.9810467" lon="14.3122183"><ele>21.0</ele><time>2026-03-25T14:22:34.13Z</time></trkpt><trkpt lat="40.980985" lon="14.3121867"><ele>21.0</ele><time>2026-03-25T14:22:35.129Z</time></trkpt><trkpt lat="40.9809217" lon="14.312155"><ele>21.0</ele><time>2026-03-25T14:22:36.133Z</time></trkpt><trkpt lat="40.9808617" lon="14.31212"><ele>21.0</ele><time>2026-03-25T14:22:37.13Z</time></trkpt><trkpt lat="40.9808017" lon="14.312085"><ele>21.0</ele><time>2026-03-25T14:22:38.129Z</time></trkpt><trkpt lat="40.9807417" lon="14.3120483"><ele>21.333333333333332</ele><time>2026-03-25T14:22:39.129Z</time></trkpt><trkpt lat="40.9806783" lon="14.3120133"><ele>21.666666666666668</ele><time>2026-03-25T14:22:40.129Z</time></trkpt><trkpt lat="40.9806183" lon="14.31198"><ele>22.0</ele><time>2026-03-25T14:22:41.128Z</time></trkpt><trkpt lat="40.9805567" lon="14.3119467"><ele>22.333333333333336</ele><time>2026-03-25T14:22:42.13Z</time></trkpt><trkpt lat="40.980495" lon="14.3119133"><ele>22.666666666666668</ele><time>2026-03-25T14:22:43.129Z</time></trkpt><trkpt lat="40.980435" lon="14.311875"><ele>23.0</ele><time>2026-03-25T14:22:44.128Z</time></trkpt><trkpt lat="40.9803233" lon="14.311805"><ele>23.0</ele><time>2026-03-25T14:22:46.129Z</time></trkpt><trkpt lat="40.9802633" lon="14.31177"><ele>23.0</ele><time>2026-03-25T14:22:47.13Z</time></trkpt><trkpt lat="40.980205" lon="14.3117283"><ele>23.0</ele><time>2026-03-25T14:22:48.13Z</time></trkpt><trkpt lat="40.9800933" lon="14.3116517"><ele>23.0</ele><time>2026-03-25T14:22:50.129Z</time></trkpt><trkpt lat="40.9800367" lon="14.3116117"><ele>23.0</ele><time>2026-03-25T14:22:51.129Z</time></trkpt><trkpt lat="40.9799783" lon="14.3115667"><ele>23.0</ele><time>2026-03-25T14:22:52.13Z</time></trkpt><trkpt lat="40.97992" lon="14.31152"><ele>22.714285714285715</ele><time>2026-03-25T14:22:53.129Z</time></trkpt><trkpt lat="40.9798617" lon="14.3114733"><ele>22.428571428571427</ele><time>2026-03-25T14:22:54.13Z</time></trkpt><trkpt lat="40.9798033" lon="14.3114283"><ele>22.142857142857142</ele><time>2026-03-25T14:22:55.13Z</time></trkpt><trkpt lat="40.9797433" lon="14.3113817"><ele>21.857142857142858</ele><time>2026-03-25T14:22:56.128Z</time></trkpt><trkpt lat="40.979685" lon="14.311335"><ele>21.57142857142857</ele><time>2026-03-25T14:22:57.13Z</time></trkpt><trkpt lat="40.9796283" lon="14.31129"><ele>21.285714285714285</ele><time>2026-03-25T14:22:58.13Z</time></trkpt><trkpt lat="40.9795717" lon="14.3112383"><ele>21.0</ele><time>2026-03-25T14:22:59.129Z</time></trkpt><trkpt lat="40.9795167" lon="14.3111867"><ele>21.0</ele><time>2026-03-25T14:23:00.129Z</time></trkpt><trkpt lat="40.9794583" lon="14.3111367"><ele>21.0</ele><time>2026-03-25T14:23:01.13Z</time></trkpt><trkpt lat="40.9793983" lon="14.311095"><ele>21.0</ele><time>2026-03-25T14:23:02.129Z</time></trkpt><trkpt lat="40.97934" lon="14.31105"><ele>21.0</ele><time>2026-03-25T14:23:03.13Z</time></trkpt><trkpt lat="40.9792817" lon="14.3109983"><ele>21.0</ele><time>2026-03-25T14:23:04.129Z</time></trkpt><trkpt lat="40.979225" lon="14.3109433"><ele>21.0</ele><time>2026-03-25T14:23:05.13Z</time></trkpt><trkpt lat="40.97917" lon="14.3108883"><ele>21.0</ele><time>2026-03-25T14:23:06.13Z</time></trkpt><trkpt lat="40.9791117" lon="14.3108317"><ele>21.0</ele><time>2026-03-25T14:23:07.128Z</time></trkpt><trkpt lat="40.9790533" lon="14.3107767"><ele>21.0</ele><time>2026-03-25T14:23:08.13Z</time></trkpt><trkpt lat="40.9789983" lon="14.310725"><ele>21.0</ele><time>2026-03-25T14:23:09.129Z</time></trkpt><trkpt lat="40.9789467" lon="14.3106733"><ele>21.0</ele><time>2026-03-25T14:23:10.13Z</time></trkpt><trkpt lat="40.9788933" lon="14.310625"><ele>21.0</ele><time>2026-03-25T14:23:11.129Z</time></trkpt><trkpt lat="40.9788383" lon="14.3105717"><ele>21.0</ele><time>2026-03-25T14:23:12.131Z</time></trkpt><trkpt lat="40.9787783" lon="14.3105167"><ele>21.0</ele><time>2026-03-25T14:23:13.13Z</time></trkpt><trkpt lat="40.978725" lon="14.31046"><ele>20.857142857142858</ele><time>2026-03-25T14:23:14.13Z</time></trkpt><trkpt lat="40.97867" lon="14.3104033"><ele>20.714285714285715</ele><time>2026-03-25T14:23:15.129Z</time></trkpt><trkpt lat="40.9786167" lon="14.31035"><ele>20.57142857142857</ele><time>2026-03-25T14:23:16.13Z</time></trkpt><trkpt lat="40.9785583" lon="14.3102933"><ele>20.42857142857143</ele><time>2026-03-25T14:23:17.129Z</time></trkpt><trkpt lat="40.9785033" lon="14.31024"><ele>20.285714285714285</ele><time>2026-03-25T14:23:18.13Z</time></trkpt><trkpt lat="40.97845" lon="14.3101867"><ele>20.142857142857142</ele><time>2026-03-25T14:23:19.13Z</time></trkpt><trkpt lat="40.978395" lon="14.3101333"><ele>20.0</ele><time>2026-03-25T14:23:20.13Z</time></trkpt><trkpt lat="40.9783467" lon="14.3100717"><ele>20.0</ele><time>2026-03-25T14:23:21.13Z</time></trkpt><trkpt lat="40.9782967" lon="14.3100167"><ele>20.0</ele><time>2026-03-25T14:23:22.13Z</time></trkpt><trkpt lat="40.978245" lon="14.3099533"><ele>20.0</ele><time>2026-03-25T14:23:23.129Z</time></trkpt><trkpt lat="40.9781917" lon="14.3098917"><ele>20.0</ele><time>2026-03-25T14:23:24.129Z</time></trkpt><trkpt lat="40.97814" lon="14.3098367"><ele>20.0</ele><time>2026-03-25T14:23:25.13Z</time></trkpt><trkpt lat="40.97809" lon="14.309775"><ele>20.0</ele><time>2026-03-25T14:23:26.129Z</time></trkpt><trkpt lat="40.97804" lon="14.3097167"><ele>20.0</ele><time>2026-03-25T14:23:27.129Z</time></trkpt><trkpt lat="40.97799" lon="14.3096583"><ele>20.285714285714285</ele><time>2026-03-25T14:23:28.129Z</time></trkpt><trkpt lat="40.9779433" lon="14.3096"><ele>20.571428571428573</ele><time>2026-03-25T14:23:29.129Z</time></trkpt><trkpt lat="40.9778933" lon="14.3095433"><ele>20.857142857142858</ele><time>2026-03-25T14:23:30.128Z</time></trkpt><trkpt lat="40.9778433" lon="14.309485"><ele>21.142857142857142</ele><time>2026-03-25T14:23:31.13Z</time></trkpt><trkpt lat="40.9777967" lon="14.3094217"><ele>21.428571428571427</ele><time>2026-03-25T14:23:32.13Z</time></trkpt><trkpt lat="40.9777467" lon="14.30936"><ele>21.714285714285715</ele><time>2026-03-25T14:23:33.129Z</time></trkpt><trkpt lat="40.9776983" lon="14.3093017"><ele>22.0</ele><time>2026-03-25T14:23:34.129Z</time></trkpt><trkpt lat="40.97765" lon="14.3092417"><ele>22.0</ele><time>2026-03-25T14:23:35.13Z</time></trkpt><trkpt lat="40.9776017" lon="14.309185"><ele>22.0</ele><time>2026-03-25T14:23:36.129Z</time></trkpt><trkpt lat="40.9775533" lon="14.30913"><ele>22.0</ele><time>2026-03-25T14:23:37.131Z</time></trkpt><trkpt lat="40.9774517" lon="14.3090283"><ele>22.0</ele><time>2026-03-25T14:23:39.129Z</time></trkpt><trkpt lat="40.977395" lon="14.3089867"><ele>22.0</ele><time>2026-03-25T14:23:40.137Z</time></trkpt><trkpt lat="40.9772783" lon="14.308925"><ele>22.0</ele><time>2026-03-25T14:23:42.129Z</time></trkpt><trkpt lat="40.977215" lon="14.3089083"><ele>22.200000000000003</ele><time>2026-03-25T14:23:43.131Z</time></trkpt><trkpt lat="40.97709" lon="14.3089083"><ele>22.4</ele><time>2026-03-25T14:23:45.129Z</time></trkpt><trkpt lat="40.9769683" lon="14.30894"><ele>22.6</ele><time>2026-03-25T14:23:47.129Z</time></trkpt><trkpt lat="40.9769033" lon="14.3089667"><ele>22.799999999999997</ele><time>2026-03-25T14:23:48.13Z</time></trkpt><trkpt lat="40.9768417" lon="14.3089967"><ele>23.0</ele><time>2026-03-25T14:23:49.13Z</time></trkpt><trkpt lat="40.9767767" lon="14.30903"><ele>22.857142857142858</ele><time>2026-03-25T14:23:50.13Z</time></trkpt><trkpt lat="40.9767133" lon="14.3090633"><ele>22.71428571428571</ele><time>2026-03-25T14:23:51.128Z</time></trkpt><trkpt lat="40.9766467" lon="14.3090967"><ele>22.57142857142857</ele><time>2026-03-25T14:23:52.13Z</time></trkpt><trkpt lat="40.976585" lon="14.3091333"><ele>22.42857142857143</ele><time>2026-03-25T14:23:53.13Z</time></trkpt><trkpt lat="40.9765217" lon="14.30917"><ele>22.285714285714285</ele><time>2026-03-25T14:23:54.129Z</time></trkpt><trkpt lat="40.9764583" lon="14.309205"><ele>22.142857142857142</ele><time>2026-03-25T14:23:55.129Z</time></trkpt><trkpt lat="40.9763933" lon="14.30924"><ele>22.0</ele><time>2026-03-25T14:23:56.13Z</time></trkpt><trkpt lat="40.9763317" lon="14.3092767"><ele>22.0</ele><time>2026-03-25T14:23:57.129Z</time></trkpt><trkpt lat="40.9762683" lon="14.3093133"><ele>22.0</ele><time>2026-03-25T14:23:58.131Z</time></trkpt><trkpt lat="40.976205" lon="14.3093517"><ele>22.0</ele><time>2026-03-25T14:23:59.129Z</time></trkpt><trkpt lat="40.9761433" lon="14.30939"><ele>22.0</ele><time>2026-03-25T14:24:00.129Z</time></trkpt><trkpt lat="40.97608" lon="14.309425"><ele>22.0</ele><time>2026-03-25T14:24:01.133Z</time></trkpt><trkpt lat="40.976015" lon="14.3094583"><ele>22.0</ele><time>2026-03-25T14:24:02.13Z</time></trkpt><trkpt lat="40.9759483" lon="14.3094917"><ele>22.0</ele><time>2026-03-25T14:24:03.129Z</time></trkpt><trkpt lat="40.9758833" lon="14.309525"><ele>21.857142857142858</ele><time>2026-03-25T14:24:04.13Z</time></trkpt><trkpt lat="40.9758183" lon="14.3095617"><ele>21.714285714285715</ele><time>2026-03-25T14:24:05.129Z</time></trkpt><trkpt lat="40.975755" lon="14.309595"><ele>21.57142857142857</ele><time>2026-03-25T14:24:06.131Z</time></trkpt><trkpt lat="40.9756917" lon="14.309625"><ele>21.42857142857143</ele><time>2026-03-25T14:24:07.131Z</time></trkpt><trkpt lat="40.9756283" lon="14.30965"><ele>21.285714285714285</ele><time>2026-03-25T14:24:08.13Z</time></trkpt><trkpt lat="40.9755667" lon="14.3096783"><ele>21.142857142857142</ele><time>2026-03-25T14:24:09.129Z</time></trkpt><trkpt lat="40.9755033" lon="14.309705"><ele>21.0</ele><time>2026-03-25T14:24:10.128Z</time></trkpt><trkpt lat="40.975435" lon="14.3097317"><ele>21.142857142857142</ele><time>2026-03-25T14:24:11.13Z</time></trkpt><trkpt lat="40.975365" lon="14.3097533"><ele>21.285714285714285</ele><time>2026-03-25T14:24:12.128Z</time></trkpt><trkpt lat="40.975295" lon="14.30977"><ele>21.42857142857143</ele><time>2026-03-25T14:24:13.129Z</time></trkpt><trkpt lat="40.9752217" lon="14.309775"><ele>21.57142857142857</ele><time>2026-03-25T14:24:14.129Z</time></trkpt><trkpt lat="40.9751517" lon="14.30978"><ele>21.714285714285715</ele><time>2026-03-25T14:24:15.129Z</time></trkpt><trkpt lat="40.9750867" lon="14.30978"><ele>21.857142857142858</ele><time>2026-03-25T14:24:16.129Z</time></trkpt><trkpt lat="40.9750183" lon="14.3097767"><ele>22.0</ele><time>2026-03-25T14:24:17.129Z</time></trkpt><trkpt lat="40.97495" lon="14.3097767"><ele>22.0</ele><time>2026-03-25T14:24:18.128Z</time></trkpt><trkpt lat="40.9748817" lon="14.30978"><ele>22.0</ele><time>2026-03-25T14:24:19.13Z</time></trkpt><trkpt lat="40.9748117" lon="14.3097817"><ele>22.0</ele><time>2026-03-25T14:24:20.13Z</time></trkpt><trkpt lat="40.9747433" lon="14.3097817"><ele>22.0</ele><time>2026-03-25T14:24:21.13Z</time></trkpt><trkpt lat="40.9746767" lon="14.3097867"><ele>22.0</ele><time>2026-03-25T14:24:22.129Z</time></trkpt><trkpt lat="40.9746067" lon="14.30979"><ele>22.0</ele><time>2026-03-25T14:24:23.128Z</time></trkpt><trkpt lat="40.9745383" lon="14.3098017"><ele>22.0</ele><time>2026-03-25T14:24:24.128Z</time></trkpt><trkpt lat="40.9744683" lon="14.3098067"><ele>22.0</ele><time>2026-03-25T14:24:25.13Z</time></trkpt><trkpt lat="40.9743933" lon="14.30981"><ele>22.0</ele><time>2026-03-25T14:24:26.129Z</time></trkpt><trkpt lat="40.9743217" lon="14.3098117"><ele>22.0</ele><time>2026-03-25T14:24:27.131Z</time></trkpt><trkpt lat="40.9742483" lon="14.3098133"><ele>22.0</ele><time>2026-03-25T14:24:28.13Z</time></trkpt><trkpt lat="40.9741767" lon="14.309815"><ele>22.0</ele><time>2026-03-25T14:24:29.13Z</time></trkpt><trkpt lat="40.9741" lon="14.3098167"><ele>22.0</ele><time>2026-03-25T14:24:30.128Z</time></trkpt><trkpt lat="40.9740217" lon="14.3098183"><ele>22.0</ele><time>2026-03-25T14:24:31.13Z</time></trkpt><trkpt lat="40.973955" lon="14.3098167"><ele>22.0</ele><time>2026-03-25T14:24:32.13Z</time></trkpt><trkpt lat="40.9738817" lon="14.309815"><ele>22.0</ele><time>2026-03-25T14:24:33.131Z</time></trkpt><trkpt lat="40.973805" lon="14.3098133"><ele>22.0</ele><time>2026-03-25T14:24:34.129Z</time></trkpt><trkpt lat="40.97373" lon="14.3098083"><ele>22.0</ele><time>2026-03-25T14:24:35.129Z</time></trkpt><trkpt lat="40.973655" lon="14.3097983"><ele>22.0</ele><time>2026-03-25T14:24:36.129Z</time></trkpt><trkpt lat="40.9735817" lon="14.3097883"><ele>22.0</ele><time>2026-03-25T14:24:37.13Z</time></trkpt><trkpt lat="40.9735117" lon="14.3097717"><ele>22.0</ele><time>2026-03-25T14:24:38.131Z</time></trkpt><trkpt lat="40.97339" lon="14.3097217"><ele>22.0</ele><time>2026-03-25T14:24:40.13Z</time></trkpt><trkpt lat="40.9732667" lon="14.309665"><ele>22.0</ele><time>2026-03-25T14:24:42.13Z</time></trkpt><trkpt lat="40.9732067" lon="14.3096067"><ele>22.0</ele><time>2026-03-25T14:24:43.13Z</time></trkpt><trkpt lat="40.9731467" lon="14.3095767"><ele>22.0</ele><time>2026-03-25T14:24:44.129Z</time></trkpt><trkpt lat="40.9730367" lon="14.309545"><ele>22.0</ele><time>2026-03-25T14:24:46.132Z</time></trkpt><trkpt lat="40.9729167" lon="14.309515"><ele>22.0</ele><time>2026-03-25T14:24:48.13Z</time></trkpt><trkpt lat="40.9727967" lon="14.309475"><ele>22.0</ele><time>2026-03-25T14:24:50.13Z</time></trkpt><trkpt lat="40.9726817" lon="14.3094333"><ele>22.0</ele><time>2026-03-25T14:24:52.13Z</time></trkpt><trkpt lat="40.9725567" lon="14.30939"><ele>22.0</ele><time>2026-03-25T14:24:54.13Z</time></trkpt><trkpt lat="40.972445" lon="14.3093483"><ele>22.200000000000003</ele><time>2026-03-25T14:24:56.129Z</time></trkpt><trkpt lat="40.9723817" lon="14.3093283"><ele>22.4</ele><time>2026-03-25T14:24:57.129Z</time></trkpt><trkpt lat="40.97232" lon="14.30931"><ele>22.6</ele><time>2026-03-25T14:24:58.128Z</time></trkpt><trkpt lat="40.972195" lon="14.3092717"><ele>22.799999999999997</ele><time>2026-03-25T14:25:00.129Z</time></trkpt><trkpt lat="40.97208" lon="14.3092317"><ele>23.0</ele><time>2026-03-25T14:25:02.129Z</time></trkpt><trkpt lat="40.97197" lon="14.3091817"><ele>23.0</ele><time>2026-03-25T14:25:04.13Z</time></trkpt><trkpt lat="40.9718617" lon="14.3091333"><ele>23.0</ele><time>2026-03-25T14:25:06.129Z</time></trkpt><trkpt lat="40.9717533" lon="14.3090817"><ele>23.0</ele><time>2026-03-25T14:25:08.129Z</time></trkpt><trkpt lat="40.9716467" lon="14.3090067"><ele>23.0</ele><time>2026-03-25T14:25:10.129Z</time></trkpt><trkpt lat="40.97154" lon="14.308935"><ele>23.2</ele><time>2026-03-25T14:25:12.128Z</time></trkpt><trkpt lat="40.9714467" lon="14.308865"><ele>23.4</ele><time>2026-03-25T14:25:14.13Z</time></trkpt><trkpt lat="40.9713533" lon="14.3088083"><ele>23.599999999999998</ele><time>2026-03-25T14:25:16.129Z</time></trkpt><trkpt lat="40.97126" lon="14.3087533"><ele>23.799999999999997</ele><time>2026-03-25T14:25:18.128Z</time></trkpt><trkpt lat="40.9711817" lon="14.3087033"><ele>24.0</ele><time>2026-03-25T14:25:20.13Z</time></trkpt><trkpt lat="40.9711083" lon="14.3086683"><ele>24.0</ele><time>2026-03-25T14:25:22.129Z</time></trkpt><trkpt lat="40.971025" lon="14.3086217"><ele>24.0</ele><time>2026-03-25T14:25:24.129Z</time></trkpt><trkpt lat="40.970935" lon="14.3085683"><ele>24.0</ele><time>2026-03-25T14:25:26.129Z</time></trkpt><trkpt lat="40.9708433" lon="14.30851"><ele>24.0</ele><time>2026-03-25T14:25:28.13Z</time></trkpt><trkpt lat="40.9707483" lon="14.30846"><ele>24.0</ele><time>2026-03-25T14:25:30.131Z</time></trkpt><trkpt lat="40.970645" lon="14.308415"><ele>23.75</ele><time>2026-03-25T14:25:32.13Z</time></trkpt><trkpt lat="40.9705333" lon="14.3083667"><ele>23.5</ele><time>2026-03-25T14:25:34.13Z</time></trkpt><trkpt lat="40.9704217" lon="14.3083317"><ele>23.25</ele><time>2026-03-25T14:25:36.13Z</time></trkpt><trkpt lat="40.97031" lon="14.3083067"><ele>23.0</ele><time>2026-03-25T14:25:38.129Z</time></trkpt><trkpt lat="40.9701983" lon="14.30829"><ele>23.0</ele><time>2026-03-25T14:25:40.129Z</time></trkpt><trkpt lat="40.9701333" lon="14.308285"><ele>23.0</ele><time>2026-03-25T14:25:41.133Z</time></trkpt><trkpt lat="40.9700117" lon="14.3082817"><ele>23.0</ele><time>2026-03-25T14:25:43.13Z</time></trkpt><trkpt lat="40.9698933" lon="14.3082783"><ele>23.0</ele><time>2026-03-25T14:25:45.129Z</time></trkpt><trkpt lat="40.969785" lon="14.308275"><ele>23.0</ele><time>2026-03-25T14:25:47.129Z</time></trkpt><trkpt lat="40.9697217" lon="14.30827"><ele>23.2</ele><time>2026-03-25T14:25:48.129Z</time></trkpt><trkpt lat="40.96961" lon="14.3082767"><ele>23.4</ele><time>2026-03-25T14:25:50.129Z</time></trkpt><trkpt lat="40.9694883" lon="14.3082783"><ele>23.599999999999998</ele><time>2026-03-25T14:25:52.129Z</time></trkpt><trkpt lat="40.9694233" lon="14.3082717"><ele>23.799999999999997</ele><time>2026-03-25T14:25:53.13Z</time></trkpt><trkpt lat="40.9692883" lon="14.3082583"><ele>24.0</ele><time>2026-03-25T14:25:55.13Z</time></trkpt><trkpt lat="40.9692233" lon="14.30825"><ele>24.166666666666668</ele><time>2026-03-25T14:25:56.128Z</time></trkpt><trkpt lat="40.9691583" lon="14.3082467"><ele>24.333333333333336</ele><time>2026-03-25T14:25:57.129Z</time></trkpt><trkpt lat="40.96909" lon="14.3082383"><ele>24.5</ele><time>2026-03-25T14:25:58.129Z</time></trkpt><trkpt lat="40.9690233" lon="14.3082317"><ele>24.666666666666668</ele><time>2026-03-25T14:25:59.131Z</time></trkpt><trkpt lat="40.96896" lon="14.3082217"><ele>24.833333333333336</ele><time>2026-03-25T14:26:00.129Z</time></trkpt><trkpt lat="40.9688933" lon="14.3082067"><ele>25.0</ele><time>2026-03-25T14:26:01.13Z</time></trkpt><trkpt lat="40.9687717" lon="14.30818"><ele>25.0</ele><time>2026-03-25T14:26:03.13Z</time></trkpt><trkpt lat="40.9687083" lon="14.30817"><ele>25.0</ele><time>2026-03-25T14:26:04.129Z</time></trkpt><trkpt lat="40.9685833" lon="14.3081417"><ele>25.0</ele><time>2026-03-25T14:26:06.13Z</time></trkpt><trkpt lat="40.96852" lon="14.308125"><ele>25.0</ele><time>2026-03-25T14:26:07.13Z</time></trkpt><trkpt lat="40.9684033" lon="14.308085"><ele>25.0</ele><time>2026-03-25T14:26:09.13Z</time></trkpt><trkpt lat="40.9682917" lon="14.3080417"><ele>25.2</ele><time>2026-03-25T14:26:11.13Z</time></trkpt><trkpt lat="40.9681883" lon="14.307995"><ele>25.4</ele><time>2026-03-25T14:26:13.13Z</time></trkpt><trkpt lat="40.9680767" lon="14.3079417"><ele>25.6</ele><time>2026-03-25T14:26:15.13Z</time></trkpt><trkpt lat="40.96797" lon="14.3078917"><ele>25.8</ele><time>2026-03-25T14:26:17.13Z</time></trkpt><trkpt lat="40.9678683" lon="14.3078467"><ele>26.0</ele><time>2026-03-25T14:26:19.13Z</time></trkpt><trkpt lat="40.96776" lon="14.30779"><ele>26.0</ele><time>2026-03-25T14:26:21.129Z</time></trkpt><trkpt lat="40.967645" lon="14.3077333"><ele>26.0</ele><time>2026-03-25T14:26:23.129Z</time></trkpt><trkpt lat="40.9675817" lon="14.3077033"><ele>26.0</ele><time>2026-03-25T14:26:24.132Z</time></trkpt><trkpt lat="40.9675183" lon="14.3076767"><ele>26.0</ele><time>2026-03-25T14:26:25.13Z</time></trkpt><trkpt lat="40.96741" lon="14.307625"><ele>26.0</ele><time>2026-03-25T14:26:27.128Z</time></trkpt><trkpt lat="40.9672967" lon="14.307585"><ele>25.5</ele><time>2026-03-25T14:26:29.13Z</time></trkpt><trkpt lat="40.9671917" lon="14.30754"><ele>25.0</ele><time>2026-03-25T14:26:31.129Z</time></trkpt><trkpt lat="40.9670867" lon="14.307495"><ele>24.5</ele><time>2026-03-25T14:26:33.129Z</time></trkpt><trkpt lat="40.96698" lon="14.3074383"><ele>24.0</ele><time>2026-03-25T14:26:35.128Z</time></trkpt><trkpt lat="40.966865" lon="14.30738"><ele>24.0</ele><time>2026-03-25T14:26:37.13Z</time></trkpt><trkpt lat="40.9668033" lon="14.3073467"><ele>24.0</ele><time>2026-03-25T14:26:38.129Z</time></trkpt><trkpt lat="40.9667417" lon="14.3073183"><ele>24.0</ele><time>2026-03-25T14:26:39.13Z</time></trkpt><trkpt lat="40.9666317" lon="14.3072617"><ele>24.0</ele><time>2026-03-25T14:26:41.13Z</time></trkpt><trkpt lat="40.9665717" lon="14.3072283"><ele>24.0</ele><time>2026-03-25T14:26:42.129Z</time></trkpt><trkpt lat="40.9665117" lon="14.3071967"><ele>24.0</ele><time>2026-03-25T14:26:43.13Z</time></trkpt><trkpt lat="40.9664033" lon="14.3071317"><ele>24.2</ele><time>2026-03-25T14:26:45.13Z</time></trkpt><trkpt lat="40.9662883" lon="14.30706"><ele>24.4</ele><time>2026-03-25T14:26:47.13Z</time></trkpt><trkpt lat="40.966175" lon="14.306995"><ele>24.6</ele><time>2026-03-25T14:26:49.132Z</time></trkpt><trkpt lat="40.9661167" lon="14.30696"><ele>24.8</ele><time>2026-03-25T14:26:50.129Z</time></trkpt><trkpt lat="40.9660567" lon="14.30693"><ele>25.0</ele><time>2026-03-25T14:26:51.13Z</time></trkpt><trkpt lat="40.9659417" lon="14.306885"><ele>25.0</ele><time>2026-03-25T14:26:53.13Z</time></trkpt><trkpt lat="40.9658217" lon="14.3068533"><ele>25.0</ele><time>2026-03-25T14:26:55.129Z</time></trkpt><trkpt lat="40.9657033" lon="14.306825"><ele>25.0</ele><time>2026-03-25T14:26:57.129Z</time></trkpt><trkpt lat="40.9655883" lon="14.3068233"><ele>25.0</ele><time>2026-03-25T14:26:59.13Z</time></trkpt><trkpt lat="40.96547" lon="14.3068467"><ele>25.0</ele><time>2026-03-25T14:27:01.13Z</time></trkpt><trkpt lat="40.9653483" lon="14.30688"><ele>25.0</ele><time>2026-03-25T14:27:03.129Z</time></trkpt><trkpt lat="40.9652267" lon="14.3069133"><ele>25.0</ele><time>2026-03-25T14:27:05.13Z</time></trkpt><trkpt lat="40.9651083" lon="14.3069383"><ele>25.0</ele><time>2026-03-25T14:27:07.129Z</time></trkpt><trkpt lat="40.9649983" lon="14.3069633"><ele>25.0</ele><time>2026-03-25T14:27:09.13Z</time></trkpt><trkpt lat="40.9648833" lon="14.3069933"><ele>25.0</ele><time>2026-03-25T14:27:11.13Z</time></trkpt><trkpt lat="40.96477" lon="14.3070133"><ele>25.0</ele><time>2026-03-25T14:27:13.13Z</time></trkpt><trkpt lat="40.9647067" lon="14.307025"><ele>25.0</ele><time>2026-03-25T14:27:14.13Z</time></trkpt><trkpt lat="40.9645817" lon="14.3070467"><ele>25.0</ele><time>2026-03-25T14:27:16.13Z</time></trkpt><trkpt lat="40.96446" lon="14.3070633"><ele>25.000000000000004</ele><time>2026-03-25T14:27:18.13Z</time></trkpt><trkpt lat="40.96434" lon="14.30709"><ele>25.0</ele><time>2026-03-25T14:27:20.129Z</time></trkpt><trkpt lat="40.9642767" lon="14.3070967"><ele>25.0</ele><time>2026-03-25T14:27:21.13Z</time></trkpt><trkpt lat="40.9642133" lon="14.307105"><ele>25.0</ele><time>2026-03-25T14:27:22.13Z</time></trkpt><trkpt lat="40.96415" lon="14.3071167"><ele>25.0</ele><time>2026-03-25T14:27:23.13Z</time></trkpt><trkpt lat="40.9640867" lon="14.3071283"><ele>25.000000000000004</ele><time>2026-03-25T14:27:24.128Z</time></trkpt><trkpt lat="40.9640233" lon="14.307135"><ele>25.0</ele><time>2026-03-25T14:27:25.129Z</time></trkpt><trkpt lat="40.9639033" lon="14.307145"><ele>24.5</ele><time>2026-03-25T14:27:27.129Z</time></trkpt><trkpt lat="40.963785" lon="14.307155"><ele>24.0</ele><time>2026-03-25T14:27:29.131Z</time></trkpt><trkpt lat="40.963665" lon="14.307165"><ele>23.5</ele><time>2026-03-25T14:27:31.133Z</time></trkpt><trkpt lat="40.9635417" lon="14.3071683"><ele>23.0</ele><time>2026-03-25T14:27:33.13Z</time></trkpt><trkpt lat="40.963425" lon="14.3071867"><ele>23.4</ele><time>2026-03-25T14:27:35.13Z</time></trkpt><trkpt lat="40.9633067" lon="14.3072067"><ele>23.799999999999997</ele><time>2026-03-25T14:27:37.13Z</time></trkpt><trkpt lat="40.9631867" lon="14.3072133"><ele>24.2</ele><time>2026-03-25T14:27:39.129Z</time></trkpt><trkpt lat="40.9631233" lon="14.3072133"><ele>24.6</ele><time>2026-03-25T14:27:40.13Z</time></trkpt><trkpt lat="40.9630117" lon="14.3072233"><ele>25.0</ele><time>2026-03-25T14:27:42.13Z</time></trkpt><trkpt lat="40.962905" lon="14.3072417"><ele>25.2</ele><time>2026-03-25T14:27:44.129Z</time></trkpt><trkpt lat="40.9628" lon="14.3072517"><ele>25.4</ele><time>2026-03-25T14:27:46.13Z</time></trkpt><trkpt lat="40.9626883" lon="14.307255"><ele>25.6</ele><time>2026-03-25T14:27:48.13Z</time></trkpt><trkpt lat="40.962585" lon="14.3072633"><ele>25.8</ele><time>2026-03-25T14:27:50.13Z</time></trkpt><trkpt lat="40.96252" lon="14.3072633"><ele>26.0</ele><time>2026-03-25T14:27:51.13Z</time></trkpt><trkpt lat="40.9623983" lon="14.3072767"><ele>26.25</ele><time>2026-03-25T14:27:53.129Z</time></trkpt><trkpt lat="40.96228" lon="14.30729"><ele>26.5</ele><time>2026-03-25T14:27:55.13Z</time></trkpt><trkpt lat="40.96216" lon="14.3072967"><ele>26.75</ele><time>2026-03-25T14:27:57.13Z</time></trkpt><trkpt lat="40.962045" lon="14.3073067"><ele>27.0</ele><time>2026-03-25T14:27:59.13Z</time></trkpt><trkpt lat="40.96193" lon="14.3073117"><ele>27.0</ele><time>2026-03-25T14:28:01.129Z</time></trkpt><trkpt lat="40.96182" lon="14.3073217"><ele>27.0</ele><time>2026-03-25T14:28:03.13Z</time></trkpt><trkpt lat="40.9617" lon="14.30733"><ele>27.0</ele><time>2026-03-25T14:28:05.13Z</time></trkpt><trkpt lat="40.9615767" lon="14.307325"><ele>27.0</ele><time>2026-03-25T14:28:07.13Z</time></trkpt><trkpt lat="40.9614583" lon="14.30732"><ele>27.0</ele><time>2026-03-25T14:28:09.129Z</time></trkpt><trkpt lat="40.9613367" lon="14.3073033"><ele>27.0</ele><time>2026-03-25T14:28:11.129Z</time></trkpt><trkpt lat="40.961215" lon="14.30728"><ele>27.0</ele><time>2026-03-25T14:28:13.13Z</time></trkpt><trkpt lat="40.961105" lon="14.3072567"><ele>27.0</ele><time>2026-03-25T14:28:15.129Z</time></trkpt><trkpt lat="40.9610133" lon="14.307235"><ele>27.0</ele><time>2026-03-25T14:28:17.129Z</time></trkpt><trkpt lat="40.9609183" lon="14.3072083"><ele>27.0</ele><time>2026-03-25T14:28:19.131Z</time></trkpt><trkpt lat="40.9608467" lon="14.3071733"><ele>27.0</ele><time>2026-03-25T14:28:21.13Z</time></trkpt><trkpt lat="40.9607867" lon="14.3071283"><ele>27.0</ele><time>2026-03-25T14:28:23.13Z</time></trkpt><trkpt lat="40.9607233" lon="14.307085"><ele>27.0</ele><time>2026-03-25T14:28:25.129Z</time></trkpt><trkpt lat="40.9606583" lon="14.3070867"><ele>27.0</ele><time>2026-03-25T14:28:27.13Z</time></trkpt><trkpt lat="40.96059" lon="14.3071083"><ele>27.0</ele><time>2026-03-25T14:28:29.13Z</time></trkpt><trkpt lat="40.9605183" lon="14.3070933"><ele>26.8</ele><time>2026-03-25T14:28:31.13Z</time></trkpt><trkpt lat="40.96044" lon="14.30708"><ele>26.6</ele><time>2026-03-25T14:28:33.129Z</time></trkpt><trkpt lat="40.96034" lon="14.30708"><ele>26.400000000000002</ele><time>2026-03-25T14:28:35.13Z</time></trkpt><trkpt lat="40.9602317" lon="14.307045"><ele>26.200000000000003</ele><time>2026-03-25T14:28:37.13Z</time></trkpt><trkpt lat="40.9601267" lon="14.3070033"><ele>26.0</ele><time>2026-03-25T14:28:39.128Z</time></trkpt><trkpt lat="40.9600217" lon="14.3069767"><ele>25.6</ele><time>2026-03-25T14:28:41.13Z</time></trkpt><trkpt lat="40.9599017" lon="14.3069533"><ele>25.200000000000003</ele><time>2026-03-25T14:28:43.13Z</time></trkpt><trkpt lat="40.9597883" lon="14.3069333"><ele>24.799999999999997</ele><time>2026-03-25T14:28:45.13Z</time></trkpt><trkpt lat="40.9596683" lon="14.3069067"><ele>24.4</ele><time>2026-03-25T14:28:47.131Z</time></trkpt><trkpt lat="40.9596033" lon="14.306885"><ele>24.0</ele><time>2026-03-25T14:28:48.13Z</time></trkpt><trkpt lat="40.959545" lon="14.3068483"><ele>24.0</ele><time>2026-03-25T14:28:49.129Z</time></trkpt><trkpt lat="40.9594283" lon="14.3068083"><ele>24.0</ele><time>2026-03-25T14:28:51.13Z</time></trkpt><trkpt lat="40.9593067" lon="14.3067833"><ele>24.0</ele><time>2026-03-25T14:28:53.13Z</time></trkpt><trkpt lat="40.9591883" lon="14.3067617"><ele>24.0</ele><time>2026-03-25T14:28:55.129Z</time></trkpt><trkpt lat="40.9591217" lon="14.306745"><ele>24.0</ele><time>2026-03-25T14:28:56.133Z</time></trkpt><trkpt lat="40.9590583" lon="14.30673"><ele>25.0</ele><time>2026-03-25T14:28:57.13Z</time></trkpt><trkpt lat="40.9589433" lon="14.3067033"><ele>26.0</ele><time>2026-03-25T14:28:59.13Z</time></trkpt><trkpt lat="40.9588283" lon="14.306665"><ele>27.0</ele><time>2026-03-25T14:29:01.13Z</time></trkpt><trkpt lat="40.958715" lon="14.3066217"><ele>28.0</ele><time>2026-03-25T14:29:03.129Z</time></trkpt><trkpt lat="40.958605" lon="14.3065733"><ele>28.0</ele><time>2026-03-25T14:29:05.129Z</time></trkpt><trkpt lat="40.9585" lon="14.3065233"><ele>27.999999999999996</ele><time>2026-03-25T14:29:07.132Z</time></trkpt><trkpt lat="40.9584083" lon="14.30646"><ele>27.999999999999996</ele><time>2026-03-25T14:29:09.13Z</time></trkpt><trkpt lat="40.958325" lon="14.3063783"><ele>28.0</ele><time>2026-03-25T14:29:11.129Z</time></trkpt><trkpt lat="40.95825" lon="14.3062933"><ele>28.0</ele><time>2026-03-25T14:29:13.131Z</time></trkpt><trkpt lat="40.9581983" lon="14.3062433"><ele>28.166666666666668</ele><time>2026-03-25T14:29:15.13Z</time></trkpt><trkpt lat="40.958135" lon="14.3061717"><ele>28.333333333333336</ele><time>2026-03-25T14:29:18.13Z</time></trkpt><trkpt lat="40.9580767" lon="14.3061033"><ele>28.5</ele><time>2026-03-25T14:29:21.13Z</time></trkpt><trkpt lat="40.9580167" lon="14.3060467"><ele>28.666666666666664</ele><time>2026-03-25T14:29:23.128Z</time></trkpt><trkpt lat="40.9579517" lon="14.3059867"><ele>28.833333333333332</ele><time>2026-03-25T14:29:25.131Z</time></trkpt><trkpt lat="40.95789" lon="14.3059283"><ele>29.0</ele><time>2026-03-25T14:29:27.13Z</time></trkpt><trkpt lat="40.9578167" lon="14.3058483"><ele>29.0</ele><time>2026-03-25T14:29:30.13Z</time></trkpt><trkpt lat="40.9577633" lon="14.30576"><ele>29.0</ele><time>2026-03-25T14:29:32.128Z</time></trkpt><trkpt lat="40.9576683" lon="14.3057"><ele>29.0</ele><time>2026-03-25T14:29:34.129Z</time></trkpt><trkpt lat="40.9575917" lon="14.30563"><ele>29.0</ele><time>2026-03-25T14:29:36.129Z</time></trkpt><trkpt lat="40.95751" lon="14.3055567"><ele>29.0</ele><time>2026-03-25T14:29:38.129Z</time></trkpt><trkpt lat="40.9574217" lon="14.3054917"><ele>28.999999999999996</ele><time>2026-03-25T14:29:40.129Z</time></trkpt><trkpt lat="40.957365" lon="14.3054533"><ele>29.0</ele><time>2026-03-25T14:29:42.129Z</time></trkpt><trkpt lat="40.9573033" lon="14.3054033"><ele>29.0</ele><time>2026-03-25T14:29:45.129Z</time></trkpt><trkpt lat="40.957245" lon="14.30533"><ele>29.0</ele><time>2026-03-25T14:29:48.128Z</time></trkpt><trkpt lat="40.9571783" lon="14.3052683"><ele>28.999999999999996</ele><time>2026-03-25T14:29:50.129Z</time></trkpt><trkpt lat="40.957105" lon="14.305195"><ele>29.0</ele><time>2026-03-25T14:29:52.129Z</time></trkpt><trkpt lat="40.95703" lon="14.3051267"><ele>29.0</ele><time>2026-03-25T14:29:54.129Z</time></trkpt><trkpt lat="40.9569383" lon="14.3050817"><ele>29.0</ele><time>2026-03-25T14:29:56.129Z</time></trkpt><trkpt lat="40.9568583" lon="14.30501"><ele>29.0</ele><time>2026-03-25T14:29:58.128Z</time></trkpt><trkpt lat="40.9567417" lon="14.3049467"><ele>29.0</ele><time>2026-03-25T14:30:00.129Z</time></trkpt><trkpt lat="40.9566433" lon="14.304895"><ele>29.0</ele><time>2026-03-25T14:30:02.129Z</time></trkpt><trkpt lat="40.956545" lon="14.3048533"><ele>28.999999999999996</ele><time>2026-03-25T14:30:04.129Z</time></trkpt><trkpt lat="40.9564233" lon="14.30483"><ele>29.0</ele><time>2026-03-25T14:30:06.129Z</time></trkpt><trkpt lat="40.9563617" lon="14.3048117"><ele>29.0</ele><time>2026-03-25T14:30:07.129Z</time></trkpt><trkpt lat="40.9562933" lon="14.3047833"><ele>29.0</ele><time>2026-03-25T14:30:08.128Z</time></trkpt><trkpt lat="40.9562267" lon="14.30475"><ele>28.999999999999996</ele><time>2026-03-25T14:30:09.129Z</time></trkpt><trkpt lat="40.9561583" lon="14.304725"><ele>29.0</ele><time>2026-03-25T14:30:10.129Z</time></trkpt><trkpt lat="40.9560867" lon="14.3046967"><ele>29.000000000000004</ele><time>2026-03-25T14:30:11.129Z</time></trkpt><trkpt lat="40.9560183" lon="14.3046767"><ele>29.0</ele><time>2026-03-25T14:30:12.13Z</time></trkpt><trkpt lat="40.9559533" lon="14.3046533"><ele>29.000000000000004</ele><time>2026-03-25T14:30:13.129Z</time></trkpt><trkpt lat="40.9558867" lon="14.304635"><ele>29.000000000000004</ele><time>2026-03-25T14:30:14.128Z</time></trkpt><trkpt lat="40.9558117" lon="14.304615"><ele>29.0</ele><time>2026-03-25T14:30:15.129Z</time></trkpt><trkpt lat="40.95574" lon="14.3046017"><ele>29.000000000000004</ele><time>2026-03-25T14:30:16.129Z</time></trkpt><trkpt lat="40.95567" lon="14.304585"><ele>29.000000000000004</ele><time>2026-03-25T14:30:17.13Z</time></trkpt><trkpt lat="40.955605" lon="14.3045633"><ele>28.799999999999997</ele><time>2026-03-25T14:30:18.128Z</time></trkpt><trkpt lat="40.95554" lon="14.3045417"><ele>28.599999999999998</ele><time>2026-03-25T14:30:19.129Z</time></trkpt><trkpt lat="40.955405" lon="14.3045"><ele>28.4</ele><time>2026-03-25T14:30:21.129Z</time></trkpt><trkpt lat="40.955285" lon="14.3044467"><ele>28.2</ele><time>2026-03-25T14:30:23.129Z</time></trkpt><trkpt lat="40.9552217" lon="14.3044183"><ele>28.0</ele><time>2026-03-25T14:30:24.129Z</time></trkpt><trkpt lat="40.9551583" lon="14.3044"><ele>28.0</ele><time>2026-03-25T14:30:25.133Z</time></trkpt><trkpt lat="40.955095" lon="14.304375"><ele>28.0</ele><time>2026-03-25T14:30:26.129Z</time></trkpt><trkpt lat="40.9550283" lon="14.3043517"><ele>28.0</ele><time>2026-03-25T14:30:27.129Z</time></trkpt><trkpt lat="40.954965" lon="14.304325"><ele>28.0</ele><time>2026-03-25T14:30:28.131Z</time></trkpt><trkpt lat="40.9549" lon="14.3043"><ele>28.0</ele><time>2026-03-25T14:30:29.128Z</time></trkpt><trkpt lat="40.9548383" lon="14.30428"><ele>28.0</ele><time>2026-03-25T14:30:30.13Z</time></trkpt><trkpt lat="40.9547767" lon="14.3042483"><ele>28.0</ele><time>2026-03-25T14:30:31.128Z</time></trkpt><trkpt lat="40.9547117" lon="14.30422"><ele>28.000000000000004</ele><time>2026-03-25T14:30:32.128Z</time></trkpt><trkpt lat="40.9545967" lon="14.3041767"><ele>28.0</ele><time>2026-03-25T14:30:34.129Z</time></trkpt><trkpt lat="40.9545333" lon="14.30416"><ele>28.0</ele><time>2026-03-25T14:30:35.13Z</time></trkpt><trkpt lat="40.9544133" lon="14.3041133"><ele>28.0</ele><time>2026-03-25T14:30:37.129Z</time></trkpt><trkpt lat="40.9543467" lon="14.3040967"><ele>28.000000000000004</ele><time>2026-03-25T14:30:38.129Z</time></trkpt><trkpt lat="40.9542833" lon="14.3040783"><ele>28.0</ele><time>2026-03-25T14:30:39.129Z</time></trkpt><trkpt lat="40.9542167" lon="14.30406"><ele>28.000000000000004</ele><time>2026-03-25T14:30:40.129Z</time></trkpt><trkpt lat="40.9541517" lon="14.3040383"><ele>28.0</ele><time>2026-03-25T14:30:41.129Z</time></trkpt><trkpt lat="40.954025" lon="14.3039967"><ele>28.0</ele><time>2026-03-25T14:30:43.13Z</time></trkpt><trkpt lat="40.9539567" lon="14.3039733"><ele>28.0</ele><time>2026-03-25T14:30:44.129Z</time></trkpt><trkpt lat="40.9538867" lon="14.3039433"><ele>28.000000000000004</ele><time>2026-03-25T14:30:45.128Z</time></trkpt><trkpt lat="40.9538217" lon="14.3039167"><ele>28.0</ele><time>2026-03-25T14:30:46.129Z</time></trkpt><trkpt lat="40.9537183" lon="14.3038583"><ele>28.0</ele><time>2026-03-25T14:30:48.128Z</time></trkpt><trkpt lat="40.9536117" lon="14.303795"><ele>27.999999999999996</ele><time>2026-03-25T14:30:50.129Z</time></trkpt><trkpt lat="40.9535117" lon="14.3037167"><ele>27.999999999999996</ele><time>2026-03-25T14:30:52.129Z</time></trkpt><trkpt lat="40.95341" lon="14.303655"><ele>28.0</ele><time>2026-03-25T14:30:54.129Z</time></trkpt><trkpt lat="40.95335" lon="14.3036267"><ele>28.0</ele><time>2026-03-25T14:30:55.13Z</time></trkpt><trkpt lat="40.9532883" lon="14.3036017"><ele>28.0</ele><time>2026-03-25T14:30:56.128Z</time></trkpt><trkpt lat="40.9531767" lon="14.30356"><ele>28.0</ele><time>2026-03-25T14:30:58.129Z</time></trkpt><trkpt lat="40.95306" lon="14.3035133"><ele>28.0</ele><time>2026-03-25T14:31:00.128Z</time></trkpt><trkpt lat="40.9529433" lon="14.3034883"><ele>28.0</ele><time>2026-03-25T14:31:02.129Z</time></trkpt><trkpt lat="40.9528267" lon="14.3034483"><ele>28.0</ele><time>2026-03-25T14:31:04.129Z</time></trkpt><trkpt lat="40.952765" lon="14.30342"><ele>27.999999999999996</ele><time>2026-03-25T14:31:05.129Z</time></trkpt><trkpt lat="40.95265" lon="14.3033783"><ele>27.999999999999996</ele><time>2026-03-25T14:31:07.129Z</time></trkpt><trkpt lat="40.952535" lon="14.3033467"><ele>28.0</ele><time>2026-03-25T14:31:09.129Z</time></trkpt><trkpt lat="40.9524317" lon="14.303315"><ele>28.0</ele><time>2026-03-25T14:31:11.13Z</time></trkpt><trkpt lat="40.9523233" lon="14.3032683"><ele>28.5</ele><time>2026-03-25T14:31:13.128Z</time></trkpt><trkpt lat="40.9522083" lon="14.30325"><ele>29.0</ele><time>2026-03-25T14:31:15.131Z</time></trkpt><trkpt lat="40.9520917" lon="14.3032233"><ele>29.5</ele><time>2026-03-25T14:31:17.129Z</time></trkpt><trkpt lat="40.9519767" lon="14.303205"><ele>30.0</ele><time>2026-03-25T14:31:19.128Z</time></trkpt><trkpt lat="40.95186" lon="14.3031867"><ele>30.0</ele><time>2026-03-25T14:31:21.128Z</time></trkpt><trkpt lat="40.9517483" lon="14.3031667"><ele>30.0</ele><time>2026-03-25T14:31:23.129Z</time></trkpt><trkpt lat="40.95163" lon="14.3031483"><ele>30.0</ele><time>2026-03-25T14:31:25.129Z</time></trkpt><trkpt lat="40.9515667" lon="14.3031417"><ele>30.0</ele><time>2026-03-25T14:31:26.129Z</time></trkpt><trkpt lat="40.9514567" lon="14.3030983"><ele>30.0</ele><time>2026-03-25T14:31:28.129Z</time></trkpt><trkpt lat="40.95134" lon="14.3030517"><ele>29.8</ele><time>2026-03-25T14:31:30.129Z</time></trkpt><trkpt lat="40.9512183" lon="14.3030267"><ele>29.6</ele><time>2026-03-25T14:31:32.129Z</time></trkpt><trkpt lat="40.9510967" lon="14.3030083"><ele>29.4</ele><time>2026-03-25T14:31:34.129Z</time></trkpt><trkpt lat="40.9510317" lon="14.303"><ele>29.2</ele><time>2026-03-25T14:31:35.128Z</time></trkpt><trkpt lat="40.95097" lon="14.3029833"><ele>29.0</ele><time>2026-03-25T14:31:36.128Z</time></trkpt><trkpt lat="40.9508567" lon="14.3029483"><ele>29.6</ele><time>2026-03-25T14:31:38.129Z</time></trkpt><trkpt lat="40.9507333" lon="14.302915"><ele>30.2</ele><time>2026-03-25T14:31:40.13Z</time></trkpt><trkpt lat="40.950615" lon="14.3028917"><ele>30.800000000000004</ele><time>2026-03-25T14:31:42.129Z</time></trkpt><trkpt lat="40.9505517" lon="14.3028767"><ele>31.400000000000002</ele><time>2026-03-25T14:31:43.131Z</time></trkpt><trkpt lat="40.9504817" lon="14.3028583"><ele>32.0</ele><time>2026-03-25T14:31:44.128Z</time></trkpt><trkpt lat="40.9504067" lon="14.3028333"><ele>32.0</ele><time>2026-03-25T14:31:45.131Z</time></trkpt><trkpt lat="40.9503383" lon="14.3028033"><ele>32.0</ele><time>2026-03-25T14:31:46.129Z</time></trkpt><trkpt lat="40.95022" lon="14.3027517"><ele>32.0</ele><time>2026-03-25T14:31:48.129Z</time></trkpt><trkpt lat="40.95011" lon="14.302715"><ele>32.0</ele><time>2026-03-25T14:31:50.129Z</time></trkpt><trkpt lat="40.94999" lon="14.302685"><ele>32.0</ele><time>2026-03-25T14:31:52.128Z</time></trkpt><trkpt lat="40.94987" lon="14.302665"><ele>32.2</ele><time>2026-03-25T14:31:54.128Z</time></trkpt><trkpt lat="40.9498067" lon="14.3026517"><ele>32.400000000000006</ele><time>2026-03-25T14:31:55.129Z</time></trkpt><trkpt lat="40.9496783" lon="14.3026283"><ele>32.599999999999994</ele><time>2026-03-25T14:31:57.129Z</time></trkpt><trkpt lat="40.9496133" lon="14.3026133"><ele>32.8</ele><time>2026-03-25T14:31:58.129Z</time></trkpt><trkpt lat="40.9494883" lon="14.3025783"><ele>33.0</ele><time>2026-03-25T14:32:00.129Z</time></trkpt><trkpt lat="40.9494233" lon="14.30257"><ele>33.0</ele><time>2026-03-25T14:32:01.13Z</time></trkpt><trkpt lat="40.949315" lon="14.3025217"><ele>33.0</ele><time>2026-03-25T14:32:03.129Z</time></trkpt><trkpt lat="40.9492417" lon="14.3025033"><ele>33.0</ele><time>2026-03-25T14:32:05.128Z</time></trkpt><trkpt lat="40.9491617" lon="14.3024883"><ele>33.0</ele><time>2026-03-25T14:32:09.13Z</time></trkpt><trkpt lat="40.9490583" lon="14.3024767"><ele>33.0</ele><time>2026-03-25T14:32:12.129Z</time></trkpt><trkpt lat="40.9489717" lon="14.30246"><ele>32.6</ele><time>2026-03-25T14:32:14.129Z</time></trkpt><trkpt lat="40.9488717" lon="14.3024383"><ele>32.199999999999996</ele><time>2026-03-25T14:32:16.129Z</time></trkpt><trkpt lat="40.9487667" lon="14.3024283"><ele>31.8</ele><time>2026-03-25T14:32:18.129Z</time></trkpt><trkpt lat="40.9486633" lon="14.3024033"><ele>31.4</ele><time>2026-03-25T14:32:20.13Z</time></trkpt><trkpt lat="40.9485517" lon="14.3023833"><ele>31.0</ele><time>2026-03-25T14:32:22.129Z</time></trkpt><trkpt lat="40.9484433" lon="14.302355"><ele>31.25</ele><time>2026-03-25T14:32:24.129Z</time></trkpt><trkpt lat="40.9483233" lon="14.30233"><ele>31.5</ele><time>2026-03-25T14:32:26.128Z</time></trkpt><trkpt lat="40.9482017" lon="14.3022983"><ele>31.75</ele><time>2026-03-25T14:32:28.128Z</time></trkpt><trkpt lat="40.9480817" lon="14.30227"><ele>32.0</ele><time>2026-03-25T14:32:30.129Z</time></trkpt><trkpt lat="40.94796" lon="14.30224"><ele>32.0</ele><time>2026-03-25T14:32:32.129Z</time></trkpt><trkpt lat="40.947835" lon="14.3022133"><ele>32.0</ele><time>2026-03-25T14:32:34.128Z</time></trkpt><trkpt lat="40.9477733" lon="14.302185"><ele>32.0</ele><time>2026-03-25T14:32:35.13Z</time></trkpt><trkpt lat="40.9476583" lon="14.30215"><ele>32.0</ele><time>2026-03-25T14:32:37.129Z</time></trkpt><trkpt lat="40.9475533" lon="14.30209"><ele>32.0</ele><time>2026-03-25T14:32:39.129Z</time></trkpt><trkpt lat="40.9474467" lon="14.3020267"><ele>32.2</ele><time>2026-03-25T14:32:41.129Z</time></trkpt><trkpt lat="40.9473567" lon="14.3019383"><ele>32.400000000000006</ele><time>2026-03-25T14:32:43.129Z</time></trkpt><trkpt lat="40.9472917" lon="14.30183"><ele>32.599999999999994</ele><time>2026-03-25T14:32:45.128Z</time></trkpt><trkpt lat="40.94724" lon="14.301695"><ele>32.8</ele><time>2026-03-25T14:32:47.13Z</time></trkpt><trkpt lat="40.9471917" lon="14.301555"><ele>33.0</ele><time>2026-03-25T14:32:49.129Z</time></trkpt><trkpt lat="40.9471467" lon="14.30142"><ele>32.5</ele><time>2026-03-25T14:32:51.128Z</time></trkpt><trkpt lat="40.9470983" lon="14.30128"><ele>32.0</ele><time>2026-03-25T14:32:53.129Z</time></trkpt><trkpt lat="40.9470483" lon="14.301135"><ele>31.5</ele><time>2026-03-25T14:32:55.129Z</time></trkpt><trkpt lat="40.94699" lon="14.301"><ele>31.0</ele><time>2026-03-25T14:32:57.128Z</time></trkpt><trkpt lat="40.946925" lon="14.3008533"><ele>31.0</ele><time>2026-03-25T14:32:59.13Z</time></trkpt><trkpt lat="40.9468633" lon="14.3007083"><ele>31.0</ele><time>2026-03-25T14:33:01.129Z</time></trkpt><trkpt lat="40.9468033" lon="14.3005683"><ele>31.0</ele><time>2026-03-25T14:33:03.128Z</time></trkpt><trkpt lat="40.94675" lon="14.30043"><ele>31.0</ele><time>2026-03-25T14:33:05.129Z</time></trkpt><trkpt lat="40.946695" lon="14.300285"><ele>31.25</ele><time>2026-03-25T14:33:07.129Z</time></trkpt><trkpt lat="40.9466467" lon="14.3001433"><ele>31.5</ele><time>2026-03-25T14:33:09.128Z</time></trkpt><trkpt lat="40.9465983" lon="14.3000017"><ele>31.75</ele><time>2026-03-25T14:33:11.128Z</time></trkpt><trkpt lat="40.9465483" lon="14.2998617"><ele>32.0</ele><time>2026-03-25T14:33:13.129Z</time></trkpt><trkpt lat="40.9464967" lon="14.299725"><ele>32.0</ele><time>2026-03-25T14:33:15.13Z</time></trkpt><trkpt lat="40.9464417" lon="14.2996083"><ele>32.0</ele><time>2026-03-25T14:33:17.128Z</time></trkpt><trkpt lat="40.94639" lon="14.2995117"><ele>32.0</ele><time>2026-03-25T14:33:19.129Z</time></trkpt><trkpt lat="40.94633" lon="14.2994383"><ele>32.0</ele><time>2026-03-25T14:33:21.129Z</time></trkpt><trkpt lat="40.9462517" lon="14.2994267"><ele>32.0</ele><time>2026-03-25T14:33:23.128Z</time></trkpt><trkpt lat="40.946155" lon="14.29948"><ele>32.0</ele><time>2026-03-25T14:33:25.129Z</time></trkpt><trkpt lat="40.946045" lon="14.2994867"><ele>32.0</ele><time>2026-03-25T14:33:27.128Z</time></trkpt><trkpt lat="40.9459433" lon="14.29948"><ele>32.0</ele><time>2026-03-25T14:33:29.13Z</time></trkpt><trkpt lat="40.9458333" lon="14.29946"><ele>32.0</ele><time>2026-03-25T14:33:31.129Z</time></trkpt><trkpt lat="40.9457133" lon="14.2994367"><ele>32.0</ele><time>2026-03-25T14:33:33.129Z</time></trkpt><trkpt lat="40.9456017" lon="14.2994133"><ele>32.25</ele><time>2026-03-25T14:33:35.129Z</time></trkpt><trkpt lat="40.9454867" lon="14.29939"><ele>32.5</ele><time>2026-03-25T14:33:37.129Z</time></trkpt><trkpt lat="40.945375" lon="14.2993733"><ele>32.75</ele><time>2026-03-25T14:33:39.129Z</time></trkpt><trkpt lat="40.945255" lon="14.29935"><ele>33.0</ele><time>2026-03-25T14:33:41.129Z</time></trkpt><trkpt lat="40.9451417" lon="14.299325"><ele>33.0</ele><time>2026-03-25T14:33:43.129Z</time></trkpt><trkpt lat="40.9450267" lon="14.2993"><ele>33.0</ele><time>2026-03-25T14:33:45.129Z</time></trkpt><trkpt lat="40.9449667" lon="14.2992683"><ele>33.0</ele><time>2026-03-25T14:33:46.129Z</time></trkpt><trkpt lat="40.944855" lon="14.2992467"><ele>33.0</ele><time>2026-03-25T14:33:48.129Z</time></trkpt><trkpt lat="40.9447483" lon="14.29923"><ele>33.0</ele><time>2026-03-25T14:33:50.129Z</time></trkpt><trkpt lat="40.9446467" lon="14.2992133"><ele>33.0</ele><time>2026-03-25T14:33:52.129Z</time></trkpt><trkpt lat="40.9445467" lon="14.2992083"><ele>33.0</ele><time>2026-03-25T14:33:54.129Z</time></trkpt><trkpt lat="40.94445" lon="14.2992017"><ele>33.0</ele><time>2026-03-25T14:33:56.128Z</time></trkpt><trkpt lat="40.9443483" lon="14.2991683"><ele>33.0</ele><time>2026-03-25T14:33:58.129Z</time></trkpt><trkpt lat="40.9442417" lon="14.29915"><ele>33.0</ele><time>2026-03-25T14:34:00.129Z</time></trkpt><trkpt lat="40.944125" lon="14.2991383"><ele>32.8</ele><time>2026-03-25T14:34:02.129Z</time></trkpt><trkpt lat="40.9440067" lon="14.2991183"><ele>32.599999999999994</ele><time>2026-03-25T14:34:04.129Z</time></trkpt><trkpt lat="40.9439" lon="14.2990983"><ele>32.400000000000006</ele><time>2026-03-25T14:34:06.129Z</time></trkpt><trkpt lat="40.9437783" lon="14.2990783"><ele>32.2</ele><time>2026-03-25T14:34:08.128Z</time></trkpt><trkpt lat="40.943715" lon="14.2990667"><ele>32.0</ele><time>2026-03-25T14:34:09.129Z</time></trkpt><trkpt lat="40.94359" lon="14.2990367"><ele>32.0</ele><time>2026-03-25T14:34:11.129Z</time></trkpt><trkpt lat="40.9435267" lon="14.29902"><ele>32.0</ele><time>2026-03-25T14:34:12.128Z</time></trkpt><trkpt lat="40.9434633" lon="14.29901"><ele>32.0</ele><time>2026-03-25T14:34:13.128Z</time></trkpt><trkpt lat="40.943345" lon="14.2990033"><ele>32.0</ele><time>2026-03-25T14:34:15.129Z</time></trkpt><trkpt lat="40.9432367" lon="14.2990117"><ele>32.0</ele><time>2026-03-25T14:34:17.129Z</time></trkpt><trkpt lat="40.94312" lon="14.2990133"><ele>32.4</ele><time>2026-03-25T14:34:19.129Z</time></trkpt><trkpt lat="40.9429983" lon="14.298995"><ele>32.800000000000004</ele><time>2026-03-25T14:34:21.129Z</time></trkpt><trkpt lat="40.942925" lon="14.2989833"><ele>33.2</ele><time>2026-03-25T14:34:22.128Z</time></trkpt><trkpt lat="40.9428083" lon="14.2989817"><ele>33.6</ele><time>2026-03-25T14:34:24.13Z</time></trkpt><trkpt lat="40.9427033" lon="14.29899"><ele>34.0</ele><time>2026-03-25T14:34:26.129Z</time></trkpt><trkpt lat="40.94264" lon="14.29899"><ele>34.5</ele><time>2026-03-25T14:34:27.129Z</time></trkpt><trkpt lat="40.942525" lon="14.2989967"><ele>35.0</ele><time>2026-03-25T14:34:29.128Z</time></trkpt><trkpt lat="40.94241" lon="14.2990033"><ele>35.5</ele><time>2026-03-25T14:34:31.128Z</time></trkpt><trkpt lat="40.942305" lon="14.29901"><ele>36.0</ele><time>2026-03-25T14:34:33.129Z</time></trkpt><trkpt lat="40.9421883" lon="14.299015"><ele>36.0</ele><time>2026-03-25T14:34:35.129Z</time></trkpt><trkpt lat="40.9420883" lon="14.2990233"><ele>36.0</ele><time>2026-03-25T14:34:37.129Z</time></trkpt><trkpt lat="40.94199" lon="14.2990333"><ele>36.0</ele><time>2026-03-25T14:34:39.129Z</time></trkpt><trkpt lat="40.9418867" lon="14.2990533"><ele>36.0</ele><time>2026-03-25T14:34:41.129Z</time></trkpt><trkpt lat="40.941775" lon="14.29906"><ele>36.0</ele><time>2026-03-25T14:34:43.129Z</time></trkpt><trkpt lat="40.9416583" lon="14.2990717"><ele>36.2</ele><time>2026-03-25T14:34:45.129Z</time></trkpt><trkpt lat="40.9415417" lon="14.2991017"><ele>36.400000000000006</ele><time>2026-03-25T14:34:47.129Z</time></trkpt><trkpt lat="40.9414283" lon="14.2991317"><ele>36.6</ele><time>2026-03-25T14:34:49.13Z</time></trkpt><trkpt lat="40.9413267" lon="14.2991483"><ele>36.800000000000004</ele><time>2026-03-25T14:34:51.129Z</time></trkpt><trkpt lat="40.9412633" lon="14.2991533"><ele>37.0</ele><time>2026-03-25T14:34:53.129Z</time></trkpt><trkpt lat="40.9411967" lon="14.2991983"><ele>37.0</ele><time>2026-03-25T14:34:56.129Z</time></trkpt><trkpt lat="40.94113" lon="14.2992167"><ele>37.0</ele><time>2026-03-25T14:34:58.128Z</time></trkpt><trkpt lat="40.941045" lon="14.2992367"><ele>37.0</ele><time>2026-03-25T14:35:00.129Z</time></trkpt><trkpt lat="40.9409683" lon="14.2992667"><ele>37.0</ele><time>2026-03-25T14:35:02.129Z</time></trkpt><trkpt lat="40.9408833" lon="14.2993117"><ele>37.0</ele><time>2026-03-25T14:35:04.129Z</time></trkpt><trkpt lat="40.9407817" lon="14.2993417"><ele>37.0</ele><time>2026-03-25T14:35:06.13Z</time></trkpt><trkpt lat="40.94068" lon="14.2993717"><ele>37.0</ele><time>2026-03-25T14:35:08.131Z</time></trkpt><trkpt lat="40.94058" lon="14.299425"><ele>37.0</ele><time>2026-03-25T14:35:10.129Z</time></trkpt><trkpt lat="40.9404767" lon="14.2994733"><ele>37.0</ele><time>2026-03-25T14:35:12.131Z</time></trkpt><trkpt lat="40.9403867" lon="14.2995183"><ele>37.0</ele><time>2026-03-25T14:35:14.129Z</time></trkpt><trkpt lat="40.9402933" lon="14.29955"><ele>37.0</ele><time>2026-03-25T14:35:16.129Z</time></trkpt><trkpt lat="40.940175" lon="14.2995733"><ele>37.0</ele><time>2026-03-25T14:35:18.129Z</time></trkpt><trkpt lat="40.9400667" lon="14.2996083"><ele>37.0</ele><time>2026-03-25T14:35:20.129Z</time></trkpt><trkpt lat="40.939955" lon="14.299645"><ele>37.0</ele><time>2026-03-25T14:35:22.129Z</time></trkpt><trkpt lat="40.9398433" lon="14.2997017"><ele>37.0</ele><time>2026-03-25T14:35:24.129Z</time></trkpt><trkpt lat="40.9397817" lon="14.299735"><ele>37.0</ele><time>2026-03-25T14:35:25.129Z</time></trkpt><trkpt lat="40.9397233" lon="14.2997667"><ele>36.800000000000004</ele><time>2026-03-25T14:35:26.129Z</time></trkpt><trkpt lat="40.9396067" lon="14.29983"><ele>36.6</ele><time>2026-03-25T14:35:28.129Z</time></trkpt><trkpt lat="40.9395" lon="14.2999033"><ele>36.400000000000006</ele><time>2026-03-25T14:35:30.129Z</time></trkpt><trkpt lat="40.93939" lon="14.2999833"><ele>36.2</ele><time>2026-03-25T14:35:32.129Z</time></trkpt><trkpt lat="40.9393317" lon="14.3000217"><ele>36.0</ele><time>2026-03-25T14:35:33.13Z</time></trkpt><trkpt lat="40.9392183" lon="14.3000883"><ele>36.166666666666664</ele><time>2026-03-25T14:35:35.13Z</time></trkpt><trkpt lat="40.93916" lon="14.3001217"><ele>36.333333333333336</ele><time>2026-03-25T14:35:36.129Z</time></trkpt><trkpt lat="40.9390983" lon="14.3001567"><ele>36.5</ele><time>2026-03-25T14:35:37.129Z</time></trkpt><trkpt lat="40.93904" lon="14.30019"><ele>36.66666666666667</ele><time>2026-03-25T14:35:38.13Z</time></trkpt><trkpt lat="40.938935" lon="14.30026"><ele>36.833333333333336</ele><time>2026-03-25T14:35:40.128Z</time></trkpt><trkpt lat="40.9388417" lon="14.3003233"><ele>37.0</ele><time>2026-03-25T14:35:42.129Z</time></trkpt><trkpt lat="40.9387483" lon="14.3003767"><ele>37.0</ele><time>2026-03-25T14:35:44.129Z</time></trkpt><trkpt lat="40.93865" lon="14.30043"><ele>37.0</ele><time>2026-03-25T14:35:46.129Z</time></trkpt><trkpt lat="40.9385517" lon="14.3004867"><ele>37.0</ele><time>2026-03-25T14:35:48.129Z</time></trkpt><trkpt lat="40.9384533" lon="14.3005533"><ele>37.0</ele><time>2026-03-25T14:35:50.128Z</time></trkpt><trkpt lat="40.9383483" lon="14.3006117"><ele>37.0</ele><time>2026-03-25T14:35:52.129Z</time></trkpt><trkpt lat="40.938235" lon="14.3006667"><ele>37.2</ele><time>2026-03-25T14:35:54.13Z</time></trkpt><trkpt lat="40.9381733" lon="14.3006917"><ele>37.400000000000006</ele><time>2026-03-25T14:35:55.129Z</time></trkpt><trkpt lat="40.9380533" lon="14.3007367"><ele>37.599999999999994</ele><time>2026-03-25T14:35:57.129Z</time></trkpt><trkpt lat="40.9379383" lon="14.300785"><ele>37.8</ele><time>2026-03-25T14:35:59.129Z</time></trkpt><trkpt lat="40.9378317" lon="14.30083"><ele>38.0</ele><time>2026-03-25T14:36:01.129Z</time></trkpt><trkpt lat="40.9377133" lon="14.3008583"><ele>38.0</ele><time>2026-03-25T14:36:03.129Z</time></trkpt><trkpt lat="40.9375983" lon="14.3008767"><ele>38.0</ele><time>2026-03-25T14:36:05.129Z</time></trkpt><trkpt lat="40.9374867" lon="14.3008917"><ele>38.0</ele><time>2026-03-25T14:36:07.13Z</time></trkpt><trkpt lat="40.9373717" lon="14.3009083"><ele>38.0</ele><time>2026-03-25T14:36:09.13Z</time></trkpt><trkpt lat="40.9372583" lon="14.3009133"><ele>37.8</ele><time>2026-03-25T14:36:11.127Z</time></trkpt><trkpt lat="40.93714" lon="14.3009283"><ele>37.599999999999994</ele><time>2026-03-25T14:36:13.129Z</time></trkpt><trkpt lat="40.9370367" lon="14.3009433"><ele>37.400000000000006</ele><time>2026-03-25T14:36:15.129Z</time></trkpt><trkpt lat="40.936935" lon="14.3009683"><ele>37.2</ele><time>2026-03-25T14:36:17.13Z</time></trkpt><trkpt lat="40.9368433" lon="14.30099"><ele>37.0</ele><time>2026-03-25T14:36:19.13Z</time></trkpt><trkpt lat="40.93675" lon="14.30101"><ele>37.0</ele><time>2026-03-25T14:36:21.131Z</time></trkpt><trkpt lat="40.9366767" lon="14.30104"><ele>37.0</ele><time>2026-03-25T14:36:23.129Z</time></trkpt><trkpt lat="40.9366017" lon="14.3010617"><ele>37.0</ele><time>2026-03-25T14:36:25.13Z</time></trkpt><trkpt lat="40.9365167" lon="14.3010767"><ele>37.0</ele><time>2026-03-25T14:36:27.129Z</time></trkpt><trkpt lat="40.9364117" lon="14.3010917"><ele>37.0</ele><time>2026-03-25T14:36:29.131Z</time></trkpt><trkpt lat="40.9363033" lon="14.3011067"><ele>37.0</ele><time>2026-03-25T14:36:31.13Z</time></trkpt><trkpt lat="40.9362" lon="14.3011267"><ele>37.0</ele><time>2026-03-25T14:36:33.129Z</time></trkpt><trkpt lat="40.9360933" lon="14.301165"><ele>37.0</ele><time>2026-03-25T14:36:35.129Z</time></trkpt><trkpt lat="40.9359783" lon="14.3011867"><ele>37.0</ele><time>2026-03-25T14:36:37.128Z</time></trkpt><trkpt lat="40.935915" lon="14.3011967"><ele>37.0</ele><time>2026-03-25T14:36:38.129Z</time></trkpt><trkpt lat="40.9357917" lon="14.3012233"><ele>37.0</ele><time>2026-03-25T14:36:40.13Z</time></trkpt><trkpt lat="40.9356833" lon="14.30124"><ele>37.0</ele><time>2026-03-25T14:36:42.129Z</time></trkpt><trkpt lat="40.9355667" lon="14.30125"><ele>37.0</ele><time>2026-03-25T14:36:44.128Z</time></trkpt><trkpt lat="40.9354533" lon="14.3012583"><ele>37.0</ele><time>2026-03-25T14:36:46.129Z</time></trkpt><trkpt lat="40.935335" lon="14.3012617"><ele>37.0</ele><time>2026-03-25T14:36:48.129Z</time></trkpt><trkpt lat="40.9352717" lon="14.3012583"><ele>37.0</ele><time>2026-03-25T14:36:49.129Z</time></trkpt><trkpt lat="40.93515" lon="14.3012483"><ele>37.0</ele><time>2026-03-25T14:36:51.129Z</time></trkpt><trkpt lat="40.9350267" lon="14.301245"><ele>37.0</ele><time>2026-03-25T14:36:53.129Z</time></trkpt><trkpt lat="40.9349633" lon="14.3012417"><ele>37.0</ele><time>2026-03-25T14:36:54.129Z</time></trkpt><trkpt lat="40.9349" lon="14.3012333"><ele>37.0</ele><time>2026-03-25T14:36:55.133Z</time></trkpt><trkpt lat="40.93478" lon="14.3012167"><ele>37.4</ele><time>2026-03-25T14:36:57.129Z</time></trkpt><trkpt lat="40.934655" lon="14.3012217"><ele>37.800000000000004</ele><time>2026-03-25T14:36:59.131Z</time></trkpt><trkpt lat="40.9345367" lon="14.301225"><ele>38.2</ele><time>2026-03-25T14:37:01.129Z</time></trkpt><trkpt lat="40.9344117" lon="14.3012233"><ele>38.6</ele><time>2026-03-25T14:37:03.13Z</time></trkpt><trkpt lat="40.9343483" lon="14.3012283"><ele>39.0</ele><time>2026-03-25T14:37:04.129Z</time></trkpt><trkpt lat="40.9342817" lon="14.3012267"><ele>39.5</ele><time>2026-03-25T14:37:05.13Z</time></trkpt><trkpt lat="40.9341567" lon="14.3012267"><ele>40.0</ele><time>2026-03-25T14:37:07.129Z</time></trkpt><trkpt lat="40.93404" lon="14.30123"><ele>40.5</ele><time>2026-03-25T14:37:09.129Z</time></trkpt><trkpt lat="40.9339367" lon="14.3012467"><ele>41.0</ele><time>2026-03-25T14:37:11.13Z</time></trkpt><trkpt lat="40.9338233" lon="14.3012233"><ele>41.0</ele><time>2026-03-25T14:37:13.129Z</time></trkpt><trkpt lat="40.93371" lon="14.3012033"><ele>41.0</ele><time>2026-03-25T14:37:15.128Z</time></trkpt><trkpt lat="40.9336083" lon="14.3012167"><ele>41.0</ele><time>2026-03-25T14:37:17.13Z</time></trkpt><trkpt lat="40.9334933" lon="14.30121"><ele>41.0</ele><time>2026-03-25T14:37:19.131Z</time></trkpt><trkpt lat="40.9333783" lon="14.3011883"><ele>41.0</ele><time>2026-03-25T14:37:21.129Z</time></trkpt><trkpt lat="40.933265" lon="14.3011783"><ele>40.666666666666664</ele><time>2026-03-25T14:37:23.129Z</time></trkpt><trkpt lat="40.9331483" lon="14.3011733"><ele>40.33333333333333</ele><time>2026-03-25T14:37:25.13Z</time></trkpt><trkpt lat="40.9330817" lon="14.30117"><ele>40.0</ele><time>2026-03-25T14:37:26.129Z</time></trkpt><trkpt lat="40.9330183" lon="14.3011633"><ele>39.666666666666664</ele><time>2026-03-25T14:37:27.129Z</time></trkpt><trkpt lat="40.93292" lon="14.30116"><ele>39.333333333333336</ele><time>2026-03-25T14:37:29.129Z</time></trkpt><trkpt lat="40.932845" lon="14.30115"><ele>39.0</ele><time>2026-03-25T14:37:31.129Z</time></trkpt><trkpt lat="40.9327567" lon="14.3011467"><ele>39.0</ele><time>2026-03-25T14:37:34.129Z</time></trkpt><trkpt lat="40.932685" lon="14.301135"><ele>39.0</ele><time>2026-03-25T14:37:36.129Z</time></trkpt><trkpt lat="40.9326017" lon="14.3011267"><ele>39.0</ele><time>2026-03-25T14:37:38.129Z</time></trkpt><trkpt lat="40.9325083" lon="14.301125"><ele>39.0</ele><time>2026-03-25T14:37:40.129Z</time></trkpt><trkpt lat="40.9324033" lon="14.3011217"><ele>39.0</ele><time>2026-03-25T14:37:42.129Z</time></trkpt><trkpt lat="40.9322967" lon="14.3011217"><ele>39.25</ele><time>2026-03-25T14:37:44.128Z</time></trkpt><trkpt lat="40.9321833" lon="14.3011133"><ele>39.5</ele><time>2026-03-25T14:37:46.129Z</time></trkpt><trkpt lat="40.9320717" lon="14.3010783"><ele>39.75</ele><time>2026-03-25T14:37:48.13Z</time></trkpt><trkpt lat="40.9319583" lon="14.301025"><ele>40.0</ele><time>2026-03-25T14:37:50.129Z</time></trkpt><trkpt lat="40.9318583" lon="14.3009533"><ele>40.0</ele><time>2026-03-25T14:37:52.129Z</time></trkpt><trkpt lat="40.9317733" lon="14.3008617"><ele>40.0</ele><time>2026-03-25T14:37:54.129Z</time></trkpt><trkpt lat="40.9316967" lon="14.3007633"><ele>40.0</ele><time>2026-03-25T14:37:56.129Z</time></trkpt><trkpt lat="40.9316283" lon="14.3006583"><ele>40.0</ele><time>2026-03-25T14:37:58.131Z</time></trkpt><trkpt lat="40.9315567" lon="14.300545"><ele>40.0</ele><time>2026-03-25T14:38:00.13Z</time></trkpt><trkpt lat="40.9314783" lon="14.3004333"><ele>40.0</ele><time>2026-03-25T14:38:02.128Z</time></trkpt><trkpt lat="40.9313967" lon="14.300325"><ele>40.0</ele><time>2026-03-25T14:38:04.129Z</time></trkpt><trkpt lat="40.931315" lon="14.300215"><ele>40.0</ele><time>2026-03-25T14:38:06.129Z</time></trkpt><trkpt lat="40.931235" lon="14.30011"><ele>40.0</ele><time>2026-03-25T14:38:08.13Z</time></trkpt><trkpt lat="40.931155" lon="14.3000033"><ele>40.0</ele><time>2026-03-25T14:38:10.13Z</time></trkpt><trkpt lat="40.9310883" lon="14.2998867"><ele>40.0</ele><time>2026-03-25T14:38:12.129Z</time></trkpt><trkpt lat="40.9310167" lon="14.2997767"><ele>40.0</ele><time>2026-03-25T14:38:14.129Z</time></trkpt><trkpt lat="40.93093" lon="14.29969"><ele>40.0</ele><time>2026-03-25T14:38:16.129Z</time></trkpt><trkpt lat="40.9308417" lon="14.2995983"><ele>40.0</ele><time>2026-03-25T14:38:18.129Z</time></trkpt><trkpt lat="40.9307617" lon="14.29948"><ele>40.0</ele><time>2026-03-25T14:38:20.128Z</time></trkpt><trkpt lat="40.9306883" lon="14.299355"><ele>40.0</ele><time>2026-03-25T14:38:22.129Z</time></trkpt><trkpt lat="40.9306" lon="14.2992433"><ele>40.0</ele><time>2026-03-25T14:38:24.128Z</time></trkpt><trkpt lat="40.930515" lon="14.2991317"><ele>40.0</ele><time>2026-03-25T14:38:26.129Z</time></trkpt><trkpt lat="40.93044" lon="14.29901"><ele>40.5</ele><time>2026-03-25T14:38:28.131Z</time></trkpt><trkpt lat="40.930365" lon="14.298895"><ele>41.0</ele><time>2026-03-25T14:38:30.129Z</time></trkpt><trkpt lat="40.930295" lon="14.29878"><ele>41.5</ele><time>2026-03-25T14:38:32.128Z</time></trkpt><trkpt lat="40.9302333" lon="14.2986533"><ele>42.0</ele><time>2026-03-25T14:38:34.129Z</time></trkpt><trkpt lat="40.9301767" lon="14.2985233"><ele>42.0</ele><time>2026-03-25T14:38:36.129Z</time></trkpt><trkpt lat="40.9301417" lon="14.2983783"><ele>42.0</ele><time>2026-03-25T14:38:38.128Z</time></trkpt><trkpt lat="40.9301217" lon="14.2982533"><ele>42.0</ele><time>2026-03-25T14:38:40.131Z</time></trkpt><trkpt lat="40.9300633" lon="14.2981717"><ele>42.0</ele><time>2026-03-25T14:38:42.131Z</time></trkpt><trkpt lat="40.9299817" lon="14.2981633"><ele>42.0</ele><time>2026-03-25T14:38:44.129Z</time></trkpt><trkpt lat="40.9299" lon="14.2982133"><ele>42.0</ele><time>2026-03-25T14:38:46.129Z</time></trkpt><trkpt lat="40.9298017" lon="14.2982433"><ele>42.0</ele><time>2026-03-25T14:38:48.129Z</time></trkpt><trkpt lat="40.9296967" lon="14.2982383"><ele>42.0</ele><time>2026-03-25T14:38:50.131Z</time></trkpt><trkpt lat="40.92959" lon="14.298235"><ele>42.0</ele><time>2026-03-25T14:38:52.13Z</time></trkpt><trkpt lat="40.929485" lon="14.29825"><ele>42.0</ele><time>2026-03-25T14:38:54.13Z</time></trkpt><trkpt lat="40.9293667" lon="14.2982617"><ele>42.0</ele><time>2026-03-25T14:38:56.129Z</time></trkpt><trkpt lat="40.9292483" lon="14.298275"><ele>42.0</ele><time>2026-03-25T14:38:58.129Z</time></trkpt><trkpt lat="40.92913" lon="14.2982917"><ele>42.0</ele><time>2026-03-25T14:39:00.129Z</time></trkpt><trkpt lat="40.9290183" lon="14.29831"><ele>42.0</ele><time>2026-03-25T14:39:02.129Z</time></trkpt><trkpt lat="40.92891" lon="14.2983267"><ele>42.0</ele><time>2026-03-25T14:39:04.133Z</time></trkpt><trkpt lat="40.9288017" lon="14.2983417"><ele>42.0</ele><time>2026-03-25T14:39:06.129Z</time></trkpt><trkpt lat="40.9286917" lon="14.2983567"><ele>42.0</ele><time>2026-03-25T14:39:08.131Z</time></trkpt><trkpt lat="40.9285867" lon="14.29837"><ele>42.0</ele><time>2026-03-25T14:39:10.129Z</time></trkpt><trkpt lat="40.9284783" lon="14.298385"><ele>42.0</ele><time>2026-03-25T14:39:12.13Z</time></trkpt><trkpt lat="40.9283733" lon="14.2984083"><ele>42.2</ele><time>2026-03-25T14:39:14.129Z</time></trkpt><trkpt lat="40.928275" lon="14.298425"><ele>42.400000000000006</ele><time>2026-03-25T14:39:16.129Z</time></trkpt><trkpt lat="40.92818" lon="14.29844"><ele>42.599999999999994</ele><time>2026-03-25T14:39:18.129Z</time></trkpt><trkpt lat="40.9280867" lon="14.2984567"><ele>42.8</ele><time>2026-03-25T14:39:20.132Z</time></trkpt><trkpt lat="40.928005" lon="14.29848"><ele>43.0</ele><time>2026-03-25T14:39:23.128Z</time></trkpt><trkpt lat="40.9279283" lon="14.2985033"><ele>43.0</ele><time>2026-03-25T14:39:26.129Z</time></trkpt><trkpt lat="40.92786" lon="14.2984917"><ele>43.0</ele><time>2026-03-25T14:39:28.129Z</time></trkpt><trkpt lat="40.9277817" lon="14.2984917"><ele>43.0</ele><time>2026-03-25T14:39:30.13Z</time></trkpt><trkpt lat="40.9277017" lon="14.2985033"><ele>43.0</ele><time>2026-03-25T14:39:32.131Z</time></trkpt><trkpt lat="40.92761" lon="14.2985217"><ele>43.0</ele><time>2026-03-25T14:39:34.131Z</time></trkpt><trkpt lat="40.92751" lon="14.2985317"><ele>43.0</ele><time>2026-03-25T14:39:36.128Z</time></trkpt><trkpt lat="40.92742" lon="14.298545"><ele>43.0</ele><time>2026-03-25T14:39:38.13Z</time></trkpt><trkpt lat="40.92733" lon="14.2985217"><ele>43.0</ele><time>2026-03-25T14:39:40.129Z</time></trkpt><trkpt lat="40.927235" lon="14.2984917"><ele>43.0</ele><time>2026-03-25T14:39:42.129Z</time></trkpt><trkpt lat="40.9271417" lon="14.298515"><ele>43.0</ele><time>2026-03-25T14:39:44.13Z</time></trkpt><trkpt lat="40.9270467" lon="14.298555"><ele>43.0</ele><time>2026-03-25T14:39:46.13Z</time></trkpt><trkpt lat="40.926945" lon="14.29856"><ele>43.0</ele><time>2026-03-25T14:39:48.13Z</time></trkpt><trkpt lat="40.926835" lon="14.298565"><ele>43.0</ele><time>2026-03-25T14:39:50.129Z</time></trkpt><trkpt lat="40.9267333" lon="14.2985867"><ele>43.0</ele><time>2026-03-25T14:39:52.129Z</time></trkpt><trkpt lat="40.9266267" lon="14.29859"><ele>43.0</ele><time>2026-03-25T14:39:54.129Z</time></trkpt><trkpt lat="40.9265233" lon="14.2985933"><ele>43.0</ele><time>2026-03-25T14:39:56.129Z</time></trkpt><trkpt lat="40.9264317" lon="14.2986017"><ele>43.28571428571429</ele><time>2026-03-25T14:39:58.129Z</time></trkpt><trkpt lat="40.92635" lon="14.2986083"><ele>43.57142857142857</ele><time>2026-03-25T14:40:00.129Z</time></trkpt><trkpt lat="40.92628" lon="14.2986167"><ele>43.85714285714286</ele><time>2026-03-25T14:40:02.129Z</time></trkpt><trkpt lat="40.9262083" lon="14.2986267"><ele>44.142857142857146</ele><time>2026-03-25T14:40:04.129Z</time></trkpt><trkpt lat="40.9261183" lon="14.2986167"><ele>44.42857142857143</ele><time>2026-03-25T14:40:07.131Z</time></trkpt><trkpt lat="40.926055" lon="14.2986133"><ele>44.714285714285715</ele><time>2026-03-25T14:40:09.131Z</time></trkpt><trkpt lat="40.9259917" lon="14.2986117"><ele>45.0</ele><time>2026-03-25T14:40:11.129Z</time></trkpt><trkpt lat="40.9259183" lon="14.2986067"><ele>45.4</ele><time>2026-03-25T14:40:13.13Z</time></trkpt><trkpt lat="40.9258233" lon="14.2986033"><ele>45.8</ele><time>2026-03-25T14:40:15.129Z</time></trkpt><trkpt lat="40.92573" lon="14.2985983"><ele>46.2</ele><time>2026-03-25T14:40:17.129Z</time></trkpt><trkpt lat="40.9256367" lon="14.298585"><ele>46.6</ele><time>2026-03-25T14:40:19.129Z</time></trkpt><trkpt lat="40.9255367" lon="14.2985583"><ele>47.0</ele><time>2026-03-25T14:40:21.128Z</time></trkpt><trkpt lat="40.9254367" lon="14.29853"><ele>47.0</ele><time>2026-03-25T14:40:23.13Z</time></trkpt><trkpt lat="40.9253417" lon="14.2984933"><ele>47.0</ele><time>2026-03-25T14:40:25.129Z</time></trkpt><trkpt lat="40.9252433" lon="14.298445"><ele>47.0</ele><time>2026-03-25T14:40:27.129Z</time></trkpt><trkpt lat="40.925145" lon="14.298385"><ele>47.0</ele><time>2026-03-25T14:40:29.13Z</time></trkpt><trkpt lat="40.925055" lon="14.298325"><ele>47.0</ele><time>2026-03-25T14:40:31.13Z</time></trkpt><trkpt lat="40.924975" lon="14.2982617"><ele>46.8</ele><time>2026-03-25T14:40:33.128Z</time></trkpt><trkpt lat="40.9249" lon="14.2981967"><ele>46.6</ele><time>2026-03-25T14:40:35.13Z</time></trkpt><trkpt lat="40.9248267" lon="14.29812"><ele>46.4</ele><time>2026-03-25T14:40:37.129Z</time></trkpt><trkpt lat="40.92476" lon="14.298035"><ele>46.199999999999996</ele><time>2026-03-25T14:40:39.131Z</time></trkpt><trkpt lat="40.9246967" lon="14.2979533"><ele>46.0</ele><time>2026-03-25T14:40:41.129Z</time></trkpt><trkpt lat="40.924635" lon="14.2978633"><ele>46.0</ele><time>2026-03-25T14:40:43.129Z</time></trkpt><trkpt lat="40.9245717" lon="14.2977733"><ele>46.0</ele><time>2026-03-25T14:40:45.133Z</time></trkpt><trkpt lat="40.92451" lon="14.2976733"><ele>46.0</ele><time>2026-03-25T14:40:47.129Z</time></trkpt><trkpt lat="40.9244517" lon="14.297565"><ele>46.0</ele><time>2026-03-25T14:40:49.131Z</time></trkpt><trkpt lat="40.9243933" lon="14.29746"><ele>46.0</ele><time>2026-03-25T14:40:51.129Z</time></trkpt><trkpt lat="40.9243317" lon="14.2973583"><ele>46.199999999999996</ele><time>2026-03-25T14:40:53.128Z</time></trkpt><trkpt lat="40.9242733" lon="14.29725"><ele>46.4</ele><time>2026-03-25T14:40:55.13Z</time></trkpt><trkpt lat="40.9242167" lon="14.2971483"><ele>46.6</ele><time>2026-03-25T14:40:57.13Z</time></trkpt><trkpt lat="40.9241667" lon="14.297055"><ele>46.8</ele><time>2026-03-25T14:40:59.129Z</time></trkpt><trkpt lat="40.9241133" lon="14.2969583"><ele>47.0</ele><time>2026-03-25T14:41:01.13Z</time></trkpt><trkpt lat="40.9240567" lon="14.2968567"><ele>47.0</ele><time>2026-03-25T14:41:03.129Z</time></trkpt><trkpt lat="40.923995" lon="14.2967533"><ele>47.0</ele><time>2026-03-25T14:41:05.129Z</time></trkpt><trkpt lat="40.923935" lon="14.296655"><ele>47.0</ele><time>2026-03-25T14:41:07.129Z</time></trkpt><trkpt lat="40.9238817" lon="14.2965583"><ele>47.0</ele><time>2026-03-25T14:41:09.129Z</time></trkpt><trkpt lat="40.9238417" lon="14.29648"><ele>47.0</ele><time>2026-03-25T14:41:11.129Z</time></trkpt><trkpt lat="40.9237933" lon="14.296395"><ele>47.0</ele><time>2026-03-25T14:41:13.13Z</time></trkpt><trkpt lat="40.9237483" lon="14.2963017"><ele>47.0</ele><time>2026-03-25T14:41:15.129Z</time></trkpt><trkpt lat="40.9237017" lon="14.2962233"><ele>47.0</ele><time>2026-03-25T14:41:17.13Z</time></trkpt><trkpt lat="40.9236383" lon="14.296145"><ele>47.0</ele><time>2026-03-25T14:41:19.129Z</time></trkpt><trkpt lat="40.9235883" lon="14.2960583"><ele>47.0</ele><time>2026-03-25T14:41:21.13Z</time></trkpt><trkpt lat="40.9235433" lon="14.29595"><ele>47.0</ele><time>2026-03-25T14:41:23.129Z</time></trkpt><trkpt lat="40.9234817" lon="14.2958533"><ele>47.0</ele><time>2026-03-25T14:41:25.13Z</time></trkpt><trkpt lat="40.9234183" lon="14.295755"><ele>47.2</ele><time>2026-03-25T14:41:27.13Z</time></trkpt><trkpt lat="40.9233617" lon="14.29565"><ele>47.400000000000006</ele><time>2026-03-25T14:41:29.129Z</time></trkpt><trkpt lat="40.9233067" lon="14.2955467"><ele>47.599999999999994</ele><time>2026-03-25T14:41:31.129Z</time></trkpt><trkpt lat="40.92325" lon="14.29544"><ele>47.8</ele><time>2026-03-25T14:41:33.13Z</time></trkpt><trkpt lat="40.9231967" lon="14.29534"><ele>48.0</ele><time>2026-03-25T14:41:35.131Z</time></trkpt><trkpt lat="40.92314" lon="14.2952317"><ele>48.4</ele><time>2026-03-25T14:41:37.13Z</time></trkpt><trkpt lat="40.9230783" lon="14.2951283"><ele>48.8</ele><time>2026-03-25T14:41:39.131Z</time></trkpt><trkpt lat="40.92302" lon="14.2950267"><ele>49.2</ele><time>2026-03-25T14:41:41.13Z</time></trkpt><trkpt lat="40.9229533" lon="14.2949367"><ele>49.6</ele><time>2026-03-25T14:41:43.131Z</time></trkpt><trkpt lat="40.922895" lon="14.2948367"><ele>50.0</ele><time>2026-03-25T14:41:45.128Z</time></trkpt><trkpt lat="40.922835" lon="14.2947383"><ele>50.2</ele><time>2026-03-25T14:41:47.13Z</time></trkpt><trkpt lat="40.9227733" lon="14.2946467"><ele>50.4</ele><time>2026-03-25T14:41:49.13Z</time></trkpt><trkpt lat="40.9226983" lon="14.2945667"><ele>50.599999999999994</ele><time>2026-03-25T14:41:51.129Z</time></trkpt><trkpt lat="40.9226183" lon="14.294495"><ele>50.8</ele><time>2026-03-25T14:41:53.13Z</time></trkpt><trkpt lat="40.9225317" lon="14.2944383"><ele>51.0</ele><time>2026-03-25T14:41:55.131Z</time></trkpt><trkpt lat="40.922435" lon="14.29439"><ele>51.0</ele><time>2026-03-25T14:41:57.13Z</time></trkpt><trkpt lat="40.9223317" lon="14.2943483"><ele>51.0</ele><time>2026-03-25T14:41:59.13Z</time></trkpt><trkpt lat="40.9222317" lon="14.2943067"><ele>51.0</ele><time>2026-03-25T14:42:01.129Z</time></trkpt><trkpt lat="40.9221367" lon="14.29427"><ele>51.0</ele><time>2026-03-25T14:42:03.129Z</time></trkpt><trkpt lat="40.9220383" lon="14.29423"><ele>51.0</ele><time>2026-03-25T14:42:05.129Z</time></trkpt><trkpt lat="40.9219433" lon="14.2941933"><ele>51.0</ele><time>2026-03-25T14:42:07.13Z</time></trkpt><trkpt lat="40.9218483" lon="14.2941583"><ele>51.0</ele><time>2026-03-25T14:42:09.128Z</time></trkpt><trkpt lat="40.9217567" lon="14.2941267"><ele>51.0</ele><time>2026-03-25T14:42:11.129Z</time></trkpt><trkpt lat="40.9216683" lon="14.2940833"><ele>51.0</ele><time>2026-03-25T14:42:13.13Z</time></trkpt><trkpt lat="40.9215783" lon="14.2940367"><ele>51.0</ele><time>2026-03-25T14:42:15.129Z</time></trkpt><trkpt lat="40.92149" lon="14.294"><ele>51.199999999999996</ele><time>2026-03-25T14:42:17.129Z</time></trkpt><trkpt lat="40.9213983" lon="14.2939683"><ele>51.4</ele><time>2026-03-25T14:42:19.131Z</time></trkpt><trkpt lat="40.9213067" lon="14.2939283"><ele>51.6</ele><time>2026-03-25T14:42:21.129Z</time></trkpt><trkpt lat="40.9212133" lon="14.2938883"><ele>51.8</ele><time>2026-03-25T14:42:23.13Z</time></trkpt><trkpt lat="40.9211217" lon="14.2938467"><ele>52.0</ele><time>2026-03-25T14:42:25.131Z</time></trkpt><trkpt lat="40.9210317" lon="14.2937983"><ele>51.99999999999999</ele><time>2026-03-25T14:42:27.129Z</time></trkpt><trkpt lat="40.9209433" lon="14.293745"><ele>52.0</ele><time>2026-03-25T14:42:29.13Z</time></trkpt><trkpt lat="40.920855" lon="14.29368"><ele>52.0</ele><time>2026-03-25T14:42:31.13Z</time></trkpt><trkpt lat="40.9207817" lon="14.29362"><ele>52.0</ele><time>2026-03-25T14:42:33.13Z</time></trkpt><trkpt lat="40.920715" lon="14.2935517"><ele>51.99999999999999</ele><time>2026-03-25T14:42:35.129Z</time></trkpt><trkpt lat="40.9206467" lon="14.2934967"><ele>52.0</ele><time>2026-03-25T14:42:37.128Z</time></trkpt><trkpt lat="40.92057" lon="14.2934383"><ele>52.2</ele><time>2026-03-25T14:42:39.128Z</time></trkpt><trkpt lat="40.9204933" lon="14.293375"><ele>52.400000000000006</ele><time>2026-03-25T14:42:41.129Z</time></trkpt><trkpt lat="40.92042" lon="14.29331"><ele>52.599999999999994</ele><time>2026-03-25T14:42:43.13Z</time></trkpt><trkpt lat="40.92034" lon="14.2932517"><ele>52.8</ele><time>2026-03-25T14:42:45.129Z</time></trkpt><trkpt lat="40.9202717" lon="14.2931717"><ele>53.0</ele><time>2026-03-25T14:42:47.133Z</time></trkpt><trkpt lat="40.9202183" lon="14.2930717"><ele>53.00000000000001</ele><time>2026-03-25T14:42:49.129Z</time></trkpt><trkpt lat="40.9201567" lon="14.2929817"><ele>53.0</ele><time>2026-03-25T14:42:51.13Z</time></trkpt><trkpt lat="40.9200833" lon="14.29293"><ele>53.0</ele><time>2026-03-25T14:42:53.129Z</time></trkpt><trkpt lat="40.920015" lon="14.2928517"><ele>53.0</ele><time>2026-03-25T14:42:55.13Z</time></trkpt><trkpt lat="40.9199483" lon="14.29277"><ele>53.00000000000001</ele><time>2026-03-25T14:42:57.129Z</time></trkpt><trkpt lat="40.9198833" lon="14.2926883"><ele>53.0</ele><time>2026-03-25T14:42:59.128Z</time></trkpt><trkpt lat="40.9198117" lon="14.2926183"><ele>53.0</ele><time>2026-03-25T14:43:01.129Z</time></trkpt><trkpt lat="40.9197333" lon="14.2925433"><ele>53.0</ele><time>2026-03-25T14:43:03.129Z</time></trkpt><trkpt lat="40.919655" lon="14.2924767"><ele>53.0</ele><time>2026-03-25T14:43:05.128Z</time></trkpt><trkpt lat="40.9195717" lon="14.292425"><ele>53.0</ele><time>2026-03-25T14:43:07.131Z</time></trkpt><trkpt lat="40.91949" lon="14.2923767"><ele>53.0</ele><time>2026-03-25T14:43:09.13Z</time></trkpt><trkpt lat="40.9194167" lon="14.292335"><ele>53.0</ele><time>2026-03-25T14:43:11.13Z</time></trkpt><trkpt lat="40.9193433" lon="14.292315"><ele>53.0</ele><time>2026-03-25T14:43:13.133Z</time></trkpt><trkpt lat="40.91927" lon="14.292295"><ele>53.0</ele><time>2026-03-25T14:43:15.13Z</time></trkpt><trkpt lat="40.9192" lon="14.2922717"><ele>53.0</ele><time>2026-03-25T14:43:17.129Z</time></trkpt><trkpt lat="40.9191317" lon="14.2922433"><ele>53.0</ele><time>2026-03-25T14:43:19.129Z</time></trkpt><trkpt lat="40.9190633" lon="14.2922217"><ele>53.0</ele><time>2026-03-25T14:43:21.129Z</time></trkpt><trkpt lat="40.9189917" lon="14.2922"><ele>53.0</ele><time>2026-03-25T14:43:23.129Z</time></trkpt><trkpt lat="40.918915" lon="14.2921767"><ele>53.4</ele><time>2026-03-25T14:43:25.13Z</time></trkpt><trkpt lat="40.9188317" lon="14.2921483"><ele>53.8</ele><time>2026-03-25T14:43:27.13Z</time></trkpt><trkpt lat="40.91875" lon="14.2921117"><ele>54.2</ele><time>2026-03-25T14:43:29.131Z</time></trkpt><trkpt lat="40.9186583" lon="14.2920767"><ele>54.6</ele><time>2026-03-25T14:43:31.13Z</time></trkpt><trkpt lat="40.9185633" lon="14.29204"><ele>55.0</ele><time>2026-03-25T14:43:33.129Z</time></trkpt><trkpt lat="40.91848" lon="14.2920017"><ele>55.0</ele><time>2026-03-25T14:43:35.129Z</time></trkpt><trkpt lat="40.9183933" lon="14.29197"><ele>55.0</ele><time>2026-03-25T14:43:37.13Z</time></trkpt><trkpt lat="40.9183117" lon="14.29193"><ele>55.0</ele><time>2026-03-25T14:43:39.13Z</time></trkpt><trkpt lat="40.91822" lon="14.2918867"><ele>55.0</ele><time>2026-03-25T14:43:41.13Z</time></trkpt><trkpt lat="40.91813" lon="14.2918433"><ele>55.0</ele><time>2026-03-25T14:43:43.13Z</time></trkpt><trkpt lat="40.918035" lon="14.29179"><ele>55.0</ele><time>2026-03-25T14:43:45.132Z</time></trkpt><trkpt lat="40.9179467" lon="14.2917333"><ele>55.0</ele><time>2026-03-25T14:43:47.129Z</time></trkpt><trkpt lat="40.917855" lon="14.2916733"><ele>55.0</ele><time>2026-03-25T14:43:49.131Z</time></trkpt><trkpt lat="40.917765" lon="14.2916167"><ele>55.0</ele><time>2026-03-25T14:43:51.13Z</time></trkpt><trkpt lat="40.9176783" lon="14.291555"><ele>55.0</ele><time>2026-03-25T14:43:53.13Z</time></trkpt><trkpt lat="40.9175883" lon="14.2914933"><ele>55.4</ele><time>2026-03-25T14:43:55.13Z</time></trkpt><trkpt lat="40.9174983" lon="14.2914417"><ele>55.8</ele><time>2026-03-25T14:43:57.129Z</time></trkpt><trkpt lat="40.9174067" lon="14.2913867"><ele>56.2</ele><time>2026-03-25T14:43:59.13Z</time></trkpt><trkpt lat="40.9173133" lon="14.2913283"><ele>56.6</ele><time>2026-03-25T14:44:01.13Z</time></trkpt><trkpt lat="40.9172183" lon="14.2912733"><ele>57.0</ele><time>2026-03-25T14:44:03.132Z</time></trkpt><trkpt lat="40.917125" lon="14.2912183"><ele>57.0</ele><time>2026-03-25T14:44:05.13Z</time></trkpt><trkpt lat="40.917035" lon="14.29115"><ele>57.0</ele><time>2026-03-25T14:44:07.133Z</time></trkpt><trkpt lat="40.91694" lon="14.29109"><ele>57.0</ele><time>2026-03-25T14:44:09.13Z</time></trkpt><trkpt lat="40.916845" lon="14.2910333"><ele>57.0</ele><time>2026-03-25T14:44:11.131Z</time></trkpt><trkpt lat="40.9167567" lon="14.2909833"><ele>57.0</ele><time>2026-03-25T14:44:13.13Z</time></trkpt><trkpt lat="40.91667" lon="14.2909367"><ele>57.0</ele><time>2026-03-25T14:44:15.129Z</time></trkpt><trkpt lat="40.9165833" lon="14.29089"><ele>57.0</ele><time>2026-03-25T14:44:17.128Z</time></trkpt><trkpt lat="40.9164933" lon="14.2908317"><ele>57.0</ele><time>2026-03-25T14:44:19.129Z</time></trkpt><trkpt lat="40.9164033" lon="14.2907867"><ele>57.0</ele><time>2026-03-25T14:44:21.13Z</time></trkpt><trkpt lat="40.9163083" lon="14.2907417"><ele>57.0</ele><time>2026-03-25T14:44:23.129Z</time></trkpt><trkpt lat="40.916215" lon="14.290685"><ele>57.0</ele><time>2026-03-25T14:44:25.13Z</time></trkpt><trkpt lat="40.9161267" lon="14.2906317"><ele>57.0</ele><time>2026-03-25T14:44:27.129Z</time></trkpt><trkpt lat="40.9160283" lon="14.2905967"><ele>57.0</ele><time>2026-03-25T14:44:29.13Z</time></trkpt><trkpt lat="40.9159333" lon="14.290565"><ele>57.0</ele><time>2026-03-25T14:44:31.133Z</time></trkpt><trkpt lat="40.9158333" lon="14.2905433"><ele>57.0</ele><time>2026-03-25T14:44:33.129Z</time></trkpt><trkpt lat="40.915735" lon="14.2905283"><ele>57.400000000000006</ele><time>2026-03-25T14:44:35.13Z</time></trkpt><trkpt lat="40.9156333" lon="14.29052"><ele>57.800000000000004</ele><time>2026-03-25T14:44:37.129Z</time></trkpt><trkpt lat="40.915535" lon="14.2905167"><ele>58.2</ele><time>2026-03-25T14:44:39.129Z</time></trkpt><trkpt lat="40.91543" lon="14.2905233"><ele>58.6</ele><time>2026-03-25T14:44:41.13Z</time></trkpt><trkpt lat="40.9153317" lon="14.2905317"><ele>59.0</ele><time>2026-03-25T14:44:43.137Z</time></trkpt><trkpt lat="40.915235" lon="14.2905367"><ele>59.0</ele><time>2026-03-25T14:44:45.13Z</time></trkpt><trkpt lat="40.9151333" lon="14.2905467"><ele>59.00000000000001</ele><time>2026-03-25T14:44:47.13Z</time></trkpt><trkpt lat="40.9150317" lon="14.2905667"><ele>59.00000000000001</ele><time>2026-03-25T14:44:49.129Z</time></trkpt><trkpt lat="40.91493" lon="14.2905667"><ele>59.0</ele><time>2026-03-25T14:44:51.13Z</time></trkpt><trkpt lat="40.9148317" lon="14.2905633"><ele>59.0</ele><time>2026-03-25T14:44:53.129Z</time></trkpt><trkpt lat="40.914725" lon="14.2905683"><ele>59.2</ele><time>2026-03-25T14:44:55.13Z</time></trkpt><trkpt lat="40.9146167" lon="14.29058"><ele>59.400000000000006</ele><time>2026-03-25T14:44:57.13Z</time></trkpt><trkpt lat="40.9145083" lon="14.2905833"><ele>59.6</ele><time>2026-03-25T14:44:59.13Z</time></trkpt><trkpt lat="40.9144" lon="14.2905833"><ele>59.8</ele><time>2026-03-25T14:45:01.13Z</time></trkpt><trkpt lat="40.9142917" lon="14.2905817"><ele>60.0</ele><time>2026-03-25T14:45:03.133Z</time></trkpt><trkpt lat="40.9141817" lon="14.2905683"><ele>60.4</ele><time>2026-03-25T14:45:05.13Z</time></trkpt><trkpt lat="40.9140783" lon="14.2905467"><ele>60.8</ele><time>2026-03-25T14:45:07.129Z</time></trkpt><trkpt lat="40.913975" lon="14.2905167"><ele>61.2</ele><time>2026-03-25T14:45:09.129Z</time></trkpt><trkpt lat="40.9138717" lon="14.2904933"><ele>61.6</ele><time>2026-03-25T14:45:11.13Z</time></trkpt><trkpt lat="40.9137667" lon="14.29047"><ele>62.0</ele><time>2026-03-25T14:45:13.132Z</time></trkpt><trkpt lat="40.913655" lon="14.2904367"><ele>62.0</ele><time>2026-03-25T14:45:15.13Z</time></trkpt><trkpt lat="40.9135517" lon="14.2903967"><ele>62.0</ele><time>2026-03-25T14:45:17.13Z</time></trkpt><trkpt lat="40.91345" lon="14.2903533"><ele>62.0</ele><time>2026-03-25T14:45:19.13Z</time></trkpt><trkpt lat="40.9133483" lon="14.290315"><ele>62.0</ele><time>2026-03-25T14:45:21.128Z</time></trkpt><trkpt lat="40.9132483" lon="14.29026"><ele>62.0</ele><time>2026-03-25T14:45:23.13Z</time></trkpt><trkpt lat="40.9131517" lon="14.2902033"><ele>62.2</ele><time>2026-03-25T14:45:25.131Z</time></trkpt><trkpt lat="40.9130517" lon="14.2901433"><ele>62.400000000000006</ele><time>2026-03-25T14:45:27.129Z</time></trkpt><trkpt lat="40.91296" lon="14.2900867"><ele>62.599999999999994</ele><time>2026-03-25T14:45:29.131Z</time></trkpt><trkpt lat="40.91287" lon="14.2900333"><ele>62.8</ele><time>2026-03-25T14:45:31.13Z</time></trkpt><trkpt lat="40.9127817" lon="14.289975"><ele>63.0</ele><time>2026-03-25T14:45:33.129Z</time></trkpt><trkpt lat="40.91269" lon="14.28991"><ele>63.0</ele><time>2026-03-25T14:45:35.129Z</time></trkpt><trkpt lat="40.9126033" lon="14.2898283"><ele>63.0</ele><time>2026-03-25T14:45:37.13Z</time></trkpt><trkpt lat="40.912515" lon="14.2897383"><ele>63.0</ele><time>2026-03-25T14:45:39.13Z</time></trkpt><trkpt lat="40.9124283" lon="14.2896533"><ele>63.0</ele><time>2026-03-25T14:45:41.13Z</time></trkpt><trkpt lat="40.91234" lon="14.289575"><ele>63.0</ele><time>2026-03-25T14:45:43.13Z</time></trkpt><trkpt lat="40.9122467" lon="14.2895"><ele>63.0</ele><time>2026-03-25T14:45:45.13Z</time></trkpt><trkpt lat="40.9121583" lon="14.2894333"><ele>63.0</ele><time>2026-03-25T14:45:47.129Z</time></trkpt><trkpt lat="40.91207" lon="14.2893617"><ele>63.0</ele><time>2026-03-25T14:45:49.13Z</time></trkpt><trkpt lat="40.9119767" lon="14.28929"><ele>63.0</ele><time>2026-03-25T14:45:51.13Z</time></trkpt><trkpt lat="40.9118917" lon="14.2892317"><ele>63.0</ele><time>2026-03-25T14:45:53.129Z</time></trkpt><trkpt lat="40.911825" lon="14.2891767"><ele>63.0</ele><time>2026-03-25T14:45:55.13Z</time></trkpt><trkpt lat="40.9117633" lon="14.2891333"><ele>63.0</ele><time>2026-03-25T14:45:57.129Z</time></trkpt><trkpt lat="40.9116933" lon="14.2890817"><ele>63.0</ele><time>2026-03-25T14:45:59.131Z</time></trkpt><trkpt lat="40.9116267" lon="14.2890267"><ele>63.0</ele><time>2026-03-25T14:46:01.13Z</time></trkpt><trkpt lat="40.91156" lon="14.2889783"><ele>63.0</ele><time>2026-03-25T14:46:03.13Z</time></trkpt><trkpt lat="40.91149" lon="14.28892"><ele>63.0</ele><time>2026-03-25T14:46:05.131Z</time></trkpt><trkpt lat="40.9114367" lon="14.2888583"><ele>63.0</ele><time>2026-03-25T14:46:07.13Z</time></trkpt><trkpt lat="40.91138" lon="14.2887967"><ele>63.0</ele><time>2026-03-25T14:46:09.129Z</time></trkpt><trkpt lat="40.9113183" lon="14.288735"><ele>63.0</ele><time>2026-03-25T14:46:11.129Z</time></trkpt><trkpt lat="40.911255" lon="14.288675"><ele>63.0</ele><time>2026-03-25T14:46:13.13Z</time></trkpt><trkpt lat="40.91119" lon="14.2886133"><ele>63.0</ele><time>2026-03-25T14:46:15.131Z</time></trkpt><trkpt lat="40.91113" lon="14.288555"><ele>63.0</ele><time>2026-03-25T14:46:17.129Z</time></trkpt><trkpt lat="40.9110667" lon="14.2884967"><ele>63.0</ele><time>2026-03-25T14:46:19.13Z</time></trkpt><trkpt lat="40.910995" lon="14.2884417"><ele>63.0</ele><time>2026-03-25T14:46:21.129Z</time></trkpt><trkpt lat="40.9109267" lon="14.28839"><ele>63.0</ele><time>2026-03-25T14:46:23.129Z</time></trkpt><trkpt lat="40.9108483" lon="14.2883283"><ele>63.0</ele><time>2026-03-25T14:46:25.128Z</time></trkpt><trkpt lat="40.91078" lon="14.2882733"><ele>63.0</ele><time>2026-03-25T14:46:27.129Z</time></trkpt><trkpt lat="40.9107083" lon="14.2882117"><ele>63.0</ele><time>2026-03-25T14:46:29.128Z</time></trkpt><trkpt lat="40.9106333" lon="14.288145"><ele>63.0</ele><time>2026-03-25T14:46:31.128Z</time></trkpt><trkpt lat="40.91056" lon="14.2880933"><ele>63.0</ele><time>2026-03-25T14:46:33.128Z</time></trkpt><trkpt lat="40.9104883" lon="14.2880333"><ele>63.0</ele><time>2026-03-25T14:46:35.129Z</time></trkpt><trkpt lat="40.9104167" lon="14.28798"><ele>63.0</ele><time>2026-03-25T14:46:37.129Z</time></trkpt><trkpt lat="40.9103467" lon="14.2879333"><ele>63.0</ele><time>2026-03-25T14:46:39.129Z</time></trkpt><trkpt lat="40.9102767" lon="14.2878817"><ele>63.0</ele><time>2026-03-25T14:46:41.13Z</time></trkpt><trkpt lat="40.910205" lon="14.2878183"><ele>63.0</ele><time>2026-03-25T14:46:43.129Z</time></trkpt><trkpt lat="40.910135" lon="14.287765"><ele>63.0</ele><time>2026-03-25T14:46:45.129Z</time></trkpt><trkpt lat="40.9100633" lon="14.2877067"><ele>63.0</ele><time>2026-03-25T14:46:47.131Z</time></trkpt><trkpt lat="40.91" lon="14.287655"><ele>63.0</ele><time>2026-03-25T14:46:49.129Z</time></trkpt><trkpt lat="40.90994" lon="14.28761"><ele>63.0</ele><time>2026-03-25T14:46:51.131Z</time></trkpt><trkpt lat="40.9098817" lon="14.2875633"><ele>63.0</ele><time>2026-03-25T14:46:53.129Z</time></trkpt><trkpt lat="40.9098183" lon="14.2874967"><ele>63.833333333333336</ele><time>2026-03-25T14:46:55.129Z</time></trkpt><trkpt lat="40.9097533" lon="14.2874433"><ele>64.66666666666667</ele><time>2026-03-25T14:46:57.128Z</time></trkpt><trkpt lat="40.909685" lon="14.2873883"><ele>65.5</ele><time>2026-03-25T14:46:59.132Z</time></trkpt><trkpt lat="40.9096233" lon="14.2873333"><ele>66.33333333333334</ele><time>2026-03-25T14:47:01.131Z</time></trkpt><trkpt lat="40.9095633" lon="14.2872733"><ele>67.16666666666667</ele><time>2026-03-25T14:47:03.131Z</time></trkpt><trkpt lat="40.9095017" lon="14.2872133"><ele>68.0</ele><time>2026-03-25T14:47:05.129Z</time></trkpt><trkpt lat="40.9094383" lon="14.2871617"><ele>68.16666666666667</ele><time>2026-03-25T14:47:07.127Z</time></trkpt><trkpt lat="40.9093683" lon="14.287115"><ele>68.33333333333334</ele><time>2026-03-25T14:47:09.13Z</time></trkpt><trkpt lat="40.9093017" lon="14.2870683"><ele>68.5</ele><time>2026-03-25T14:47:11.129Z</time></trkpt><trkpt lat="40.9092333" lon="14.2870167"><ele>68.66666666666667</ele><time>2026-03-25T14:47:13.129Z</time></trkpt><trkpt lat="40.9091617" lon="14.2869667"><ele>68.83333333333333</ele><time>2026-03-25T14:47:15.13Z</time></trkpt><trkpt lat="40.9090883" lon="14.2869083"><ele>69.0</ele><time>2026-03-25T14:47:17.129Z</time></trkpt><trkpt lat="40.9090217" lon="14.286845"><ele>69.16666666666667</ele><time>2026-03-25T14:47:19.129Z</time></trkpt><trkpt lat="40.9089483" lon="14.2867817"><ele>69.33333333333333</ele><time>2026-03-25T14:47:21.128Z</time></trkpt><trkpt lat="40.9088767" lon="14.2867283"><ele>69.5</ele><time>2026-03-25T14:47:23.13Z</time></trkpt><trkpt lat="40.908805" lon="14.2866733"><ele>69.66666666666666</ele><time>2026-03-25T14:47:25.13Z</time></trkpt><trkpt lat="40.9087333" lon="14.2866133"><ele>69.83333333333333</ele><time>2026-03-25T14:47:27.128Z</time></trkpt><trkpt lat="40.908665" lon="14.2865533"><ele>70.0</ele><time>2026-03-25T14:47:29.128Z</time></trkpt><trkpt lat="40.90859" lon="14.2864917"><ele>70.0</ele><time>2026-03-25T14:47:31.13Z</time></trkpt><trkpt lat="40.9085267" lon="14.286435"><ele>70.0</ele><time>2026-03-25T14:47:33.13Z</time></trkpt><trkpt lat="40.9084517" lon="14.286375"><ele>70.0</ele><time>2026-03-25T14:47:35.129Z</time></trkpt><trkpt lat="40.9083683" lon="14.2862983"><ele>70.0</ele><time>2026-03-25T14:47:37.129Z</time></trkpt><trkpt lat="40.9082983" lon="14.28623"><ele>70.0</ele><time>2026-03-25T14:47:39.129Z</time></trkpt><trkpt lat="40.9082317" lon="14.2861683"><ele>70.0</ele><time>2026-03-25T14:47:41.129Z</time></trkpt><trkpt lat="40.9081617" lon="14.2861083"><ele>69.83333333333333</ele><time>2026-03-25T14:47:43.129Z</time></trkpt><trkpt lat="40.90809" lon="14.28605"><ele>69.66666666666666</ele><time>2026-03-25T14:47:45.129Z</time></trkpt><trkpt lat="40.9080217" lon="14.2859967"><ele>69.5</ele><time>2026-03-25T14:47:47.129Z</time></trkpt><trkpt lat="40.907945" lon="14.2859333"><ele>69.33333333333333</ele><time>2026-03-25T14:47:49.129Z</time></trkpt><trkpt lat="40.907875" lon="14.28587"><ele>69.16666666666667</ele><time>2026-03-25T14:47:51.128Z</time></trkpt><trkpt lat="40.9077967" lon="14.2858"><ele>69.0</ele><time>2026-03-25T14:47:53.129Z</time></trkpt><trkpt lat="40.9077283" lon="14.2857383"><ele>69.0</ele><time>2026-03-25T14:47:55.128Z</time></trkpt><trkpt lat="40.9076517" lon="14.2856783"><ele>69.0</ele><time>2026-03-25T14:47:57.129Z</time></trkpt><trkpt lat="40.9075783" lon="14.2856183"><ele>69.0</ele><time>2026-03-25T14:47:59.129Z</time></trkpt><trkpt lat="40.9075033" lon="14.2855567"><ele>69.0</ele><time>2026-03-25T14:48:01.129Z</time></trkpt><trkpt lat="40.907425" lon="14.28549"><ele>69.0</ele><time>2026-03-25T14:48:03.129Z</time></trkpt><trkpt lat="40.90735" lon="14.2854267"><ele>69.0</ele><time>2026-03-25T14:48:05.128Z</time></trkpt><trkpt lat="40.9072733" lon="14.28537"><ele>69.83333333333333</ele><time>2026-03-25T14:48:07.128Z</time></trkpt><trkpt lat="40.907195" lon="14.2853083"><ele>70.66666666666667</ele><time>2026-03-25T14:48:09.129Z</time></trkpt><trkpt lat="40.9071183" lon="14.28525"><ele>71.5</ele><time>2026-03-25T14:48:11.129Z</time></trkpt><trkpt lat="40.90704" lon="14.2851883"><ele>72.33333333333334</ele><time>2026-03-25T14:48:13.129Z</time></trkpt><trkpt lat="40.9069683" lon="14.2851283"><ele>73.16666666666667</ele><time>2026-03-25T14:48:15.128Z</time></trkpt><trkpt lat="40.9068983" lon="14.2850683"><ele>74.0</ele><time>2026-03-25T14:48:17.129Z</time></trkpt><trkpt lat="40.90684" lon="14.2850217"><ele>74.0</ele><time>2026-03-25T14:48:19.128Z</time></trkpt><trkpt lat="40.9067817" lon="14.28499"><ele>74.0</ele><time>2026-03-25T14:48:21.128Z</time></trkpt><trkpt lat="40.906725" lon="14.2849533"><ele>74.0</ele><time>2026-03-25T14:48:23.131Z</time></trkpt><trkpt lat="40.9066617" lon="14.284915"><ele>74.0</ele><time>2026-03-25T14:48:25.13Z</time></trkpt><trkpt lat="40.9065833" lon="14.2848883"><ele>74.0</ele><time>2026-03-25T14:48:27.13Z</time></trkpt><trkpt lat="40.9064983" lon="14.2848617"><ele>74.0</ele><time>2026-03-25T14:48:29.13Z</time></trkpt><trkpt lat="40.9064183" lon="14.2848283"><ele>74.0</ele><time>2026-03-25T14:48:31.13Z</time></trkpt><trkpt lat="40.90634" lon="14.2848033"><ele>74.66666666666667</ele><time>2026-03-25T14:48:33.129Z</time></trkpt><trkpt lat="40.9062583" lon="14.2847767"><ele>75.33333333333334</ele><time>2026-03-25T14:48:35.129Z</time></trkpt><trkpt lat="40.9061833" lon="14.2847567"><ele>76.0</ele><time>2026-03-25T14:48:37.129Z</time></trkpt><trkpt lat="40.90611" lon="14.284745"><ele>76.66666666666667</ele><time>2026-03-25T14:48:39.132Z</time></trkpt><trkpt lat="40.9060317" lon="14.2847367"><ele>77.33333333333333</ele><time>2026-03-25T14:48:41.128Z</time></trkpt><trkpt lat="40.9059417" lon="14.2847233"><ele>78.0</ele><time>2026-03-25T14:48:43.133Z</time></trkpt><trkpt lat="40.9058567" lon="14.28472"><ele>78.16666666666667</ele><time>2026-03-25T14:48:45.129Z</time></trkpt><trkpt lat="40.9057717" lon="14.2847233"><ele>78.33333333333333</ele><time>2026-03-25T14:48:47.129Z</time></trkpt><trkpt lat="40.90568" lon="14.2847367"><ele>78.5</ele><time>2026-03-25T14:48:49.13Z</time></trkpt><trkpt lat="40.9055867" lon="14.284755"><ele>78.66666666666666</ele><time>2026-03-25T14:48:51.127Z</time></trkpt><trkpt lat="40.9055083" lon="14.284775"><ele>78.83333333333333</ele><time>2026-03-25T14:48:53.129Z</time></trkpt><trkpt lat="40.9054317" lon="14.284795"><ele>79.0</ele><time>2026-03-25T14:48:55.129Z</time></trkpt><trkpt lat="40.9053517" lon="14.2848"><ele>79.00000000000001</ele><time>2026-03-25T14:48:57.129Z</time></trkpt><trkpt lat="40.9052817" lon="14.28483"><ele>79.0</ele><time>2026-03-25T14:48:59.129Z</time></trkpt><trkpt lat="40.9052017" lon="14.2848583"><ele>79.0</ele><time>2026-03-25T14:49:01.128Z</time></trkpt><trkpt lat="40.9051283" lon="14.2848867"><ele>79.0</ele><time>2026-03-25T14:49:03.129Z</time></trkpt><trkpt lat="40.9050633" lon="14.2849167"><ele>79.0</ele><time>2026-03-25T14:49:05.129Z</time></trkpt><trkpt lat="40.9050017" lon="14.2849367"><ele>79.00000000000001</ele><time>2026-03-25T14:49:07.129Z</time></trkpt><trkpt lat="40.9049333" lon="14.2849333"><ele>79.0</ele><time>2026-03-25T14:49:09.128Z</time></trkpt><trkpt lat="40.90486" lon="14.2849483"><ele>79.0</ele><time>2026-03-25T14:49:12.129Z</time></trkpt><trkpt lat="40.90478" lon="14.28501"><ele>79.0</ele><time>2026-03-25T14:49:15.129Z</time></trkpt><trkpt lat="40.9047083" lon="14.28503"><ele>79.0</ele><time>2026-03-25T14:49:17.128Z</time></trkpt><trkpt lat="40.904625" lon="14.28504"><ele>79.0</ele><time>2026-03-25T14:49:19.13Z</time></trkpt><trkpt lat="40.90453" lon="14.28506"><ele>79.0</ele><time>2026-03-25T14:49:21.13Z</time></trkpt><trkpt lat="40.9044333" lon="14.2850817"><ele>79.0</ele><time>2026-03-25T14:49:23.129Z</time></trkpt><trkpt lat="40.904335" lon="14.2851083"><ele>79.2</ele><time>2026-03-25T14:49:25.129Z</time></trkpt><trkpt lat="40.9042333" lon="14.28513"><ele>79.4</ele><time>2026-03-25T14:49:27.129Z</time></trkpt><trkpt lat="40.9041333" lon="14.2851533"><ele>79.6</ele><time>2026-03-25T14:49:29.129Z</time></trkpt><trkpt lat="40.9040283" lon="14.2851833"><ele>79.8</ele><time>2026-03-25T14:49:31.13Z</time></trkpt><trkpt lat="40.903925" lon="14.2852133"><ele>80.0</ele><time>2026-03-25T14:49:33.129Z</time></trkpt><trkpt lat="40.9038117" lon="14.2852433"><ele>80.0</ele><time>2026-03-25T14:49:35.129Z</time></trkpt><trkpt lat="40.90375" lon="14.28526"><ele>80.0</ele><time>2026-03-25T14:49:36.131Z</time></trkpt><trkpt lat="40.9036867" lon="14.2852733"><ele>80.0</ele><time>2026-03-25T14:49:37.129Z</time></trkpt><trkpt lat="40.90362" lon="14.2852917"><ele>80.0</ele><time>2026-03-25T14:49:38.129Z</time></trkpt><trkpt lat="40.9035483" lon="14.285315"><ele>80.0</ele><time>2026-03-25T14:49:39.128Z</time></trkpt><trkpt lat="40.903475" lon="14.285335"><ele>80.0</ele><time>2026-03-25T14:49:40.129Z</time></trkpt><trkpt lat="40.9034" lon="14.285355"><ele>80.0</ele><time>2026-03-25T14:49:41.129Z</time></trkpt><trkpt lat="40.9033183" lon="14.285365"><ele>80.66666666666667</ele><time>2026-03-25T14:49:42.13Z</time></trkpt><trkpt lat="40.9032367" lon="14.285375"><ele>81.33333333333334</ele><time>2026-03-25T14:49:43.129Z</time></trkpt><trkpt lat="40.9031567" lon="14.2853867"><ele>82.0</ele><time>2026-03-25T14:49:44.129Z</time></trkpt><trkpt lat="40.9030767" lon="14.285405"><ele>82.66666666666667</ele><time>2026-03-25T14:49:45.129Z</time></trkpt><trkpt lat="40.903" lon="14.2854233"><ele>83.33333333333333</ele><time>2026-03-25T14:49:46.129Z</time></trkpt><trkpt lat="40.9029233" lon="14.2854383"><ele>84.0</ele><time>2026-03-25T14:49:47.129Z</time></trkpt><trkpt lat="40.9028433" lon="14.28546"><ele>84.0</ele><time>2026-03-25T14:49:48.129Z</time></trkpt><trkpt lat="40.9027683" lon="14.2854867"><ele>84.0</ele><time>2026-03-25T14:49:49.129Z</time></trkpt><trkpt lat="40.9026933" lon="14.2855083"><ele>84.0</ele><time>2026-03-25T14:49:50.129Z</time></trkpt><trkpt lat="40.9026283" lon="14.2855317"><ele>84.0</ele><time>2026-03-25T14:49:51.129Z</time></trkpt><trkpt lat="40.90256" lon="14.2855583"><ele>84.0</ele><time>2026-03-25T14:49:52.129Z</time></trkpt><trkpt lat="40.90249" lon="14.2855833"><ele>84.0</ele><time>2026-03-25T14:49:53.13Z</time></trkpt><trkpt lat="40.90242" lon="14.2856117"><ele>84.0</ele><time>2026-03-25T14:49:54.129Z</time></trkpt><trkpt lat="40.902355" lon="14.2856333"><ele>84.33333333333333</ele><time>2026-03-25T14:49:55.13Z</time></trkpt><trkpt lat="40.9022833" lon="14.2856517"><ele>84.66666666666667</ele><time>2026-03-25T14:49:56.128Z</time></trkpt><trkpt lat="40.902215" lon="14.285675"><ele>85.0</ele><time>2026-03-25T14:49:57.129Z</time></trkpt><trkpt lat="40.9021483" lon="14.2857033"><ele>85.33333333333334</ele><time>2026-03-25T14:49:58.129Z</time></trkpt><trkpt lat="40.9020867" lon="14.285735"><ele>85.66666666666667</ele><time>2026-03-25T14:49:59.128Z</time></trkpt><trkpt lat="40.9019867" lon="14.28579"><ele>86.0</ele><time>2026-03-25T14:50:01.131Z</time></trkpt><trkpt lat="40.9019167" lon="14.285805"><ele>86.0</ele><time>2026-03-25T14:50:03.129Z</time></trkpt><trkpt lat="40.9018533" lon="14.2858017"><ele>86.0</ele><time>2026-03-25T14:50:05.129Z</time></trkpt><trkpt lat="40.9017583" lon="14.2858133"><ele>86.0</ele><time>2026-03-25T14:50:07.129Z</time></trkpt><trkpt lat="40.901645" lon="14.2858467"><ele>86.0</ele><time>2026-03-25T14:50:09.129Z</time></trkpt><trkpt lat="40.9015167" lon="14.2858583"><ele>86.0</ele><time>2026-03-25T14:50:11.129Z</time></trkpt><trkpt lat="40.9014533" lon="14.2858817"><ele>85.85714285714286</ele><time>2026-03-25T14:50:12.129Z</time></trkpt><trkpt lat="40.9013867" lon="14.285905"><ele>85.71428571428572</ele><time>2026-03-25T14:50:13.129Z</time></trkpt><trkpt lat="40.9013167" lon="14.2859233"><ele>85.57142857142858</ele><time>2026-03-25T14:50:14.129Z</time></trkpt><trkpt lat="40.901245" lon="14.2859383"><ele>85.42857142857143</ele><time>2026-03-25T14:50:15.129Z</time></trkpt><trkpt lat="40.9011767" lon="14.2859533"><ele>85.28571428571428</ele><time>2026-03-25T14:50:16.129Z</time></trkpt><trkpt lat="40.9011083" lon="14.2859633"><ele>85.14285714285715</ele><time>2026-03-25T14:50:17.129Z</time></trkpt><trkpt lat="40.90104" lon="14.285985"><ele>85.0</ele><time>2026-03-25T14:50:18.129Z</time></trkpt><trkpt lat="40.900975" lon="14.2859967"><ele>85.25</ele><time>2026-03-25T14:50:19.13Z</time></trkpt><trkpt lat="40.90086" lon="14.2860317"><ele>85.5</ele><time>2026-03-25T14:50:21.128Z</time></trkpt><trkpt lat="40.9007533" lon="14.2860533"><ele>85.75</ele><time>2026-03-25T14:50:23.129Z</time></trkpt><trkpt lat="40.9006433" lon="14.2860817"><ele>86.0</ele><time>2026-03-25T14:50:25.129Z</time></trkpt><trkpt lat="40.900515" lon="14.286085"><ele>86.00000000000001</ele><time>2026-03-25T14:50:27.128Z</time></trkpt><trkpt lat="40.9004467" lon="14.2860783"><ele>86.0</ele><time>2026-03-25T14:50:28.129Z</time></trkpt><trkpt lat="40.900375" lon="14.2860667"><ele>86.0</ele><time>2026-03-25T14:50:29.129Z</time></trkpt><trkpt lat="40.9003033" lon="14.2860567"><ele>86.0</ele><time>2026-03-25T14:50:30.13Z</time></trkpt><trkpt lat="40.9002367" lon="14.2860517"><ele>86.0</ele><time>2026-03-25T14:50:31.129Z</time></trkpt><trkpt lat="40.9001717" lon="14.28603"><ele>86.00000000000001</ele><time>2026-03-25T14:50:32.129Z</time></trkpt><trkpt lat="40.90011" lon="14.2860083"><ele>86.0</ele><time>2026-03-25T14:50:33.129Z</time></trkpt><trkpt lat="40.9000083" lon="14.28594"><ele>85.66666666666667</ele><time>2026-03-25T14:50:35.13Z</time></trkpt><trkpt lat="40.8999083" lon="14.28587"><ele>85.33333333333334</ele><time>2026-03-25T14:50:37.129Z</time></trkpt><trkpt lat="40.8998383" lon="14.28583"><ele>85.0</ele><time>2026-03-25T14:50:39.129Z</time></trkpt><trkpt lat="40.8997717" lon="14.2858083"><ele>84.66666666666667</ele><time>2026-03-25T14:50:42.128Z</time></trkpt><trkpt lat="40.8996933" lon="14.28576"><ele>84.33333333333333</ele><time>2026-03-25T14:50:45.129Z</time></trkpt><trkpt lat="40.8996083" lon="14.2857233"><ele>84.0</ele><time>2026-03-25T14:50:47.13Z</time></trkpt><trkpt lat="40.8995283" lon="14.2856467"><ele>83.80000000000001</ele><time>2026-03-25T14:50:49.13Z</time></trkpt><trkpt lat="40.899445" lon="14.2855717"><ele>83.60000000000001</ele><time>2026-03-25T14:50:51.129Z</time></trkpt><trkpt lat="40.899355" lon="14.2855167"><ele>83.4</ele><time>2026-03-25T14:50:53.129Z</time></trkpt><trkpt lat="40.8992517" lon="14.28548"><ele>83.2</ele><time>2026-03-25T14:50:55.131Z</time></trkpt><trkpt lat="40.8991567" lon="14.2854167"><ele>83.0</ele><time>2026-03-25T14:50:57.129Z</time></trkpt><trkpt lat="40.8990683" lon="14.2853567"><ele>83.0</ele><time>2026-03-25T14:50:59.129Z</time></trkpt><trkpt lat="40.898985" lon="14.2853"><ele>83.0</ele><time>2026-03-25T14:51:01.13Z</time></trkpt><trkpt lat="40.8988917" lon="14.2852517"><ele>83.0</ele><time>2026-03-25T14:51:03.129Z</time></trkpt><trkpt lat="40.8988" lon="14.2851967"><ele>83.0</ele><time>2026-03-25T14:51:05.13Z</time></trkpt><trkpt lat="40.8987183" lon="14.285115"><ele>83.0</ele><time>2026-03-25T14:51:07.129Z</time></trkpt><trkpt lat="40.8986317" lon="14.2850383"><ele>83.0</ele><time>2026-03-25T14:51:09.129Z</time></trkpt><trkpt lat="40.8985433" lon="14.284955"><ele>83.0</ele><time>2026-03-25T14:51:11.128Z</time></trkpt><trkpt lat="40.8984717" lon="14.28489"><ele>83.0</ele><time>2026-03-25T14:51:13.128Z</time></trkpt><trkpt lat="40.8984267" lon="14.2848267"><ele>83.0</ele><time>2026-03-25T14:51:15.129Z</time></trkpt><trkpt lat="40.898375" lon="14.2847633"><ele>83.0</ele><time>2026-03-25T14:51:17.13Z</time></trkpt><trkpt lat="40.89832" lon="14.2846833"><ele>83.0</ele><time>2026-03-25T14:51:19.129Z</time></trkpt><trkpt lat="40.89826" lon="14.2846017"><ele>82.16666666666667</ele><time>2026-03-25T14:51:21.129Z</time></trkpt><trkpt lat="40.898205" lon="14.284525"><ele>81.33333333333334</ele><time>2026-03-25T14:51:23.129Z</time></trkpt><trkpt lat="40.89815" lon="14.28446"><ele>80.5</ele><time>2026-03-25T14:51:25.129Z</time></trkpt><trkpt lat="40.89809" lon="14.284425"><ele>79.66666666666667</ele><time>2026-03-25T14:51:27.131Z</time></trkpt><trkpt lat="40.8980067" lon="14.2844917"><ele>78.83333333333333</ele><time>2026-03-25T14:51:30.129Z</time></trkpt><trkpt lat="40.8979417" lon="14.2845717"><ele>78.0</ele><time>2026-03-25T14:51:32.128Z</time></trkpt><trkpt lat="40.8978717" lon="14.284655"><ele>78.0</ele><time>2026-03-25T14:51:34.129Z</time></trkpt><trkpt lat="40.8978017" lon="14.2847417"><ele>78.0</ele><time>2026-03-25T14:51:36.129Z</time></trkpt><trkpt lat="40.8977567" lon="14.2848467"><ele>78.0</ele><time>2026-03-25T14:51:38.129Z</time></trkpt><trkpt lat="40.8977083" lon="14.2849433"><ele>78.0</ele><time>2026-03-25T14:51:40.129Z</time></trkpt><trkpt lat="40.8976467" lon="14.2850483"><ele>78.0</ele><time>2026-03-25T14:51:42.132Z</time></trkpt><trkpt lat="40.89758" lon="14.2851567"><ele>78.6</ele><time>2026-03-25T14:51:44.13Z</time></trkpt><trkpt lat="40.8975" lon="14.285265"><ele>79.19999999999999</ele><time>2026-03-25T14:51:46.129Z</time></trkpt><trkpt lat="40.89742" lon="14.2853717"><ele>79.8</ele><time>2026-03-25T14:51:48.129Z</time></trkpt><trkpt lat="40.8973417" lon="14.2854667"><ele>80.39999999999999</ele><time>2026-03-25T14:51:50.129Z</time></trkpt><trkpt lat="40.8972667" lon="14.285555"><ele>81.0</ele><time>2026-03-25T14:51:52.129Z</time></trkpt><trkpt lat="40.8972017" lon="14.285665"><ele>81.19999999999999</ele><time>2026-03-25T14:51:54.13Z</time></trkpt><trkpt lat="40.8971283" lon="14.2857683"><ele>81.39999999999999</ele><time>2026-03-25T14:51:56.128Z</time></trkpt><trkpt lat="40.8970583" lon="14.2858717"><ele>81.6</ele><time>2026-03-25T14:51:58.129Z</time></trkpt><trkpt lat="40.8969833" lon="14.28597"><ele>81.8</ele><time>2026-03-25T14:52:00.129Z</time></trkpt><trkpt lat="40.8969317" lon="14.2860617"><ele>82.0</ele><time>2026-03-25T14:52:02.129Z</time></trkpt><trkpt lat="40.8968717" lon="14.2861567"><ele>82.0</ele><time>2026-03-25T14:52:04.132Z</time></trkpt><trkpt lat="40.8968267" lon="14.2862667"><ele>82.0</ele><time>2026-03-25T14:52:06.129Z</time></trkpt><trkpt lat="40.896775" lon="14.286375"><ele>82.0</ele><time>2026-03-25T14:52:08.128Z</time></trkpt><trkpt lat="40.8967267" lon="14.2864683"><ele>82.0</ele><time>2026-03-25T14:52:10.131Z</time></trkpt><trkpt lat="40.896675" lon="14.28652"><ele>82.0</ele><time>2026-03-25T14:52:12.129Z</time></trkpt><trkpt lat="40.8965917" lon="14.2865217"><ele>82.0</ele><time>2026-03-25T14:52:14.128Z</time></trkpt><trkpt lat="40.8964883" lon="14.2864967"><ele>81.8</ele><time>2026-03-25T14:52:16.129Z</time></trkpt><trkpt lat="40.8963867" lon="14.2864617"><ele>81.6</ele><time>2026-03-25T14:52:18.129Z</time></trkpt><trkpt lat="40.89629" lon="14.28643"><ele>81.39999999999999</ele><time>2026-03-25T14:52:20.13Z</time></trkpt><trkpt lat="40.8961967" lon="14.28639"><ele>81.19999999999999</ele><time>2026-03-25T14:52:22.129Z</time></trkpt><trkpt lat="40.896095" lon="14.286355"><ele>81.0</ele><time>2026-03-25T14:52:24.129Z</time></trkpt><trkpt lat="40.89594" lon="14.286335"><ele>80.39999999999999</ele><time>2026-03-25T14:52:27.129Z</time></trkpt><trkpt lat="40.8958433" lon="14.2863283"><ele>79.8</ele><time>2026-03-25T14:52:29.129Z</time></trkpt><trkpt lat="40.8957367" lon="14.2863017"><ele>79.19999999999999</ele><time>2026-03-25T14:52:31.128Z</time></trkpt><trkpt lat="40.8956233" lon="14.2862817"><ele>78.6</ele><time>2026-03-25T14:52:33.129Z</time></trkpt><trkpt lat="40.895515" lon="14.2862783"><ele>78.0</ele><time>2026-03-25T14:52:35.129Z</time></trkpt><trkpt lat="40.8954067" lon="14.286265"><ele>78.0</ele><time>2026-03-25T14:52:37.129Z</time></trkpt><trkpt lat="40.8953067" lon="14.2862733"><ele>78.0</ele><time>2026-03-25T14:52:39.129Z</time></trkpt><trkpt lat="40.89521" lon="14.2862683"><ele>78.0</ele><time>2026-03-25T14:52:41.128Z</time></trkpt><trkpt lat="40.89512" lon="14.2862567"><ele>78.0</ele><time>2026-03-25T14:52:43.129Z</time></trkpt><trkpt lat="40.8949667" lon="14.28626"><ele>78.0</ele><time>2026-03-25T14:52:46.13Z</time></trkpt><trkpt lat="40.894875" lon="14.2862567"><ele>78.4</ele><time>2026-03-25T14:52:48.131Z</time></trkpt><trkpt lat="40.89477" lon="14.2862433"><ele>78.8</ele><time>2026-03-25T14:52:50.132Z</time></trkpt><trkpt lat="40.8947133" lon="14.2861683"><ele>79.2</ele><time>2026-03-25T14:52:52.131Z</time></trkpt><trkpt lat="40.8946183" lon="14.286155"><ele>79.6</ele><time>2026-03-25T14:52:54.131Z</time></trkpt><trkpt lat="40.8945133" lon="14.2861517"><ele>80.0</ele><time>2026-03-25T14:52:56.131Z</time></trkpt><trkpt lat="40.894425" lon="14.2861317"><ele>80.0</ele><time>2026-03-25T14:52:58.13Z</time></trkpt><trkpt lat="40.8943367" lon="14.286125"><ele>80.0</ele><time>2026-03-25T14:53:00.13Z</time></trkpt><trkpt lat="40.89424" lon="14.286115"><ele>80.0</ele><time>2026-03-25T14:53:02.13Z</time></trkpt><trkpt lat="40.8941467" lon="14.2861067"><ele>80.0</ele><time>2026-03-25T14:53:04.131Z</time></trkpt><trkpt lat="40.8940517" lon="14.286095"><ele>80.0</ele><time>2026-03-25T14:53:06.131Z</time></trkpt><trkpt lat="40.8939683" lon="14.2860867"><ele>80.16666666666667</ele><time>2026-03-25T14:53:08.13Z</time></trkpt><trkpt lat="40.8938933" lon="14.2860783"><ele>80.33333333333334</ele><time>2026-03-25T14:53:10.132Z</time></trkpt><trkpt lat="40.8938183" lon="14.28607"><ele>80.5</ele><time>2026-03-25T14:53:12.131Z</time></trkpt><trkpt lat="40.8937483" lon="14.2860617"><ele>80.66666666666667</ele><time>2026-03-25T14:53:14.13Z</time></trkpt><trkpt lat="40.8936817" lon="14.28606"><ele>80.83333333333333</ele><time>2026-03-25T14:53:16.129Z</time></trkpt><trkpt lat="40.893595" lon="14.2860267"><ele>81.0</ele><time>2026-03-25T14:53:19.132Z</time></trkpt><trkpt lat="40.8935217" lon="14.2859883"><ele>81.0</ele><time>2026-03-25T14:53:22.129Z</time></trkpt><trkpt lat="40.8934833" lon="14.286075"><ele>81.0</ele><time>2026-03-25T14:53:28.131Z</time></trkpt><trkpt lat="40.8934817" lon="14.2861867"><ele>81.0</ele><time>2026-03-25T14:53:31.132Z</time></trkpt><trkpt lat="40.893495" lon="14.286285"><ele>81.0</ele><time>2026-03-25T14:53:33.134Z</time></trkpt><trkpt lat="40.893515" lon="14.286395"><ele>81.0</ele><time>2026-03-25T14:53:35.131Z</time></trkpt><trkpt lat="40.8935367" lon="14.286515"><ele>81.0</ele><time>2026-03-25T14:53:37.132Z</time></trkpt><trkpt lat="40.8935667" lon="14.2866317"><ele>80.8</ele><time>2026-03-25T14:53:39.131Z</time></trkpt><trkpt lat="40.8936083" lon="14.28675"><ele>80.6</ele><time>2026-03-25T14:53:41.13Z</time></trkpt><trkpt lat="40.8936317" lon="14.2868633"><ele>80.4</ele><time>2026-03-25T14:53:43.132Z</time></trkpt><trkpt lat="40.8936583" lon="14.2869733"><ele>80.2</ele><time>2026-03-25T14:53:45.13Z</time></trkpt><trkpt lat="40.89369" lon="14.2870933"><ele>80.0</ele><time>2026-03-25T14:53:47.132Z</time></trkpt><trkpt lat="40.8937233" lon="14.2872067"><ele>80.0</ele><time>2026-03-25T14:53:49.132Z</time></trkpt><trkpt lat="40.89376" lon="14.287325"><ele>80.0</ele><time>2026-03-25T14:53:51.131Z</time></trkpt><trkpt lat="40.8937983" lon="14.28744"><ele>80.0</ele><time>2026-03-25T14:53:53.131Z</time></trkpt><trkpt lat="40.8938333" lon="14.28754"><ele>80.0</ele><time>2026-03-25T14:53:55.135Z</time></trkpt><trkpt lat="40.8938567" lon="14.2876433"><ele>80.0</ele><time>2026-03-25T14:53:58.131Z</time></trkpt><trkpt lat="40.893885" lon="14.2877183"><ele>80.0</ele><time>2026-03-25T14:54:01.131Z</time></trkpt><trkpt lat="40.8938141" lon="14.2878212"><ele>80.0</ele><time>2026-03-25T14:55:57.699Z</time></trkpt></trkseg></trk></gpx>